<?xml version="1.0" encoding="UTF-8" standalone="no" ?>
<gpx xmlns="http://www.topografix.com/GPX/1/1" xmlns:xsi="http://www.w3.org/2001/XMLSchema-instance" xsi:schemaLocation="http://www.topografix.com/GPX/1/1 http://www.topografix.com/GPX/1/1/gpx.xsd" version="1.1" creator="VisuGPX - https://www.visugpx.com">
  <metadata>
    <name>Valence-Nîmes 4: Avignon -&amp;gt; Uzès</name>
  </metadata>
  <trk>
    <name><![CDATA[Valence-Nîmes 4: Avignon -> Uzès]]></name>
    <extensions>
      <line xmlns="http://www.topografix.com/GPX/gpx_style/0/2">
        <color>0000FF</color>
        <width>4</width>
      </line>
    </extensions>
    <trkseg>
      <trkpt lat="43.94769" lon="4.80571">
        <ele>72.139486</ele>
        <time>2025-02-05T09:00:23.335Z</time>
      </trkpt>
      <trkpt lat="43.94777" lon="4.80577">
        <ele>72.139486</ele>
        <time>2025-02-05T09:00:33.298Z</time>
      </trkpt>
      <trkpt lat="43.94786" lon="4.80583">
        <ele>72.139486</ele>
        <time>2025-02-05T09:00:42.341Z</time>
      </trkpt>
      <trkpt lat="43.94795" lon="4.80585">
        <ele>72.139486</ele>
        <time>2025-02-05T09:00:49.325Z</time>
      </trkpt>
      <trkpt lat="43.94803" lon="4.80577">
        <ele>72.139486</ele>
        <time>2025-02-05T09:00:59.325Z</time>
      </trkpt>
      <trkpt lat="43.94808" lon="4.80565">
        <ele>72.139486</ele>
        <time>2025-02-05T09:01:11.327Z</time>
      </trkpt>
      <trkpt lat="43.94816" lon="4.80546">
        <ele>72.139486</ele>
        <time>2025-02-05T09:01:54.335Z</time>
      </trkpt>
      <trkpt lat="43.9482" lon="4.80534">
        <ele>72.139486</ele>
        <time>2025-02-05T09:02:00.320Z</time>
      </trkpt>
      <trkpt lat="43.9482" lon="4.80521">
        <ele>72.139486</ele>
        <time>2025-02-05T09:02:10.321Z</time>
      </trkpt>
      <trkpt lat="43.9482" lon="4.80508">
        <ele>72.055573</ele>
        <time>2025-02-05T09:02:22.301Z</time>
      </trkpt>
      <trkpt lat="43.94822" lon="4.80494">
        <ele>71.789109</ele>
        <time>2025-02-05T09:02:28.313Z</time>
      </trkpt>
      <trkpt lat="43.94829" lon="4.80485">
        <ele>71.528198</ele>
        <time>2025-02-05T09:02:39.299Z</time>
      </trkpt>
      <trkpt lat="43.94838" lon="4.80488">
        <ele>71.278929</ele>
        <time>2025-02-05T09:02:44.313Z</time>
      </trkpt>
      <trkpt lat="43.94848" lon="4.80489">
        <ele>70.978408</ele>
        <time>2025-02-05T09:02:47.317Z</time>
      </trkpt>
      <trkpt lat="43.94859" lon="4.80492">
        <ele>70.68585</ele>
        <time>2025-02-05T09:02:51.319Z</time>
      </trkpt>
      <trkpt lat="43.94868" lon="4.80488">
        <ele>70.40665</ele>
        <time>2025-02-05T09:02:57.313Z</time>
      </trkpt>
      <trkpt lat="43.94872" lon="4.80475">
        <ele>70.139513</ele>
        <time>2025-02-05T09:03:00.314Z</time>
      </trkpt>
      <trkpt lat="43.94874" lon="4.8046">
        <ele>69.824388</ele>
        <time>2025-02-05T09:03:03.317Z</time>
      </trkpt>
      <trkpt lat="43.94878" lon="4.80443">
        <ele>69.464093</ele>
        <time>2025-02-05T09:03:06.320Z</time>
      </trkpt>
      <trkpt lat="43.9488" lon="4.80426">
        <ele>69.131279</ele>
        <time>2025-02-05T09:03:09.325Z</time>
      </trkpt>
      <trkpt lat="43.94882" lon="4.80413">
        <ele>68.861705</ele>
        <time>2025-02-05T09:03:13.333Z</time>
      </trkpt>
      <trkpt lat="43.94892" lon="4.80415">
        <ele>68.599346</ele>
        <time>2025-02-05T09:03:19.305Z</time>
      </trkpt>
      <trkpt lat="43.94899" lon="4.80423">
        <ele>68.348128</ele>
        <time>2025-02-05T09:03:24.322Z</time>
      </trkpt>
      <trkpt lat="43.94909" lon="4.80425">
        <ele>68.052819</ele>
        <time>2025-02-05T09:03:28.319Z</time>
      </trkpt>
      <trkpt lat="43.9492" lon="4.80428">
        <ele>67.755328</ele>
        <time>2025-02-05T09:03:31.350Z</time>
      </trkpt>
      <trkpt lat="43.94931" lon="4.80431">
        <ele>67.456257</ele>
        <time>2025-02-05T09:03:34.326Z</time>
      </trkpt>
      <trkpt lat="43.94943" lon="4.80432">
        <ele>67.135804</ele>
        <time>2025-02-05T09:03:37.341Z</time>
      </trkpt>
      <trkpt lat="43.94955" lon="4.80434">
        <ele>66.974272</ele>
        <time>2025-02-05T09:03:40.329Z</time>
      </trkpt>
      <trkpt lat="43.94968" lon="4.80434">
        <ele>66.805698</ele>
        <time>2025-02-05T09:03:43.339Z</time>
      </trkpt>
      <trkpt lat="43.94981" lon="4.80436">
        <ele>66.641781</ele>
        <time>2025-02-05T09:03:46.297Z</time>
      </trkpt>
      <trkpt lat="43.94992" lon="4.8044">
        <ele>66.487164</ele>
        <time>2025-02-05T09:03:49.351Z</time>
      </trkpt>
      <trkpt lat="43.95003" lon="4.80446">
        <ele>66.338679</ele>
        <time>2025-02-05T09:03:52.316Z</time>
      </trkpt>
      <trkpt lat="43.95014" lon="4.8045">
        <ele>66.190955</ele>
        <time>2025-02-05T09:03:55.326Z</time>
      </trkpt>
      <trkpt lat="43.95024" lon="4.80454">
        <ele>66.058982</ele>
        <time>2025-02-05T09:03:58.321Z</time>
      </trkpt>
      <trkpt lat="43.95035" lon="4.80459">
        <ele>65.911588</ele>
        <time>2025-02-05T09:04:02.302Z</time>
      </trkpt>
      <trkpt lat="43.95045" lon="4.80458">
        <ele>65.775761</ele>
        <time>2025-02-05T09:04:07.306Z</time>
      </trkpt>
      <trkpt lat="43.9505" lon="4.80444">
        <ele>65.635939</ele>
        <time>2025-02-05T09:04:11.310Z</time>
      </trkpt>
      <trkpt lat="43.95051" lon="4.80431">
        <ele>65.518636</ele>
        <time>2025-02-05T09:04:14.312Z</time>
      </trkpt>
      <trkpt lat="43.95052" lon="4.80419">
        <ele>65.399875</ele>
        <time>2025-02-05T09:04:17.324Z</time>
      </trkpt>
      <trkpt lat="43.95056" lon="4.80406">
        <ele>65.272302</ele>
        <time>2025-02-05T09:04:20.336Z</time>
      </trkpt>
      <trkpt lat="43.95061" lon="4.80391">
        <ele>65.114951</ele>
        <time>2025-02-05T09:04:24.303Z</time>
      </trkpt>
      <trkpt lat="43.95067" lon="4.80377">
        <ele>64.964665</ele>
        <time>2025-02-05T09:04:27.321Z</time>
      </trkpt>
      <trkpt lat="43.95073" lon="4.80365">
        <ele>64.835214</ele>
        <time>2025-02-05T09:04:30.350Z</time>
      </trkpt>
      <trkpt lat="43.95081" lon="4.80353">
        <ele>65.064122</ele>
        <time>2025-02-05T09:04:34.339Z</time>
      </trkpt>
      <trkpt lat="43.95086" lon="4.80339">
        <ele>65.285202</ele>
        <time>2025-02-05T09:04:37.314Z</time>
      </trkpt>
      <trkpt lat="43.95093" lon="4.80327">
        <ele>65.489091</ele>
        <time>2025-02-05T09:04:40.328Z</time>
      </trkpt>
      <trkpt lat="43.95098" lon="4.80316">
        <ele>65.672563</ele>
        <time>2025-02-05T09:04:43.308Z</time>
      </trkpt>
      <trkpt lat="43.95095" lon="4.80304">
        <ele>65.854682</ele>
        <time>2025-02-05T09:04:46.309Z</time>
      </trkpt>
      <trkpt lat="43.95087" lon="4.80297">
        <ele>66.040519</ele>
        <time>2025-02-05T09:04:49.321Z</time>
      </trkpt>
      <trkpt lat="43.95078" lon="4.80293">
        <ele>66.221343</ele>
        <time>2025-02-05T09:04:52.328Z</time>
      </trkpt>
      <trkpt lat="43.9507" lon="4.80285">
        <ele>66.407748</ele>
        <time>2025-02-05T09:04:55.311Z</time>
      </trkpt>
      <trkpt lat="43.95062" lon="4.80278">
        <ele>66.591769</ele>
        <time>2025-02-05T09:04:58.331Z</time>
      </trkpt>
      <trkpt lat="43.95054" lon="4.80272">
        <ele>66.778946</ele>
        <time>2025-02-05T09:05:01.321Z</time>
      </trkpt>
      <trkpt lat="43.95043" lon="4.80267">
        <ele>66.99227</ele>
        <time>2025-02-05T09:05:05.319Z</time>
      </trkpt>
      <trkpt lat="43.95035" lon="4.80262">
        <ele>67.17698</ele>
        <time>2025-02-05T09:05:09.339Z</time>
      </trkpt>
      <trkpt lat="43.95035" lon="4.80249">
        <ele>67.357168</ele>
        <time>2025-02-05T09:05:14.335Z</time>
      </trkpt>
      <trkpt lat="43.95045" lon="4.80245">
        <ele>67.560367</ele>
        <time>2025-02-05T09:05:20.338Z</time>
      </trkpt>
      <trkpt lat="43.95054" lon="4.80247">
        <ele>67.734475</ele>
        <time>2025-02-05T09:05:25.312Z</time>
      </trkpt>
      <trkpt lat="43.95063" lon="4.80252">
        <ele>67.9272</ele>
        <time>2025-02-05T09:05:29.319Z</time>
      </trkpt>
      <trkpt lat="43.95073" lon="4.80247">
        <ele>68.1328</ele>
        <time>2025-02-05T09:05:35.314Z</time>
      </trkpt>
      <trkpt lat="43.95081" lon="4.80238">
        <ele>68.33851</ele>
        <time>2025-02-05T09:05:39.306Z</time>
      </trkpt>
      <trkpt lat="43.95089" lon="4.80228">
        <ele>68.757047</ele>
        <time>2025-02-05T09:05:43.332Z</time>
      </trkpt>
      <trkpt lat="43.95091" lon="4.80215">
        <ele>69.163021</ele>
        <time>2025-02-05T09:05:47.324Z</time>
      </trkpt>
      <trkpt lat="43.95094" lon="4.80202">
        <ele>69.561761</ele>
        <time>2025-02-05T09:05:51.304Z</time>
      </trkpt>
      <trkpt lat="43.95098" lon="4.80189">
        <ele>69.964644</ele>
        <time>2025-02-05T09:05:55.321Z</time>
      </trkpt>
      <trkpt lat="43.95101" lon="4.80176">
        <ele>70.371692</ele>
        <time>2025-02-05T09:05:59.329Z</time>
      </trkpt>
      <trkpt lat="43.95105" lon="4.80164">
        <ele>70.760838</ele>
        <time>2025-02-05T09:06:03.336Z</time>
      </trkpt>
      <trkpt lat="43.95109" lon="4.80151">
        <ele>71.176584</ele>
        <time>2025-02-05T09:06:07.328Z</time>
      </trkpt>
      <trkpt lat="43.95112" lon="4.80139">
        <ele>71.568068</ele>
        <time>2025-02-05T09:06:11.348Z</time>
      </trkpt>
      <trkpt lat="43.95115" lon="4.80126">
        <ele>71.970013</ele>
        <time>2025-02-05T09:06:15.336Z</time>
      </trkpt>
      <trkpt lat="43.95119" lon="4.80112">
        <ele>72.395122</ele>
        <time>2025-02-05T09:06:19.323Z</time>
      </trkpt>
      <trkpt lat="43.95123" lon="4.80099">
        <ele>72.808159</ele>
        <time>2025-02-05T09:06:23.314Z</time>
      </trkpt>
      <trkpt lat="43.95127" lon="4.80087">
        <ele>73.206097</ele>
        <time>2025-02-05T09:06:27.335Z</time>
      </trkpt>
      <trkpt lat="43.95131" lon="4.80074">
        <ele>73.599251</ele>
        <time>2025-02-05T09:06:31.325Z</time>
      </trkpt>
      <trkpt lat="43.95135" lon="4.80063">
        <ele>73.967683</ele>
        <time>2025-02-05T09:06:35.339Z</time>
      </trkpt>
      <trkpt lat="43.95138" lon="4.8005">
        <ele>74.387143</ele>
        <time>2025-02-05T09:06:39.320Z</time>
      </trkpt>
      <trkpt lat="43.95142" lon="4.80036">
        <ele>74.820457</ele>
        <time>2025-02-05T09:06:43.325Z</time>
      </trkpt>
      <trkpt lat="43.95146" lon="4.80022">
        <ele>75.242834</ele>
        <time>2025-02-05T09:06:47.343Z</time>
      </trkpt>
      <trkpt lat="43.9515" lon="4.80008">
        <ele>75.633836</ele>
        <time>2025-02-05T09:06:51.321Z</time>
      </trkpt>
      <trkpt lat="43.95154" lon="4.79995">
        <ele>75.468231</ele>
        <time>2025-02-05T09:06:55.320Z</time>
      </trkpt>
      <trkpt lat="43.95158" lon="4.79981">
        <ele>75.307615</ele>
        <time>2025-02-05T09:06:59.323Z</time>
      </trkpt>
      <trkpt lat="43.95162" lon="4.79967">
        <ele>75.134428</ele>
        <time>2025-02-05T09:07:03.337Z</time>
      </trkpt>
      <trkpt lat="43.95165" lon="4.79955">
        <ele>74.994168</ele>
        <time>2025-02-05T09:07:06.338Z</time>
      </trkpt>
      <trkpt lat="43.95169" lon="4.79942">
        <ele>74.84133</ele>
        <time>2025-02-05T09:07:09.310Z</time>
      </trkpt>
      <trkpt lat="43.95173" lon="4.79929">
        <ele>74.685861</ele>
        <time>2025-02-05T09:07:12.356Z</time>
      </trkpt>
      <trkpt lat="43.95177" lon="4.79915">
        <ele>74.515163</ele>
        <time>2025-02-05T09:07:15.330Z</time>
      </trkpt>
      <trkpt lat="43.95181" lon="4.799">
        <ele>74.343138</ele>
        <time>2025-02-05T09:07:18.333Z</time>
      </trkpt>
      <trkpt lat="43.95185" lon="4.79885">
        <ele>74.162884</ele>
        <time>2025-02-05T09:07:21.337Z</time>
      </trkpt>
      <trkpt lat="43.95189" lon="4.7987">
        <ele>73.9799</ele>
        <time>2025-02-05T09:07:24.309Z</time>
      </trkpt>
      <trkpt lat="43.95194" lon="4.79853">
        <ele>73.77539</ele>
        <time>2025-02-05T09:07:27.330Z</time>
      </trkpt>
      <trkpt lat="43.95197" lon="4.79841">
        <ele>73.637246</ele>
        <time>2025-02-05T09:07:29.319Z</time>
      </trkpt>
      <trkpt lat="43.95201" lon="4.79829">
        <ele>73.494807</ele>
        <time>2025-02-05T09:07:31.337Z</time>
      </trkpt>
      <trkpt lat="43.95205" lon="4.79817">
        <ele>73.352946</ele>
        <time>2025-02-05T09:07:33.335Z</time>
      </trkpt>
      <trkpt lat="43.95208" lon="4.79805">
        <ele>73.206258</ele>
        <time>2025-02-05T09:07:35.326Z</time>
      </trkpt>
      <trkpt lat="43.95212" lon="4.79793">
        <ele>73.057079</ele>
        <time>2025-02-05T09:07:37.335Z</time>
      </trkpt>
      <trkpt lat="43.95216" lon="4.7978">
        <ele>72.901025</ele>
        <time>2025-02-05T09:07:39.318Z</time>
      </trkpt>
      <trkpt lat="43.95219" lon="4.79766">
        <ele>72.765183</ele>
        <time>2025-02-05T09:07:41.335Z</time>
      </trkpt>
      <trkpt lat="43.95224" lon="4.79754">
        <ele>72.633213</ele>
        <time>2025-02-05T09:07:43.330Z</time>
      </trkpt>
      <trkpt lat="43.95228" lon="4.79741">
        <ele>72.504344</ele>
        <time>2025-02-05T09:07:45.323Z</time>
      </trkpt>
      <trkpt lat="43.95232" lon="4.79728">
        <ele>72.371547</ele>
        <time>2025-02-05T09:07:47.310Z</time>
      </trkpt>
      <trkpt lat="43.95237" lon="4.79716">
        <ele>72.236744</ele>
        <time>2025-02-05T09:07:49.310Z</time>
      </trkpt>
      <trkpt lat="43.95242" lon="4.79704">
        <ele>72.109097</ele>
        <time>2025-02-05T09:07:51.330Z</time>
      </trkpt>
      <trkpt lat="43.95252" lon="4.79694">
        <ele>71.951185</ele>
        <time>2025-02-05T09:07:54.324Z</time>
      </trkpt>
      <trkpt lat="43.95257" lon="4.79678">
        <ele>71.78259</ele>
        <time>2025-02-05T09:07:57.319Z</time>
      </trkpt>
      <trkpt lat="43.95261" lon="4.79661">
        <ele>71.617517</ele>
        <time>2025-02-05T09:08:00.334Z</time>
      </trkpt>
      <trkpt lat="43.95265" lon="4.79645">
        <ele>71.457406</ele>
        <time>2025-02-05T09:08:03.325Z</time>
      </trkpt>
      <trkpt lat="43.95263" lon="4.79628">
        <ele>71.295947</ele>
        <time>2025-02-05T09:08:06.305Z</time>
      </trkpt>
      <trkpt lat="43.95267" lon="4.79612">
        <ele>71.143637</ele>
        <time>2025-02-05T09:08:09.322Z</time>
      </trkpt>
      <trkpt lat="43.95271" lon="4.79597">
        <ele>70.997078</ele>
        <time>2025-02-05T09:08:12.325Z</time>
      </trkpt>
      <trkpt lat="43.95274" lon="4.79583">
        <ele>70.852752</ele>
        <time>2025-02-05T09:08:15.340Z</time>
      </trkpt>
      <trkpt lat="43.9528" lon="4.79569">
        <ele>70.70209</ele>
        <time>2025-02-05T09:08:18.326Z</time>
      </trkpt>
      <trkpt lat="43.95285" lon="4.79555">
        <ele>70.563093</ele>
        <time>2025-02-05T09:08:21.324Z</time>
      </trkpt>
      <trkpt lat="43.9529" lon="4.79542">
        <ele>70.723297</ele>
        <time>2025-02-05T09:08:24.350Z</time>
      </trkpt>
      <trkpt lat="43.95295" lon="4.79529">
        <ele>70.948413</ele>
        <time>2025-02-05T09:08:27.332Z</time>
      </trkpt>
      <trkpt lat="43.953" lon="4.79517">
        <ele>71.169463</ele>
        <time>2025-02-05T09:08:30.315Z</time>
      </trkpt>
      <trkpt lat="43.95304" lon="4.79504">
        <ele>71.388829</ele>
        <time>2025-02-05T09:08:33.332Z</time>
      </trkpt>
      <trkpt lat="43.95309" lon="4.79492">
        <ele>71.605103</ele>
        <time>2025-02-05T09:08:36.344Z</time>
      </trkpt>
      <trkpt lat="43.95315" lon="4.7948">
        <ele>71.821412</ele>
        <time>2025-02-05T09:08:39.323Z</time>
      </trkpt>
      <trkpt lat="43.95319" lon="4.79468">
        <ele>72.031851</ele>
        <time>2025-02-05T09:08:42.336Z</time>
      </trkpt>
      <trkpt lat="43.95323" lon="4.79456">
        <ele>72.239283</ele>
        <time>2025-02-05T09:08:45.325Z</time>
      </trkpt>
      <trkpt lat="43.95328" lon="4.79443">
        <ele>72.45394</ele>
        <time>2025-02-05T09:08:48.326Z</time>
      </trkpt>
      <trkpt lat="43.95332" lon="4.79432">
        <ele>72.657991</ele>
        <time>2025-02-05T09:08:51.322Z</time>
      </trkpt>
      <trkpt lat="43.95336" lon="4.7942">
        <ele>72.862859</ele>
        <time>2025-02-05T09:08:54.326Z</time>
      </trkpt>
      <trkpt lat="43.95342" lon="4.79405">
        <ele>73.118241</ele>
        <time>2025-02-05T09:08:58.349Z</time>
      </trkpt>
      <trkpt lat="43.95347" lon="4.79391">
        <ele>73.364121</ele>
        <time>2025-02-05T09:09:02.329Z</time>
      </trkpt>
      <trkpt lat="43.95353" lon="4.79377">
        <ele>73.62086</ele>
        <time>2025-02-05T09:09:06.334Z</time>
      </trkpt>
      <trkpt lat="43.95358" lon="4.79366">
        <ele>73.817505</ele>
        <time>2025-02-05T09:09:09.328Z</time>
      </trkpt>
      <trkpt lat="43.95362" lon="4.79354">
        <ele>74.014493</ele>
        <time>2025-02-05T09:09:12.324Z</time>
      </trkpt>
      <trkpt lat="43.95367" lon="4.7934">
        <ele>74.268851</ele>
        <time>2025-02-05T09:09:16.338Z</time>
      </trkpt>
      <trkpt lat="43.95371" lon="4.79328">
        <ele>74.308919</ele>
        <time>2025-02-05T09:09:19.312Z</time>
      </trkpt>
      <trkpt lat="43.95376" lon="4.79316">
        <ele>74.041245</ele>
        <time>2025-02-05T09:09:22.334Z</time>
      </trkpt>
      <trkpt lat="43.9538" lon="4.79304">
        <ele>73.761969</ele>
        <time>2025-02-05T09:09:25.322Z</time>
      </trkpt>
      <trkpt lat="43.95385" lon="4.79291">
        <ele>73.476145</ele>
        <time>2025-02-05T09:09:28.318Z</time>
      </trkpt>
      <trkpt lat="43.95391" lon="4.79278">
        <ele>73.178423</ele>
        <time>2025-02-05T09:09:31.339Z</time>
      </trkpt>
      <trkpt lat="43.95396" lon="4.79264">
        <ele>72.871414</ele>
        <time>2025-02-05T09:09:34.334Z</time>
      </trkpt>
      <trkpt lat="43.954" lon="4.79249">
        <ele>72.542167</ele>
        <time>2025-02-05T09:09:37.332Z</time>
      </trkpt>
      <trkpt lat="43.95406" lon="4.79234">
        <ele>72.205237</ele>
        <time>2025-02-05T09:09:40.331Z</time>
      </trkpt>
      <trkpt lat="43.95412" lon="4.79218">
        <ele>71.85089</ele>
        <time>2025-02-05T09:09:43.323Z</time>
      </trkpt>
      <trkpt lat="43.9542" lon="4.79207">
        <ele>71.545829</ele>
        <time>2025-02-05T09:09:46.320Z</time>
      </trkpt>
      <trkpt lat="43.95428" lon="4.79203">
        <ele>71.296254</ele>
        <time>2025-02-05T09:09:49.324Z</time>
      </trkpt>
      <trkpt lat="43.95438" lon="4.79198">
        <ele>71.001334</ele>
        <time>2025-02-05T09:09:52.316Z</time>
      </trkpt>
      <trkpt lat="43.95448" lon="4.79196">
        <ele>70.743356</ele>
        <time>2025-02-05T09:09:55.358Z</time>
      </trkpt>
      <trkpt lat="43.95448" lon="4.7921">
        <ele>70.467577</ele>
        <time>2025-02-05T09:09:58.334Z</time>
      </trkpt>
      <trkpt lat="43.95443" lon="4.79221">
        <ele>70.209522</ele>
        <time>2025-02-05T09:10:00.319Z</time>
      </trkpt>
      <trkpt lat="43.95436" lon="4.79234">
        <ele>69.88754</ele>
        <time>2025-02-05T09:10:03.330Z</time>
      </trkpt>
      <trkpt lat="43.95426" lon="4.79241">
        <ele>69.585691</ele>
        <time>2025-02-05T09:10:07.313Z</time>
      </trkpt>
      <trkpt lat="43.95418" lon="4.79233">
        <ele>69.454179</ele>
        <time>2025-02-05T09:10:10.332Z</time>
      </trkpt>
      <trkpt lat="43.9541" lon="4.79224">
        <ele>69.484452</ele>
        <time>2025-02-05T09:10:13.323Z</time>
      </trkpt>
      <trkpt lat="43.95401" lon="4.79214">
        <ele>69.51969</ele>
        <time>2025-02-05T09:10:16.336Z</time>
      </trkpt>
      <trkpt lat="43.95394" lon="4.79203">
        <ele>69.550666</ele>
        <time>2025-02-05T09:10:19.321Z</time>
      </trkpt>
      <trkpt lat="43.95388" lon="4.79192">
        <ele>69.580054</ele>
        <time>2025-02-05T09:10:22.335Z</time>
      </trkpt>
      <trkpt lat="43.9538" lon="4.79179">
        <ele>69.615832</ele>
        <time>2025-02-05T09:10:25.328Z</time>
      </trkpt>
      <trkpt lat="43.95378" lon="4.79164">
        <ele>69.646428</ele>
        <time>2025-02-05T09:10:28.333Z</time>
      </trkpt>
      <trkpt lat="43.95385" lon="4.79155">
        <ele>69.674012</ele>
        <time>2025-02-05T09:10:31.326Z</time>
      </trkpt>
      <trkpt lat="43.95396" lon="4.79156">
        <ele>69.705436</ele>
        <time>2025-02-05T09:10:36.324Z</time>
      </trkpt>
      <trkpt lat="43.95405" lon="4.7916">
        <ele>69.734297</ele>
        <time>2025-02-05T09:10:41.329Z</time>
      </trkpt>
      <trkpt lat="43.95412" lon="4.7915">
        <ele>69.764</ele>
        <time>2025-02-05T09:10:49.327Z</time>
      </trkpt>
      <trkpt lat="43.95406" lon="4.7914">
        <ele>69.791335</ele>
        <time>2025-02-05T09:10:54.338Z</time>
      </trkpt>
      <trkpt lat="43.95405" lon="4.79127">
        <ele>69.817925</ele>
        <time>2025-02-05T09:10:59.326Z</time>
      </trkpt>
      <trkpt lat="43.95401" lon="4.79114">
        <ele>69.848593</ele>
        <time>2025-02-05T09:11:04.329Z</time>
      </trkpt>
      <trkpt lat="43.954" lon="4.79101">
        <ele>69.875458</ele>
        <time>2025-02-05T09:11:09.318Z</time>
      </trkpt>
      <trkpt lat="43.95391" lon="4.79097">
        <ele>69.904832</ele>
        <time>2025-02-05T09:11:14.326Z</time>
      </trkpt>
      <trkpt lat="43.95381" lon="4.79093">
        <ele>69.934608</ele>
        <time>2025-02-05T09:11:19.321Z</time>
      </trkpt>
      <trkpt lat="43.95372" lon="4.79091">
        <ele>69.962756</ele>
        <time>2025-02-05T09:11:23.328Z</time>
      </trkpt>
      <trkpt lat="43.95361" lon="4.79086">
        <ele>69.870896</ele>
        <time>2025-02-05T09:11:27.329Z</time>
      </trkpt>
      <trkpt lat="43.95351" lon="4.79082">
        <ele>69.748951</ele>
        <time>2025-02-05T09:11:31.325Z</time>
      </trkpt>
      <trkpt lat="43.95341" lon="4.79078">
        <ele>69.635101</ele>
        <time>2025-02-05T09:11:35.314Z</time>
      </trkpt>
      <trkpt lat="43.9533" lon="4.79075">
        <ele>69.513721</ele>
        <time>2025-02-05T09:11:39.325Z</time>
      </trkpt>
      <trkpt lat="43.9532" lon="4.79069">
        <ele>69.39135</ele>
        <time>2025-02-05T09:11:44.319Z</time>
      </trkpt>
      <trkpt lat="43.95306" lon="4.79065">
        <ele>69.233726</ele>
        <time>2025-02-05T09:12:58.328Z</time>
      </trkpt>
      <trkpt lat="43.95295" lon="4.7906">
        <ele>69.104254</ele>
        <time>2025-02-05T09:13:02.322Z</time>
      </trkpt>
      <trkpt lat="43.95285" lon="4.79055">
        <ele>68.984351</ele>
        <time>2025-02-05T09:13:05.328Z</time>
      </trkpt>
      <trkpt lat="43.95274" lon="4.7905">
        <ele>68.855447</ele>
        <time>2025-02-05T09:13:08.346Z</time>
      </trkpt>
      <trkpt lat="43.95261" lon="4.79047">
        <ele>68.705111</ele>
        <time>2025-02-05T09:13:11.290Z</time>
      </trkpt>
      <trkpt lat="43.95248" lon="4.79047">
        <ele>68.558842</ele>
        <time>2025-02-05T09:13:14.304Z</time>
      </trkpt>
      <trkpt lat="43.95235" lon="4.79046">
        <ele>68.410137</ele>
        <time>2025-02-05T09:13:17.306Z</time>
      </trkpt>
      <trkpt lat="43.95223" lon="4.7904">
        <ele>68.270703</ele>
        <time>2025-02-05T09:13:20.317Z</time>
      </trkpt>
      <trkpt lat="43.95212" lon="4.79032">
        <ele>68.133269</ele>
        <time>2025-02-05T09:13:23.310Z</time>
      </trkpt>
      <trkpt lat="43.95199" lon="4.79026">
        <ele>67.983583</ele>
        <time>2025-02-05T09:13:26.316Z</time>
      </trkpt>
      <trkpt lat="43.95187" lon="4.79022">
        <ele>67.891676</ele>
        <time>2025-02-05T09:13:29.317Z</time>
      </trkpt>
      <trkpt lat="43.95178" lon="4.79019">
        <ele>67.829899</ele>
        <time>2025-02-05T09:13:31.312Z</time>
      </trkpt>
      <trkpt lat="43.95169" lon="4.79015">
        <ele>67.76516</ele>
        <time>2025-02-05T09:13:33.327Z</time>
      </trkpt>
      <trkpt lat="43.95159" lon="4.7901">
        <ele>67.69632</ele>
        <time>2025-02-05T09:13:35.316Z</time>
      </trkpt>
      <trkpt lat="43.9515" lon="4.79005">
        <ele>67.627677</ele>
        <time>2025-02-05T09:13:37.317Z</time>
      </trkpt>
      <trkpt lat="43.9514" lon="4.78999">
        <ele>67.556564</ele>
        <time>2025-02-05T09:13:39.320Z</time>
      </trkpt>
      <trkpt lat="43.9513" lon="4.78994">
        <ele>67.487045</ele>
        <time>2025-02-05T09:13:41.316Z</time>
      </trkpt>
      <trkpt lat="43.9512" lon="4.78988">
        <ele>67.416185</ele>
        <time>2025-02-05T09:13:43.299Z</time>
      </trkpt>
      <trkpt lat="43.9511" lon="4.78982">
        <ele>67.342549</ele>
        <time>2025-02-05T09:13:45.291Z</time>
      </trkpt>
      <trkpt lat="43.95101" lon="4.78974">
        <ele>67.271403</ele>
        <time>2025-02-05T09:13:47.319Z</time>
      </trkpt>
      <trkpt lat="43.95092" lon="4.78967">
        <ele>67.204346</ele>
        <time>2025-02-05T09:13:49.298Z</time>
      </trkpt>
      <trkpt lat="43.95084" lon="4.78961">
        <ele>67.139501</ele>
        <time>2025-02-05T09:13:51.319Z</time>
      </trkpt>
      <trkpt lat="43.95075" lon="4.78954">
        <ele>67.072571</ele>
        <time>2025-02-05T09:13:53.317Z</time>
      </trkpt>
      <trkpt lat="43.95067" lon="4.78948">
        <ele>67.007624</ele>
        <time>2025-02-05T09:13:55.312Z</time>
      </trkpt>
      <trkpt lat="43.9506" lon="4.78939">
        <ele>66.944332</ele>
        <time>2025-02-05T09:13:57.315Z</time>
      </trkpt>
      <trkpt lat="43.95053" lon="4.78924">
        <ele>66.860865</ele>
        <time>2025-02-05T09:14:00.300Z</time>
      </trkpt>
      <trkpt lat="43.95051" lon="4.78911">
        <ele>66.800233</ele>
        <time>2025-02-05T09:14:02.332Z</time>
      </trkpt>
      <trkpt lat="43.95048" lon="4.78895">
        <ele>66.742392</ele>
        <time>2025-02-05T09:14:05.319Z</time>
      </trkpt>
      <trkpt lat="43.95046" lon="4.7888">
        <ele>66.704994</ele>
        <time>2025-02-05T09:14:08.314Z</time>
      </trkpt>
      <trkpt lat="43.95043" lon="4.78864">
        <ele>66.667838</ele>
        <time>2025-02-05T09:14:11.305Z</time>
      </trkpt>
      <trkpt lat="43.95038" lon="4.78848">
        <ele>66.627504</ele>
        <time>2025-02-05T09:14:14.339Z</time>
      </trkpt>
      <trkpt lat="43.95035" lon="4.7883">
        <ele>66.584265</ele>
        <time>2025-02-05T09:14:17.337Z</time>
      </trkpt>
      <trkpt lat="43.95032" lon="4.78817">
        <ele>66.552936</ele>
        <time>2025-02-05T09:14:19.330Z</time>
      </trkpt>
      <trkpt lat="43.95029" lon="4.78804">
        <ele>66.519999</ele>
        <time>2025-02-05T09:14:21.328Z</time>
      </trkpt>
      <trkpt lat="43.95026" lon="4.78791">
        <ele>66.486787</ele>
        <time>2025-02-05T09:14:23.331Z</time>
      </trkpt>
      <trkpt lat="43.95022" lon="4.78776">
        <ele>66.451666</ele>
        <time>2025-02-05T09:14:25.325Z</time>
      </trkpt>
      <trkpt lat="43.95019" lon="4.78762">
        <ele>66.415437</ele>
        <time>2025-02-05T09:14:27.340Z</time>
      </trkpt>
      <trkpt lat="43.95016" lon="4.78747">
        <ele>66.380477</ele>
        <time>2025-02-05T09:14:29.330Z</time>
      </trkpt>
      <trkpt lat="43.95014" lon="4.78733">
        <ele>66.34767</ele>
        <time>2025-02-05T09:14:31.336Z</time>
      </trkpt>
      <trkpt lat="43.95013" lon="4.7872">
        <ele>66.31636</ele>
        <time>2025-02-05T09:14:33.312Z</time>
      </trkpt>
      <trkpt lat="43.95013" lon="4.78707">
        <ele>66.286268</ele>
        <time>2025-02-05T09:14:35.323Z</time>
      </trkpt>
      <trkpt lat="43.95014" lon="4.78695">
        <ele>66.256938</ele>
        <time>2025-02-05T09:14:37.332Z</time>
      </trkpt>
      <trkpt lat="43.95015" lon="4.78678">
        <ele>66.218526</ele>
        <time>2025-02-05T09:14:40.325Z</time>
      </trkpt>
      <trkpt lat="43.95016" lon="4.7866">
        <ele>66.175391</ele>
        <time>2025-02-05T09:14:43.326Z</time>
      </trkpt>
      <trkpt lat="43.95018" lon="4.78644">
        <ele>66.119736</ele>
        <time>2025-02-05T09:14:46.323Z</time>
      </trkpt>
      <trkpt lat="43.95019" lon="4.78629">
        <ele>66.066462</ele>
        <time>2025-02-05T09:14:49.305Z</time>
      </trkpt>
      <trkpt lat="43.95021" lon="4.78613">
        <ele>66.010807</ele>
        <time>2025-02-05T09:14:52.309Z</time>
      </trkpt>
      <trkpt lat="43.95023" lon="4.78598">
        <ele>65.959413</ele>
        <time>2025-02-05T09:14:55.343Z</time>
      </trkpt>
      <trkpt lat="43.95025" lon="4.78585">
        <ele>65.912452</ele>
        <time>2025-02-05T09:14:58.329Z</time>
      </trkpt>
      <trkpt lat="43.95027" lon="4.78572">
        <ele>65.866269</ele>
        <time>2025-02-05T09:15:01.343Z</time>
      </trkpt>
      <trkpt lat="43.95029" lon="4.78556">
        <ele>65.810614</ele>
        <time>2025-02-05T09:15:05.329Z</time>
      </trkpt>
      <trkpt lat="43.95028" lon="4.78544">
        <ele>65.767469</ele>
        <time>2025-02-05T09:15:08.328Z</time>
      </trkpt>
      <trkpt lat="43.95026" lon="4.78529">
        <ele>65.717247</ele>
        <time>2025-02-05T09:15:11.310Z</time>
      </trkpt>
      <trkpt lat="43.95022" lon="4.78513">
        <ele>65.658776</ele>
        <time>2025-02-05T09:15:14.313Z</time>
      </trkpt>
      <trkpt lat="43.95016" lon="4.78498">
        <ele>65.599712</ele>
        <time>2025-02-05T09:15:17.299Z</time>
      </trkpt>
      <trkpt lat="43.95011" lon="4.78482">
        <ele>65.538077</ele>
        <time>2025-02-05T09:15:20.342Z</time>
      </trkpt>
      <trkpt lat="43.95006" lon="4.78465">
        <ele>65.475202</ele>
        <time>2025-02-05T09:15:23.341Z</time>
      </trkpt>
      <trkpt lat="43.94999" lon="4.7845">
        <ele>65.414784</ele>
        <time>2025-02-05T09:15:26.328Z</time>
      </trkpt>
      <trkpt lat="43.94994" lon="4.78439">
        <ele>65.370625</ele>
        <time>2025-02-05T09:15:28.343Z</time>
      </trkpt>
      <trkpt lat="43.94989" lon="4.78428">
        <ele>65.32464</ele>
        <time>2025-02-05T09:15:30.330Z</time>
      </trkpt>
      <trkpt lat="43.94986" lon="4.78415">
        <ele>65.413998</ele>
        <time>2025-02-05T09:15:32.324Z</time>
      </trkpt>
      <trkpt lat="43.94983" lon="4.78402">
        <ele>65.514278</ele>
        <time>2025-02-05T09:15:34.348Z</time>
      </trkpt>
      <trkpt lat="43.9498" lon="4.78385">
        <ele>65.648792</ele>
        <time>2025-02-05T09:15:37.302Z</time>
      </trkpt>
      <trkpt lat="43.94981" lon="4.7837">
        <ele>65.761111</ele>
        <time>2025-02-05T09:15:40.323Z</time>
      </trkpt>
      <trkpt lat="43.94989" lon="4.78362">
        <ele>65.864005</ele>
        <time>2025-02-05T09:15:43.309Z</time>
      </trkpt>
      <trkpt lat="43.94998" lon="4.78358">
        <ele>65.969103</ele>
        <time>2025-02-05T09:15:46.324Z</time>
      </trkpt>
      <trkpt lat="43.95006" lon="4.78352">
        <ele>66.065217</ele>
        <time>2025-02-05T09:15:49.330Z</time>
      </trkpt>
      <trkpt lat="43.9501" lon="4.7834">
        <ele>66.167688</ele>
        <time>2025-02-05T09:15:52.341Z</time>
      </trkpt>
      <trkpt lat="43.95006" lon="4.78324">
        <ele>66.293814</ele>
        <time>2025-02-05T09:15:55.320Z</time>
      </trkpt>
      <trkpt lat="43.95" lon="4.78314">
        <ele>66.390777</ele>
        <time>2025-02-05T09:15:57.341Z</time>
      </trkpt>
      <trkpt lat="43.94996" lon="4.78302">
        <ele>66.490918</ele>
        <time>2025-02-05T09:15:59.326Z</time>
      </trkpt>
      <trkpt lat="43.94992" lon="4.78289">
        <ele>66.601392</ele>
        <time>2025-02-05T09:16:01.317Z</time>
      </trkpt>
      <trkpt lat="43.94988" lon="4.78274">
        <ele>66.717901</ele>
        <time>2025-02-05T09:16:03.306Z</time>
      </trkpt>
      <trkpt lat="43.94984" lon="4.78261">
        <ele>66.830557</ele>
        <time>2025-02-05T09:16:05.331Z</time>
      </trkpt>
      <trkpt lat="43.94982" lon="4.78247">
        <ele>66.938333</ele>
        <time>2025-02-05T09:16:07.309Z</time>
      </trkpt>
      <trkpt lat="43.9498" lon="4.78233">
        <ele>67.043244</ele>
        <time>2025-02-05T09:16:09.316Z</time>
      </trkpt>
      <trkpt lat="43.94978" lon="4.7822">
        <ele>67.142956</ele>
        <time>2025-02-05T09:16:11.324Z</time>
      </trkpt>
      <trkpt lat="43.94976" lon="4.78208">
        <ele>67.252237</ele>
        <time>2025-02-05T09:16:13.336Z</time>
      </trkpt>
      <trkpt lat="43.94974" lon="4.7819">
        <ele>67.450744</ele>
        <time>2025-02-05T09:16:16.342Z</time>
      </trkpt>
      <trkpt lat="43.94972" lon="4.78174">
        <ele>67.628662</ele>
        <time>2025-02-05T09:16:19.313Z</time>
      </trkpt>
      <trkpt lat="43.9497" lon="4.78159">
        <ele>67.79074</ele>
        <time>2025-02-05T09:16:22.325Z</time>
      </trkpt>
      <trkpt lat="43.94968" lon="4.78146">
        <ele>67.937177</ele>
        <time>2025-02-05T09:16:25.334Z</time>
      </trkpt>
      <trkpt lat="43.94965" lon="4.78134">
        <ele>68.076573</ele>
        <time>2025-02-05T09:16:28.337Z</time>
      </trkpt>
      <trkpt lat="43.94963" lon="4.78122">
        <ele>68.212995</ele>
        <time>2025-02-05T09:16:31.326Z</time>
      </trkpt>
      <trkpt lat="43.94958" lon="4.7811">
        <ele>68.354766</ele>
        <time>2025-02-05T09:16:34.345Z</time>
      </trkpt>
      <trkpt lat="43.94955" lon="4.78098">
        <ele>68.492884</ele>
        <time>2025-02-05T09:16:37.324Z</time>
      </trkpt>
      <trkpt lat="43.9495" lon="4.78084">
        <ele>68.668563</ele>
        <time>2025-02-05T09:16:41.323Z</time>
      </trkpt>
      <trkpt lat="43.94945" lon="4.78069">
        <ele>68.848871</ele>
        <time>2025-02-05T09:16:45.326Z</time>
      </trkpt>
      <trkpt lat="43.94941" lon="4.78058">
        <ele>68.984642</ele>
        <time>2025-02-05T09:16:48.320Z</time>
      </trkpt>
      <trkpt lat="43.94937" lon="4.78046">
        <ele>69.124745</ele>
        <time>2025-02-05T09:16:51.356Z</time>
      </trkpt>
      <trkpt lat="43.94932" lon="4.78033">
        <ele>69.290984</ele>
        <time>2025-02-05T09:16:55.325Z</time>
      </trkpt>
      <trkpt lat="43.94926" lon="4.7802">
        <ele>69.454194</ele>
        <time>2025-02-05T09:16:59.341Z</time>
      </trkpt>
      <trkpt lat="43.9492" lon="4.7801">
        <ele>69.590399</ele>
        <time>2025-02-05T09:17:03.312Z</time>
      </trkpt>
      <trkpt lat="43.94916" lon="4.77998">
        <ele>69.734567</ele>
        <time>2025-02-05T09:17:07.325Z</time>
      </trkpt>
      <trkpt lat="43.94909" lon="4.77989">
        <ele>69.881388</ele>
        <time>2025-02-05T09:17:10.326Z</time>
      </trkpt>
      <trkpt lat="43.94902" lon="4.77973">
        <ele>69.646217</ele>
        <time>2025-02-05T09:17:13.305Z</time>
      </trkpt>
      <trkpt lat="43.94897" lon="4.7796">
        <ele>69.337213</ele>
        <time>2025-02-05T09:17:15.323Z</time>
      </trkpt>
      <trkpt lat="43.94891" lon="4.77947">
        <ele>69.010784</ele>
        <time>2025-02-05T09:17:17.306Z</time>
      </trkpt>
      <trkpt lat="43.94884" lon="4.77934">
        <ele>68.680953</ele>
        <time>2025-02-05T09:17:19.318Z</time>
      </trkpt>
      <trkpt lat="43.94876" lon="4.77921">
        <ele>68.342138</ele>
        <time>2025-02-05T09:17:21.329Z</time>
      </trkpt>
      <trkpt lat="43.94869" lon="4.77909">
        <ele>68.017374</ele>
        <time>2025-02-05T09:17:23.326Z</time>
      </trkpt>
      <trkpt lat="43.94864" lon="4.77895">
        <ele>67.696092</ele>
        <time>2025-02-05T09:17:25.317Z</time>
      </trkpt>
      <trkpt lat="43.9486" lon="4.77882">
        <ele>67.39912</ele>
        <time>2025-02-05T09:17:27.305Z</time>
      </trkpt>
      <trkpt lat="43.94856" lon="4.77869">
        <ele>67.116522</ele>
        <time>2025-02-05T09:17:29.299Z</time>
      </trkpt>
      <trkpt lat="43.94854" lon="4.77855">
        <ele>66.826988</ele>
        <time>2025-02-05T09:17:31.314Z</time>
      </trkpt>
      <trkpt lat="43.94853" lon="4.77841">
        <ele>66.533189</ele>
        <time>2025-02-05T09:17:33.323Z</time>
      </trkpt>
      <trkpt lat="43.94853" lon="4.77826">
        <ele>66.219658</ele>
        <time>2025-02-05T09:17:35.316Z</time>
      </trkpt>
      <trkpt lat="43.94853" lon="4.77811">
        <ele>65.920566</ele>
        <time>2025-02-05T09:17:37.337Z</time>
      </trkpt>
      <trkpt lat="43.94853" lon="4.77797">
        <ele>65.619071</ele>
        <time>2025-02-05T09:17:39.318Z</time>
      </trkpt>
      <trkpt lat="43.94852" lon="4.77783">
        <ele>65.336248</ele>
        <time>2025-02-05T09:17:41.333Z</time>
      </trkpt>
      <trkpt lat="43.94852" lon="4.7777">
        <ele>65.068081</ele>
        <time>2025-02-05T09:17:43.331Z</time>
      </trkpt>
      <trkpt lat="43.9485" lon="4.77751">
        <ele>64.744859</ele>
        <time>2025-02-05T09:17:46.321Z</time>
      </trkpt>
      <trkpt lat="43.9485" lon="4.77739">
        <ele>64.659797</ele>
        <time>2025-02-05T09:17:48.323Z</time>
      </trkpt>
      <trkpt lat="43.9485" lon="4.77726">
        <ele>64.572754</ele>
        <time>2025-02-05T09:17:50.340Z</time>
      </trkpt>
      <trkpt lat="43.94851" lon="4.77712">
        <ele>64.480207</ele>
        <time>2025-02-05T09:17:52.340Z</time>
      </trkpt>
      <trkpt lat="43.94853" lon="4.77698">
        <ele>64.388855</ele>
        <time>2025-02-05T09:17:54.330Z</time>
      </trkpt>
      <trkpt lat="43.94857" lon="4.77687">
        <ele>64.30466</ele>
        <time>2025-02-05T09:17:56.312Z</time>
      </trkpt>
      <trkpt lat="43.94864" lon="4.77673">
        <ele>64.188904</ele>
        <time>2025-02-05T09:17:59.325Z</time>
      </trkpt>
      <trkpt lat="43.94871" lon="4.77659">
        <ele>64.073611</ele>
        <time>2025-02-05T09:18:02.330Z</time>
      </trkpt>
      <trkpt lat="43.94877" lon="4.77642">
        <ele>63.949085</ele>
        <time>2025-02-05T09:18:05.305Z</time>
      </trkpt>
      <trkpt lat="43.9488" lon="4.7763">
        <ele>63.864051</ele>
        <time>2025-02-05T09:18:07.308Z</time>
      </trkpt>
      <trkpt lat="43.94883" lon="4.77617">
        <ele>63.773976</ele>
        <time>2025-02-05T09:18:09.309Z</time>
      </trkpt>
      <trkpt lat="43.94883" lon="4.77604">
        <ele>63.682766</ele>
        <time>2025-02-05T09:18:11.297Z</time>
      </trkpt>
      <trkpt lat="43.94884" lon="4.7759">
        <ele>63.591556</ele>
        <time>2025-02-05T09:18:13.307Z</time>
      </trkpt>
      <trkpt lat="43.94885" lon="4.77577">
        <ele>63.499943</ele>
        <time>2025-02-05T09:18:15.337Z</time>
      </trkpt>
      <trkpt lat="43.94886" lon="4.77563">
        <ele>63.40852</ele>
        <time>2025-02-05T09:18:17.325Z</time>
      </trkpt>
      <trkpt lat="43.94887" lon="4.77549">
        <ele>63.313581</ele>
        <time>2025-02-05T09:18:19.307Z</time>
      </trkpt>
      <trkpt lat="43.94888" lon="4.77534">
        <ele>63.216738</ele>
        <time>2025-02-05T09:18:21.320Z</time>
      </trkpt>
      <trkpt lat="43.94888" lon="4.77521">
        <ele>63.128923</ele>
        <time>2025-02-05T09:18:23.318Z</time>
      </trkpt>
      <trkpt lat="43.9489" lon="4.77507">
        <ele>63.01282</ele>
        <time>2025-02-05T09:18:25.301Z</time>
      </trkpt>
      <trkpt lat="43.94892" lon="4.77493">
        <ele>62.887469</ele>
        <time>2025-02-05T09:18:27.296Z</time>
      </trkpt>
      <trkpt lat="43.94893" lon="4.7748">
        <ele>62.768549</ele>
        <time>2025-02-05T09:18:29.312Z</time>
      </trkpt>
      <trkpt lat="43.94895" lon="4.77466">
        <ele>62.643666</ele>
        <time>2025-02-05T09:18:31.328Z</time>
      </trkpt>
      <trkpt lat="43.94897" lon="4.77452">
        <ele>62.524139</ele>
        <time>2025-02-05T09:18:33.319Z</time>
      </trkpt>
      <trkpt lat="43.94899" lon="4.77439">
        <ele>62.406079</ele>
        <time>2025-02-05T09:18:35.332Z</time>
      </trkpt>
      <trkpt lat="43.949" lon="4.7742">
        <ele>62.243558</ele>
        <time>2025-02-05T09:18:38.326Z</time>
      </trkpt>
      <trkpt lat="43.94901" lon="4.77408">
        <ele>62.133925</ele>
        <time>2025-02-05T09:18:40.321Z</time>
      </trkpt>
      <trkpt lat="43.94905" lon="4.77392">
        <ele>61.986794</ele>
        <time>2025-02-05T09:18:43.318Z</time>
      </trkpt>
      <trkpt lat="43.94909" lon="4.77379">
        <ele>61.870032</ele>
        <time>2025-02-05T09:18:46.325Z</time>
      </trkpt>
      <trkpt lat="43.94912" lon="4.77366">
        <ele>61.753287</ele>
        <time>2025-02-05T09:18:49.314Z</time>
      </trkpt>
      <trkpt lat="43.94916" lon="4.77351">
        <ele>61.605721</ele>
        <time>2025-02-05T09:18:52.330Z</time>
      </trkpt>
      <trkpt lat="43.94919" lon="4.77338">
        <ele>61.492662</ele>
        <time>2025-02-05T09:18:54.313Z</time>
      </trkpt>
      <trkpt lat="43.94923" lon="4.77324">
        <ele>61.362407</ele>
        <time>2025-02-05T09:18:56.323Z</time>
      </trkpt>
      <trkpt lat="43.94926" lon="4.77311">
        <ele>61.23691</ele>
        <time>2025-02-05T09:18:58.333Z</time>
      </trkpt>
      <trkpt lat="43.94929" lon="4.77296">
        <ele>61.107374</ele>
        <time>2025-02-05T09:19:00.309Z</time>
      </trkpt>
      <trkpt lat="43.94933" lon="4.77283">
        <ele>60.97957</ele>
        <time>2025-02-05T09:19:02.327Z</time>
      </trkpt>
      <trkpt lat="43.94935" lon="4.77269">
        <ele>60.906896</ele>
        <time>2025-02-05T09:19:04.347Z</time>
      </trkpt>
      <trkpt lat="43.94939" lon="4.77256">
        <ele>60.871005</ele>
        <time>2025-02-05T09:19:06.316Z</time>
      </trkpt>
      <trkpt lat="43.94942" lon="4.77243">
        <ele>60.832854</ele>
        <time>2025-02-05T09:19:08.319Z</time>
      </trkpt>
      <trkpt lat="43.94945" lon="4.7723">
        <ele>60.794522</ele>
        <time>2025-02-05T09:19:10.311Z</time>
      </trkpt>
      <trkpt lat="43.94948" lon="4.77217">
        <ele>60.757218</ele>
        <time>2025-02-05T09:19:12.324Z</time>
      </trkpt>
      <trkpt lat="43.94952" lon="4.77204">
        <ele>60.720937</ele>
        <time>2025-02-05T09:19:14.337Z</time>
      </trkpt>
      <trkpt lat="43.94956" lon="4.77193">
        <ele>60.686588</ele>
        <time>2025-02-05T09:19:16.330Z</time>
      </trkpt>
      <trkpt lat="43.94961" lon="4.77176">
        <ele>60.635363</ele>
        <time>2025-02-05T09:19:19.305Z</time>
      </trkpt>
      <trkpt lat="43.94964" lon="4.77158">
        <ele>60.585384</ele>
        <time>2025-02-05T09:19:22.331Z</time>
      </trkpt>
      <trkpt lat="43.94967" lon="4.77142">
        <ele>60.538945</ele>
        <time>2025-02-05T09:19:25.349Z</time>
      </trkpt>
      <trkpt lat="43.94971" lon="4.77129">
        <ele>60.500605</ele>
        <time>2025-02-05T09:19:28.319Z</time>
      </trkpt>
      <trkpt lat="43.94974" lon="4.77114">
        <ele>60.45772</ele>
        <time>2025-02-05T09:19:31.318Z</time>
      </trkpt>
      <trkpt lat="43.94976" lon="4.77098">
        <ele>60.413109</ele>
        <time>2025-02-05T09:19:34.325Z</time>
      </trkpt>
      <trkpt lat="43.94975" lon="4.77081">
        <ele>60.367764</ele>
        <time>2025-02-05T09:19:37.317Z</time>
      </trkpt>
      <trkpt lat="43.94979" lon="4.77069">
        <ele>60.331855</ele>
        <time>2025-02-05T09:19:39.317Z</time>
      </trkpt>
      <trkpt lat="43.9499" lon="4.77059">
        <ele>60.283812</ele>
        <time>2025-02-05T09:19:42.321Z</time>
      </trkpt>
      <trkpt lat="43.94997" lon="4.7705">
        <ele>60.250491</ele>
        <time>2025-02-05T09:19:45.363Z</time>
      </trkpt>
      <trkpt lat="43.95004" lon="4.77036">
        <ele>60.329985</ele>
        <time>2025-02-05T09:19:49.312Z</time>
      </trkpt>
      <trkpt lat="43.9501" lon="4.77025">
        <ele>60.397475</ele>
        <time>2025-02-05T09:19:52.321Z</time>
      </trkpt>
      <trkpt lat="43.95017" lon="4.77014">
        <ele>60.465163</ele>
        <time>2025-02-05T09:19:55.317Z</time>
      </trkpt>
      <trkpt lat="43.95023" lon="4.77">
        <ele>60.53982</ele>
        <time>2025-02-05T09:19:58.313Z</time>
      </trkpt>
      <trkpt lat="43.95029" lon="4.76986">
        <ele>60.618564</ele>
        <time>2025-02-05T09:20:01.314Z</time>
      </trkpt>
      <trkpt lat="43.95034" lon="4.76973">
        <ele>60.686998</ele>
        <time>2025-02-05T09:20:04.317Z</time>
      </trkpt>
      <trkpt lat="43.9504" lon="4.76957">
        <ele>60.768605</ele>
        <time>2025-02-05T09:20:07.322Z</time>
      </trkpt>
      <trkpt lat="43.95044" lon="4.7694">
        <ele>60.853006</ele>
        <time>2025-02-05T09:20:10.350Z</time>
      </trkpt>
      <trkpt lat="43.95049" lon="4.76924">
        <ele>60.936321</ele>
        <time>2025-02-05T09:20:13.344Z</time>
      </trkpt>
      <trkpt lat="43.95052" lon="4.76908">
        <ele>61.016183</ele>
        <time>2025-02-05T09:20:16.326Z</time>
      </trkpt>
      <trkpt lat="43.95055" lon="4.76891">
        <ele>61.094904</ele>
        <time>2025-02-05T09:20:19.309Z</time>
      </trkpt>
      <trkpt lat="43.95059" lon="4.76875">
        <ele>61.174013</ele>
        <time>2025-02-05T09:20:22.321Z</time>
      </trkpt>
      <trkpt lat="43.95062" lon="4.7686">
        <ele>61.247871</ele>
        <time>2025-02-05T09:20:25.335Z</time>
      </trkpt>
      <trkpt lat="43.95068" lon="4.76844">
        <ele>61.331128</ele>
        <time>2025-02-05T09:20:28.345Z</time>
      </trkpt>
      <trkpt lat="43.95074" lon="4.7683">
        <ele>61.410929</ele>
        <time>2025-02-05T09:20:31.302Z</time>
      </trkpt>
      <trkpt lat="43.95081" lon="4.76816">
        <ele>61.536337</ele>
        <time>2025-02-05T09:20:34.327Z</time>
      </trkpt>
      <trkpt lat="43.95088" lon="4.76803">
        <ele>61.667434</ele>
        <time>2025-02-05T09:20:37.305Z</time>
      </trkpt>
      <trkpt lat="43.95095" lon="4.76791">
        <ele>61.783104</ele>
        <time>2025-02-05T09:20:40.332Z</time>
      </trkpt>
      <trkpt lat="43.95102" lon="4.76778">
        <ele>61.912263</ele>
        <time>2025-02-05T09:20:44.323Z</time>
      </trkpt>
      <trkpt lat="43.95111" lon="4.76768">
        <ele>62.036115</ele>
        <time>2025-02-05T09:20:48.316Z</time>
      </trkpt>
      <trkpt lat="43.95117" lon="4.76757">
        <ele>62.145159</ele>
        <time>2025-02-05T09:20:51.315Z</time>
      </trkpt>
      <trkpt lat="43.95124" lon="4.76747">
        <ele>62.258076</ele>
        <time>2025-02-05T09:20:54.327Z</time>
      </trkpt>
      <trkpt lat="43.9513" lon="4.76735">
        <ele>62.36886</ele>
        <time>2025-02-05T09:20:57.318Z</time>
      </trkpt>
      <trkpt lat="43.95136" lon="4.76724">
        <ele>62.47384</ele>
        <time>2025-02-05T09:21:00.313Z</time>
      </trkpt>
      <trkpt lat="43.9514" lon="4.76713">
        <ele>62.573998</ele>
        <time>2025-02-05T09:21:03.323Z</time>
      </trkpt>
      <trkpt lat="43.95145" lon="4.76699">
        <ele>62.693914</ele>
        <time>2025-02-05T09:21:07.301Z</time>
      </trkpt>
      <trkpt lat="43.95149" lon="4.76687">
        <ele>62.796675</ele>
        <time>2025-02-05T09:21:10.312Z</time>
      </trkpt>
      <trkpt lat="43.95153" lon="4.76671">
        <ele>62.927962</ele>
        <time>2025-02-05T09:21:14.324Z</time>
      </trkpt>
      <trkpt lat="43.95156" lon="4.76659">
        <ele>63.03012</ele>
        <time>2025-02-05T09:21:17.329Z</time>
      </trkpt>
      <trkpt lat="43.95161" lon="4.76645">
        <ele>63.148614</ele>
        <time>2025-02-05T09:21:21.306Z</time>
      </trkpt>
      <trkpt lat="43.95165" lon="4.76632">
        <ele>63.261455</ele>
        <time>2025-02-05T09:21:25.317Z</time>
      </trkpt>
      <trkpt lat="43.95169" lon="4.76618">
        <ele>63.377057</ele>
        <time>2025-02-05T09:21:29.320Z</time>
      </trkpt>
      <trkpt lat="43.95173" lon="4.76603">
        <ele>63.406173</ele>
        <time>2025-02-05T09:21:33.321Z</time>
      </trkpt>
      <trkpt lat="43.95175" lon="4.76588">
        <ele>63.435603</ele>
        <time>2025-02-05T09:21:37.311Z</time>
      </trkpt>
      <trkpt lat="43.95178" lon="4.76572">
        <ele>63.464457</ele>
        <time>2025-02-05T09:21:41.332Z</time>
      </trkpt>
      <trkpt lat="43.95183" lon="4.76558">
        <ele>63.491985</ele>
        <time>2025-02-05T09:21:45.311Z</time>
      </trkpt>
      <trkpt lat="43.95187" lon="4.76544">
        <ele>63.519716</ele>
        <time>2025-02-05T09:21:49.306Z</time>
      </trkpt>
      <trkpt lat="43.95192" lon="4.76532">
        <ele>63.544614</ele>
        <time>2025-02-05T09:21:53.327Z</time>
      </trkpt>
      <trkpt lat="43.95194" lon="4.7652">
        <ele>63.568114</ele>
        <time>2025-02-05T09:21:57.323Z</time>
      </trkpt>
      <trkpt lat="43.95197" lon="4.76507">
        <ele>63.591895</ele>
        <time>2025-02-05T09:21:59.326Z</time>
      </trkpt>
      <trkpt lat="43.95199" lon="4.76492">
        <ele>63.61957</ele>
        <time>2025-02-05T09:22:01.319Z</time>
      </trkpt>
      <trkpt lat="43.952" lon="4.76477">
        <ele>63.647829</ele>
        <time>2025-02-05T09:22:03.322Z</time>
      </trkpt>
      <trkpt lat="43.95199" lon="4.76459">
        <ele>63.680051</ele>
        <time>2025-02-05T09:22:05.304Z</time>
      </trkpt>
      <trkpt lat="43.95198" lon="4.76441">
        <ele>63.713117</ele>
        <time>2025-02-05T09:22:07.294Z</time>
      </trkpt>
      <trkpt lat="43.95193" lon="4.76423">
        <ele>63.748562</ele>
        <time>2025-02-05T09:22:09.310Z</time>
      </trkpt>
      <trkpt lat="43.95187" lon="4.76406">
        <ele>63.783339</ele>
        <time>2025-02-05T09:22:11.315Z</time>
      </trkpt>
      <trkpt lat="43.95182" lon="4.76388">
        <ele>63.817584</ele>
        <time>2025-02-05T09:22:13.320Z</time>
      </trkpt>
      <trkpt lat="43.95177" lon="4.76371">
        <ele>63.741499</ele>
        <time>2025-02-05T09:22:15.316Z</time>
      </trkpt>
      <trkpt lat="43.95173" lon="4.76354">
        <ele>63.591641</ele>
        <time>2025-02-05T09:22:17.298Z</time>
      </trkpt>
      <trkpt lat="43.95168" lon="4.76337">
        <ele>63.442811</ele>
        <time>2025-02-05T09:22:19.305Z</time>
      </trkpt>
      <trkpt lat="43.95161" lon="4.76324">
        <ele>63.302423</ele>
        <time>2025-02-05T09:22:21.305Z</time>
      </trkpt>
      <trkpt lat="43.95155" lon="4.7631">
        <ele>63.166056</ele>
        <time>2025-02-05T09:22:23.308Z</time>
      </trkpt>
      <trkpt lat="43.95149" lon="4.76296">
        <ele>63.029412</ele>
        <time>2025-02-05T09:22:25.332Z</time>
      </trkpt>
      <trkpt lat="43.95144" lon="4.76283">
        <ele>62.908338</ele>
        <time>2025-02-05T09:22:27.324Z</time>
      </trkpt>
      <trkpt lat="43.95139" lon="4.76271">
        <ele>62.788272</ele>
        <time>2025-02-05T09:22:29.311Z</time>
      </trkpt>
      <trkpt lat="43.95136" lon="4.76259">
        <ele>62.681175</ele>
        <time>2025-02-05T09:22:31.312Z</time>
      </trkpt>
      <trkpt lat="43.95132" lon="4.76241">
        <ele>62.526173</ele>
        <time>2025-02-05T09:22:34.325Z</time>
      </trkpt>
      <trkpt lat="43.9513" lon="4.76229">
        <ele>62.420785</ele>
        <time>2025-02-05T09:22:36.339Z</time>
      </trkpt>
      <trkpt lat="43.95127" lon="4.76214">
        <ele>62.292781</ele>
        <time>2025-02-05T09:22:39.307Z</time>
      </trkpt>
      <trkpt lat="43.95127" lon="4.76201">
        <ele>62.184145</ele>
        <time>2025-02-05T09:22:42.326Z</time>
      </trkpt>
      <trkpt lat="43.95126" lon="4.76185">
        <ele>62.051982</ele>
        <time>2025-02-05T09:22:46.338Z</time>
      </trkpt>
      <trkpt lat="43.95123" lon="4.76173">
        <ele>61.94229</ele>
        <time>2025-02-05T09:22:49.332Z</time>
      </trkpt>
      <trkpt lat="43.9512" lon="4.76158">
        <ele>61.817132</ele>
        <time>2025-02-05T09:22:52.335Z</time>
      </trkpt>
      <trkpt lat="43.95118" lon="4.76145">
        <ele>61.717571</ele>
        <time>2025-02-05T09:22:55.324Z</time>
      </trkpt>
      <trkpt lat="43.95116" lon="4.76133">
        <ele>61.64251</ele>
        <time>2025-02-05T09:22:58.327Z</time>
      </trkpt>
      <trkpt lat="43.95115" lon="4.76119">
        <ele>61.563374</ele>
        <time>2025-02-05T09:23:02.324Z</time>
      </trkpt>
      <trkpt lat="43.95113" lon="4.76102">
        <ele>61.464867</ele>
        <time>2025-02-05T09:23:06.335Z</time>
      </trkpt>
      <trkpt lat="43.9511" lon="4.7609">
        <ele>61.388908</ele>
        <time>2025-02-05T09:23:09.322Z</time>
      </trkpt>
      <trkpt lat="43.95108" lon="4.76076">
        <ele>61.309739</ele>
        <time>2025-02-05T09:23:12.320Z</time>
      </trkpt>
      <trkpt lat="43.95106" lon="4.76061">
        <ele>61.218163</ele>
        <time>2025-02-05T09:23:16.327Z</time>
      </trkpt>
      <trkpt lat="43.95103" lon="4.76045">
        <ele>61.127565</ele>
        <time>2025-02-05T09:23:20.316Z</time>
      </trkpt>
      <trkpt lat="43.951" lon="4.76032">
        <ele>61.047038</ele>
        <time>2025-02-05T09:23:23.318Z</time>
      </trkpt>
      <trkpt lat="43.95099" lon="4.76018">
        <ele>60.964479</ele>
        <time>2025-02-05T09:23:26.328Z</time>
      </trkpt>
      <trkpt lat="43.95097" lon="4.76003">
        <ele>60.876528</ele>
        <time>2025-02-05T09:23:29.318Z</time>
      </trkpt>
      <trkpt lat="43.95094" lon="4.75988">
        <ele>60.787267</ele>
        <time>2025-02-05T09:23:33.304Z</time>
      </trkpt>
      <trkpt lat="43.95091" lon="4.75975">
        <ele>60.70996</ele>
        <time>2025-02-05T09:23:37.312Z</time>
      </trkpt>
      <trkpt lat="43.95087" lon="4.75963">
        <ele>60.635451</ele>
        <time>2025-02-05T09:23:40.318Z</time>
      </trkpt>
      <trkpt lat="43.95084" lon="4.7595">
        <ele>60.553281</ele>
        <time>2025-02-05T09:23:43.306Z</time>
      </trkpt>
      <trkpt lat="43.95082" lon="4.75935">
        <ele>60.467361</ele>
        <time>2025-02-05T09:23:48.325Z</time>
      </trkpt>
      <trkpt lat="43.95078" lon="4.75922">
        <ele>60.386605</ele>
        <time>2025-02-05T09:23:52.347Z</time>
      </trkpt>
      <trkpt lat="43.95073" lon="4.75909">
        <ele>60.309201</ele>
        <time>2025-02-05T09:23:56.327Z</time>
      </trkpt>
      <trkpt lat="43.95069" lon="4.75897">
        <ele>60.413123</ele>
        <time>2025-02-05T09:24:00.330Z</time>
      </trkpt>
      <trkpt lat="43.95062" lon="4.75885">
        <ele>60.542438</ele>
        <time>2025-02-05T09:24:05.317Z</time>
      </trkpt>
      <trkpt lat="43.95055" lon="4.75872">
        <ele>60.67154</ele>
        <time>2025-02-05T09:24:09.322Z</time>
      </trkpt>
      <trkpt lat="43.95049" lon="4.7586">
        <ele>60.786375</ele>
        <time>2025-02-05T09:24:12.306Z</time>
      </trkpt>
      <trkpt lat="43.95044" lon="4.75848">
        <ele>60.900752</ele>
        <time>2025-02-05T09:24:15.316Z</time>
      </trkpt>
      <trkpt lat="43.95038" lon="4.75835">
        <ele>61.022264</ele>
        <time>2025-02-05T09:24:18.301Z</time>
      </trkpt>
      <trkpt lat="43.95032" lon="4.75823">
        <ele>61.137769</ele>
        <time>2025-02-05T09:24:21.321Z</time>
      </trkpt>
      <trkpt lat="43.95027" lon="4.75811">
        <ele>61.254693</ele>
        <time>2025-02-05T09:24:24.324Z</time>
      </trkpt>
      <trkpt lat="43.9502" lon="4.75798">
        <ele>61.379242</ele>
        <time>2025-02-05T09:24:27.324Z</time>
      </trkpt>
      <trkpt lat="43.95014" lon="4.75786">
        <ele>61.497298</ele>
        <time>2025-02-05T09:24:30.349Z</time>
      </trkpt>
      <trkpt lat="43.95005" lon="4.7578">
        <ele>61.607414</ele>
        <time>2025-02-05T09:24:33.310Z</time>
      </trkpt>
      <trkpt lat="43.94994" lon="4.75781">
        <ele>61.729501</ele>
        <time>2025-02-05T09:24:36.322Z</time>
      </trkpt>
      <trkpt lat="43.94986" lon="4.75785">
        <ele>61.831771</ele>
        <time>2025-02-05T09:24:38.337Z</time>
      </trkpt>
      <trkpt lat="43.94973" lon="4.75791">
        <ele>61.9791</ele>
        <time>2025-02-05T09:24:41.325Z</time>
      </trkpt>
      <trkpt lat="43.94961" lon="4.75795">
        <ele>62.120261</ele>
        <time>2025-02-05T09:24:44.314Z</time>
      </trkpt>
      <trkpt lat="43.94949" lon="4.75801">
        <ele>62.258363</ele>
        <time>2025-02-05T09:24:47.321Z</time>
      </trkpt>
      <trkpt lat="43.94937" lon="4.75805">
        <ele>62.29769</ele>
        <time>2025-02-05T09:24:50.325Z</time>
      </trkpt>
      <trkpt lat="43.94924" lon="4.75808">
        <ele>62.274443</ele>
        <time>2025-02-05T09:24:53.317Z</time>
      </trkpt>
      <trkpt lat="43.94912" lon="4.75811">
        <ele>62.251973</ele>
        <time>2025-02-05T09:24:56.327Z</time>
      </trkpt>
      <trkpt lat="43.949" lon="4.75814">
        <ele>62.230214</ele>
        <time>2025-02-05T09:24:59.320Z</time>
      </trkpt>
      <trkpt lat="43.94887" lon="4.75818">
        <ele>62.206891</ele>
        <time>2025-02-05T09:25:02.345Z</time>
      </trkpt>
      <trkpt lat="43.94879" lon="4.75821">
        <ele>62.190571</ele>
        <time>2025-02-05T09:25:04.326Z</time>
      </trkpt>
      <trkpt lat="43.9487" lon="4.75825">
        <ele>62.173396</ele>
        <time>2025-02-05T09:25:06.319Z</time>
      </trkpt>
      <trkpt lat="43.9486" lon="4.7583">
        <ele>62.155922</ele>
        <time>2025-02-05T09:25:08.306Z</time>
      </trkpt>
      <trkpt lat="43.94852" lon="4.75835">
        <ele>62.139055</ele>
        <time>2025-02-05T09:25:10.299Z</time>
      </trkpt>
      <trkpt lat="43.94843" lon="4.7584">
        <ele>62.121228</ele>
        <time>2025-02-05T09:25:12.318Z</time>
      </trkpt>
      <trkpt lat="43.94833" lon="4.75842">
        <ele>62.103271</ele>
        <time>2025-02-05T09:25:14.318Z</time>
      </trkpt>
      <trkpt lat="43.94823" lon="4.75842">
        <ele>62.085948</ele>
        <time>2025-02-05T09:25:16.310Z</time>
      </trkpt>
      <trkpt lat="43.94814" lon="4.7584">
        <ele>62.068233</ele>
        <time>2025-02-05T09:25:18.326Z</time>
      </trkpt>
      <trkpt lat="43.94804" lon="4.75837">
        <ele>62.049715</ele>
        <time>2025-02-05T09:25:20.315Z</time>
      </trkpt>
      <trkpt lat="43.94794" lon="4.75834">
        <ele>62.031805</ele>
        <time>2025-02-05T09:25:22.311Z</time>
      </trkpt>
      <trkpt lat="43.94785" lon="4.75829">
        <ele>62.014529</ele>
        <time>2025-02-05T09:25:24.313Z</time>
      </trkpt>
      <trkpt lat="43.94777" lon="4.75823">
        <ele>61.997324</ele>
        <time>2025-02-05T09:25:26.311Z</time>
      </trkpt>
      <trkpt lat="43.94768" lon="4.75816">
        <ele>62.006113</ele>
        <time>2025-02-05T09:25:28.306Z</time>
      </trkpt>
      <trkpt lat="43.94761" lon="4.75808">
        <ele>62.048934</ele>
        <time>2025-02-05T09:25:30.307Z</time>
      </trkpt>
      <trkpt lat="43.94751" lon="4.75796">
        <ele>62.108656</ele>
        <time>2025-02-05T09:25:33.313Z</time>
      </trkpt>
      <trkpt lat="43.94742" lon="4.75786">
        <ele>62.163746</ele>
        <time>2025-02-05T09:25:36.330Z</time>
      </trkpt>
      <trkpt lat="43.94733" lon="4.75775">
        <ele>62.21725</ele>
        <time>2025-02-05T09:25:39.318Z</time>
      </trkpt>
      <trkpt lat="43.94723" lon="4.75766">
        <ele>62.272835</ele>
        <time>2025-02-05T09:25:42.316Z</time>
      </trkpt>
      <trkpt lat="43.94713" lon="4.75754">
        <ele>62.33234</ele>
        <time>2025-02-05T09:25:45.313Z</time>
      </trkpt>
      <trkpt lat="43.94704" lon="4.7574">
        <ele>62.392435</ele>
        <time>2025-02-05T09:25:48.305Z</time>
      </trkpt>
      <trkpt lat="43.94695" lon="4.75727">
        <ele>62.453529</ele>
        <time>2025-02-05T09:25:51.345Z</time>
      </trkpt>
      <trkpt lat="43.94686" lon="4.75715">
        <ele>62.509928</ele>
        <time>2025-02-05T09:25:54.323Z</time>
      </trkpt>
      <trkpt lat="43.94678" lon="4.75704">
        <ele>62.562335</ele>
        <time>2025-02-05T09:25:57.341Z</time>
      </trkpt>
      <trkpt lat="43.94669" lon="4.75695">
        <ele>62.613633</ele>
        <time>2025-02-05T09:26:00.325Z</time>
      </trkpt>
      <trkpt lat="43.9466" lon="4.75686">
        <ele>62.66435</ele>
        <time>2025-02-05T09:26:03.302Z</time>
      </trkpt>
      <trkpt lat="43.94651" lon="4.75677">
        <ele>62.715789</ele>
        <time>2025-02-05T09:26:06.344Z</time>
      </trkpt>
      <trkpt lat="43.94642" lon="4.75669">
        <ele>62.765344</ele>
        <time>2025-02-05T09:26:09.314Z</time>
      </trkpt>
      <trkpt lat="43.94634" lon="4.75661">
        <ele>62.808699</ele>
        <time>2025-02-05T09:26:12.336Z</time>
      </trkpt>
      <trkpt lat="43.94625" lon="4.75653">
        <ele>62.888791</ele>
        <time>2025-02-05T09:26:16.344Z</time>
      </trkpt>
      <trkpt lat="43.94616" lon="4.75649">
        <ele>62.958102</ele>
        <time>2025-02-05T09:26:19.322Z</time>
      </trkpt>
      <trkpt lat="43.94605" lon="4.75646">
        <ele>63.037309</ele>
        <time>2025-02-05T09:26:22.332Z</time>
      </trkpt>
      <trkpt lat="43.94587" lon="4.75642">
        <ele>63.171709</ele>
        <time>2025-02-05T09:30:17.309Z</time>
      </trkpt>
      <trkpt lat="43.94577" lon="4.75638">
        <ele>63.247388</ele>
        <time>2025-02-05T09:30:22.315Z</time>
      </trkpt>
      <trkpt lat="43.94567" lon="4.75634">
        <ele>63.325395</ele>
        <time>2025-02-05T09:30:27.302Z</time>
      </trkpt>
      <trkpt lat="43.94558" lon="4.75634">
        <ele>63.392549</ele>
        <time>2025-02-05T09:30:31.302Z</time>
      </trkpt>
      <trkpt lat="43.94549" lon="4.75635">
        <ele>63.459734</ele>
        <time>2025-02-05T09:30:35.304Z</time>
      </trkpt>
      <trkpt lat="43.94539" lon="4.75637">
        <ele>63.530698</ele>
        <time>2025-02-05T09:30:39.311Z</time>
      </trkpt>
      <trkpt lat="43.94529" lon="4.75639">
        <ele>63.605299</ele>
        <time>2025-02-05T09:30:43.317Z</time>
      </trkpt>
      <trkpt lat="43.94519" lon="4.75638">
        <ele>63.680088</ele>
        <time>2025-02-05T09:30:47.313Z</time>
      </trkpt>
      <trkpt lat="43.9451" lon="4.75634">
        <ele>63.750104</ele>
        <time>2025-02-05T09:30:51.309Z</time>
      </trkpt>
      <trkpt lat="43.94501" lon="4.75627">
        <ele>63.823052</ele>
        <time>2025-02-05T09:30:55.316Z</time>
      </trkpt>
      <trkpt lat="43.94493" lon="4.75619">
        <ele>63.901135</ele>
        <time>2025-02-05T09:30:59.309Z</time>
      </trkpt>
      <trkpt lat="43.94484" lon="4.75612">
        <ele>63.976533</ele>
        <time>2025-02-05T09:31:03.316Z</time>
      </trkpt>
      <trkpt lat="43.94474" lon="4.75606">
        <ele>64.05566</ele>
        <time>2025-02-05T09:31:07.311Z</time>
      </trkpt>
      <trkpt lat="43.94464" lon="4.756">
        <ele>64.13483</ele>
        <time>2025-02-05T09:31:11.313Z</time>
      </trkpt>
      <trkpt lat="43.94455" lon="4.75595">
        <ele>63.966685</ele>
        <time>2025-02-05T09:31:15.316Z</time>
      </trkpt>
      <trkpt lat="43.94446" lon="4.75592">
        <ele>63.774885</ele>
        <time>2025-02-05T09:31:19.296Z</time>
      </trkpt>
      <trkpt lat="43.94435" lon="4.75589">
        <ele>63.555237</ele>
        <time>2025-02-05T09:31:23.320Z</time>
      </trkpt>
      <trkpt lat="43.94426" lon="4.75585">
        <ele>63.377241</ele>
        <time>2025-02-05T09:31:26.319Z</time>
      </trkpt>
      <trkpt lat="43.94415" lon="4.75579">
        <ele>63.157387</ele>
        <time>2025-02-05T09:31:30.317Z</time>
      </trkpt>
      <trkpt lat="43.94405" lon="4.75575">
        <ele>62.962407</ele>
        <time>2025-02-05T09:31:34.301Z</time>
      </trkpt>
      <trkpt lat="43.94394" lon="4.75578">
        <ele>62.735528</ele>
        <time>2025-02-05T09:31:38.327Z</time>
      </trkpt>
      <trkpt lat="43.94382" lon="4.75586">
        <ele>62.486853</ele>
        <time>2025-02-05T09:31:41.316Z</time>
      </trkpt>
      <trkpt lat="43.94374" lon="4.75594">
        <ele>62.294066</ele>
        <time>2025-02-05T09:31:43.316Z</time>
      </trkpt>
      <trkpt lat="43.94365" lon="4.75597">
        <ele>62.119736</ele>
        <time>2025-02-05T09:31:45.317Z</time>
      </trkpt>
      <trkpt lat="43.94356" lon="4.75598">
        <ele>61.944333</ele>
        <time>2025-02-05T09:31:47.316Z</time>
      </trkpt>
      <trkpt lat="43.94346" lon="4.75596">
        <ele>61.750516</ele>
        <time>2025-02-05T09:31:49.314Z</time>
      </trkpt>
      <trkpt lat="43.94337" lon="4.75594">
        <ele>61.567714</ele>
        <time>2025-02-05T09:31:51.314Z</time>
      </trkpt>
      <trkpt lat="43.94324" lon="4.75588">
        <ele>61.308694</ele>
        <time>2025-02-05T09:31:54.312Z</time>
      </trkpt>
      <trkpt lat="43.94313" lon="4.75579">
        <ele>61.062753</ele>
        <time>2025-02-05T09:31:57.316Z</time>
      </trkpt>
      <trkpt lat="43.94305" lon="4.75565">
        <ele>60.810197</ele>
        <time>2025-02-05T09:32:00.324Z</time>
      </trkpt>
      <trkpt lat="43.943" lon="4.75548">
        <ele>60.649282</ele>
        <time>2025-02-05T09:32:03.318Z</time>
      </trkpt>
      <trkpt lat="43.94298" lon="4.75531">
        <ele>60.602374</ele>
        <time>2025-02-05T09:32:06.324Z</time>
      </trkpt>
      <trkpt lat="43.94298" lon="4.75513">
        <ele>60.553696</ele>
        <time>2025-02-05T09:32:09.321Z</time>
      </trkpt>
      <trkpt lat="43.94297" lon="4.75496">
        <ele>60.507793</ele>
        <time>2025-02-05T09:32:12.319Z</time>
      </trkpt>
      <trkpt lat="43.94294" lon="4.75478">
        <ele>60.459496</ele>
        <time>2025-02-05T09:32:15.313Z</time>
      </trkpt>
      <trkpt lat="43.94288" lon="4.75463">
        <ele>60.412794</ele>
        <time>2025-02-05T09:32:18.317Z</time>
      </trkpt>
      <trkpt lat="43.94281" lon="4.75449">
        <ele>60.366291</ele>
        <time>2025-02-05T09:32:21.323Z</time>
      </trkpt>
      <trkpt lat="43.94273" lon="4.75434">
        <ele>60.318057</ele>
        <time>2025-02-05T09:32:24.319Z</time>
      </trkpt>
      <trkpt lat="43.94265" lon="4.75421">
        <ele>60.269481</ele>
        <time>2025-02-05T09:32:27.315Z</time>
      </trkpt>
      <trkpt lat="43.94255" lon="4.7541">
        <ele>60.221498</ele>
        <time>2025-02-05T09:32:30.320Z</time>
      </trkpt>
      <trkpt lat="43.94243" lon="4.754">
        <ele>60.172022</ele>
        <time>2025-02-05T09:32:33.308Z</time>
      </trkpt>
      <trkpt lat="43.94235" lon="4.75395">
        <ele>60.138438</ele>
        <time>2025-02-05T09:32:35.328Z</time>
      </trkpt>
      <trkpt lat="43.94224" lon="4.75386">
        <ele>60.090487</ele>
        <time>2025-02-05T09:32:38.318Z</time>
      </trkpt>
      <trkpt lat="43.94212" lon="4.75378">
        <ele>60.041778</ele>
        <time>2025-02-05T09:32:41.290Z</time>
      </trkpt>
      <trkpt lat="43.942" lon="4.7537">
        <ele>59.998515</ele>
        <time>2025-02-05T09:32:44.314Z</time>
      </trkpt>
      <trkpt lat="43.94192" lon="4.75364">
        <ele>59.992992</ele>
        <time>2025-02-05T09:32:46.317Z</time>
      </trkpt>
      <trkpt lat="43.94184" lon="4.75359">
        <ele>59.987383</ele>
        <time>2025-02-05T09:32:48.310Z</time>
      </trkpt>
      <trkpt lat="43.94171" lon="4.75351">
        <ele>59.979219</ele>
        <time>2025-02-05T09:32:51.321Z</time>
      </trkpt>
      <trkpt lat="43.94163" lon="4.75346">
        <ele>59.973647</ele>
        <time>2025-02-05T09:32:53.334Z</time>
      </trkpt>
      <trkpt lat="43.94151" lon="4.75338">
        <ele>59.965409</ele>
        <time>2025-02-05T09:32:56.345Z</time>
      </trkpt>
      <trkpt lat="43.94143" lon="4.75332">
        <ele>59.959762</ele>
        <time>2025-02-05T09:32:58.339Z</time>
      </trkpt>
      <trkpt lat="43.9413" lon="4.75326">
        <ele>59.951636</ele>
        <time>2025-02-05T09:33:01.324Z</time>
      </trkpt>
      <trkpt lat="43.94118" lon="4.75319">
        <ele>59.943493</ele>
        <time>2025-02-05T09:33:04.318Z</time>
      </trkpt>
      <trkpt lat="43.94109" lon="4.75315">
        <ele>59.937879</ele>
        <time>2025-02-05T09:33:06.323Z</time>
      </trkpt>
      <trkpt lat="43.941" lon="4.75313">
        <ele>59.932082</ele>
        <time>2025-02-05T09:33:08.327Z</time>
      </trkpt>
      <trkpt lat="43.9409" lon="4.7531">
        <ele>59.92602</ele>
        <time>2025-02-05T09:33:10.310Z</time>
      </trkpt>
      <trkpt lat="43.9408" lon="4.75309">
        <ele>59.920052</ele>
        <time>2025-02-05T09:33:12.293Z</time>
      </trkpt>
      <trkpt lat="43.94071" lon="4.75306">
        <ele>59.91409</ele>
        <time>2025-02-05T09:33:14.327Z</time>
      </trkpt>
      <trkpt lat="43.94061" lon="4.75305">
        <ele>59.90813</ele>
        <time>2025-02-05T09:33:16.337Z</time>
      </trkpt>
      <trkpt lat="43.94051" lon="4.75304">
        <ele>59.901866</ele>
        <time>2025-02-05T09:33:18.344Z</time>
      </trkpt>
      <trkpt lat="43.94041" lon="4.75303">
        <ele>59.895555</ele>
        <time>2025-02-05T09:33:20.323Z</time>
      </trkpt>
      <trkpt lat="43.94031" lon="4.75303">
        <ele>59.900288</ele>
        <time>2025-02-05T09:33:22.322Z</time>
      </trkpt>
      <trkpt lat="43.94021" lon="4.75303">
        <ele>60.02704</ele>
        <time>2025-02-05T09:33:24.330Z</time>
      </trkpt>
      <trkpt lat="43.94011" lon="4.75301">
        <ele>60.15119</ele>
        <time>2025-02-05T09:33:26.333Z</time>
      </trkpt>
      <trkpt lat="43.94002" lon="4.75299">
        <ele>60.270557</ele>
        <time>2025-02-05T09:33:28.326Z</time>
      </trkpt>
      <trkpt lat="43.93993" lon="4.75298">
        <ele>60.388952</ele>
        <time>2025-02-05T09:33:30.330Z</time>
      </trkpt>
      <trkpt lat="43.93983" lon="4.75297">
        <ele>60.514586</ele>
        <time>2025-02-05T09:33:32.339Z</time>
      </trkpt>
      <trkpt lat="43.93974" lon="4.75296">
        <ele>60.635725</ele>
        <time>2025-02-05T09:33:34.335Z</time>
      </trkpt>
      <trkpt lat="43.93965" lon="4.75295">
        <ele>60.749973</ele>
        <time>2025-02-05T09:33:36.327Z</time>
      </trkpt>
      <trkpt lat="43.93952" lon="4.75293">
        <ele>60.915708</ele>
        <time>2025-02-05T09:33:39.331Z</time>
      </trkpt>
      <trkpt lat="43.93939" lon="4.75291">
        <ele>61.084648</ele>
        <time>2025-02-05T09:33:42.324Z</time>
      </trkpt>
      <trkpt lat="43.93926" lon="4.75289">
        <ele>61.247603</ele>
        <time>2025-02-05T09:33:45.326Z</time>
      </trkpt>
      <trkpt lat="43.93913" lon="4.75287">
        <ele>61.411044</ele>
        <time>2025-02-05T09:33:48.330Z</time>
      </trkpt>
      <trkpt lat="43.93904" lon="4.75286">
        <ele>61.527642</ele>
        <time>2025-02-05T09:33:50.344Z</time>
      </trkpt>
      <trkpt lat="43.93892" lon="4.75284">
        <ele>61.690867</ele>
        <time>2025-02-05T09:33:53.318Z</time>
      </trkpt>
      <trkpt lat="43.93882" lon="4.75283">
        <ele>61.810163</ele>
        <time>2025-02-05T09:33:55.336Z</time>
      </trkpt>
      <trkpt lat="43.93873" lon="4.75284">
        <ele>61.925687</ele>
        <time>2025-02-05T09:33:57.348Z</time>
      </trkpt>
      <trkpt lat="43.93861" lon="4.75289">
        <ele>62.094785</ele>
        <time>2025-02-05T09:34:00.321Z</time>
      </trkpt>
      <trkpt lat="43.93848" lon="4.75294">
        <ele>62.191621</ele>
        <time>2025-02-05T09:34:03.306Z</time>
      </trkpt>
      <trkpt lat="43.93839" lon="4.75296">
        <ele>62.189936</ele>
        <time>2025-02-05T09:34:05.313Z</time>
      </trkpt>
      <trkpt lat="43.93827" lon="4.75292">
        <ele>62.187601</ele>
        <time>2025-02-05T09:34:08.326Z</time>
      </trkpt>
      <trkpt lat="43.93817" lon="4.75282">
        <ele>62.185329</ele>
        <time>2025-02-05T09:34:11.313Z</time>
      </trkpt>
      <trkpt lat="43.93809" lon="4.75267">
        <ele>62.182955</ele>
        <time>2025-02-05T09:34:14.329Z</time>
      </trkpt>
      <trkpt lat="43.93804" lon="4.75253">
        <ele>62.180851</ele>
        <time>2025-02-05T09:34:17.317Z</time>
      </trkpt>
      <trkpt lat="43.93795" lon="4.75242">
        <ele>62.1786</ele>
        <time>2025-02-05T09:34:20.311Z</time>
      </trkpt>
      <trkpt lat="43.93785" lon="4.75232">
        <ele>62.176258</ele>
        <time>2025-02-05T09:34:23.318Z</time>
      </trkpt>
      <trkpt lat="43.93773" lon="4.75229">
        <ele>62.174038</ele>
        <time>2025-02-05T09:34:26.327Z</time>
      </trkpt>
      <trkpt lat="43.93762" lon="4.75235">
        <ele>62.171866</ele>
        <time>2025-02-05T09:34:29.313Z</time>
      </trkpt>
      <trkpt lat="43.93753" lon="4.75244">
        <ele>62.1698</ele>
        <time>2025-02-05T09:34:32.324Z</time>
      </trkpt>
      <trkpt lat="43.93742" lon="4.75252">
        <ele>62.167396</ele>
        <time>2025-02-05T09:34:35.331Z</time>
      </trkpt>
      <trkpt lat="43.93731" lon="4.75261">
        <ele>62.165148</ele>
        <time>2025-02-05T09:34:38.328Z</time>
      </trkpt>
      <trkpt lat="43.93721" lon="4.75269">
        <ele>62.162932</ele>
        <time>2025-02-05T09:34:41.311Z</time>
      </trkpt>
      <trkpt lat="43.93712" lon="4.75277">
        <ele>62.161007</ele>
        <time>2025-02-05T09:34:44.324Z</time>
      </trkpt>
      <trkpt lat="43.93703" lon="4.75285">
        <ele>62.16198</ele>
        <time>2025-02-05T09:34:47.337Z</time>
      </trkpt>
      <trkpt lat="43.93694" lon="4.75292">
        <ele>62.191601</ele>
        <time>2025-02-05T09:34:51.320Z</time>
      </trkpt>
      <trkpt lat="43.93683" lon="4.75299">
        <ele>62.227292</ele>
        <time>2025-02-05T09:35:09.322Z</time>
      </trkpt>
      <trkpt lat="43.93674" lon="4.75301">
        <ele>62.253687</ele>
        <time>2025-02-05T09:35:13.322Z</time>
      </trkpt>
      <trkpt lat="43.93665" lon="4.75291">
        <ele>62.286755</ele>
        <time>2025-02-05T09:35:17.319Z</time>
      </trkpt>
      <trkpt lat="43.9366" lon="4.75281">
        <ele>62.313136</ele>
        <time>2025-02-05T09:35:20.318Z</time>
      </trkpt>
      <trkpt lat="43.93657" lon="4.75269">
        <ele>62.339877</ele>
        <time>2025-02-05T09:35:23.318Z</time>
      </trkpt>
      <trkpt lat="43.93653" lon="4.75257">
        <ele>62.367738</ele>
        <time>2025-02-05T09:35:26.334Z</time>
      </trkpt>
      <trkpt lat="43.93648" lon="4.75244">
        <ele>62.397675</ele>
        <time>2025-02-05T09:35:29.317Z</time>
      </trkpt>
      <trkpt lat="43.93644" lon="4.7523">
        <ele>62.428875</ele>
        <time>2025-02-05T09:35:32.329Z</time>
      </trkpt>
      <trkpt lat="43.9364" lon="4.75217">
        <ele>62.460093</ele>
        <time>2025-02-05T09:35:35.307Z</time>
      </trkpt>
      <trkpt lat="43.93635" lon="4.75204">
        <ele>62.489774</ele>
        <time>2025-02-05T09:35:38.334Z</time>
      </trkpt>
      <trkpt lat="43.9363" lon="4.7519">
        <ele>62.521915</ele>
        <time>2025-02-05T09:35:41.336Z</time>
      </trkpt>
      <trkpt lat="43.93624" lon="4.75175">
        <ele>62.558189</ele>
        <time>2025-02-05T09:35:44.328Z</time>
      </trkpt>
      <trkpt lat="43.93619" lon="4.75162">
        <ele>62.589998</ele>
        <time>2025-02-05T09:35:47.350Z</time>
      </trkpt>
      <trkpt lat="43.93614" lon="4.75148">
        <ele>62.622701</ele>
        <time>2025-02-05T09:35:50.335Z</time>
      </trkpt>
      <trkpt lat="43.93609" lon="4.75134">
        <ele>62.655665</ele>
        <time>2025-02-05T09:35:53.337Z</time>
      </trkpt>
      <trkpt lat="43.93604" lon="4.75119">
        <ele>62.665693</ele>
        <time>2025-02-05T09:35:56.324Z</time>
      </trkpt>
      <trkpt lat="43.93599" lon="4.75105">
        <ele>62.594535</ele>
        <time>2025-02-05T09:35:59.312Z</time>
      </trkpt>
      <trkpt lat="43.93595" lon="4.75091">
        <ele>62.526863</ele>
        <time>2025-02-05T09:36:02.322Z</time>
      </trkpt>
      <trkpt lat="43.93591" lon="4.75076">
        <ele>62.456015</ele>
        <time>2025-02-05T09:36:05.329Z</time>
      </trkpt>
      <trkpt lat="43.93586" lon="4.75062">
        <ele>62.384227</ele>
        <time>2025-02-05T09:36:08.341Z</time>
      </trkpt>
      <trkpt lat="43.9358" lon="4.75049">
        <ele>62.316721</ele>
        <time>2025-02-05T09:36:11.307Z</time>
      </trkpt>
      <trkpt lat="43.93575" lon="4.75036">
        <ele>62.244289</ele>
        <time>2025-02-05T09:36:14.334Z</time>
      </trkpt>
      <trkpt lat="43.93569" lon="4.75022">
        <ele>62.171384</ele>
        <time>2025-02-05T09:36:17.341Z</time>
      </trkpt>
      <trkpt lat="43.93563" lon="4.75009">
        <ele>62.102002</ele>
        <time>2025-02-05T09:36:20.322Z</time>
      </trkpt>
      <trkpt lat="43.93557" lon="4.74995">
        <ele>62.031061</ele>
        <time>2025-02-05T09:36:23.297Z</time>
      </trkpt>
      <trkpt lat="43.93552" lon="4.74981">
        <ele>61.95886</ele>
        <time>2025-02-05T09:36:26.320Z</time>
      </trkpt>
      <trkpt lat="43.93546" lon="4.74968">
        <ele>61.886613</ele>
        <time>2025-02-05T09:36:29.310Z</time>
      </trkpt>
      <trkpt lat="43.93539" lon="4.74954">
        <ele>61.813766</ele>
        <time>2025-02-05T09:36:32.322Z</time>
      </trkpt>
      <trkpt lat="43.93534" lon="4.74941">
        <ele>61.742868</ele>
        <time>2025-02-05T09:36:35.294Z</time>
      </trkpt>
      <trkpt lat="43.93528" lon="4.74928">
        <ele>61.673254</ele>
        <time>2025-02-05T09:36:38.321Z</time>
      </trkpt>
      <trkpt lat="43.93522" lon="4.74914">
        <ele>61.601052</ele>
        <time>2025-02-05T09:36:41.336Z</time>
      </trkpt>
      <trkpt lat="43.93516" lon="4.749">
        <ele>61.540888</ele>
        <time>2025-02-05T09:36:44.320Z</time>
      </trkpt>
      <trkpt lat="43.9351" lon="4.74888">
        <ele>61.512188</ele>
        <time>2025-02-05T09:36:47.334Z</time>
      </trkpt>
      <trkpt lat="43.93504" lon="4.74875">
        <ele>61.481952</ele>
        <time>2025-02-05T09:36:50.339Z</time>
      </trkpt>
      <trkpt lat="43.93497" lon="4.74863">
        <ele>61.453423</ele>
        <time>2025-02-05T09:36:53.335Z</time>
      </trkpt>
      <trkpt lat="43.93491" lon="4.7485">
        <ele>61.423645</ele>
        <time>2025-02-05T09:36:56.339Z</time>
      </trkpt>
      <trkpt lat="43.93484" lon="4.74837">
        <ele>61.392328</ele>
        <time>2025-02-05T09:36:59.311Z</time>
      </trkpt>
      <trkpt lat="43.93476" lon="4.74823">
        <ele>61.358992</ele>
        <time>2025-02-05T09:37:02.331Z</time>
      </trkpt>
      <trkpt lat="43.93469" lon="4.74809">
        <ele>61.325659</ele>
        <time>2025-02-05T09:37:05.345Z</time>
      </trkpt>
      <trkpt lat="43.93462" lon="4.74795">
        <ele>61.294032</ele>
        <time>2025-02-05T09:37:08.301Z</time>
      </trkpt>
      <trkpt lat="43.93455" lon="4.74782">
        <ele>61.262867</ele>
        <time>2025-02-05T09:37:11.322Z</time>
      </trkpt>
      <trkpt lat="43.93448" lon="4.74769">
        <ele>61.231237</ele>
        <time>2025-02-05T09:37:14.326Z</time>
      </trkpt>
      <trkpt lat="43.9344" lon="4.74756">
        <ele>61.199202</ele>
        <time>2025-02-05T09:37:17.326Z</time>
      </trkpt>
      <trkpt lat="43.93432" lon="4.74743">
        <ele>61.16658</ele>
        <time>2025-02-05T09:37:20.346Z</time>
      </trkpt>
      <trkpt lat="43.93425" lon="4.74729">
        <ele>61.132782</ele>
        <time>2025-02-05T09:37:23.326Z</time>
      </trkpt>
      <trkpt lat="43.93417" lon="4.74715">
        <ele>61.099894</ele>
        <time>2025-02-05T09:37:26.330Z</time>
      </trkpt>
      <trkpt lat="43.9341" lon="4.74702">
        <ele>61.076938</ele>
        <time>2025-02-05T09:37:29.335Z</time>
      </trkpt>
      <trkpt lat="43.93402" lon="4.74689">
        <ele>61.11031</ele>
        <time>2025-02-05T09:37:32.316Z</time>
      </trkpt>
      <trkpt lat="43.93394" lon="4.74676">
        <ele>61.14375</ele>
        <time>2025-02-05T09:37:35.326Z</time>
      </trkpt>
      <trkpt lat="43.93387" lon="4.74663">
        <ele>61.176264</ele>
        <time>2025-02-05T09:37:38.328Z</time>
      </trkpt>
      <trkpt lat="43.93379" lon="4.74651">
        <ele>61.20856</ele>
        <time>2025-02-05T09:37:41.322Z</time>
      </trkpt>
      <trkpt lat="43.93371" lon="4.7464">
        <ele>61.238981</ele>
        <time>2025-02-05T09:37:44.339Z</time>
      </trkpt>
      <trkpt lat="43.93365" lon="4.74628">
        <ele>61.269365</ele>
        <time>2025-02-05T09:37:47.341Z</time>
      </trkpt>
      <trkpt lat="43.93357" lon="4.74617">
        <ele>61.298355</ele>
        <time>2025-02-05T09:37:50.344Z</time>
      </trkpt>
      <trkpt lat="43.93351" lon="4.74607">
        <ele>61.324988</ele>
        <time>2025-02-05T09:37:53.319Z</time>
      </trkpt>
      <trkpt lat="43.93344" lon="4.74597">
        <ele>61.353313</ele>
        <time>2025-02-05T09:37:56.336Z</time>
      </trkpt>
      <trkpt lat="43.93337" lon="4.74586">
        <ele>61.383113</ele>
        <time>2025-02-05T09:37:59.333Z</time>
      </trkpt>
      <trkpt lat="43.93329" lon="4.74575">
        <ele>61.412366</ele>
        <time>2025-02-05T09:38:02.306Z</time>
      </trkpt>
      <trkpt lat="43.93322" lon="4.74564">
        <ele>61.440515</ele>
        <time>2025-02-05T09:38:05.320Z</time>
      </trkpt>
      <trkpt lat="43.93315" lon="4.74554">
        <ele>61.469178</ele>
        <time>2025-02-05T09:38:08.331Z</time>
      </trkpt>
      <trkpt lat="43.93307" lon="4.74543">
        <ele>61.500935</ele>
        <time>2025-02-05T09:38:11.320Z</time>
      </trkpt>
      <trkpt lat="43.93299" lon="4.74531">
        <ele>61.532972</ele>
        <time>2025-02-05T09:38:14.304Z</time>
      </trkpt>
      <trkpt lat="43.9329" lon="4.74519">
        <ele>61.565434</ele>
        <time>2025-02-05T09:38:17.330Z</time>
      </trkpt>
      <trkpt lat="43.93282" lon="4.74508">
        <ele>61.771465</ele>
        <time>2025-02-05T09:38:20.316Z</time>
      </trkpt>
      <trkpt lat="43.93274" lon="4.74497">
        <ele>61.978665</ele>
        <time>2025-02-05T09:38:23.341Z</time>
      </trkpt>
      <trkpt lat="43.93266" lon="4.74487">
        <ele>62.174884</ele>
        <time>2025-02-05T09:38:26.338Z</time>
      </trkpt>
      <trkpt lat="43.93258" lon="4.74477">
        <ele>62.363388</ele>
        <time>2025-02-05T09:38:29.330Z</time>
      </trkpt>
      <trkpt lat="43.93249" lon="4.74469">
        <ele>62.564063</ele>
        <time>2025-02-05T09:38:32.317Z</time>
      </trkpt>
      <trkpt lat="43.93239" lon="4.74461">
        <ele>62.777776</ele>
        <time>2025-02-05T09:38:35.305Z</time>
      </trkpt>
      <trkpt lat="43.93228" lon="4.74456">
        <ele>62.985682</ele>
        <time>2025-02-05T09:38:38.332Z</time>
      </trkpt>
      <trkpt lat="43.93217" lon="4.74452">
        <ele>63.183348</ele>
        <time>2025-02-05T09:38:42.328Z</time>
      </trkpt>
      <trkpt lat="43.93207" lon="4.7445">
        <ele>63.370815</ele>
        <time>2025-02-05T09:38:47.326Z</time>
      </trkpt>
      <trkpt lat="43.93197" lon="4.74447">
        <ele>63.556276</ele>
        <time>2025-02-05T09:38:52.329Z</time>
      </trkpt>
      <trkpt lat="43.93189" lon="4.74441">
        <ele>63.723318</ele>
        <time>2025-02-05T09:38:56.332Z</time>
      </trkpt>
      <trkpt lat="43.93181" lon="4.74433">
        <ele>63.901691</ele>
        <time>2025-02-05T09:39:00.326Z</time>
      </trkpt>
      <trkpt lat="43.93173" lon="4.74422">
        <ele>64.103119</ele>
        <time>2025-02-05T09:39:05.333Z</time>
      </trkpt>
      <trkpt lat="43.93168" lon="4.74411">
        <ele>64.281126</ele>
        <time>2025-02-05T09:39:09.331Z</time>
      </trkpt>
      <trkpt lat="43.9316" lon="4.74401">
        <ele>64.477201</ele>
        <time>2025-02-05T09:39:13.332Z</time>
      </trkpt>
      <trkpt lat="43.93153" lon="4.74392">
        <ele>64.644588</ele>
        <time>2025-02-05T09:39:17.348Z</time>
      </trkpt>
      <trkpt lat="43.93145" lon="4.74386">
        <ele>64.813429</ele>
        <time>2025-02-05T09:39:21.317Z</time>
      </trkpt>
      <trkpt lat="43.9313" lon="4.74371">
        <ele>64.863816</ele>
        <time>2025-02-05T09:40:14.333Z</time>
      </trkpt>
      <trkpt lat="43.93121" lon="4.74365">
        <ele>64.876514</ele>
        <time>2025-02-05T09:40:18.313Z</time>
      </trkpt>
      <trkpt lat="43.9311" lon="4.74358">
        <ele>64.890199</ele>
        <time>2025-02-05T09:40:22.338Z</time>
      </trkpt>
      <trkpt lat="43.931" lon="4.74351">
        <ele>64.904582</ele>
        <time>2025-02-05T09:40:26.330Z</time>
      </trkpt>
      <trkpt lat="43.93092" lon="4.74344">
        <ele>64.916031</ele>
        <time>2025-02-05T09:40:29.316Z</time>
      </trkpt>
      <trkpt lat="43.93084" lon="4.74337">
        <ele>64.92748</ele>
        <time>2025-02-05T09:40:32.335Z</time>
      </trkpt>
      <trkpt lat="43.93075" lon="4.74332">
        <ele>64.938975</ele>
        <time>2025-02-05T09:40:35.313Z</time>
      </trkpt>
      <trkpt lat="43.93065" lon="4.74324">
        <ele>64.953314</ele>
        <time>2025-02-05T09:40:39.315Z</time>
      </trkpt>
      <trkpt lat="43.93057" lon="4.74317">
        <ele>64.964273</ele>
        <time>2025-02-05T09:40:42.318Z</time>
      </trkpt>
      <trkpt lat="43.9305" lon="4.74309">
        <ele>64.975648</ele>
        <time>2025-02-05T09:40:45.334Z</time>
      </trkpt>
      <trkpt lat="43.93042" lon="4.743">
        <ele>64.987452</ele>
        <time>2025-02-05T09:40:48.312Z</time>
      </trkpt>
      <trkpt lat="43.93034" lon="4.74291">
        <ele>64.999683</ele>
        <time>2025-02-05T09:40:51.338Z</time>
      </trkpt>
      <trkpt lat="43.93026" lon="4.74282">
        <ele>65.012805</ele>
        <time>2025-02-05T09:40:54.326Z</time>
      </trkpt>
      <trkpt lat="43.93018" lon="4.74272">
        <ele>65.025854</ele>
        <time>2025-02-05T09:40:57.328Z</time>
      </trkpt>
      <trkpt lat="43.93008" lon="4.74264">
        <ele>65.03919</ele>
        <time>2025-02-05T09:41:00.319Z</time>
      </trkpt>
      <trkpt lat="43.92999" lon="4.74255">
        <ele>65.052769</ele>
        <time>2025-02-05T09:41:03.308Z</time>
      </trkpt>
      <trkpt lat="43.92991" lon="4.74244">
        <ele>65.07466</ele>
        <time>2025-02-05T09:41:06.351Z</time>
      </trkpt>
      <trkpt lat="43.92985" lon="4.74235">
        <ele>65.105426</ele>
        <time>2025-02-05T09:41:09.303Z</time>
      </trkpt>
      <trkpt lat="43.92977" lon="4.74227">
        <ele>65.137304</ele>
        <time>2025-02-05T09:41:12.318Z</time>
      </trkpt>
      <trkpt lat="43.92969" lon="4.74218">
        <ele>65.171135</ele>
        <time>2025-02-05T09:41:15.301Z</time>
      </trkpt>
      <trkpt lat="43.9296" lon="4.74211">
        <ele>65.20552</ele>
        <time>2025-02-05T09:41:18.323Z</time>
      </trkpt>
      <trkpt lat="43.92952" lon="4.74202">
        <ele>65.239952</ele>
        <time>2025-02-05T09:41:21.306Z</time>
      </trkpt>
      <trkpt lat="43.92945" lon="4.74193">
        <ele>65.27198</ele>
        <time>2025-02-05T09:41:24.314Z</time>
      </trkpt>
      <trkpt lat="43.92937" lon="4.74184">
        <ele>65.305517</ele>
        <time>2025-02-05T09:41:27.332Z</time>
      </trkpt>
      <trkpt lat="43.9293" lon="4.74175">
        <ele>65.338219</ele>
        <time>2025-02-05T09:41:30.344Z</time>
      </trkpt>
      <trkpt lat="43.92922" lon="4.74167">
        <ele>65.369832</ele>
        <time>2025-02-05T09:41:33.340Z</time>
      </trkpt>
      <trkpt lat="43.92915" lon="4.74158">
        <ele>65.403239</ele>
        <time>2025-02-05T09:41:36.328Z</time>
      </trkpt>
      <trkpt lat="43.92907" lon="4.74148">
        <ele>65.436078</ele>
        <time>2025-02-05T09:41:39.406Z</time>
      </trkpt>
      <trkpt lat="43.92899" lon="4.7414">
        <ele>65.470286</ele>
        <time>2025-02-05T09:41:42.304Z</time>
      </trkpt>
      <trkpt lat="43.92891" lon="4.74131">
        <ele>65.504757</ele>
        <time>2025-02-05T09:41:45.343Z</time>
      </trkpt>
      <trkpt lat="43.92882" lon="4.74121">
        <ele>65.541742</ele>
        <time>2025-02-05T09:41:48.320Z</time>
      </trkpt>
      <trkpt lat="43.92873" lon="4.74112">
        <ele>65.577704</ele>
        <time>2025-02-05T09:41:51.312Z</time>
      </trkpt>
      <trkpt lat="43.92865" lon="4.74103">
        <ele>65.6142</ele>
        <time>2025-02-05T09:41:54.323Z</time>
      </trkpt>
      <trkpt lat="43.92856" lon="4.74094">
        <ele>65.650777</ele>
        <time>2025-02-05T09:41:57.324Z</time>
      </trkpt>
      <trkpt lat="43.92847" lon="4.74085">
        <ele>65.553061</ele>
        <time>2025-02-05T09:42:00.338Z</time>
      </trkpt>
      <trkpt lat="43.92838" lon="4.74076">
        <ele>65.423316</ele>
        <time>2025-02-05T09:42:03.344Z</time>
      </trkpt>
      <trkpt lat="43.92829" lon="4.74067">
        <ele>65.287687</ele>
        <time>2025-02-05T09:42:06.334Z</time>
      </trkpt>
      <trkpt lat="43.92821" lon="4.74056">
        <ele>65.155143</ele>
        <time>2025-02-05T09:42:09.323Z</time>
      </trkpt>
      <trkpt lat="43.92813" lon="4.74046">
        <ele>65.031556</ele>
        <time>2025-02-05T09:42:12.323Z</time>
      </trkpt>
      <trkpt lat="43.92807" lon="4.74034">
        <ele>64.906978</ele>
        <time>2025-02-05T09:42:15.325Z</time>
      </trkpt>
      <trkpt lat="43.92801" lon="4.74021">
        <ele>64.773413</ele>
        <time>2025-02-05T09:42:18.334Z</time>
      </trkpt>
      <trkpt lat="43.92795" lon="4.74007">
        <ele>64.640197</ele>
        <time>2025-02-05T09:42:21.319Z</time>
      </trkpt>
      <trkpt lat="43.92788" lon="4.73995">
        <ele>64.510796</ele>
        <time>2025-02-05T09:42:24.324Z</time>
      </trkpt>
      <trkpt lat="43.92781" lon="4.73982">
        <ele>64.375099</ele>
        <time>2025-02-05T09:42:27.328Z</time>
      </trkpt>
      <trkpt lat="43.92774" lon="4.7397">
        <ele>64.238597</ele>
        <time>2025-02-05T09:42:30.330Z</time>
      </trkpt>
      <trkpt lat="43.92768" lon="4.73958">
        <ele>64.113934</ele>
        <time>2025-02-05T09:42:33.321Z</time>
      </trkpt>
      <trkpt lat="43.92761" lon="4.73947">
        <ele>63.987627</ele>
        <time>2025-02-05T09:42:36.341Z</time>
      </trkpt>
      <trkpt lat="43.92754" lon="4.73934">
        <ele>63.850589</ele>
        <time>2025-02-05T09:42:39.319Z</time>
      </trkpt>
      <trkpt lat="43.92746" lon="4.73922">
        <ele>63.715298</ele>
        <time>2025-02-05T09:42:42.312Z</time>
      </trkpt>
      <trkpt lat="43.92741" lon="4.7391">
        <ele>63.59679</ele>
        <time>2025-02-05T09:42:45.327Z</time>
      </trkpt>
      <trkpt lat="43.92735" lon="4.739">
        <ele>63.524248</ele>
        <time>2025-02-05T09:42:48.325Z</time>
      </trkpt>
      <trkpt lat="43.9273" lon="4.73889">
        <ele>63.491581</ele>
        <time>2025-02-05T09:42:51.320Z</time>
      </trkpt>
      <trkpt lat="43.92723" lon="4.7388">
        <ele>63.458207</ele>
        <time>2025-02-05T09:42:54.314Z</time>
      </trkpt>
      <trkpt lat="43.92715" lon="4.73872">
        <ele>63.424529</ele>
        <time>2025-02-05T09:42:57.311Z</time>
      </trkpt>
      <trkpt lat="43.92717" lon="4.73859">
        <ele>63.393155</ele>
        <time>2025-02-05T09:43:00.333Z</time>
      </trkpt>
      <trkpt lat="43.92718" lon="4.73846">
        <ele>63.35945</ele>
        <time>2025-02-05T09:43:03.324Z</time>
      </trkpt>
      <trkpt lat="43.92714" lon="4.73834">
        <ele>63.324262</ele>
        <time>2025-02-05T09:43:06.328Z</time>
      </trkpt>
      <trkpt lat="43.92706" lon="4.73824">
        <ele>63.288741</ele>
        <time>2025-02-05T09:43:09.298Z</time>
      </trkpt>
      <trkpt lat="43.92699" lon="4.73814">
        <ele>63.253843</ele>
        <time>2025-02-05T09:43:12.307Z</time>
      </trkpt>
      <trkpt lat="43.92691" lon="4.73804">
        <ele>63.217755</ele>
        <time>2025-02-05T09:43:15.317Z</time>
      </trkpt>
      <trkpt lat="43.92683" lon="4.73795">
        <ele>63.181863</ele>
        <time>2025-02-05T09:43:18.324Z</time>
      </trkpt>
      <trkpt lat="43.92675" lon="4.73784">
        <ele>63.141193</ele>
        <time>2025-02-05T09:43:21.314Z</time>
      </trkpt>
      <trkpt lat="43.92666" lon="4.73774">
        <ele>63.103218</ele>
        <time>2025-02-05T09:43:24.321Z</time>
      </trkpt>
      <trkpt lat="43.92659" lon="4.73764">
        <ele>63.068001</ele>
        <time>2025-02-05T09:43:27.329Z</time>
      </trkpt>
      <trkpt lat="43.92651" lon="4.73755">
        <ele>63.032152</ele>
        <time>2025-02-05T09:43:30.340Z</time>
      </trkpt>
      <trkpt lat="43.92642" lon="4.73745">
        <ele>62.991405</ele>
        <time>2025-02-05T09:43:33.331Z</time>
      </trkpt>
      <trkpt lat="43.92632" lon="4.73734">
        <ele>62.948409</ele>
        <time>2025-02-05T09:43:36.299Z</time>
      </trkpt>
      <trkpt lat="43.92623" lon="4.73724">
        <ele>62.921698</ele>
        <time>2025-02-05T09:43:39.318Z</time>
      </trkpt>
      <trkpt lat="43.92614" lon="4.73714">
        <ele>62.959068</ele>
        <time>2025-02-05T09:43:42.319Z</time>
      </trkpt>
      <trkpt lat="43.92605" lon="4.73701">
        <ele>63.000611</ele>
        <time>2025-02-05T09:43:45.308Z</time>
      </trkpt>
      <trkpt lat="43.92595" lon="4.7369">
        <ele>63.04178</ele>
        <time>2025-02-05T09:43:48.321Z</time>
      </trkpt>
      <trkpt lat="43.92586" lon="4.73679">
        <ele>63.079018</ele>
        <time>2025-02-05T09:43:51.317Z</time>
      </trkpt>
      <trkpt lat="43.92578" lon="4.73669">
        <ele>63.114229</ele>
        <time>2025-02-05T09:43:54.339Z</time>
      </trkpt>
      <trkpt lat="43.92568" lon="4.73659">
        <ele>63.153528</ele>
        <time>2025-02-05T09:43:57.343Z</time>
      </trkpt>
      <trkpt lat="43.92559" lon="4.73648">
        <ele>63.193066</ele>
        <time>2025-02-05T09:44:00.303Z</time>
      </trkpt>
      <trkpt lat="43.9255" lon="4.73636">
        <ele>63.233118</ele>
        <time>2025-02-05T09:44:03.319Z</time>
      </trkpt>
      <trkpt lat="43.9254" lon="4.73625">
        <ele>63.27188</ele>
        <time>2025-02-05T09:44:06.317Z</time>
      </trkpt>
      <trkpt lat="43.92531" lon="4.73615">
        <ele>63.309843</ele>
        <time>2025-02-05T09:44:09.326Z</time>
      </trkpt>
      <trkpt lat="43.92522" lon="4.73604">
        <ele>63.347957</ele>
        <time>2025-02-05T09:44:12.315Z</time>
      </trkpt>
      <trkpt lat="43.92513" lon="4.73593">
        <ele>63.385968</ele>
        <time>2025-02-05T09:44:15.322Z</time>
      </trkpt>
      <trkpt lat="43.92504" lon="4.73583">
        <ele>63.423538</ele>
        <time>2025-02-05T09:44:18.335Z</time>
      </trkpt>
      <trkpt lat="43.92494" lon="4.73571">
        <ele>63.465628</ele>
        <time>2025-02-05T09:44:21.315Z</time>
      </trkpt>
      <trkpt lat="43.92485" lon="4.73559">
        <ele>63.429449</ele>
        <time>2025-02-05T09:44:24.311Z</time>
      </trkpt>
      <trkpt lat="43.92475" lon="4.73546">
        <ele>63.263337</ele>
        <time>2025-02-05T09:44:27.323Z</time>
      </trkpt>
      <trkpt lat="43.92468" lon="4.73538">
        <ele>63.150204</ele>
        <time>2025-02-05T09:44:29.314Z</time>
      </trkpt>
      <trkpt lat="43.92458" lon="4.73526">
        <ele>62.989016</ele>
        <time>2025-02-05T09:44:32.321Z</time>
      </trkpt>
      <trkpt lat="43.92449" lon="4.73514">
        <ele>62.829644</ele>
        <time>2025-02-05T09:44:35.321Z</time>
      </trkpt>
      <trkpt lat="43.9244" lon="4.73501">
        <ele>62.670813</ele>
        <time>2025-02-05T09:44:38.324Z</time>
      </trkpt>
      <trkpt lat="43.92431" lon="4.73488">
        <ele>62.507835</ele>
        <time>2025-02-05T09:44:41.318Z</time>
      </trkpt>
      <trkpt lat="43.92423" lon="4.73475">
        <ele>62.349368</ele>
        <time>2025-02-05T09:44:44.294Z</time>
      </trkpt>
      <trkpt lat="43.92414" lon="4.73462">
        <ele>62.191192</ele>
        <time>2025-02-05T09:44:47.326Z</time>
      </trkpt>
      <trkpt lat="43.92405" lon="4.7345">
        <ele>62.035758</ele>
        <time>2025-02-05T09:44:50.323Z</time>
      </trkpt>
      <trkpt lat="43.92397" lon="4.73437">
        <ele>61.880396</ele>
        <time>2025-02-05T09:44:53.321Z</time>
      </trkpt>
      <trkpt lat="43.92388" lon="4.73426">
        <ele>61.731736</ele>
        <time>2025-02-05T09:44:56.320Z</time>
      </trkpt>
      <trkpt lat="43.9238" lon="4.73416">
        <ele>61.597729</ele>
        <time>2025-02-05T09:44:59.317Z</time>
      </trkpt>
      <trkpt lat="43.92373" lon="4.73407">
        <ele>61.476543</ele>
        <time>2025-02-05T09:45:02.313Z</time>
      </trkpt>
      <trkpt lat="43.92366" lon="4.73397">
        <ele>61.354397</ele>
        <time>2025-02-05T09:45:06.309Z</time>
      </trkpt>
      <trkpt lat="43.92357" lon="4.73388">
        <ele>61.238443</ele>
        <time>2025-02-05T09:45:26.330Z</time>
      </trkpt>
      <trkpt lat="43.92348" lon="4.73377">
        <ele>61.196797</ele>
        <time>2025-02-05T09:45:30.321Z</time>
      </trkpt>
      <trkpt lat="43.9234" lon="4.73368">
        <ele>61.160287</ele>
        <time>2025-02-05T09:45:33.301Z</time>
      </trkpt>
      <trkpt lat="43.92331" lon="4.73358">
        <ele>61.121954</ele>
        <time>2025-02-05T09:45:36.330Z</time>
      </trkpt>
      <trkpt lat="43.92323" lon="4.73348">
        <ele>61.08395</ele>
        <time>2025-02-05T09:45:39.319Z</time>
      </trkpt>
      <trkpt lat="43.92314" lon="4.73338">
        <ele>61.045482</ele>
        <time>2025-02-05T09:45:42.341Z</time>
      </trkpt>
      <trkpt lat="43.92305" lon="4.73327">
        <ele>61.002822</ele>
        <time>2025-02-05T09:45:45.315Z</time>
      </trkpt>
      <trkpt lat="43.92296" lon="4.73316">
        <ele>60.962558</ele>
        <time>2025-02-05T09:45:48.290Z</time>
      </trkpt>
      <trkpt lat="43.92287" lon="4.73305">
        <ele>60.920544</ele>
        <time>2025-02-05T09:45:51.306Z</time>
      </trkpt>
      <trkpt lat="43.92277" lon="4.73294">
        <ele>60.87636</ele>
        <time>2025-02-05T09:45:54.335Z</time>
      </trkpt>
      <trkpt lat="43.92267" lon="4.73281">
        <ele>60.83112</ele>
        <time>2025-02-05T09:45:57.318Z</time>
      </trkpt>
      <trkpt lat="43.92258" lon="4.7327">
        <ele>60.787814</ele>
        <time>2025-02-05T09:46:00.323Z</time>
      </trkpt>
      <trkpt lat="43.92248" lon="4.73258">
        <ele>60.743146</ele>
        <time>2025-02-05T09:46:03.319Z</time>
      </trkpt>
      <trkpt lat="43.92238" lon="4.73246">
        <ele>60.698275</ele>
        <time>2025-02-05T09:46:06.327Z</time>
      </trkpt>
      <trkpt lat="43.92228" lon="4.73235">
        <ele>60.654225</ele>
        <time>2025-02-05T09:46:09.318Z</time>
      </trkpt>
      <trkpt lat="43.92218" lon="4.73224">
        <ele>60.618917</ele>
        <time>2025-02-05T09:46:12.319Z</time>
      </trkpt>
      <trkpt lat="43.92208" lon="4.73214">
        <ele>60.598793</ele>
        <time>2025-02-05T09:46:15.322Z</time>
      </trkpt>
      <trkpt lat="43.92198" lon="4.73202">
        <ele>60.578298</ele>
        <time>2025-02-05T09:46:18.318Z</time>
      </trkpt>
      <trkpt lat="43.92188" lon="4.73192">
        <ele>60.558027</ele>
        <time>2025-02-05T09:46:21.346Z</time>
      </trkpt>
      <trkpt lat="43.92177" lon="4.73181">
        <ele>60.537826</ele>
        <time>2025-02-05T09:46:24.319Z</time>
      </trkpt>
      <trkpt lat="43.92167" lon="4.73171">
        <ele>60.517887</ele>
        <time>2025-02-05T09:46:27.325Z</time>
      </trkpt>
      <trkpt lat="43.92157" lon="4.73161">
        <ele>60.498089</ele>
        <time>2025-02-05T09:46:30.332Z</time>
      </trkpt>
      <trkpt lat="43.92146" lon="4.73151">
        <ele>60.477756</ele>
        <time>2025-02-05T09:46:33.336Z</time>
      </trkpt>
      <trkpt lat="43.92135" lon="4.73142">
        <ele>60.457004</ele>
        <time>2025-02-05T09:46:36.317Z</time>
      </trkpt>
      <trkpt lat="43.92125" lon="4.73131">
        <ele>60.436615</ele>
        <time>2025-02-05T09:46:39.314Z</time>
      </trkpt>
      <trkpt lat="43.92114" lon="4.73121">
        <ele>60.415905</ele>
        <time>2025-02-05T09:46:42.315Z</time>
      </trkpt>
      <trkpt lat="43.92106" lon="4.73114">
        <ele>60.401361</ele>
        <time>2025-02-05T09:46:44.323Z</time>
      </trkpt>
      <trkpt lat="43.92095" lon="4.73104">
        <ele>60.380324</ele>
        <time>2025-02-05T09:46:47.324Z</time>
      </trkpt>
      <trkpt lat="43.92084" lon="4.73094">
        <ele>60.359546</ele>
        <time>2025-02-05T09:46:50.333Z</time>
      </trkpt>
      <trkpt lat="43.92074" lon="4.73084">
        <ele>60.339788</ele>
        <time>2025-02-05T09:46:53.322Z</time>
      </trkpt>
      <trkpt lat="43.92063" lon="4.73075">
        <ele>60.32041</ele>
        <time>2025-02-05T09:46:56.321Z</time>
      </trkpt>
      <trkpt lat="43.92052" lon="4.73066">
        <ele>60.300905</ele>
        <time>2025-02-05T09:46:59.300Z</time>
      </trkpt>
      <trkpt lat="43.92042" lon="4.73057">
        <ele>60.282352</ele>
        <time>2025-02-05T09:47:02.330Z</time>
      </trkpt>
      <trkpt lat="43.92032" lon="4.73049">
        <ele>60.262926</ele>
        <time>2025-02-05T09:47:05.322Z</time>
      </trkpt>
      <trkpt lat="43.92021" lon="4.7304">
        <ele>60.2435</ele>
        <time>2025-02-05T09:47:08.329Z</time>
      </trkpt>
      <trkpt lat="43.9201" lon="4.73032">
        <ele>60.224294</ele>
        <time>2025-02-05T09:47:11.317Z</time>
      </trkpt>
      <trkpt lat="43.91999" lon="4.73024">
        <ele>60.204679</ele>
        <time>2025-02-05T09:47:14.315Z</time>
      </trkpt>
      <trkpt lat="43.91988" lon="4.73015">
        <ele>60.185139</ele>
        <time>2025-02-05T09:47:17.324Z</time>
      </trkpt>
      <trkpt lat="43.91976" lon="4.73007">
        <ele>60.165365</ele>
        <time>2025-02-05T09:47:20.335Z</time>
      </trkpt>
      <trkpt lat="43.91966" lon="4.72999">
        <ele>60.146264</ele>
        <time>2025-02-05T09:47:23.321Z</time>
      </trkpt>
      <trkpt lat="43.91955" lon="4.72991">
        <ele>60.126529</ele>
        <time>2025-02-05T09:47:26.325Z</time>
      </trkpt>
      <trkpt lat="43.91943" lon="4.72983">
        <ele>60.107322</ele>
        <time>2025-02-05T09:47:29.334Z</time>
      </trkpt>
      <trkpt lat="43.91933" lon="4.72975">
        <ele>60.088192</ele>
        <time>2025-02-05T09:47:32.317Z</time>
      </trkpt>
      <trkpt lat="43.91922" lon="4.72968">
        <ele>60.069271</ele>
        <time>2025-02-05T09:47:35.306Z</time>
      </trkpt>
      <trkpt lat="43.9191" lon="4.72961">
        <ele>60.030596</ele>
        <time>2025-02-05T09:47:38.322Z</time>
      </trkpt>
      <trkpt lat="43.919" lon="4.72953">
        <ele>59.983444</ele>
        <time>2025-02-05T09:47:41.315Z</time>
      </trkpt>
      <trkpt lat="43.9189" lon="4.72946">
        <ele>59.936989</ele>
        <time>2025-02-05T09:47:44.325Z</time>
      </trkpt>
      <trkpt lat="43.91879" lon="4.72941">
        <ele>59.890999</ele>
        <time>2025-02-05T09:47:47.311Z</time>
      </trkpt>
      <trkpt lat="43.9187" lon="4.72934">
        <ele>59.84773</ele>
        <time>2025-02-05T09:47:50.519Z</time>
      </trkpt>
      <trkpt lat="43.9186" lon="4.72927">
        <ele>59.80171</ele>
        <time>2025-02-05T09:47:53.350Z</time>
      </trkpt>
      <trkpt lat="43.9185" lon="4.72921">
        <ele>59.756736</ele>
        <time>2025-02-05T09:47:56.293Z</time>
      </trkpt>
      <trkpt lat="43.9184" lon="4.72914">
        <ele>59.713201</ele>
        <time>2025-02-05T09:47:59.318Z</time>
      </trkpt>
      <trkpt lat="43.9183" lon="4.72907">
        <ele>59.668444</ele>
        <time>2025-02-05T09:48:02.297Z</time>
      </trkpt>
      <trkpt lat="43.91821" lon="4.72899">
        <ele>59.623988</ele>
        <time>2025-02-05T09:48:05.307Z</time>
      </trkpt>
      <trkpt lat="43.91812" lon="4.72893">
        <ele>59.582169</ele>
        <time>2025-02-05T09:48:08.301Z</time>
      </trkpt>
      <trkpt lat="43.91802" lon="4.72886">
        <ele>59.538793</ele>
        <time>2025-02-05T09:48:11.327Z</time>
      </trkpt>
      <trkpt lat="43.91793" lon="4.72879">
        <ele>59.495483</ele>
        <time>2025-02-05T09:48:14.332Z</time>
      </trkpt>
      <trkpt lat="43.91783" lon="4.72874">
        <ele>59.450697</ele>
        <time>2025-02-05T09:48:17.313Z</time>
      </trkpt>
      <trkpt lat="43.91773" lon="4.72868">
        <ele>59.408798</ele>
        <time>2025-02-05T09:48:20.321Z</time>
      </trkpt>
      <trkpt lat="43.91764" lon="4.72862">
        <ele>59.365795</ele>
        <time>2025-02-05T09:48:23.305Z</time>
      </trkpt>
      <trkpt lat="43.91754" lon="4.72857">
        <ele>59.337497</ele>
        <time>2025-02-05T09:48:26.331Z</time>
      </trkpt>
      <trkpt lat="43.91745" lon="4.72851">
        <ele>59.395533</ele>
        <time>2025-02-05T09:48:29.321Z</time>
      </trkpt>
      <trkpt lat="43.91734" lon="4.72846">
        <ele>59.456908</ele>
        <time>2025-02-05T09:48:32.346Z</time>
      </trkpt>
      <trkpt lat="43.91724" lon="4.7284">
        <ele>59.516889</ele>
        <time>2025-02-05T09:48:35.333Z</time>
      </trkpt>
      <trkpt lat="43.91714" lon="4.72835">
        <ele>59.57502</ele>
        <time>2025-02-05T09:48:38.330Z</time>
      </trkpt>
      <trkpt lat="43.91705" lon="4.72829">
        <ele>59.634238</ele>
        <time>2025-02-05T09:48:41.304Z</time>
      </trkpt>
      <trkpt lat="43.91694" lon="4.72824">
        <ele>59.696017</ele>
        <time>2025-02-05T09:48:44.327Z</time>
      </trkpt>
      <trkpt lat="43.91684" lon="4.72816">
        <ele>59.762321</ele>
        <time>2025-02-05T09:48:47.336Z</time>
      </trkpt>
      <trkpt lat="43.91674" lon="4.72809">
        <ele>59.823559</ele>
        <time>2025-02-05T09:48:50.329Z</time>
      </trkpt>
      <trkpt lat="43.91664" lon="4.72803">
        <ele>59.885652</ele>
        <time>2025-02-05T09:48:53.310Z</time>
      </trkpt>
      <trkpt lat="43.91654" lon="4.72797">
        <ele>59.946915</ele>
        <time>2025-02-05T09:48:56.317Z</time>
      </trkpt>
      <trkpt lat="43.91643" lon="4.72791">
        <ele>60.011885</ele>
        <time>2025-02-05T09:48:59.325Z</time>
      </trkpt>
      <trkpt lat="43.91633" lon="4.72785">
        <ele>60.073819</ele>
        <time>2025-02-05T09:49:02.316Z</time>
      </trkpt>
      <trkpt lat="43.91622" lon="4.72779">
        <ele>60.136986</ele>
        <time>2025-02-05T09:49:05.318Z</time>
      </trkpt>
      <trkpt lat="43.91612" lon="4.72771">
        <ele>60.199687</ele>
        <time>2025-02-05T09:49:08.321Z</time>
      </trkpt>
      <trkpt lat="43.91603" lon="4.72764">
        <ele>60.259853</ele>
        <time>2025-02-05T09:49:11.306Z</time>
      </trkpt>
      <trkpt lat="43.91593" lon="4.72758">
        <ele>60.322276</ele>
        <time>2025-02-05T09:49:14.330Z</time>
      </trkpt>
      <trkpt lat="43.91583" lon="4.72751">
        <ele>60.318845</ele>
        <time>2025-02-05T09:49:17.323Z</time>
      </trkpt>
      <trkpt lat="43.91573" lon="4.72744">
        <ele>60.302546</ele>
        <time>2025-02-05T09:49:20.323Z</time>
      </trkpt>
      <trkpt lat="43.91563" lon="4.72739">
        <ele>60.286282</ele>
        <time>2025-02-05T09:49:23.317Z</time>
      </trkpt>
      <trkpt lat="43.91553" lon="4.72732">
        <ele>60.269894</ele>
        <time>2025-02-05T09:49:26.321Z</time>
      </trkpt>
      <trkpt lat="43.91543" lon="4.72726">
        <ele>60.253595</ele>
        <time>2025-02-05T09:49:29.320Z</time>
      </trkpt>
      <trkpt lat="43.91534" lon="4.72719">
        <ele>60.23716</ele>
        <time>2025-02-05T09:49:32.306Z</time>
      </trkpt>
      <trkpt lat="43.91524" lon="4.72713">
        <ele>60.220908</ele>
        <time>2025-02-05T09:49:35.345Z</time>
      </trkpt>
      <trkpt lat="43.91514" lon="4.72706">
        <ele>60.204848</ele>
        <time>2025-02-05T09:49:38.298Z</time>
      </trkpt>
      <trkpt lat="43.91504" lon="4.72697">
        <ele>60.18708</ele>
        <time>2025-02-05T09:49:41.302Z</time>
      </trkpt>
      <trkpt lat="43.91495" lon="4.72689">
        <ele>60.170074</ele>
        <time>2025-02-05T09:49:44.298Z</time>
      </trkpt>
      <trkpt lat="43.91485" lon="4.72682">
        <ele>60.153801</ele>
        <time>2025-02-05T09:49:47.345Z</time>
      </trkpt>
      <trkpt lat="43.91475" lon="4.72675">
        <ele>60.137029</ele>
        <time>2025-02-05T09:49:50.336Z</time>
      </trkpt>
      <trkpt lat="43.91466" lon="4.72667">
        <ele>60.121147</ele>
        <time>2025-02-05T09:49:53.322Z</time>
      </trkpt>
      <trkpt lat="43.91456" lon="4.72661">
        <ele>60.1043</ele>
        <time>2025-02-05T09:49:56.306Z</time>
      </trkpt>
      <trkpt lat="43.91446" lon="4.72655">
        <ele>60.087638</ele>
        <time>2025-02-05T09:49:59.309Z</time>
      </trkpt>
      <trkpt lat="43.91435" lon="4.7265">
        <ele>60.070519</ele>
        <time>2025-02-05T09:50:02.307Z</time>
      </trkpt>
      <trkpt lat="43.91424" lon="4.72643">
        <ele>60.037799</ele>
        <time>2025-02-05T09:50:05.317Z</time>
      </trkpt>
      <trkpt lat="43.91414" lon="4.72637">
        <ele>59.994194</ele>
        <time>2025-02-05T09:50:08.306Z</time>
      </trkpt>
      <trkpt lat="43.91404" lon="4.7263">
        <ele>59.953329</ele>
        <time>2025-02-05T09:50:11.322Z</time>
      </trkpt>
      <trkpt lat="43.91394" lon="4.72622">
        <ele>59.910379</ele>
        <time>2025-02-05T09:50:14.305Z</time>
      </trkpt>
      <trkpt lat="43.91385" lon="4.72614">
        <ele>59.86726</ele>
        <time>2025-02-05T09:50:17.309Z</time>
      </trkpt>
      <trkpt lat="43.91374" lon="4.72608">
        <ele>59.824765</ele>
        <time>2025-02-05T09:50:20.348Z</time>
      </trkpt>
      <trkpt lat="43.91364" lon="4.72601">
        <ele>59.781606</ele>
        <time>2025-02-05T09:50:23.318Z</time>
      </trkpt>
      <trkpt lat="43.91354" lon="4.72595">
        <ele>59.738118</ele>
        <time>2025-02-05T09:50:26.318Z</time>
      </trkpt>
      <trkpt lat="43.91344" lon="4.72588">
        <ele>59.694857</ele>
        <time>2025-02-05T09:50:29.327Z</time>
      </trkpt>
      <trkpt lat="43.91333" lon="4.72581">
        <ele>59.651948</ele>
        <time>2025-02-05T09:50:32.295Z</time>
      </trkpt>
      <trkpt lat="43.91323" lon="4.72574">
        <ele>59.608752</ele>
        <time>2025-02-05T09:50:35.310Z</time>
      </trkpt>
      <trkpt lat="43.91314" lon="4.72567">
        <ele>59.56733</ele>
        <time>2025-02-05T09:50:38.333Z</time>
      </trkpt>
      <trkpt lat="43.91303" lon="4.7256">
        <ele>59.521749</ele>
        <time>2025-02-05T09:50:41.318Z</time>
      </trkpt>
      <trkpt lat="43.91293" lon="4.72553">
        <ele>59.478724</ele>
        <time>2025-02-05T09:50:44.332Z</time>
      </trkpt>
      <trkpt lat="43.91283" lon="4.72547">
        <ele>59.436372</ele>
        <time>2025-02-05T09:50:47.318Z</time>
      </trkpt>
      <trkpt lat="43.91273" lon="4.7254">
        <ele>59.393554</ele>
        <time>2025-02-05T09:50:50.318Z</time>
      </trkpt>
      <trkpt lat="43.91263" lon="4.72534">
        <ele>59.357703</ele>
        <time>2025-02-05T09:50:53.330Z</time>
      </trkpt>
      <trkpt lat="43.91253" lon="4.72527">
        <ele>59.32823</ele>
        <time>2025-02-05T09:50:56.330Z</time>
      </trkpt>
      <trkpt lat="43.91243" lon="4.7252">
        <ele>59.297265</ele>
        <time>2025-02-05T09:50:59.319Z</time>
      </trkpt>
      <trkpt lat="43.91234" lon="4.72512">
        <ele>59.26635</ele>
        <time>2025-02-05T09:51:02.337Z</time>
      </trkpt>
      <trkpt lat="43.91224" lon="4.72505">
        <ele>59.236256</ele>
        <time>2025-02-05T09:51:05.326Z</time>
      </trkpt>
      <trkpt lat="43.91215" lon="4.72498">
        <ele>59.206342</ele>
        <time>2025-02-05T09:51:08.307Z</time>
      </trkpt>
      <trkpt lat="43.91205" lon="4.7249">
        <ele>59.175605</ele>
        <time>2025-02-05T09:51:11.319Z</time>
      </trkpt>
      <trkpt lat="43.91196" lon="4.72482">
        <ele>59.144449</ele>
        <time>2025-02-05T09:51:14.309Z</time>
      </trkpt>
      <trkpt lat="43.91186" lon="4.72474">
        <ele>59.11431</ele>
        <time>2025-02-05T09:51:17.301Z</time>
      </trkpt>
      <trkpt lat="43.91177" lon="4.72467">
        <ele>59.085515</ele>
        <time>2025-02-05T09:51:20.322Z</time>
      </trkpt>
      <trkpt lat="43.91167" lon="4.7246">
        <ele>59.055015</ele>
        <time>2025-02-05T09:51:23.346Z</time>
      </trkpt>
      <trkpt lat="43.91158" lon="4.72453">
        <ele>59.025556</ele>
        <time>2025-02-05T09:51:26.322Z</time>
      </trkpt>
      <trkpt lat="43.91149" lon="4.72445">
        <ele>58.995841</ele>
        <time>2025-02-05T09:51:29.316Z</time>
      </trkpt>
      <trkpt lat="43.9114" lon="4.72437">
        <ele>58.966423</ele>
        <time>2025-02-05T09:51:32.313Z</time>
      </trkpt>
      <trkpt lat="43.91131" lon="4.72429">
        <ele>58.935137</ele>
        <time>2025-02-05T09:51:35.316Z</time>
      </trkpt>
      <trkpt lat="43.91122" lon="4.72421">
        <ele>58.906402</ele>
        <time>2025-02-05T09:51:38.337Z</time>
      </trkpt>
      <trkpt lat="43.91112" lon="4.72412">
        <ele>58.877794</ele>
        <time>2025-02-05T09:51:41.318Z</time>
      </trkpt>
      <trkpt lat="43.91103" lon="4.72404">
        <ele>58.944418</ele>
        <time>2025-02-05T09:51:44.321Z</time>
      </trkpt>
      <trkpt lat="43.91094" lon="4.72395">
        <ele>59.009783</ele>
        <time>2025-02-05T09:51:47.317Z</time>
      </trkpt>
      <trkpt lat="43.91084" lon="4.72386">
        <ele>59.075367</ele>
        <time>2025-02-05T09:51:50.326Z</time>
      </trkpt>
      <trkpt lat="43.91075" lon="4.72377">
        <ele>59.138814</ele>
        <time>2025-02-05T09:51:53.315Z</time>
      </trkpt>
      <trkpt lat="43.91067" lon="4.72367">
        <ele>59.201844</ele>
        <time>2025-02-05T09:51:56.320Z</time>
      </trkpt>
      <trkpt lat="43.91059" lon="4.72358">
        <ele>59.26298</ele>
        <time>2025-02-05T09:51:59.342Z</time>
      </trkpt>
      <trkpt lat="43.91051" lon="4.72348">
        <ele>59.325254</ele>
        <time>2025-02-05T09:52:02.322Z</time>
      </trkpt>
      <trkpt lat="43.91042" lon="4.72338">
        <ele>59.388979</ele>
        <time>2025-02-05T09:52:05.332Z</time>
      </trkpt>
      <trkpt lat="43.91034" lon="4.72329">
        <ele>59.450872</ele>
        <time>2025-02-05T09:52:08.318Z</time>
      </trkpt>
      <trkpt lat="43.91025" lon="4.72319">
        <ele>59.515499</ele>
        <time>2025-02-05T09:52:11.336Z</time>
      </trkpt>
      <trkpt lat="43.91017" lon="4.7231">
        <ele>59.576837</ele>
        <time>2025-02-05T09:52:14.321Z</time>
      </trkpt>
      <trkpt lat="43.91008" lon="4.72301">
        <ele>59.639442</ele>
        <time>2025-02-05T09:52:17.312Z</time>
      </trkpt>
      <trkpt lat="43.90999" lon="4.72292">
        <ele>59.70373</ele>
        <time>2025-02-05T09:52:20.327Z</time>
      </trkpt>
      <trkpt lat="43.90991" lon="4.72282">
        <ele>59.769703</ele>
        <time>2025-02-05T09:52:23.316Z</time>
      </trkpt>
      <trkpt lat="43.90982" lon="4.72273">
        <ele>59.831753</ele>
        <time>2025-02-05T09:52:26.328Z</time>
      </trkpt>
      <trkpt lat="43.90973" lon="4.72263">
        <ele>59.897092</ele>
        <time>2025-02-05T09:52:29.315Z</time>
      </trkpt>
      <trkpt lat="43.90965" lon="4.72252">
        <ele>59.900361</ele>
        <time>2025-02-05T09:52:32.336Z</time>
      </trkpt>
      <trkpt lat="43.90958" lon="4.7224">
        <ele>59.878072</ele>
        <time>2025-02-05T09:52:35.322Z</time>
      </trkpt>
      <trkpt lat="43.90951" lon="4.72229">
        <ele>59.855817</ele>
        <time>2025-02-05T09:52:38.323Z</time>
      </trkpt>
      <trkpt lat="43.90944" lon="4.72217">
        <ele>59.833207</ele>
        <time>2025-02-05T09:52:41.320Z</time>
      </trkpt>
      <trkpt lat="43.90938" lon="4.72205">
        <ele>59.811791</ele>
        <time>2025-02-05T09:52:44.325Z</time>
      </trkpt>
      <trkpt lat="43.90931" lon="4.72194">
        <ele>59.790512</ele>
        <time>2025-02-05T09:52:47.341Z</time>
      </trkpt>
      <trkpt lat="43.90924" lon="4.72182">
        <ele>59.768445</ele>
        <time>2025-02-05T09:52:50.316Z</time>
      </trkpt>
      <trkpt lat="43.90916" lon="4.7217">
        <ele>59.744886</ele>
        <time>2025-02-05T09:52:53.317Z</time>
      </trkpt>
      <trkpt lat="43.90909" lon="4.72158">
        <ele>59.721565</ele>
        <time>2025-02-05T09:52:56.335Z</time>
      </trkpt>
      <trkpt lat="43.90902" lon="4.72146">
        <ele>59.698033</ele>
        <time>2025-02-05T09:52:59.316Z</time>
      </trkpt>
      <trkpt lat="43.90894" lon="4.72134">
        <ele>59.674548</ele>
        <time>2025-02-05T09:53:02.329Z</time>
      </trkpt>
      <trkpt lat="43.90886" lon="4.72122">
        <ele>59.651016</ele>
        <time>2025-02-05T09:53:05.320Z</time>
      </trkpt>
      <trkpt lat="43.90879" lon="4.7211">
        <ele>59.62839</ele>
        <time>2025-02-05T09:53:08.334Z</time>
      </trkpt>
      <trkpt lat="43.90872" lon="4.72098">
        <ele>59.606249</ele>
        <time>2025-02-05T09:53:11.323Z</time>
      </trkpt>
      <trkpt lat="43.90865" lon="4.72086">
        <ele>59.583421</ele>
        <time>2025-02-05T09:53:14.324Z</time>
      </trkpt>
      <trkpt lat="43.90858" lon="4.72073">
        <ele>59.559654</ele>
        <time>2025-02-05T09:53:17.336Z</time>
      </trkpt>
      <trkpt lat="43.90851" lon="4.7206">
        <ele>59.483613</ele>
        <time>2025-02-05T09:53:20.340Z</time>
      </trkpt>
      <trkpt lat="43.90844" lon="4.72047">
        <ele>59.380742</ele>
        <time>2025-02-05T09:53:23.316Z</time>
      </trkpt>
      <trkpt lat="43.90837" lon="4.72034">
        <ele>59.273217</ele>
        <time>2025-02-05T09:53:26.333Z</time>
      </trkpt>
      <trkpt lat="43.90829" lon="4.72021">
        <ele>59.165053</ele>
        <time>2025-02-05T09:53:29.332Z</time>
      </trkpt>
      <trkpt lat="43.90822" lon="4.72007">
        <ele>59.053347</ele>
        <time>2025-02-05T09:53:32.296Z</time>
      </trkpt>
      <trkpt lat="43.90814" lon="4.71993">
        <ele>58.942728</ele>
        <time>2025-02-05T09:53:35.315Z</time>
      </trkpt>
      <trkpt lat="43.90806" lon="4.71978">
        <ele>58.82532</ele>
        <time>2025-02-05T09:53:38.329Z</time>
      </trkpt>
      <trkpt lat="43.908" lon="4.71964">
        <ele>58.717234</ele>
        <time>2025-02-05T09:53:41.310Z</time>
      </trkpt>
      <trkpt lat="43.90793" lon="4.7195">
        <ele>58.607131</ele>
        <time>2025-02-05T09:53:44.332Z</time>
      </trkpt>
      <trkpt lat="43.90786" lon="4.71936">
        <ele>58.498046</ele>
        <time>2025-02-05T09:53:47.314Z</time>
      </trkpt>
      <trkpt lat="43.90779" lon="4.71922">
        <ele>58.389422</ele>
        <time>2025-02-05T09:53:50.316Z</time>
      </trkpt>
      <trkpt lat="43.90773" lon="4.71909">
        <ele>58.289697</ele>
        <time>2025-02-05T09:53:53.322Z</time>
      </trkpt>
      <trkpt lat="43.90766" lon="4.71896">
        <ele>58.182208</ele>
        <time>2025-02-05T09:53:56.315Z</time>
      </trkpt>
      <trkpt lat="43.90759" lon="4.71882">
        <ele>58.073143</ele>
        <time>2025-02-05T09:53:59.319Z</time>
      </trkpt>
      <trkpt lat="43.90751" lon="4.71869">
        <ele>57.963417</ele>
        <time>2025-02-05T09:54:02.336Z</time>
      </trkpt>
      <trkpt lat="43.90745" lon="4.71854">
        <ele>58.012532</ele>
        <time>2025-02-05T09:54:05.324Z</time>
      </trkpt>
      <trkpt lat="43.9074" lon="4.71838">
        <ele>58.096674</ele>
        <time>2025-02-05T09:54:08.334Z</time>
      </trkpt>
      <trkpt lat="43.90734" lon="4.71822">
        <ele>58.177405</ele>
        <time>2025-02-05T09:54:11.324Z</time>
      </trkpt>
      <trkpt lat="43.90728" lon="4.71807">
        <ele>58.260849</ele>
        <time>2025-02-05T09:54:14.310Z</time>
      </trkpt>
      <trkpt lat="43.90723" lon="4.71793">
        <ele>58.338324</ele>
        <time>2025-02-05T09:54:17.332Z</time>
      </trkpt>
      <trkpt lat="43.90717" lon="4.71778">
        <ele>58.415496</ele>
        <time>2025-02-05T09:54:20.334Z</time>
      </trkpt>
      <trkpt lat="43.90711" lon="4.71763">
        <ele>58.496099</ele>
        <time>2025-02-05T09:54:23.364Z</time>
      </trkpt>
      <trkpt lat="43.90706" lon="4.71748">
        <ele>58.578696</ele>
        <time>2025-02-05T09:54:26.321Z</time>
      </trkpt>
      <trkpt lat="43.907" lon="4.71732">
        <ele>58.66384</ele>
        <time>2025-02-05T09:54:29.351Z</time>
      </trkpt>
      <trkpt lat="43.90695" lon="4.71717">
        <ele>58.738873</ele>
        <time>2025-02-05T09:54:32.305Z</time>
      </trkpt>
      <trkpt lat="43.90691" lon="4.71702">
        <ele>58.815009</ele>
        <time>2025-02-05T09:54:36.315Z</time>
      </trkpt>
      <trkpt lat="43.90686" lon="4.71688">
        <ele>58.888749</ele>
        <time>2025-02-05T09:54:40.332Z</time>
      </trkpt>
      <trkpt lat="43.90682" lon="4.71676">
        <ele>58.953265</ele>
        <time>2025-02-05T09:54:43.317Z</time>
      </trkpt>
      <trkpt lat="43.90677" lon="4.71664">
        <ele>59.020622</ele>
        <time>2025-02-05T09:54:46.320Z</time>
      </trkpt>
      <trkpt lat="43.90672" lon="4.71651">
        <ele>59.088517</ele>
        <time>2025-02-05T09:54:49.319Z</time>
      </trkpt>
      <trkpt lat="43.90669" lon="4.71639">
        <ele>59.118808</ele>
        <time>2025-02-05T09:54:52.321Z</time>
      </trkpt>
      <trkpt lat="43.90665" lon="4.71625">
        <ele>59.08468</ele>
        <time>2025-02-05T09:54:55.317Z</time>
      </trkpt>
      <trkpt lat="43.90661" lon="4.71613">
        <ele>59.051905</ele>
        <time>2025-02-05T09:54:58.322Z</time>
      </trkpt>
      <trkpt lat="43.90656" lon="4.716">
        <ele>59.017369</ele>
        <time>2025-02-05T09:55:01.320Z</time>
      </trkpt>
      <trkpt lat="43.90652" lon="4.71586">
        <ele>58.981399</ele>
        <time>2025-02-05T09:55:04.315Z</time>
      </trkpt>
      <trkpt lat="43.90648" lon="4.71573">
        <ele>58.947097</ele>
        <time>2025-02-05T09:55:07.316Z</time>
      </trkpt>
      <trkpt lat="43.90643" lon="4.7156">
        <ele>58.911449</ele>
        <time>2025-02-05T09:55:10.324Z</time>
      </trkpt>
      <trkpt lat="43.90637" lon="4.71546">
        <ele>58.873974</ele>
        <time>2025-02-05T09:55:13.333Z</time>
      </trkpt>
      <trkpt lat="43.90632" lon="4.71531">
        <ele>58.835971</ele>
        <time>2025-02-05T09:55:16.310Z</time>
      </trkpt>
      <trkpt lat="43.90627" lon="4.71517">
        <ele>58.79717</ele>
        <time>2025-02-05T09:55:19.326Z</time>
      </trkpt>
      <trkpt lat="43.90622" lon="4.71502">
        <ele>58.756727</ele>
        <time>2025-02-05T09:55:22.319Z</time>
      </trkpt>
      <trkpt lat="43.90616" lon="4.71488">
        <ele>58.719352</ele>
        <time>2025-02-05T09:55:25.312Z</time>
      </trkpt>
      <trkpt lat="43.90611" lon="4.71474">
        <ele>58.682552</ele>
        <time>2025-02-05T09:55:28.324Z</time>
      </trkpt>
      <trkpt lat="43.90606" lon="4.7146">
        <ele>58.645904</ele>
        <time>2025-02-05T09:55:31.318Z</time>
      </trkpt>
      <trkpt lat="43.90601" lon="4.71447">
        <ele>58.609104</ele>
        <time>2025-02-05T09:55:34.333Z</time>
      </trkpt>
      <trkpt lat="43.90596" lon="4.71433">
        <ele>58.571516</ele>
        <time>2025-02-05T09:55:37.324Z</time>
      </trkpt>
      <trkpt lat="43.90591" lon="4.71418">
        <ele>58.535407</ele>
        <time>2025-02-05T09:55:40.324Z</time>
      </trkpt>
      <trkpt lat="43.90586" lon="4.71403">
        <ele>58.558204</ele>
        <time>2025-02-05T09:55:43.314Z</time>
      </trkpt>
      <trkpt lat="43.90582" lon="4.71389">
        <ele>58.580052</ele>
        <time>2025-02-05T09:55:46.316Z</time>
      </trkpt>
      <trkpt lat="43.90576" lon="4.71374">
        <ele>58.602562</ele>
        <time>2025-02-05T09:55:49.322Z</time>
      </trkpt>
      <trkpt lat="43.90572" lon="4.71359">
        <ele>58.625332</ele>
        <time>2025-02-05T09:55:52.329Z</time>
      </trkpt>
      <trkpt lat="43.90567" lon="4.71343">
        <ele>58.649106</ele>
        <time>2025-02-05T09:55:55.311Z</time>
      </trkpt>
      <trkpt lat="43.90562" lon="4.71329">
        <ele>58.672375</ele>
        <time>2025-02-05T09:55:58.321Z</time>
      </trkpt>
      <trkpt lat="43.90557" lon="4.71313">
        <ele>58.695893</ele>
        <time>2025-02-05T09:56:01.315Z</time>
      </trkpt>
      <trkpt lat="43.90551" lon="4.71298">
        <ele>58.719491</ele>
        <time>2025-02-05T09:56:04.320Z</time>
      </trkpt>
      <trkpt lat="43.90546" lon="4.71282">
        <ele>58.744282</ele>
        <time>2025-02-05T09:56:07.314Z</time>
      </trkpt>
      <trkpt lat="43.9054" lon="4.71267">
        <ele>58.768302</ele>
        <time>2025-02-05T09:56:10.332Z</time>
      </trkpt>
      <trkpt lat="43.90534" lon="4.71252">
        <ele>58.791346</ele>
        <time>2025-02-05T09:56:13.334Z</time>
      </trkpt>
      <trkpt lat="43.9053" lon="4.71238">
        <ele>58.812963</ele>
        <time>2025-02-05T09:56:16.318Z</time>
      </trkpt>
      <trkpt lat="43.90525" lon="4.71223">
        <ele>58.835307</ele>
        <time>2025-02-05T09:56:19.326Z</time>
      </trkpt>
      <trkpt lat="43.9052" lon="4.71208">
        <ele>58.858752</ele>
        <time>2025-02-05T09:56:22.315Z</time>
      </trkpt>
      <trkpt lat="43.90515" lon="4.71194">
        <ele>58.881395</ele>
        <time>2025-02-05T09:56:25.319Z</time>
      </trkpt>
      <trkpt lat="43.9051" lon="4.7118">
        <ele>58.944921</ele>
        <time>2025-02-05T09:56:28.321Z</time>
      </trkpt>
      <trkpt lat="43.90504" lon="4.71166">
        <ele>59.012515</ele>
        <time>2025-02-05T09:56:31.323Z</time>
      </trkpt>
      <trkpt lat="43.90498" lon="4.71152">
        <ele>59.080392</ele>
        <time>2025-02-05T09:56:34.341Z</time>
      </trkpt>
      <trkpt lat="43.90493" lon="4.71137">
        <ele>59.149092</ele>
        <time>2025-02-05T09:56:37.319Z</time>
      </trkpt>
      <trkpt lat="43.90488" lon="4.71123">
        <ele>59.216201</ele>
        <time>2025-02-05T09:56:40.338Z</time>
      </trkpt>
      <trkpt lat="43.90482" lon="4.71109">
        <ele>59.283715</ele>
        <time>2025-02-05T09:56:43.319Z</time>
      </trkpt>
      <trkpt lat="43.90477" lon="4.71093">
        <ele>59.35475</ele>
        <time>2025-02-05T09:56:46.329Z</time>
      </trkpt>
      <trkpt lat="43.90472" lon="4.71079">
        <ele>59.421229</ele>
        <time>2025-02-05T09:56:49.335Z</time>
      </trkpt>
      <trkpt lat="43.90467" lon="4.71064">
        <ele>59.488284</ele>
        <time>2025-02-05T09:56:52.334Z</time>
      </trkpt>
      <trkpt lat="43.90463" lon="4.71049">
        <ele>59.557429</ele>
        <time>2025-02-05T09:56:55.330Z</time>
      </trkpt>
      <trkpt lat="43.90458" lon="4.71035">
        <ele>59.625952</ele>
        <time>2025-02-05T09:56:58.334Z</time>
      </trkpt>
      <trkpt lat="43.90453" lon="4.71019">
        <ele>59.697735</ele>
        <time>2025-02-05T09:57:01.327Z</time>
      </trkpt>
      <trkpt lat="43.90448" lon="4.71004">
        <ele>59.766407</ele>
        <time>2025-02-05T09:57:04.333Z</time>
      </trkpt>
      <trkpt lat="43.90442" lon="4.70989">
        <ele>59.837419</ele>
        <time>2025-02-05T09:57:07.318Z</time>
      </trkpt>
      <trkpt lat="43.90437" lon="4.70973">
        <ele>59.910589</ele>
        <time>2025-02-05T09:57:10.340Z</time>
      </trkpt>
      <trkpt lat="43.9043" lon="4.70959">
        <ele>59.897167</ele>
        <time>2025-02-05T09:57:13.326Z</time>
      </trkpt>
      <trkpt lat="43.90424" lon="4.70943">
        <ele>59.849261</ele>
        <time>2025-02-05T09:57:16.344Z</time>
      </trkpt>
      <trkpt lat="43.90419" lon="4.70927">
        <ele>59.804252</ele>
        <time>2025-02-05T09:57:19.319Z</time>
      </trkpt>
      <trkpt lat="43.90414" lon="4.70912">
        <ele>59.758107</ele>
        <time>2025-02-05T09:57:22.334Z</time>
      </trkpt>
      <trkpt lat="43.90408" lon="4.70896">
        <ele>59.711911</ele>
        <time>2025-02-05T09:57:25.325Z</time>
      </trkpt>
      <trkpt lat="43.90402" lon="4.70881">
        <ele>59.66441</ele>
        <time>2025-02-05T09:57:28.305Z</time>
      </trkpt>
      <trkpt lat="43.90396" lon="4.70865">
        <ele>59.616836</ele>
        <time>2025-02-05T09:57:31.316Z</time>
      </trkpt>
      <trkpt lat="43.9039" lon="4.70848">
        <ele>59.567335</ele>
        <time>2025-02-05T09:57:34.321Z</time>
      </trkpt>
      <trkpt lat="43.90384" lon="4.70832">
        <ele>59.518548</ele>
        <time>2025-02-05T09:57:37.325Z</time>
      </trkpt>
      <trkpt lat="43.9038" lon="4.7082">
        <ele>59.484894</ele>
        <time>2025-02-05T09:57:39.306Z</time>
      </trkpt>
      <trkpt lat="43.90375" lon="4.70803">
        <ele>59.435423</ele>
        <time>2025-02-05T09:57:42.311Z</time>
      </trkpt>
      <trkpt lat="43.90369" lon="4.70787">
        <ele>59.386121</ele>
        <time>2025-02-05T09:57:45.315Z</time>
      </trkpt>
      <trkpt lat="43.90363" lon="4.7077">
        <ele>59.337726</ele>
        <time>2025-02-05T09:57:48.325Z</time>
      </trkpt>
      <trkpt lat="43.90358" lon="4.70754">
        <ele>59.288694</ele>
        <time>2025-02-05T09:57:51.315Z</time>
      </trkpt>
      <trkpt lat="43.90352" lon="4.70737">
        <ele>59.213487</ele>
        <time>2025-02-05T09:57:54.313Z</time>
      </trkpt>
      <trkpt lat="43.90346" lon="4.70721">
        <ele>59.119567</ele>
        <time>2025-02-05T09:57:57.335Z</time>
      </trkpt>
      <trkpt lat="43.9034" lon="4.70705">
        <ele>59.028335</ele>
        <time>2025-02-05T09:58:00.322Z</time>
      </trkpt>
      <trkpt lat="43.90335" lon="4.70689">
        <ele>58.936642</ele>
        <time>2025-02-05T09:58:03.315Z</time>
      </trkpt>
      <trkpt lat="43.9033" lon="4.70674">
        <ele>58.852552</ele>
        <time>2025-02-05T09:58:06.330Z</time>
      </trkpt>
      <trkpt lat="43.90324" lon="4.70661">
        <ele>58.77272</ele>
        <time>2025-02-05T09:58:09.316Z</time>
      </trkpt>
      <trkpt lat="43.9032" lon="4.70648">
        <ele>58.69913</ele>
        <time>2025-02-05T09:58:12.334Z</time>
      </trkpt>
      <trkpt lat="43.90314" lon="4.70635">
        <ele>58.623709</ele>
        <time>2025-02-05T09:58:15.313Z</time>
      </trkpt>
      <trkpt lat="43.90309" lon="4.70624">
        <ele>58.553987</ele>
        <time>2025-02-05T09:58:18.309Z</time>
      </trkpt>
      <trkpt lat="43.90303" lon="4.70612">
        <ele>58.479379</ele>
        <time>2025-02-05T09:58:21.353Z</time>
      </trkpt>
      <trkpt lat="43.903" lon="4.706">
        <ele>58.414166</ele>
        <time>2025-02-05T09:58:24.324Z</time>
      </trkpt>
      <trkpt lat="43.90295" lon="4.70589">
        <ele>58.347691</ele>
        <time>2025-02-05T09:58:27.294Z</time>
      </trkpt>
      <trkpt lat="43.90291" lon="4.70576">
        <ele>58.275706</ele>
        <time>2025-02-05T09:58:30.301Z</time>
      </trkpt>
      <trkpt lat="43.90287" lon="4.70564">
        <ele>58.205558</ele>
        <time>2025-02-05T09:58:33.313Z</time>
      </trkpt>
      <trkpt lat="43.90283" lon="4.70551">
        <ele>58.134079</ele>
        <time>2025-02-05T09:58:36.317Z</time>
      </trkpt>
      <trkpt lat="43.90279" lon="4.7054">
        <ele>58.066724</ele>
        <time>2025-02-05T09:58:39.317Z</time>
      </trkpt>
      <trkpt lat="43.90274" lon="4.70527">
        <ele>57.994607</ele>
        <time>2025-02-05T09:58:42.308Z</time>
      </trkpt>
      <trkpt lat="43.90269" lon="4.70514">
        <ele>58.019319</ele>
        <time>2025-02-05T09:58:45.321Z</time>
      </trkpt>
      <trkpt lat="43.90264" lon="4.70501">
        <ele>58.076795</ele>
        <time>2025-02-05T09:58:48.310Z</time>
      </trkpt>
      <trkpt lat="43.90259" lon="4.70488">
        <ele>58.134522</ele>
        <time>2025-02-05T09:58:51.306Z</time>
      </trkpt>
      <trkpt lat="43.90254" lon="4.70475">
        <ele>58.192249</ele>
        <time>2025-02-05T09:58:54.322Z</time>
      </trkpt>
      <trkpt lat="43.90248" lon="4.70461">
        <ele>58.251502</ele>
        <time>2025-02-05T09:58:57.318Z</time>
      </trkpt>
      <trkpt lat="43.90244" lon="4.70447">
        <ele>58.311258</ele>
        <time>2025-02-05T09:59:00.316Z</time>
      </trkpt>
      <trkpt lat="43.90239" lon="4.70433">
        <ele>58.372889</ele>
        <time>2025-02-05T09:59:03.310Z</time>
      </trkpt>
      <trkpt lat="43.90234" lon="4.70419">
        <ele>58.430328</ele>
        <time>2025-02-05T09:59:06.335Z</time>
      </trkpt>
      <trkpt lat="43.90229" lon="4.70406">
        <ele>58.488244</ele>
        <time>2025-02-05T09:59:09.318Z</time>
      </trkpt>
      <trkpt lat="43.90225" lon="4.70391">
        <ele>58.55058</ele>
        <time>2025-02-05T09:59:12.315Z</time>
      </trkpt>
      <trkpt lat="43.9022" lon="4.70378">
        <ele>58.60688</ele>
        <time>2025-02-05T09:59:15.314Z</time>
      </trkpt>
      <trkpt lat="43.90214" lon="4.70364">
        <ele>58.668083</ele>
        <time>2025-02-05T09:59:18.332Z</time>
      </trkpt>
      <trkpt lat="43.90209" lon="4.70351">
        <ele>58.727186</ele>
        <time>2025-02-05T09:59:21.313Z</time>
      </trkpt>
      <trkpt lat="43.90203" lon="4.70337">
        <ele>58.788096</ele>
        <time>2025-02-05T09:59:24.331Z</time>
      </trkpt>
      <trkpt lat="43.90197" lon="4.70323">
        <ele>58.851007</ele>
        <time>2025-02-05T09:59:27.311Z</time>
      </trkpt>
      <trkpt lat="43.90191" lon="4.7031">
        <ele>58.912998</ele>
        <time>2025-02-05T09:59:30.338Z</time>
      </trkpt>
      <trkpt lat="43.90185" lon="4.70297">
        <ele>58.969792</ele>
        <time>2025-02-05T09:59:33.318Z</time>
      </trkpt>
      <trkpt lat="43.9018" lon="4.70283">
        <ele>59.025074</ele>
        <time>2025-02-05T09:59:36.318Z</time>
      </trkpt>
      <trkpt lat="43.90174" lon="4.7027">
        <ele>59.080556</ele>
        <time>2025-02-05T09:59:39.326Z</time>
      </trkpt>
      <trkpt lat="43.90168" lon="4.70258">
        <ele>59.134444</ele>
        <time>2025-02-05T09:59:42.329Z</time>
      </trkpt>
      <trkpt lat="43.90163" lon="4.70244">
        <ele>59.189725</ele>
        <time>2025-02-05T09:59:45.325Z</time>
      </trkpt>
      <trkpt lat="43.90157" lon="4.7023">
        <ele>59.246247</ele>
        <time>2025-02-05T09:59:48.324Z</time>
      </trkpt>
      <trkpt lat="43.90152" lon="4.70218">
        <ele>59.301122</ele>
        <time>2025-02-05T09:59:51.313Z</time>
      </trkpt>
      <trkpt lat="43.90146" lon="4.70205">
        <ele>59.355217</ele>
        <time>2025-02-05T09:59:54.315Z</time>
      </trkpt>
      <trkpt lat="43.90141" lon="4.70191">
        <ele>59.410415</ele>
        <time>2025-02-05T09:59:57.324Z</time>
      </trkpt>
      <trkpt lat="43.90139" lon="4.70177">
        <ele>59.461317</ele>
        <time>2025-02-05T10:00:00.325Z</time>
      </trkpt>
      <trkpt lat="43.90139" lon="4.70163">
        <ele>59.512212</ele>
        <time>2025-02-05T10:00:03.325Z</time>
      </trkpt>
      <trkpt lat="43.90141" lon="4.7015">
        <ele>59.56135</ele>
        <time>2025-02-05T10:00:06.316Z</time>
      </trkpt>
      <trkpt lat="43.90142" lon="4.70136">
        <ele>59.611514</ele>
        <time>2025-02-05T10:00:10.315Z</time>
      </trkpt>
      <trkpt lat="43.90144" lon="4.70122">
        <ele>59.66188</ele>
        <time>2025-02-05T10:00:14.332Z</time>
      </trkpt>
      <trkpt lat="43.90144" lon="4.70109">
        <ele>59.709881</ele>
        <time>2025-02-05T10:00:18.323Z</time>
      </trkpt>
      <trkpt lat="43.90142" lon="4.70095">
        <ele>59.762033</ele>
        <time>2025-02-05T10:00:23.304Z</time>
      </trkpt>
      <trkpt lat="43.90137" lon="4.70082">
        <ele>59.815874</ele>
        <time>2025-02-05T10:00:29.312Z</time>
      </trkpt>
      <trkpt lat="43.90131" lon="4.70069">
        <ele>59.821722</ele>
        <time>2025-02-05T10:00:34.321Z</time>
      </trkpt>
      <trkpt lat="43.90131" lon="4.70056">
        <ele>59.796396</ele>
        <time>2025-02-05T10:00:38.314Z</time>
      </trkpt>
      <trkpt lat="43.90129" lon="4.70044">
        <ele>59.770808</ele>
        <time>2025-02-05T10:00:42.321Z</time>
      </trkpt>
      <trkpt lat="43.90122" lon="4.70033">
        <ele>59.742418</ele>
        <time>2025-02-05T10:00:46.319Z</time>
      </trkpt>
      <trkpt lat="43.90117" lon="4.70022">
        <ele>59.715472</ele>
        <time>2025-02-05T10:00:50.325Z</time>
      </trkpt>
      <trkpt lat="43.90124" lon="4.70009">
        <ele>59.684834</ele>
        <time>2025-02-05T10:00:55.319Z</time>
      </trkpt>
      <trkpt lat="43.90121" lon="4.69994">
        <ele>59.653646</ele>
        <time>2025-02-05T10:00:59.317Z</time>
      </trkpt>
      <trkpt lat="43.90114" lon="4.69981">
        <ele>59.622015</ele>
        <time>2025-02-05T10:01:03.339Z</time>
      </trkpt>
      <trkpt lat="43.9011" lon="4.6997">
        <ele>59.596609</ele>
        <time>2025-02-05T10:01:06.319Z</time>
      </trkpt>
      <trkpt lat="43.90109" lon="4.69956">
        <ele>59.568008</ele>
        <time>2025-02-05T10:01:10.328Z</time>
      </trkpt>
      <trkpt lat="43.90114" lon="4.69943">
        <ele>59.53862</ele>
        <time>2025-02-05T10:01:15.322Z</time>
      </trkpt>
      <trkpt lat="43.90109" lon="4.69928">
        <ele>59.505678</ele>
        <time>2025-02-05T10:01:19.327Z</time>
      </trkpt>
      <trkpt lat="43.901" lon="4.69921">
        <ele>59.476584</ele>
        <time>2025-02-05T10:01:22.321Z</time>
      </trkpt>
      <trkpt lat="43.90093" lon="4.69911">
        <ele>59.449353</ele>
        <time>2025-02-05T10:01:25.313Z</time>
      </trkpt>
      <trkpt lat="43.90089" lon="4.69899">
        <ele>59.423408</ele>
        <time>2025-02-05T10:01:28.339Z</time>
      </trkpt>
      <trkpt lat="43.90084" lon="4.69888">
        <ele>59.39832</ele>
        <time>2025-02-05T10:01:31.324Z</time>
      </trkpt>
      <trkpt lat="43.90079" lon="4.69877">
        <ele>59.370785</ele>
        <time>2025-02-05T10:01:34.327Z</time>
      </trkpt>
      <trkpt lat="43.90071" lon="4.69867">
        <ele>59.341737</ele>
        <time>2025-02-05T10:01:37.321Z</time>
      </trkpt>
      <trkpt lat="43.90061" lon="4.69859">
        <ele>59.274888</ele>
        <time>2025-02-05T10:01:40.305Z</time>
      </trkpt>
      <trkpt lat="43.90051" lon="4.69854">
        <ele>59.207972</ele>
        <time>2025-02-05T10:01:43.310Z</time>
      </trkpt>
      <trkpt lat="43.90042" lon="4.69849">
        <ele>59.144029</ele>
        <time>2025-02-05T10:01:46.338Z</time>
      </trkpt>
      <trkpt lat="43.90033" lon="4.69844">
        <ele>59.082588</ele>
        <time>2025-02-05T10:01:49.307Z</time>
      </trkpt>
      <trkpt lat="43.90026" lon="4.69834">
        <ele>59.020575</ele>
        <time>2025-02-05T10:01:52.303Z</time>
      </trkpt>
      <trkpt lat="43.90023" lon="4.69822">
        <ele>58.96272</ele>
        <time>2025-02-05T10:01:54.320Z</time>
      </trkpt>
      <trkpt lat="43.90018" lon="4.6981">
        <ele>58.905954</ele>
        <time>2025-02-05T10:01:56.329Z</time>
      </trkpt>
      <trkpt lat="43.90013" lon="4.69795">
        <ele>58.829742</ele>
        <time>2025-02-05T10:01:59.314Z</time>
      </trkpt>
      <trkpt lat="43.90007" lon="4.69782">
        <ele>58.759966</ele>
        <time>2025-02-05T10:02:02.335Z</time>
      </trkpt>
      <trkpt lat="43.9" lon="4.6977">
        <ele>58.689163</ele>
        <time>2025-02-05T10:02:05.320Z</time>
      </trkpt>
      <trkpt lat="43.89992" lon="4.69759">
        <ele>58.618024</ele>
        <time>2025-02-05T10:02:08.338Z</time>
      </trkpt>
      <trkpt lat="43.89983" lon="4.69748">
        <ele>58.544202</ele>
        <time>2025-02-05T10:02:11.313Z</time>
      </trkpt>
      <trkpt lat="43.89973" lon="4.69739">
        <ele>58.47178</ele>
        <time>2025-02-05T10:02:14.320Z</time>
      </trkpt>
      <trkpt lat="43.89965" lon="4.69729">
        <ele>58.401061</ele>
        <time>2025-02-05T10:02:17.317Z</time>
      </trkpt>
      <trkpt lat="43.89958" lon="4.69718">
        <ele>58.335609</ele>
        <time>2025-02-05T10:02:20.335Z</time>
      </trkpt>
      <trkpt lat="43.89953" lon="4.69706">
        <ele>58.273061</ele>
        <time>2025-02-05T10:02:23.318Z</time>
      </trkpt>
      <trkpt lat="43.89949" lon="4.69693">
        <ele>58.212396</ele>
        <time>2025-02-05T10:02:26.330Z</time>
      </trkpt>
      <trkpt lat="43.89945" lon="4.69682">
        <ele>58.188904</ele>
        <time>2025-02-05T10:02:29.341Z</time>
      </trkpt>
      <trkpt lat="43.89938" lon="4.69669">
        <ele>58.161008</ele>
        <time>2025-02-05T10:02:33.316Z</time>
      </trkpt>
      <trkpt lat="43.89931" lon="4.69661">
        <ele>58.138454</ele>
        <time>2025-02-05T10:02:39.329Z</time>
      </trkpt>
      <trkpt lat="43.89923" lon="4.69655">
        <ele>58.114254</ele>
        <time>2025-02-05T10:02:57.324Z</time>
      </trkpt>
      <trkpt lat="43.89927" lon="4.69666">
        <ele>58.090924</ele>
        <time>2025-02-05T10:18:51.314Z</time>
      </trkpt>
      <trkpt lat="43.8992" lon="4.69676">
        <ele>58.067303</ele>
        <time>2025-02-05T10:19:02.325Z</time>
      </trkpt>
      <trkpt lat="43.89915" lon="4.69699">
        <ele>58.023584</ele>
        <time>2025-02-05T10:20:09.309Z</time>
      </trkpt>
      <trkpt lat="43.89921" lon="4.69713">
        <ele>57.9948</ele>
        <time>2025-02-05T10:20:14.323Z</time>
      </trkpt>
      <trkpt lat="43.89929" lon="4.69724">
        <ele>57.966518</ele>
        <time>2025-02-05T10:20:18.316Z</time>
      </trkpt>
      <trkpt lat="43.89937" lon="4.69735">
        <ele>57.937766</ele>
        <time>2025-02-05T10:20:22.314Z</time>
      </trkpt>
      <trkpt lat="43.89943" lon="4.69744">
        <ele>57.914885</ele>
        <time>2025-02-05T10:20:25.313Z</time>
      </trkpt>
      <trkpt lat="43.8995" lon="4.69754">
        <ele>57.889915</ele>
        <time>2025-02-05T10:20:29.320Z</time>
      </trkpt>
      <trkpt lat="43.89948" lon="4.69768">
        <ele>57.863151</ele>
        <time>2025-02-05T10:20:35.318Z</time>
      </trkpt>
      <trkpt lat="43.89939" lon="4.69775">
        <ele>57.837059</ele>
        <time>2025-02-05T10:20:39.321Z</time>
      </trkpt>
      <trkpt lat="43.89929" lon="4.69765">
        <ele>57.807237</ele>
        <time>2025-02-05T10:20:43.307Z</time>
      </trkpt>
      <trkpt lat="43.8992" lon="4.69755">
        <ele>57.778056</ele>
        <time>2025-02-05T10:20:47.345Z</time>
      </trkpt>
      <trkpt lat="43.89913" lon="4.69746">
        <ele>57.765749</ele>
        <time>2025-02-05T10:20:50.320Z</time>
      </trkpt>
      <trkpt lat="43.89906" lon="4.69737">
        <ele>57.777634</ele>
        <time>2025-02-05T10:20:53.335Z</time>
      </trkpt>
      <trkpt lat="43.899" lon="4.69726">
        <ele>57.78939</ele>
        <time>2025-02-05T10:20:56.322Z</time>
      </trkpt>
      <trkpt lat="43.89893" lon="4.69715">
        <ele>57.802195</ele>
        <time>2025-02-05T10:20:59.316Z</time>
      </trkpt>
      <trkpt lat="43.89885" lon="4.69703">
        <ele>57.816393</ele>
        <time>2025-02-05T10:21:02.320Z</time>
      </trkpt>
      <trkpt lat="43.89878" lon="4.69693">
        <ele>57.828825</ele>
        <time>2025-02-05T10:21:05.308Z</time>
      </trkpt>
      <trkpt lat="43.89871" lon="4.69683">
        <ele>57.841114</ele>
        <time>2025-02-05T10:21:08.290Z</time>
      </trkpt>
      <trkpt lat="43.89864" lon="4.69672">
        <ele>57.853714</ele>
        <time>2025-02-05T10:21:11.319Z</time>
      </trkpt>
      <trkpt lat="43.89857" lon="4.69661">
        <ele>57.866732</ele>
        <time>2025-02-05T10:21:14.308Z</time>
      </trkpt>
      <trkpt lat="43.89851" lon="4.6965">
        <ele>57.87915</ele>
        <time>2025-02-05T10:21:17.305Z</time>
      </trkpt>
      <trkpt lat="43.89843" lon="4.69639">
        <ele>57.892008</ele>
        <time>2025-02-05T10:21:20.322Z</time>
      </trkpt>
      <trkpt lat="43.89836" lon="4.69628">
        <ele>57.90526</ele>
        <time>2025-02-05T10:21:23.329Z</time>
      </trkpt>
      <trkpt lat="43.89829" lon="4.69616">
        <ele>57.918914</ele>
        <time>2025-02-05T10:21:26.327Z</time>
      </trkpt>
      <trkpt lat="43.89821" lon="4.69604">
        <ele>57.933028</ele>
        <time>2025-02-05T10:21:29.318Z</time>
      </trkpt>
      <trkpt lat="43.89813" lon="4.69593">
        <ele>57.94673</ele>
        <time>2025-02-05T10:21:32.315Z</time>
      </trkpt>
      <trkpt lat="43.89805" lon="4.69581">
        <ele>57.961055</ele>
        <time>2025-02-05T10:21:35.311Z</time>
      </trkpt>
      <trkpt lat="43.89797" lon="4.6957">
        <ele>57.974537</ele>
        <time>2025-02-05T10:21:38.306Z</time>
      </trkpt>
      <trkpt lat="43.8979" lon="4.69559">
        <ele>58.003583</ele>
        <time>2025-02-05T10:21:41.310Z</time>
      </trkpt>
      <trkpt lat="43.89782" lon="4.69548">
        <ele>58.046668</ele>
        <time>2025-02-05T10:21:44.307Z</time>
      </trkpt>
      <trkpt lat="43.89774" lon="4.69537">
        <ele>58.091211</ele>
        <time>2025-02-05T10:21:47.316Z</time>
      </trkpt>
      <trkpt lat="43.89766" lon="4.69526">
        <ele>58.133884</ele>
        <time>2025-02-05T10:21:50.319Z</time>
      </trkpt>
      <trkpt lat="43.89758" lon="4.69515">
        <ele>58.177632</ele>
        <time>2025-02-05T10:21:53.340Z</time>
      </trkpt>
      <trkpt lat="43.8975" lon="4.69505">
        <ele>58.218049</ele>
        <time>2025-02-05T10:21:56.335Z</time>
      </trkpt>
      <trkpt lat="43.89743" lon="4.69495">
        <ele>58.257015</ele>
        <time>2025-02-05T10:21:59.317Z</time>
      </trkpt>
      <trkpt lat="43.89735" lon="4.69485">
        <ele>58.296775</ele>
        <time>2025-02-05T10:22:02.312Z</time>
      </trkpt>
      <trkpt lat="43.89727" lon="4.69475">
        <ele>58.338508</ele>
        <time>2025-02-05T10:22:05.316Z</time>
      </trkpt>
      <trkpt lat="43.8972" lon="4.69464">
        <ele>58.380196</ele>
        <time>2025-02-05T10:22:08.326Z</time>
      </trkpt>
      <trkpt lat="43.89712" lon="4.69454">
        <ele>58.419583</ele>
        <time>2025-02-05T10:22:11.321Z</time>
      </trkpt>
      <trkpt lat="43.89705" lon="4.69443">
        <ele>58.461404</ele>
        <time>2025-02-05T10:22:14.304Z</time>
      </trkpt>
      <trkpt lat="43.89697" lon="4.69433">
        <ele>58.503415</ele>
        <time>2025-02-05T10:22:17.310Z</time>
      </trkpt>
      <trkpt lat="43.89688" lon="4.69423">
        <ele>58.544889</ele>
        <time>2025-02-05T10:22:20.299Z</time>
      </trkpt>
      <trkpt lat="43.8968" lon="4.69413">
        <ele>58.587956</ele>
        <time>2025-02-05T10:22:23.317Z</time>
      </trkpt>
      <trkpt lat="43.89671" lon="4.69402">
        <ele>58.632725</ele>
        <time>2025-02-05T10:22:26.320Z</time>
      </trkpt>
      <trkpt lat="43.89663" lon="4.69392">
        <ele>58.687004</ele>
        <time>2025-02-05T10:22:29.325Z</time>
      </trkpt>
      <trkpt lat="43.89654" lon="4.69382">
        <ele>58.818895</ele>
        <time>2025-02-05T10:22:32.326Z</time>
      </trkpt>
      <trkpt lat="43.89645" lon="4.69372">
        <ele>58.95325</ele>
        <time>2025-02-05T10:22:35.335Z</time>
      </trkpt>
      <trkpt lat="43.89636" lon="4.69362">
        <ele>59.090113</ele>
        <time>2025-02-05T10:22:38.326Z</time>
      </trkpt>
      <trkpt lat="43.89628" lon="4.69351">
        <ele>59.224569</ele>
        <time>2025-02-05T10:22:41.341Z</time>
      </trkpt>
      <trkpt lat="43.89619" lon="4.69341">
        <ele>59.353858</ele>
        <time>2025-02-05T10:22:44.317Z</time>
      </trkpt>
      <trkpt lat="43.89611" lon="4.6933">
        <ele>59.486626</ele>
        <time>2025-02-05T10:22:47.316Z</time>
      </trkpt>
      <trkpt lat="43.89603" lon="4.69322">
        <ele>59.609937</ele>
        <time>2025-02-05T10:22:50.323Z</time>
      </trkpt>
      <trkpt lat="43.89594" lon="4.69312">
        <ele>59.735288</ele>
        <time>2025-02-05T10:22:53.330Z</time>
      </trkpt>
      <trkpt lat="43.89586" lon="4.69301">
        <ele>59.869744</ele>
        <time>2025-02-05T10:22:56.333Z</time>
      </trkpt>
      <trkpt lat="43.89577" lon="4.69292">
        <ele>59.999853</ele>
        <time>2025-02-05T10:22:59.320Z</time>
      </trkpt>
      <trkpt lat="43.89568" lon="4.69282">
        <ele>60.132765</ele>
        <time>2025-02-05T10:23:02.328Z</time>
      </trkpt>
      <trkpt lat="43.89559" lon="4.69273">
        <ele>60.260842</ele>
        <time>2025-02-05T10:23:05.320Z</time>
      </trkpt>
      <trkpt lat="43.8955" lon="4.69264">
        <ele>60.393431</ele>
        <time>2025-02-05T10:23:08.328Z</time>
      </trkpt>
      <trkpt lat="43.89541" lon="4.69253">
        <ele>60.53119</ele>
        <time>2025-02-05T10:23:11.340Z</time>
      </trkpt>
      <trkpt lat="43.89532" lon="4.69243">
        <ele>60.668242</ele>
        <time>2025-02-05T10:23:14.307Z</time>
      </trkpt>
      <trkpt lat="43.89523" lon="4.69233">
        <ele>60.793731</ele>
        <time>2025-02-05T10:23:17.316Z</time>
      </trkpt>
      <trkpt lat="43.89513" lon="4.69222">
        <ele>60.866156</ele>
        <time>2025-02-05T10:23:20.319Z</time>
      </trkpt>
      <trkpt lat="43.89504" lon="4.69212">
        <ele>60.936978</ele>
        <time>2025-02-05T10:23:23.343Z</time>
      </trkpt>
      <trkpt lat="43.89494" lon="4.69203">
        <ele>61.006557</ele>
        <time>2025-02-05T10:23:26.337Z</time>
      </trkpt>
      <trkpt lat="43.89485" lon="4.69194">
        <ele>61.075407</ele>
        <time>2025-02-05T10:23:29.338Z</time>
      </trkpt>
      <trkpt lat="43.89475" lon="4.69184">
        <ele>61.147436</ele>
        <time>2025-02-05T10:23:32.324Z</time>
      </trkpt>
      <trkpt lat="43.89465" lon="4.69174">
        <ele>61.220447</ele>
        <time>2025-02-05T10:23:35.318Z</time>
      </trkpt>
      <trkpt lat="43.89455" lon="4.69164">
        <ele>61.295198</ele>
        <time>2025-02-05T10:23:38.315Z</time>
      </trkpt>
      <trkpt lat="43.89445" lon="4.69155">
        <ele>61.364325</ele>
        <time>2025-02-05T10:23:41.318Z</time>
      </trkpt>
      <trkpt lat="43.89436" lon="4.69145">
        <ele>61.435657</ele>
        <time>2025-02-05T10:23:44.316Z</time>
      </trkpt>
      <trkpt lat="43.89427" lon="4.69136">
        <ele>61.502788</ele>
        <time>2025-02-05T10:23:47.313Z</time>
      </trkpt>
      <trkpt lat="43.89417" lon="4.69125">
        <ele>61.574103</ele>
        <time>2025-02-05T10:23:50.342Z</time>
      </trkpt>
      <trkpt lat="43.89407" lon="4.69116">
        <ele>61.645402</ele>
        <time>2025-02-05T10:23:53.329Z</time>
      </trkpt>
      <trkpt lat="43.89398" lon="4.69107">
        <ele>61.715519</ele>
        <time>2025-02-05T10:23:56.306Z</time>
      </trkpt>
      <trkpt lat="43.89388" lon="4.69099">
        <ele>61.785234</ele>
        <time>2025-02-05T10:23:59.301Z</time>
      </trkpt>
      <trkpt lat="43.89378" lon="4.6909">
        <ele>61.837932</ele>
        <time>2025-02-05T10:24:02.437Z</time>
      </trkpt>
      <trkpt lat="43.89368" lon="4.69081">
        <ele>61.612963</ele>
        <time>2025-02-05T10:24:05.314Z</time>
      </trkpt>
      <trkpt lat="43.89359" lon="4.69071">
        <ele>61.389538</ele>
        <time>2025-02-05T10:24:08.318Z</time>
      </trkpt>
      <trkpt lat="43.89348" lon="4.69062">
        <ele>61.159019</ele>
        <time>2025-02-05T10:24:11.333Z</time>
      </trkpt>
      <trkpt lat="43.89339" lon="4.69053">
        <ele>60.937915</ele>
        <time>2025-02-05T10:24:14.322Z</time>
      </trkpt>
      <trkpt lat="43.89329" lon="4.69045">
        <ele>60.717117</ele>
        <time>2025-02-05T10:24:17.293Z</time>
      </trkpt>
      <trkpt lat="43.89319" lon="4.69036">
        <ele>60.503822</ele>
        <time>2025-02-05T10:24:20.313Z</time>
      </trkpt>
      <trkpt lat="43.89311" lon="4.69028">
        <ele>60.309969</ele>
        <time>2025-02-05T10:24:23.330Z</time>
      </trkpt>
      <trkpt lat="43.89303" lon="4.6902">
        <ele>60.11457</ele>
        <time>2025-02-05T10:24:26.324Z</time>
      </trkpt>
      <trkpt lat="43.89293" lon="4.69012">
        <ele>59.900461</ele>
        <time>2025-02-05T10:24:29.310Z</time>
      </trkpt>
      <trkpt lat="43.89284" lon="4.69005">
        <ele>59.707574</ele>
        <time>2025-02-05T10:24:32.320Z</time>
      </trkpt>
      <trkpt lat="43.89275" lon="4.68997">
        <ele>59.501283</ele>
        <time>2025-02-05T10:24:35.315Z</time>
      </trkpt>
      <trkpt lat="43.89264" lon="4.68989">
        <ele>59.27828</ele>
        <time>2025-02-05T10:24:38.317Z</time>
      </trkpt>
      <trkpt lat="43.89255" lon="4.68982">
        <ele>59.073167</ele>
        <time>2025-02-05T10:24:41.310Z</time>
      </trkpt>
      <trkpt lat="43.89246" lon="4.68974">
        <ele>58.873305</ele>
        <time>2025-02-05T10:24:44.290Z</time>
      </trkpt>
      <trkpt lat="43.89237" lon="4.68966">
        <ele>58.666683</ele>
        <time>2025-02-05T10:24:47.306Z</time>
      </trkpt>
      <trkpt lat="43.89227" lon="4.6896">
        <ele>58.472116</ele>
        <time>2025-02-05T10:24:50.319Z</time>
      </trkpt>
      <trkpt lat="43.89218" lon="4.68953">
        <ele>58.444096</ele>
        <time>2025-02-05T10:24:53.317Z</time>
      </trkpt>
      <trkpt lat="43.89209" lon="4.68945">
        <ele>58.447436</ele>
        <time>2025-02-05T10:24:56.323Z</time>
      </trkpt>
      <trkpt lat="43.89199" lon="4.68938">
        <ele>58.450853</ele>
        <time>2025-02-05T10:24:59.319Z</time>
      </trkpt>
      <trkpt lat="43.89189" lon="4.6893">
        <ele>58.454133</ele>
        <time>2025-02-05T10:25:02.313Z</time>
      </trkpt>
      <trkpt lat="43.89181" lon="4.68922">
        <ele>58.457282</ele>
        <time>2025-02-05T10:25:05.301Z</time>
      </trkpt>
      <trkpt lat="43.89172" lon="4.68915">
        <ele>58.4605</ele>
        <time>2025-02-05T10:25:08.316Z</time>
      </trkpt>
      <trkpt lat="43.89162" lon="4.68907">
        <ele>58.464017</ele>
        <time>2025-02-05T10:25:11.312Z</time>
      </trkpt>
      <trkpt lat="43.89152" lon="4.68899">
        <ele>58.467393</ele>
        <time>2025-02-05T10:25:14.322Z</time>
      </trkpt>
      <trkpt lat="43.89142" lon="4.68892">
        <ele>58.470839</ele>
        <time>2025-02-05T10:25:17.315Z</time>
      </trkpt>
      <trkpt lat="43.89132" lon="4.68885">
        <ele>58.474114</ele>
        <time>2025-02-05T10:25:20.323Z</time>
      </trkpt>
      <trkpt lat="43.89122" lon="4.68878">
        <ele>58.477612</ele>
        <time>2025-02-05T10:25:23.331Z</time>
      </trkpt>
      <trkpt lat="43.89112" lon="4.68871">
        <ele>58.481131</ele>
        <time>2025-02-05T10:25:26.316Z</time>
      </trkpt>
      <trkpt lat="43.89102" lon="4.68864">
        <ele>58.484326</ele>
        <time>2025-02-05T10:25:29.297Z</time>
      </trkpt>
      <trkpt lat="43.89092" lon="4.68857">
        <ele>58.487819</ele>
        <time>2025-02-05T10:25:32.317Z</time>
      </trkpt>
      <trkpt lat="43.89082" lon="4.6885">
        <ele>58.491188</ele>
        <time>2025-02-05T10:25:35.320Z</time>
      </trkpt>
      <trkpt lat="43.89072" lon="4.68843">
        <ele>58.494516</ele>
        <time>2025-02-05T10:25:38.323Z</time>
      </trkpt>
      <trkpt lat="43.89063" lon="4.68836">
        <ele>58.503911</ele>
        <time>2025-02-05T10:25:41.301Z</time>
      </trkpt>
      <trkpt lat="43.89053" lon="4.6883">
        <ele>58.518905</ele>
        <time>2025-02-05T10:25:44.331Z</time>
      </trkpt>
      <trkpt lat="43.89044" lon="4.68823">
        <ele>58.534564</ele>
        <time>2025-02-05T10:25:47.322Z</time>
      </trkpt>
      <trkpt lat="43.89033" lon="4.68816">
        <ele>58.550744</ele>
        <time>2025-02-05T10:25:50.329Z</time>
      </trkpt>
      <trkpt lat="43.89023" lon="4.68808">
        <ele>58.566581</ele>
        <time>2025-02-05T10:25:53.298Z</time>
      </trkpt>
      <trkpt lat="43.89014" lon="4.68799">
        <ele>58.582674</ele>
        <time>2025-02-05T10:25:56.334Z</time>
      </trkpt>
      <trkpt lat="43.89004" lon="4.68791">
        <ele>58.597893</ele>
        <time>2025-02-05T10:25:59.320Z</time>
      </trkpt>
      <trkpt lat="43.88995" lon="4.68784">
        <ele>58.613478</ele>
        <time>2025-02-05T10:26:02.295Z</time>
      </trkpt>
      <trkpt lat="43.88985" lon="4.68777">
        <ele>58.628902</ele>
        <time>2025-02-05T10:26:05.320Z</time>
      </trkpt>
      <trkpt lat="43.88975" lon="4.68769">
        <ele>58.64474</ele>
        <time>2025-02-05T10:26:08.315Z</time>
      </trkpt>
      <trkpt lat="43.88965" lon="4.68761">
        <ele>58.66082</ele>
        <time>2025-02-05T10:26:11.328Z</time>
      </trkpt>
      <trkpt lat="43.88956" lon="4.68752">
        <ele>58.676976</ele>
        <time>2025-02-05T10:26:14.322Z</time>
      </trkpt>
      <trkpt lat="43.88946" lon="4.68744">
        <ele>58.69333</ele>
        <time>2025-02-05T10:26:17.317Z</time>
      </trkpt>
      <trkpt lat="43.88937" lon="4.68735">
        <ele>58.708907</ele>
        <time>2025-02-05T10:26:20.325Z</time>
      </trkpt>
      <trkpt lat="43.88927" lon="4.68727">
        <ele>58.72461</ele>
        <time>2025-02-05T10:26:23.343Z</time>
      </trkpt>
      <trkpt lat="43.88918" lon="4.68718">
        <ele>58.740358</ele>
        <time>2025-02-05T10:26:26.318Z</time>
      </trkpt>
      <trkpt lat="43.8891" lon="4.68709">
        <ele>58.738195</ele>
        <time>2025-02-05T10:26:29.314Z</time>
      </trkpt>
      <trkpt lat="43.88901" lon="4.68699">
        <ele>58.714785</ele>
        <time>2025-02-05T10:26:32.317Z</time>
      </trkpt>
      <trkpt lat="43.88892" lon="4.68689">
        <ele>58.690078</ele>
        <time>2025-02-05T10:26:35.317Z</time>
      </trkpt>
      <trkpt lat="43.88883" lon="4.68679">
        <ele>58.66523</ele>
        <time>2025-02-05T10:26:38.317Z</time>
      </trkpt>
      <trkpt lat="43.88874" lon="4.6867">
        <ele>58.640879</ele>
        <time>2025-02-05T10:26:41.316Z</time>
      </trkpt>
      <trkpt lat="43.88865" lon="4.68661">
        <ele>58.616631</ele>
        <time>2025-02-05T10:26:44.317Z</time>
      </trkpt>
      <trkpt lat="43.88856" lon="4.68652">
        <ele>58.592649</ele>
        <time>2025-02-05T10:26:47.301Z</time>
      </trkpt>
      <trkpt lat="43.88846" lon="4.68642">
        <ele>58.568052</ele>
        <time>2025-02-05T10:26:50.320Z</time>
      </trkpt>
      <trkpt lat="43.88837" lon="4.68632">
        <ele>58.54323</ele>
        <time>2025-02-05T10:26:53.326Z</time>
      </trkpt>
      <trkpt lat="43.88828" lon="4.68623">
        <ele>58.518353</ele>
        <time>2025-02-05T10:26:56.333Z</time>
      </trkpt>
      <trkpt lat="43.88819" lon="4.68614">
        <ele>58.495056</ele>
        <time>2025-02-05T10:26:59.309Z</time>
      </trkpt>
      <trkpt lat="43.88811" lon="4.68603">
        <ele>58.470299</ele>
        <time>2025-02-05T10:27:02.311Z</time>
      </trkpt>
      <trkpt lat="43.88802" lon="4.68593">
        <ele>58.445517</ele>
        <time>2025-02-05T10:27:05.317Z</time>
      </trkpt>
      <trkpt lat="43.88794" lon="4.68582">
        <ele>58.42197</ele>
        <time>2025-02-05T10:27:08.320Z</time>
      </trkpt>
      <trkpt lat="43.88785" lon="4.68572">
        <ele>58.397849</ele>
        <time>2025-02-05T10:27:11.312Z</time>
      </trkpt>
      <trkpt lat="43.88777" lon="4.68562">
        <ele>58.37402</ele>
        <time>2025-02-05T10:27:14.323Z</time>
      </trkpt>
      <trkpt lat="43.88769" lon="4.68551">
        <ele>58.287897</ele>
        <time>2025-02-05T10:27:17.314Z</time>
      </trkpt>
      <trkpt lat="43.88761" lon="4.68541">
        <ele>58.154398</ele>
        <time>2025-02-05T10:27:20.332Z</time>
      </trkpt>
      <trkpt lat="43.88754" lon="4.6853">
        <ele>58.017917</ele>
        <time>2025-02-05T10:27:23.329Z</time>
      </trkpt>
      <trkpt lat="43.88745" lon="4.68519">
        <ele>57.873408</ele>
        <time>2025-02-05T10:27:26.321Z</time>
      </trkpt>
      <trkpt lat="43.88737" lon="4.68507">
        <ele>57.73176</ele>
        <time>2025-02-05T10:27:29.320Z</time>
      </trkpt>
      <trkpt lat="43.8873" lon="4.68496">
        <ele>57.595672</ele>
        <time>2025-02-05T10:27:32.333Z</time>
      </trkpt>
      <trkpt lat="43.88723" lon="4.68484">
        <ele>57.457305</ele>
        <time>2025-02-05T10:27:35.313Z</time>
      </trkpt>
      <trkpt lat="43.88716" lon="4.68473">
        <ele>57.3252</ele>
        <time>2025-02-05T10:27:38.325Z</time>
      </trkpt>
      <trkpt lat="43.88709" lon="4.68461">
        <ele>57.184552</ele>
        <time>2025-02-05T10:27:41.317Z</time>
      </trkpt>
      <trkpt lat="43.88701" lon="4.68449">
        <ele>57.045129</ele>
        <time>2025-02-05T10:27:44.339Z</time>
      </trkpt>
      <trkpt lat="43.88694" lon="4.68439">
        <ele>56.915518</ele>
        <time>2025-02-05T10:27:47.325Z</time>
      </trkpt>
      <trkpt lat="43.88688" lon="4.68428">
        <ele>56.796345</ele>
        <time>2025-02-05T10:27:50.314Z</time>
      </trkpt>
      <trkpt lat="43.88683" lon="4.68414">
        <ele>56.649376</ele>
        <time>2025-02-05T10:27:54.341Z</time>
      </trkpt>
      <trkpt lat="43.8868" lon="4.68399">
        <ele>56.510472</ele>
        <time>2025-02-05T10:27:58.321Z</time>
      </trkpt>
      <trkpt lat="43.88673" lon="4.68386">
        <ele>56.374521</ele>
        <time>2025-02-05T10:28:02.311Z</time>
      </trkpt>
      <trkpt lat="43.88667" lon="4.68372">
        <ele>56.228293</ele>
        <time>2025-02-05T10:28:06.322Z</time>
      </trkpt>
      <trkpt lat="43.8866" lon="4.6836">
        <ele>56.113638</ele>
        <time>2025-02-05T10:28:10.316Z</time>
      </trkpt>
      <trkpt lat="43.88654" lon="4.68349">
        <ele>56.07704</ele>
        <time>2025-02-05T10:28:13.319Z</time>
      </trkpt>
      <trkpt lat="43.88649" lon="4.68338">
        <ele>56.038338</ele>
        <time>2025-02-05T10:28:16.324Z</time>
      </trkpt>
      <trkpt lat="43.88643" lon="4.68327">
        <ele>55.998</ele>
        <time>2025-02-05T10:28:19.325Z</time>
      </trkpt>
      <trkpt lat="43.88637" lon="4.68316">
        <ele>55.957903</ele>
        <time>2025-02-05T10:28:22.335Z</time>
      </trkpt>
      <trkpt lat="43.8863" lon="4.68305">
        <ele>55.917911</ele>
        <time>2025-02-05T10:28:25.333Z</time>
      </trkpt>
      <trkpt lat="43.88624" lon="4.68292">
        <ele>55.871519</ele>
        <time>2025-02-05T10:28:29.320Z</time>
      </trkpt>
      <trkpt lat="43.88617" lon="4.68282">
        <ele>55.832075</ele>
        <time>2025-02-05T10:28:32.309Z</time>
      </trkpt>
      <trkpt lat="43.88611" lon="4.68271">
        <ele>55.791266</ele>
        <time>2025-02-05T10:28:35.305Z</time>
      </trkpt>
      <trkpt lat="43.88604" lon="4.68257">
        <ele>55.744644</ele>
        <time>2025-02-05T10:28:38.318Z</time>
      </trkpt>
      <trkpt lat="43.88598" lon="4.68246">
        <ele>55.703839</ele>
        <time>2025-02-05T10:28:41.313Z</time>
      </trkpt>
      <trkpt lat="43.88593" lon="4.68234">
        <ele>55.663511</ele>
        <time>2025-02-05T10:28:44.318Z</time>
      </trkpt>
      <trkpt lat="43.88587" lon="4.6822">
        <ele>55.61691</ele>
        <time>2025-02-05T10:28:48.322Z</time>
      </trkpt>
      <trkpt lat="43.88594" lon="4.68205">
        <ele>55.566821</ele>
        <time>2025-02-05T10:29:13.321Z</time>
      </trkpt>
      <trkpt lat="43.88593" lon="4.68189">
        <ele>55.523402</ele>
        <time>2025-02-05T10:29:18.318Z</time>
      </trkpt>
      <trkpt lat="43.88597" lon="4.68175">
        <ele>55.480128</ele>
        <time>2025-02-05T10:29:21.306Z</time>
      </trkpt>
      <trkpt lat="43.88606" lon="4.68167">
        <ele>55.438356</ele>
        <time>2025-02-05T10:29:25.322Z</time>
      </trkpt>
      <trkpt lat="43.88614" lon="4.68162">
        <ele>55.4641</ele>
        <time>2025-02-05T10:29:30.317Z</time>
      </trkpt>
      <trkpt lat="43.88623" lon="4.68157">
        <ele>55.658895</ele>
        <time>2025-02-05T10:29:34.325Z</time>
      </trkpt>
      <trkpt lat="43.88634" lon="4.68153">
        <ele>55.890301</ele>
        <time>2025-02-05T10:29:38.315Z</time>
      </trkpt>
      <trkpt lat="43.88643" lon="4.68148">
        <ele>56.074161</ele>
        <time>2025-02-05T10:29:41.327Z</time>
      </trkpt>
      <trkpt lat="43.88652" lon="4.68144">
        <ele>56.263236</ele>
        <time>2025-02-05T10:29:44.303Z</time>
      </trkpt>
      <trkpt lat="43.88661" lon="4.6814">
        <ele>56.459501</ele>
        <time>2025-02-05T10:29:47.326Z</time>
      </trkpt>
      <trkpt lat="43.88671" lon="4.68135">
        <ele>56.664127</ele>
        <time>2025-02-05T10:29:50.327Z</time>
      </trkpt>
      <trkpt lat="43.88679" lon="4.68127">
        <ele>56.870132</ele>
        <time>2025-02-05T10:29:53.320Z</time>
      </trkpt>
      <trkpt lat="43.88689" lon="4.68117">
        <ele>57.111573</ele>
        <time>2025-02-05T10:29:56.328Z</time>
      </trkpt>
      <trkpt lat="43.88698" lon="4.68106">
        <ele>57.361369</ele>
        <time>2025-02-05T10:29:59.314Z</time>
      </trkpt>
      <trkpt lat="43.88707" lon="4.68094">
        <ele>57.602182</ele>
        <time>2025-02-05T10:30:02.314Z</time>
      </trkpt>
      <trkpt lat="43.88714" lon="4.68081">
        <ele>57.83741</ele>
        <time>2025-02-05T10:30:05.323Z</time>
      </trkpt>
      <trkpt lat="43.8872" lon="4.68068">
        <ele>58.072981</ele>
        <time>2025-02-05T10:30:08.312Z</time>
      </trkpt>
      <trkpt lat="43.88726" lon="4.68053">
        <ele>58.309575</ele>
        <time>2025-02-05T10:30:11.313Z</time>
      </trkpt>
      <trkpt lat="43.88733" lon="4.68042">
        <ele>58.531286</ele>
        <time>2025-02-05T10:30:14.322Z</time>
      </trkpt>
      <trkpt lat="43.88742" lon="4.68036">
        <ele>58.725547</ele>
        <time>2025-02-05T10:30:17.315Z</time>
      </trkpt>
      <trkpt lat="43.88752" lon="4.68033">
        <ele>58.929359</ele>
        <time>2025-02-05T10:30:20.332Z</time>
      </trkpt>
      <trkpt lat="43.88764" lon="4.68028">
        <ele>58.995017</ele>
        <time>2025-02-05T10:30:23.324Z</time>
      </trkpt>
      <trkpt lat="43.88776" lon="4.68023">
        <ele>58.936529</ele>
        <time>2025-02-05T10:30:26.334Z</time>
      </trkpt>
      <trkpt lat="43.88788" lon="4.68018">
        <ele>58.876803</ele>
        <time>2025-02-05T10:30:29.324Z</time>
      </trkpt>
      <trkpt lat="43.888" lon="4.68015">
        <ele>58.820265</ele>
        <time>2025-02-05T10:30:32.333Z</time>
      </trkpt>
      <trkpt lat="43.88813" lon="4.6801">
        <ele>58.761602</ele>
        <time>2025-02-05T10:30:35.329Z</time>
      </trkpt>
      <trkpt lat="43.88824" lon="4.68005">
        <ele>58.706106</ele>
        <time>2025-02-05T10:30:38.332Z</time>
      </trkpt>
      <trkpt lat="43.88835" lon="4.67999">
        <ele>58.652655</ele>
        <time>2025-02-05T10:30:41.326Z</time>
      </trkpt>
      <trkpt lat="43.88845" lon="4.67994">
        <ele>58.601426</ele>
        <time>2025-02-05T10:30:44.326Z</time>
      </trkpt>
      <trkpt lat="43.88857" lon="4.6799">
        <ele>58.547912</ele>
        <time>2025-02-05T10:30:47.318Z</time>
      </trkpt>
      <trkpt lat="43.88868" lon="4.6799">
        <ele>58.494944</ele>
        <time>2025-02-05T10:30:50.319Z</time>
      </trkpt>
      <trkpt lat="43.88878" lon="4.67995">
        <ele>58.445128</ele>
        <time>2025-02-05T10:30:53.309Z</time>
      </trkpt>
      <trkpt lat="43.88889" lon="4.68001">
        <ele>58.393557</ele>
        <time>2025-02-05T10:30:56.320Z</time>
      </trkpt>
      <trkpt lat="43.88897" lon="4.68011">
        <ele>58.33976</ele>
        <time>2025-02-05T10:30:59.331Z</time>
      </trkpt>
      <trkpt lat="43.88905" lon="4.68023">
        <ele>58.286684</ele>
        <time>2025-02-05T10:31:02.312Z</time>
      </trkpt>
      <trkpt lat="43.88912" lon="4.68032">
        <ele>58.2442</ele>
        <time>2025-02-05T10:31:05.322Z</time>
      </trkpt>
      <trkpt lat="43.88922" lon="4.68031">
        <ele>58.184348</ele>
        <time>2025-02-05T10:31:09.326Z</time>
      </trkpt>
      <trkpt lat="43.88932" lon="4.68026">
        <ele>57.962468</ele>
        <time>2025-02-05T10:31:14.321Z</time>
      </trkpt>
      <trkpt lat="43.88941" lon="4.68023">
        <ele>57.771111</ele>
        <time>2025-02-05T10:31:18.305Z</time>
      </trkpt>
      <trkpt lat="43.8895" lon="4.68021">
        <ele>57.581111</ele>
        <time>2025-02-05T10:31:27.327Z</time>
      </trkpt>
      <trkpt lat="43.8896" lon="4.6802">
        <ele>57.377074</ele>
        <time>2025-02-05T10:31:33.316Z</time>
      </trkpt>
      <trkpt lat="43.8897" lon="4.68022">
        <ele>57.178101</ele>
        <time>2025-02-05T10:31:40.328Z</time>
      </trkpt>
      <trkpt lat="43.88979" lon="4.68019">
        <ele>56.988363</ele>
        <time>2025-02-05T10:31:48.332Z</time>
      </trkpt>
      <trkpt lat="43.88988" lon="4.6802">
        <ele>56.7897</ele>
        <time>2025-02-05T10:31:52.318Z</time>
      </trkpt>
      <trkpt lat="43.88997" lon="4.68014">
        <ele>56.599614</ele>
        <time>2025-02-05T10:31:57.316Z</time>
      </trkpt>
      <trkpt lat="43.88999" lon="4.68001">
        <ele>56.390228</ele>
        <time>2025-02-05T10:32:03.302Z</time>
      </trkpt>
      <trkpt lat="43.88999" lon="4.67988">
        <ele>56.203194</ele>
        <time>2025-02-05T10:32:44.307Z</time>
      </trkpt>
      <trkpt lat="43.88997" lon="4.67974">
        <ele>55.990059</ele>
        <time>2025-02-05T10:32:49.304Z</time>
      </trkpt>
      <trkpt lat="43.88998" lon="4.67961">
        <ele>55.79966</ele>
        <time>2025-02-05T10:32:52.296Z</time>
      </trkpt>
      <trkpt lat="43.88996" lon="4.67949">
        <ele>55.613363</ele>
        <time>2025-02-05T10:32:55.313Z</time>
      </trkpt>
      <trkpt lat="43.88996" lon="4.67933">
        <ele>55.369936</ele>
        <time>2025-02-05T10:32:59.309Z</time>
      </trkpt>
      <trkpt lat="43.88998" lon="4.6792">
        <ele>55.174079</ele>
        <time>2025-02-05T10:33:02.301Z</time>
      </trkpt>
      <trkpt lat="43.88998" lon="4.67906">
        <ele>54.964144</ele>
        <time>2025-02-05T10:33:05.285Z</time>
      </trkpt>
      <trkpt lat="43.88995" lon="4.67892">
        <ele>54.755348</ele>
        <time>2025-02-05T10:33:08.302Z</time>
      </trkpt>
      <trkpt lat="43.88993" lon="4.67878">
        <ele>54.542045</ele>
        <time>2025-02-05T10:33:11.303Z</time>
      </trkpt>
      <trkpt lat="43.88991" lon="4.67863">
        <ele>54.403795</ele>
        <time>2025-02-05T10:33:14.309Z</time>
      </trkpt>
      <trkpt lat="43.88989" lon="4.67849">
        <ele>54.28508</ele>
        <time>2025-02-05T10:33:17.309Z</time>
      </trkpt>
      <trkpt lat="43.8899" lon="4.67832">
        <ele>54.157863</ele>
        <time>2025-02-05T10:33:20.312Z</time>
      </trkpt>
      <trkpt lat="43.88989" lon="4.67816">
        <ele>54.027687</ele>
        <time>2025-02-05T10:33:23.313Z</time>
      </trkpt>
      <trkpt lat="43.88987" lon="4.678">
        <ele>53.897921</ele>
        <time>2025-02-05T10:33:26.309Z</time>
      </trkpt>
      <trkpt lat="43.88985" lon="4.67783">
        <ele>53.766446</ele>
        <time>2025-02-05T10:33:29.310Z</time>
      </trkpt>
      <trkpt lat="43.88983" lon="4.67767">
        <ele>53.637386</ele>
        <time>2025-02-05T10:33:32.333Z</time>
      </trkpt>
      <trkpt lat="43.88981" lon="4.67753">
        <ele>53.520226</ele>
        <time>2025-02-05T10:33:35.308Z</time>
      </trkpt>
      <trkpt lat="43.88981" lon="4.67739">
        <ele>53.41499</ele>
        <time>2025-02-05T10:33:38.321Z</time>
      </trkpt>
      <trkpt lat="43.8898" lon="4.67725">
        <ele>53.30266</ele>
        <time>2025-02-05T10:33:41.301Z</time>
      </trkpt>
      <trkpt lat="43.8898" lon="4.67712">
        <ele>53.196789</ele>
        <time>2025-02-05T10:33:44.308Z</time>
      </trkpt>
      <trkpt lat="43.88981" lon="4.67697">
        <ele>53.079586</ele>
        <time>2025-02-05T10:33:47.310Z</time>
      </trkpt>
      <trkpt lat="43.88981" lon="4.6768">
        <ele>52.946086</ele>
        <time>2025-02-05T10:33:50.313Z</time>
      </trkpt>
      <trkpt lat="43.88983" lon="4.67666">
        <ele>52.835136</ele>
        <time>2025-02-05T10:33:53.296Z</time>
      </trkpt>
      <trkpt lat="43.88985" lon="4.6765">
        <ele>52.704842</ele>
        <time>2025-02-05T10:33:57.304Z</time>
      </trkpt>
      <trkpt lat="43.88985" lon="4.67635">
        <ele>52.581649</ele>
        <time>2025-02-05T10:34:00.302Z</time>
      </trkpt>
      <trkpt lat="43.88986" lon="4.6762">
        <ele>52.661701</ele>
        <time>2025-02-05T10:34:03.325Z</time>
      </trkpt>
      <trkpt lat="43.88987" lon="4.67605">
        <ele>52.931598</ele>
        <time>2025-02-05T10:34:06.317Z</time>
      </trkpt>
      <trkpt lat="43.8899" lon="4.67591">
        <ele>53.188973</ele>
        <time>2025-02-05T10:34:09.323Z</time>
      </trkpt>
      <trkpt lat="43.8899" lon="4.67576">
        <ele>53.458816</ele>
        <time>2025-02-05T10:34:12.325Z</time>
      </trkpt>
      <trkpt lat="43.88991" lon="4.67562">
        <ele>53.717406</ele>
        <time>2025-02-05T10:34:15.318Z</time>
      </trkpt>
      <trkpt lat="43.88991" lon="4.67546">
        <ele>54.006603</ele>
        <time>2025-02-05T10:34:18.317Z</time>
      </trkpt>
      <trkpt lat="43.88991" lon="4.67529">
        <ele>54.299647</ele>
        <time>2025-02-05T10:34:21.288Z</time>
      </trkpt>
      <trkpt lat="43.88989" lon="4.67513">
        <ele>54.600149</ele>
        <time>2025-02-05T10:34:24.317Z</time>
      </trkpt>
      <trkpt lat="43.88989" lon="4.67496">
        <ele>54.900619</ele>
        <time>2025-02-05T10:34:27.327Z</time>
      </trkpt>
      <trkpt lat="43.88988" lon="4.67479">
        <ele>55.201833</ele>
        <time>2025-02-05T10:34:30.326Z</time>
      </trkpt>
      <trkpt lat="43.88987" lon="4.67462">
        <ele>55.515005</ele>
        <time>2025-02-05T10:34:33.323Z</time>
      </trkpt>
      <trkpt lat="43.88987" lon="4.67444">
        <ele>55.840125</ele>
        <time>2025-02-05T10:34:36.327Z</time>
      </trkpt>
      <trkpt lat="43.88987" lon="4.67426">
        <ele>56.163592</ele>
        <time>2025-02-05T10:34:39.316Z</time>
      </trkpt>
      <trkpt lat="43.88988" lon="4.67408">
        <ele>56.489046</ele>
        <time>2025-02-05T10:34:42.348Z</time>
      </trkpt>
      <trkpt lat="43.88986" lon="4.6739">
        <ele>56.805898</ele>
        <time>2025-02-05T10:34:45.317Z</time>
      </trkpt>
      <trkpt lat="43.88985" lon="4.67372">
        <ele>56.984358</ele>
        <time>2025-02-05T10:34:48.325Z</time>
      </trkpt>
      <trkpt lat="43.88984" lon="4.67355">
        <ele>56.920062</ele>
        <time>2025-02-05T10:34:51.318Z</time>
      </trkpt>
      <trkpt lat="43.88985" lon="4.67337">
        <ele>56.856451</ele>
        <time>2025-02-05T10:34:54.319Z</time>
      </trkpt>
      <trkpt lat="43.88985" lon="4.6732">
        <ele>56.793243</ele>
        <time>2025-02-05T10:34:57.317Z</time>
      </trkpt>
      <trkpt lat="43.88986" lon="4.67302">
        <ele>56.727403</ele>
        <time>2025-02-05T10:35:00.315Z</time>
      </trkpt>
      <trkpt lat="43.88988" lon="4.67284">
        <ele>56.661115</ele>
        <time>2025-02-05T10:35:03.315Z</time>
      </trkpt>
      <trkpt lat="43.8899" lon="4.67266">
        <ele>56.595326</ele>
        <time>2025-02-05T10:35:06.333Z</time>
      </trkpt>
      <trkpt lat="43.88992" lon="4.67253">
        <ele>56.549312</ele>
        <time>2025-02-05T10:35:08.332Z</time>
      </trkpt>
      <trkpt lat="43.88995" lon="4.67237">
        <ele>56.48728</ele>
        <time>2025-02-05T10:35:11.347Z</time>
      </trkpt>
      <trkpt lat="43.88997" lon="4.67221">
        <ele>56.427262</ele>
        <time>2025-02-05T10:35:14.311Z</time>
      </trkpt>
      <trkpt lat="43.89" lon="4.67205">
        <ele>56.370973</ele>
        <time>2025-02-05T10:35:17.337Z</time>
      </trkpt>
      <trkpt lat="43.89001" lon="4.67191">
        <ele>56.318266</ele>
        <time>2025-02-05T10:35:20.332Z</time>
      </trkpt>
      <trkpt lat="43.89003" lon="4.67177">
        <ele>56.266877</ele>
        <time>2025-02-05T10:35:23.309Z</time>
      </trkpt>
      <trkpt lat="43.89005" lon="4.67163">
        <ele>56.21577</ele>
        <time>2025-02-05T10:35:26.316Z</time>
      </trkpt>
      <trkpt lat="43.89008" lon="4.6715">
        <ele>56.165708</ele>
        <time>2025-02-05T10:35:29.317Z</time>
      </trkpt>
      <trkpt lat="43.8901" lon="4.67136">
        <ele>56.111906</ele>
        <time>2025-02-05T10:35:32.307Z</time>
      </trkpt>
      <trkpt lat="43.89013" lon="4.67122">
        <ele>56.161714</ele>
        <time>2025-02-05T10:35:35.316Z</time>
      </trkpt>
      <trkpt lat="43.89015" lon="4.67106">
        <ele>56.246992</ele>
        <time>2025-02-05T10:35:38.321Z</time>
      </trkpt>
      <trkpt lat="43.89016" lon="4.67093">
        <ele>56.312717</ele>
        <time>2025-02-05T10:35:40.297Z</time>
      </trkpt>
      <trkpt lat="43.89018" lon="4.67081">
        <ele>56.379987</ele>
        <time>2025-02-05T10:35:42.316Z</time>
      </trkpt>
      <trkpt lat="43.8902" lon="4.67063">
        <ele>56.474485</ele>
        <time>2025-02-05T10:35:45.339Z</time>
      </trkpt>
      <trkpt lat="43.89022" lon="4.67045">
        <ele>56.568443</ele>
        <time>2025-02-05T10:35:48.311Z</time>
      </trkpt>
      <trkpt lat="43.89023" lon="4.67027">
        <ele>56.662917</ele>
        <time>2025-02-05T10:35:51.313Z</time>
      </trkpt>
      <trkpt lat="43.89025" lon="4.67009">
        <ele>56.75463</ele>
        <time>2025-02-05T10:35:54.315Z</time>
      </trkpt>
      <trkpt lat="43.89026" lon="4.66992">
        <ele>56.845666</ele>
        <time>2025-02-05T10:35:57.315Z</time>
      </trkpt>
      <trkpt lat="43.89027" lon="4.66975">
        <ele>56.933804</ele>
        <time>2025-02-05T10:36:00.305Z</time>
      </trkpt>
      <trkpt lat="43.89028" lon="4.66958">
        <ele>57.02153</ele>
        <time>2025-02-05T10:36:03.330Z</time>
      </trkpt>
      <trkpt lat="43.89028" lon="4.66941">
        <ele>57.112083</ele>
        <time>2025-02-05T10:36:06.322Z</time>
      </trkpt>
      <trkpt lat="43.89028" lon="4.66924">
        <ele>57.200032</ele>
        <time>2025-02-05T10:36:09.327Z</time>
      </trkpt>
      <trkpt lat="43.89028" lon="4.66907">
        <ele>57.286431</ele>
        <time>2025-02-05T10:36:12.313Z</time>
      </trkpt>
      <trkpt lat="43.89028" lon="4.66889">
        <ele>57.380104</ele>
        <time>2025-02-05T10:36:15.316Z</time>
      </trkpt>
      <trkpt lat="43.89028" lon="4.66872">
        <ele>57.314299</ele>
        <time>2025-02-05T10:36:18.318Z</time>
      </trkpt>
      <trkpt lat="43.89027" lon="4.66855">
        <ele>57.202082</ele>
        <time>2025-02-05T10:36:21.322Z</time>
      </trkpt>
      <trkpt lat="43.89027" lon="4.66839">
        <ele>57.093879</ele>
        <time>2025-02-05T10:36:24.338Z</time>
      </trkpt>
      <trkpt lat="43.89029" lon="4.66821">
        <ele>56.975418</ele>
        <time>2025-02-05T10:36:27.311Z</time>
      </trkpt>
      <trkpt lat="43.89032" lon="4.66803">
        <ele>56.852678</ele>
        <time>2025-02-05T10:36:30.316Z</time>
      </trkpt>
      <trkpt lat="43.89035" lon="4.66786">
        <ele>56.736758</ele>
        <time>2025-02-05T10:36:33.290Z</time>
      </trkpt>
      <trkpt lat="43.89039" lon="4.6677">
        <ele>56.626072</ele>
        <time>2025-02-05T10:36:36.312Z</time>
      </trkpt>
      <trkpt lat="43.89041" lon="4.66752">
        <ele>56.508009</ele>
        <time>2025-02-05T10:36:39.316Z</time>
      </trkpt>
      <trkpt lat="43.89042" lon="4.66735">
        <ele>56.393207</ele>
        <time>2025-02-05T10:36:42.332Z</time>
      </trkpt>
      <trkpt lat="43.89045" lon="4.6672">
        <ele>56.290565</ele>
        <time>2025-02-05T10:36:45.314Z</time>
      </trkpt>
      <trkpt lat="43.89047" lon="4.66707">
        <ele>56.201605</ele>
        <time>2025-02-05T10:36:48.305Z</time>
      </trkpt>
      <trkpt lat="43.89048" lon="4.66694">
        <ele>56.115087</ele>
        <time>2025-02-05T10:36:51.292Z</time>
      </trkpt>
      <trkpt lat="43.8905" lon="4.66681">
        <ele>56.030341</ele>
        <time>2025-02-05T10:36:54.322Z</time>
      </trkpt>
      <trkpt lat="43.89052" lon="4.66663">
        <ele>55.9073</ele>
        <time>2025-02-05T10:36:57.305Z</time>
      </trkpt>
      <trkpt lat="43.89053" lon="4.66646">
        <ele>55.797595</ele>
        <time>2025-02-05T10:36:59.319Z</time>
      </trkpt>
      <trkpt lat="43.89053" lon="4.6663">
        <ele>55.789637</ele>
        <time>2025-02-05T10:37:01.315Z</time>
      </trkpt>
      <trkpt lat="43.89053" lon="4.66614">
        <ele>55.846848</ele>
        <time>2025-02-05T10:37:03.325Z</time>
      </trkpt>
      <trkpt lat="43.89053" lon="4.66599">
        <ele>55.901125</ele>
        <time>2025-02-05T10:37:05.327Z</time>
      </trkpt>
      <trkpt lat="43.89055" lon="4.66584">
        <ele>55.956783</ele>
        <time>2025-02-05T10:37:07.310Z</time>
      </trkpt>
      <trkpt lat="43.89055" lon="4.66569">
        <ele>56.012545</ele>
        <time>2025-02-05T10:37:09.302Z</time>
      </trkpt>
      <trkpt lat="43.89055" lon="4.66554">
        <ele>56.066147</ele>
        <time>2025-02-05T10:37:11.325Z</time>
      </trkpt>
      <trkpt lat="43.89056" lon="4.6654">
        <ele>56.119843</ele>
        <time>2025-02-05T10:37:13.306Z</time>
      </trkpt>
      <trkpt lat="43.89057" lon="4.66526">
        <ele>56.171609</ele>
        <time>2025-02-05T10:37:15.312Z</time>
      </trkpt>
      <trkpt lat="43.89059" lon="4.66512">
        <ele>56.223676</ele>
        <time>2025-02-05T10:37:17.293Z</time>
      </trkpt>
      <trkpt lat="43.8906" lon="4.66498">
        <ele>56.273987</ele>
        <time>2025-02-05T10:37:19.299Z</time>
      </trkpt>
      <trkpt lat="43.89061" lon="4.66485">
        <ele>56.322844</ele>
        <time>2025-02-05T10:37:21.320Z</time>
      </trkpt>
      <trkpt lat="43.89063" lon="4.66467">
        <ele>56.388263</ele>
        <time>2025-02-05T10:37:24.309Z</time>
      </trkpt>
      <trkpt lat="43.89065" lon="4.66455">
        <ele>56.434912</ele>
        <time>2025-02-05T10:37:26.316Z</time>
      </trkpt>
      <trkpt lat="43.89067" lon="4.66439">
        <ele>56.492588</ele>
        <time>2025-02-05T10:37:29.311Z</time>
      </trkpt>
      <trkpt lat="43.8907" lon="4.66425">
        <ele>56.545869</ele>
        <time>2025-02-05T10:37:33.287Z</time>
      </trkpt>
      <trkpt lat="43.89071" lon="4.66411">
        <ele>56.597572</ele>
        <time>2025-02-05T10:37:36.338Z</time>
      </trkpt>
      <trkpt lat="43.89072" lon="4.66396">
        <ele>56.652864</ele>
        <time>2025-02-05T10:37:39.311Z</time>
      </trkpt>
      <trkpt lat="43.89074" lon="4.66381">
        <ele>56.707556</ele>
        <time>2025-02-05T10:37:42.319Z</time>
      </trkpt>
      <trkpt lat="43.89075" lon="4.66364">
        <ele>56.765453</ele>
        <time>2025-02-05T10:37:45.313Z</time>
      </trkpt>
      <trkpt lat="43.89077" lon="4.66347">
        <ele>56.826399</ele>
        <time>2025-02-05T10:37:48.310Z</time>
      </trkpt>
      <trkpt lat="43.89079" lon="4.66334">
        <ele>56.87116</ele>
        <time>2025-02-05T10:37:50.329Z</time>
      </trkpt>
      <trkpt lat="43.89081" lon="4.66315">
        <ele>56.935337</ele>
        <time>2025-02-05T10:37:53.313Z</time>
      </trkpt>
      <trkpt lat="43.89084" lon="4.66303">
        <ele>56.979735</ele>
        <time>2025-02-05T10:37:55.295Z</time>
      </trkpt>
      <trkpt lat="43.89087" lon="4.66291">
        <ele>57.023026</ele>
        <time>2025-02-05T10:37:57.294Z</time>
      </trkpt>
      <trkpt lat="43.89088" lon="4.66278">
        <ele>57.067113</ele>
        <time>2025-02-05T10:37:59.320Z</time>
      </trkpt>
      <trkpt lat="43.89093" lon="4.6626">
        <ele>57.133152</ele>
        <time>2025-02-05T10:38:02.303Z</time>
      </trkpt>
      <trkpt lat="43.89096" lon="4.66248">
        <ele>57.178034</ele>
        <time>2025-02-05T10:38:04.319Z</time>
      </trkpt>
      <trkpt lat="43.891" lon="4.66236">
        <ele>57.223102</ele>
        <time>2025-02-05T10:38:06.313Z</time>
      </trkpt>
      <trkpt lat="43.89103" lon="4.66224">
        <ele>57.266897</ele>
        <time>2025-02-05T10:38:08.315Z</time>
      </trkpt>
      <trkpt lat="43.89107" lon="4.66212">
        <ele>57.310942</ele>
        <time>2025-02-05T10:38:10.315Z</time>
      </trkpt>
      <trkpt lat="43.8911" lon="4.66201">
        <ele>57.35366</ele>
        <time>2025-02-05T10:38:12.326Z</time>
      </trkpt>
      <trkpt lat="43.89116" lon="4.66184">
        <ele>57.416567</ele>
        <time>2025-02-05T10:38:15.311Z</time>
      </trkpt>
      <trkpt lat="43.8912" lon="4.66166">
        <ele>57.481358</ele>
        <time>2025-02-05T10:38:18.308Z</time>
      </trkpt>
      <trkpt lat="43.89125" lon="4.66149">
        <ele>57.53186</ele>
        <time>2025-02-05T10:38:21.319Z</time>
      </trkpt>
      <trkpt lat="43.89128" lon="4.66132">
        <ele>57.549907</ele>
        <time>2025-02-05T10:38:24.323Z</time>
      </trkpt>
      <trkpt lat="43.89131" lon="4.66114">
        <ele>57.568281</ele>
        <time>2025-02-05T10:38:27.289Z</time>
      </trkpt>
      <trkpt lat="43.89134" lon="4.66096">
        <ele>57.587096</ele>
        <time>2025-02-05T10:38:30.323Z</time>
      </trkpt>
      <trkpt lat="43.89135" lon="4.66083">
        <ele>57.599933</ele>
        <time>2025-02-05T10:38:32.325Z</time>
      </trkpt>
      <trkpt lat="43.89136" lon="4.66065">
        <ele>57.619099</ele>
        <time>2025-02-05T10:38:35.313Z</time>
      </trkpt>
      <trkpt lat="43.89137" lon="4.66046">
        <ele>57.638124</ele>
        <time>2025-02-05T10:38:38.317Z</time>
      </trkpt>
      <trkpt lat="43.89138" lon="4.66034">
        <ele>57.650905</ele>
        <time>2025-02-05T10:38:40.323Z</time>
      </trkpt>
      <trkpt lat="43.89139" lon="4.66016">
        <ele>57.669289</ele>
        <time>2025-02-05T10:38:43.314Z</time>
      </trkpt>
      <trkpt lat="43.8914" lon="4.65998">
        <ele>57.687267</ele>
        <time>2025-02-05T10:38:46.315Z</time>
      </trkpt>
      <trkpt lat="43.8914" lon="4.6598">
        <ele>57.706139</ele>
        <time>2025-02-05T10:38:49.311Z</time>
      </trkpt>
      <trkpt lat="43.8914" lon="4.65962">
        <ele>57.72421</ele>
        <time>2025-02-05T10:38:52.329Z</time>
      </trkpt>
      <trkpt lat="43.89139" lon="4.65949">
        <ele>57.737093</ele>
        <time>2025-02-05T10:38:54.315Z</time>
      </trkpt>
      <trkpt lat="43.89138" lon="4.65931">
        <ele>57.755927</ele>
        <time>2025-02-05T10:38:57.304Z</time>
      </trkpt>
      <trkpt lat="43.89137" lon="4.65918">
        <ele>57.768994</ele>
        <time>2025-02-05T10:38:59.326Z</time>
      </trkpt>
      <trkpt lat="43.89136" lon="4.65906">
        <ele>57.781292</ele>
        <time>2025-02-05T10:39:01.330Z</time>
      </trkpt>
      <trkpt lat="43.89135" lon="4.65892">
        <ele>57.789507</ele>
        <time>2025-02-05T10:39:03.294Z</time>
      </trkpt>
      <trkpt lat="43.89134" lon="4.65879">
        <ele>57.797624</ele>
        <time>2025-02-05T10:39:05.319Z</time>
      </trkpt>
      <trkpt lat="43.89133" lon="4.65866">
        <ele>57.805697</ele>
        <time>2025-02-05T10:39:07.314Z</time>
      </trkpt>
      <trkpt lat="43.89132" lon="4.65854">
        <ele>57.813668</ele>
        <time>2025-02-05T10:39:09.311Z</time>
      </trkpt>
      <trkpt lat="43.8913" lon="4.65835">
        <ele>57.825269</ele>
        <time>2025-02-05T10:39:12.298Z</time>
      </trkpt>
      <trkpt lat="43.89127" lon="4.65816">
        <ele>57.836978</ele>
        <time>2025-02-05T10:39:15.350Z</time>
      </trkpt>
      <trkpt lat="43.89125" lon="4.65804">
        <ele>57.844961</ele>
        <time>2025-02-05T10:39:17.309Z</time>
      </trkpt>
      <trkpt lat="43.89124" lon="4.65791">
        <ele>57.852893</ele>
        <time>2025-02-05T10:39:19.291Z</time>
      </trkpt>
      <trkpt lat="43.8912" lon="4.65773">
        <ele>57.864392</ele>
        <time>2025-02-05T10:39:22.316Z</time>
      </trkpt>
      <trkpt lat="43.89118" lon="4.65761">
        <ele>57.872299</ele>
        <time>2025-02-05T10:39:24.325Z</time>
      </trkpt>
      <trkpt lat="43.89116" lon="4.65748">
        <ele>57.880646</ele>
        <time>2025-02-05T10:39:26.331Z</time>
      </trkpt>
      <trkpt lat="43.89113" lon="4.65736">
        <ele>57.888435</ele>
        <time>2025-02-05T10:39:28.296Z</time>
      </trkpt>
      <trkpt lat="43.89111" lon="4.65723">
        <ele>57.896421</ele>
        <time>2025-02-05T10:39:30.321Z</time>
      </trkpt>
      <trkpt lat="43.89109" lon="4.6571">
        <ele>57.904398</ele>
        <time>2025-02-05T10:39:32.311Z</time>
      </trkpt>
      <trkpt lat="43.89107" lon="4.65698">
        <ele>57.912343</ele>
        <time>2025-02-05T10:39:34.316Z</time>
      </trkpt>
      <trkpt lat="43.89106" lon="4.65684">
        <ele>57.920672</ele>
        <time>2025-02-05T10:39:36.318Z</time>
      </trkpt>
      <trkpt lat="43.89105" lon="4.65671">
        <ele>57.92883</ele>
        <time>2025-02-05T10:39:38.320Z</time>
      </trkpt>
      <trkpt lat="43.89106" lon="4.65658">
        <ele>57.928501</ele>
        <time>2025-02-05T10:39:40.325Z</time>
      </trkpt>
      <trkpt lat="43.89107" lon="4.65644">
        <ele>57.906012</ele>
        <time>2025-02-05T10:39:42.324Z</time>
      </trkpt>
      <trkpt lat="43.89108" lon="4.6563">
        <ele>57.884063</ele>
        <time>2025-02-05T10:39:44.310Z</time>
      </trkpt>
      <trkpt lat="43.89109" lon="4.65617">
        <ele>57.862668</ele>
        <time>2025-02-05T10:39:46.319Z</time>
      </trkpt>
      <trkpt lat="43.8911" lon="4.65603">
        <ele>57.840931</ele>
        <time>2025-02-05T10:39:48.317Z</time>
      </trkpt>
      <trkpt lat="43.89111" lon="4.6559">
        <ele>57.819961</ele>
        <time>2025-02-05T10:39:50.330Z</time>
      </trkpt>
      <trkpt lat="43.89112" lon="4.65577">
        <ele>57.797987</ele>
        <time>2025-02-05T10:39:52.321Z</time>
      </trkpt>
      <trkpt lat="43.89113" lon="4.65564">
        <ele>57.77664</ele>
        <time>2025-02-05T10:39:54.319Z</time>
      </trkpt>
      <trkpt lat="43.89114" lon="4.6555">
        <ele>57.755354</ele>
        <time>2025-02-05T10:39:56.302Z</time>
      </trkpt>
      <trkpt lat="43.89115" lon="4.65537">
        <ele>57.734277</ele>
        <time>2025-02-05T10:39:58.329Z</time>
      </trkpt>
      <trkpt lat="43.89116" lon="4.65525">
        <ele>57.713996</ele>
        <time>2025-02-05T10:40:00.323Z</time>
      </trkpt>
      <trkpt lat="43.89118" lon="4.65512">
        <ele>57.693978</ele>
        <time>2025-02-05T10:40:02.328Z</time>
      </trkpt>
      <trkpt lat="43.89119" lon="4.65499">
        <ele>57.673243</ele>
        <time>2025-02-05T10:40:04.329Z</time>
      </trkpt>
      <trkpt lat="43.8912" lon="4.6548">
        <ele>57.642844</ele>
        <time>2025-02-05T10:40:07.320Z</time>
      </trkpt>
      <trkpt lat="43.89121" lon="4.65468">
        <ele>57.62222</ele>
        <time>2025-02-05T10:40:09.324Z</time>
      </trkpt>
      <trkpt lat="43.89122" lon="4.65455">
        <ele>57.602176</ele>
        <time>2025-02-05T10:40:11.319Z</time>
      </trkpt>
      <trkpt lat="43.89122" lon="4.65443">
        <ele>57.582098</ele>
        <time>2025-02-05T10:40:13.316Z</time>
      </trkpt>
      <trkpt lat="43.89123" lon="4.65424">
        <ele>57.552432</ele>
        <time>2025-02-05T10:40:16.302Z</time>
      </trkpt>
      <trkpt lat="43.89124" lon="4.65411">
        <ele>57.533074</ele>
        <time>2025-02-05T10:40:18.289Z</time>
      </trkpt>
      <trkpt lat="43.89125" lon="4.65398">
        <ele>57.51986</ele>
        <time>2025-02-05T10:40:20.320Z</time>
      </trkpt>
      <trkpt lat="43.89126" lon="4.65385">
        <ele>57.506798</ele>
        <time>2025-02-05T10:40:22.321Z</time>
      </trkpt>
      <trkpt lat="43.89127" lon="4.65367">
        <ele>57.488372</ele>
        <time>2025-02-05T10:40:25.338Z</time>
      </trkpt>
      <trkpt lat="43.89128" lon="4.65354">
        <ele>57.475158</ele>
        <time>2025-02-05T10:40:27.319Z</time>
      </trkpt>
      <trkpt lat="43.89129" lon="4.65342">
        <ele>57.462611</ele>
        <time>2025-02-05T10:40:29.321Z</time>
      </trkpt>
      <trkpt lat="43.89129" lon="4.65329">
        <ele>57.449505</ele>
        <time>2025-02-05T10:40:31.318Z</time>
      </trkpt>
      <trkpt lat="43.8913" lon="4.6531">
        <ele>57.430979</ele>
        <time>2025-02-05T10:40:34.306Z</time>
      </trkpt>
      <trkpt lat="43.89132" lon="4.65293">
        <ele>57.413282</ele>
        <time>2025-02-05T10:40:37.327Z</time>
      </trkpt>
      <trkpt lat="43.89133" lon="4.65276">
        <ele>57.395921</ele>
        <time>2025-02-05T10:40:40.321Z</time>
      </trkpt>
      <trkpt lat="43.89133" lon="4.65258">
        <ele>57.378359</ele>
        <time>2025-02-05T10:40:43.312Z</time>
      </trkpt>
      <trkpt lat="43.89135" lon="4.65241">
        <ele>57.360734</ele>
        <time>2025-02-05T10:40:46.320Z</time>
      </trkpt>
      <trkpt lat="43.89137" lon="4.65223">
        <ele>57.343017</ele>
        <time>2025-02-05T10:40:49.321Z</time>
      </trkpt>
      <trkpt lat="43.8914" lon="4.65208">
        <ele>57.326431</ele>
        <time>2025-02-05T10:40:52.322Z</time>
      </trkpt>
      <trkpt lat="43.89145" lon="4.65191">
        <ele>57.308612</ele>
        <time>2025-02-05T10:40:55.335Z</time>
      </trkpt>
      <trkpt lat="43.89149" lon="4.65174">
        <ele>57.290462</ele>
        <time>2025-02-05T10:40:58.343Z</time>
      </trkpt>
      <trkpt lat="43.8915" lon="4.65155">
        <ele>57.283622</ele>
        <time>2025-02-05T10:41:01.311Z</time>
      </trkpt>
      <trkpt lat="43.89151" lon="4.65138">
        <ele>57.282952</ele>
        <time>2025-02-05T10:41:04.311Z</time>
      </trkpt>
      <trkpt lat="43.89153" lon="4.65121">
        <ele>57.282285</ele>
        <time>2025-02-05T10:41:07.291Z</time>
      </trkpt>
      <trkpt lat="43.89155" lon="4.65103">
        <ele>57.281608</ele>
        <time>2025-02-05T10:41:10.305Z</time>
      </trkpt>
      <trkpt lat="43.89156" lon="4.65086">
        <ele>57.280944</ele>
        <time>2025-02-05T10:41:13.301Z</time>
      </trkpt>
      <trkpt lat="43.89157" lon="4.65068">
        <ele>57.280273</ele>
        <time>2025-02-05T10:41:16.319Z</time>
      </trkpt>
      <trkpt lat="43.89158" lon="4.65051">
        <ele>57.279607</ele>
        <time>2025-02-05T10:41:19.306Z</time>
      </trkpt>
      <trkpt lat="43.89159" lon="4.65033">
        <ele>57.278909</ele>
        <time>2025-02-05T10:41:22.319Z</time>
      </trkpt>
      <trkpt lat="43.89161" lon="4.65015">
        <ele>57.278226</ele>
        <time>2025-02-05T10:41:25.296Z</time>
      </trkpt>
      <trkpt lat="43.89163" lon="4.64997">
        <ele>57.277541</ele>
        <time>2025-02-05T10:41:28.319Z</time>
      </trkpt>
      <trkpt lat="43.89164" lon="4.64979">
        <ele>57.276843</ele>
        <time>2025-02-05T10:41:31.318Z</time>
      </trkpt>
      <trkpt lat="43.89165" lon="4.64961">
        <ele>57.276162</ele>
        <time>2025-02-05T10:41:34.313Z</time>
      </trkpt>
      <trkpt lat="43.89165" lon="4.64943">
        <ele>57.275481</ele>
        <time>2025-02-05T10:41:37.314Z</time>
      </trkpt>
      <trkpt lat="43.89164" lon="4.64926">
        <ele>57.27481</ele>
        <time>2025-02-05T10:41:40.330Z</time>
      </trkpt>
      <trkpt lat="43.89162" lon="4.64909">
        <ele>57.221492</ele>
        <time>2025-02-05T10:41:43.305Z</time>
      </trkpt>
      <trkpt lat="43.89158" lon="4.64892">
        <ele>57.128869</ele>
        <time>2025-02-05T10:41:46.320Z</time>
      </trkpt>
      <trkpt lat="43.89153" lon="4.64874">
        <ele>57.031959</ele>
        <time>2025-02-05T10:41:49.302Z</time>
      </trkpt>
      <trkpt lat="43.89149" lon="4.64863">
        <ele>56.965952</ele>
        <time>2025-02-05T10:41:51.307Z</time>
      </trkpt>
      <trkpt lat="43.89145" lon="4.6485">
        <ele>56.900399</ele>
        <time>2025-02-05T10:41:53.323Z</time>
      </trkpt>
      <trkpt lat="43.89142" lon="4.64839">
        <ele>56.836509</ele>
        <time>2025-02-05T10:41:55.318Z</time>
      </trkpt>
      <trkpt lat="43.89138" lon="4.64821">
        <ele>56.741768</ele>
        <time>2025-02-05T10:41:58.312Z</time>
      </trkpt>
      <trkpt lat="43.89135" lon="4.64809">
        <ele>56.676455</ele>
        <time>2025-02-05T10:42:00.331Z</time>
      </trkpt>
      <trkpt lat="43.89132" lon="4.64797">
        <ele>56.610411</ele>
        <time>2025-02-05T10:42:02.300Z</time>
      </trkpt>
      <trkpt lat="43.89127" lon="4.64779">
        <ele>56.515671</ele>
        <time>2025-02-05T10:42:05.301Z</time>
      </trkpt>
      <trkpt lat="43.89124" lon="4.64767">
        <ele>56.450357</ele>
        <time>2025-02-05T10:42:07.309Z</time>
      </trkpt>
      <trkpt lat="43.89119" lon="4.64749">
        <ele>56.354896</ele>
        <time>2025-02-05T10:42:10.305Z</time>
      </trkpt>
      <trkpt lat="43.89116" lon="4.64737">
        <ele>56.289558</ele>
        <time>2025-02-05T10:42:12.317Z</time>
      </trkpt>
      <trkpt lat="43.89112" lon="4.6472">
        <ele>56.197678</ele>
        <time>2025-02-05T10:42:15.312Z</time>
      </trkpt>
      <trkpt lat="43.89108" lon="4.64703">
        <ele>56.105757</ele>
        <time>2025-02-05T10:42:18.305Z</time>
      </trkpt>
      <trkpt lat="43.89103" lon="4.64686">
        <ele>56.013401</ele>
        <time>2025-02-05T10:42:21.311Z</time>
      </trkpt>
      <trkpt lat="43.89098" lon="4.64669">
        <ele>56.008703</ele>
        <time>2025-02-05T10:42:24.303Z</time>
      </trkpt>
      <trkpt lat="43.89095" lon="4.64652">
        <ele>56.01246</ele>
        <time>2025-02-05T10:42:27.417Z</time>
      </trkpt>
      <trkpt lat="43.89092" lon="4.6464">
        <ele>56.015145</ele>
        <time>2025-02-05T10:42:29.306Z</time>
      </trkpt>
      <trkpt lat="43.89088" lon="4.64622">
        <ele>56.019045</ele>
        <time>2025-02-05T10:42:32.325Z</time>
      </trkpt>
      <trkpt lat="43.89085" lon="4.64605">
        <ele>56.022861</ele>
        <time>2025-02-05T10:42:35.313Z</time>
      </trkpt>
      <trkpt lat="43.89082" lon="4.64588">
        <ele>56.026656</ele>
        <time>2025-02-05T10:42:38.325Z</time>
      </trkpt>
      <trkpt lat="43.89078" lon="4.64571">
        <ele>56.030446</ele>
        <time>2025-02-05T10:42:41.315Z</time>
      </trkpt>
      <trkpt lat="43.89077" lon="4.64558">
        <ele>56.033113</ele>
        <time>2025-02-05T10:42:43.316Z</time>
      </trkpt>
      <trkpt lat="43.89075" lon="4.6454">
        <ele>56.03695</ele>
        <time>2025-02-05T10:42:46.340Z</time>
      </trkpt>
      <trkpt lat="43.89071" lon="4.64523">
        <ele>56.040843</ele>
        <time>2025-02-05T10:42:49.310Z</time>
      </trkpt>
      <trkpt lat="43.89068" lon="4.64511">
        <ele>56.043533</ele>
        <time>2025-02-05T10:42:51.309Z</time>
      </trkpt>
      <trkpt lat="43.89065" lon="4.64499">
        <ele>56.046207</ele>
        <time>2025-02-05T10:42:53.306Z</time>
      </trkpt>
      <trkpt lat="43.89062" lon="4.64487">
        <ele>56.048871</ele>
        <time>2025-02-05T10:42:55.316Z</time>
      </trkpt>
      <trkpt lat="43.89057" lon="4.6447">
        <ele>56.052704</ele>
        <time>2025-02-05T10:42:58.306Z</time>
      </trkpt>
      <trkpt lat="43.89054" lon="4.64453">
        <ele>56.056519</ele>
        <time>2025-02-05T10:43:01.314Z</time>
      </trkpt>
      <trkpt lat="43.8905" lon="4.64436">
        <ele>56.099904</ele>
        <time>2025-02-05T10:43:04.312Z</time>
      </trkpt>
      <trkpt lat="43.89046" lon="4.64419">
        <ele>56.171071</ele>
        <time>2025-02-05T10:43:07.321Z</time>
      </trkpt>
      <trkpt lat="43.89042" lon="4.64402">
        <ele>56.243304</ele>
        <time>2025-02-05T10:43:10.307Z</time>
      </trkpt>
      <trkpt lat="43.89038" lon="4.64384">
        <ele>56.31607</ele>
        <time>2025-02-05T10:43:13.318Z</time>
      </trkpt>
      <trkpt lat="43.89034" lon="4.64367">
        <ele>56.385993</ele>
        <time>2025-02-05T10:43:16.319Z</time>
      </trkpt>
      <trkpt lat="43.89032" lon="4.6435">
        <ele>56.457808</ele>
        <time>2025-02-05T10:43:19.311Z</time>
      </trkpt>
      <trkpt lat="43.89031" lon="4.64332">
        <ele>56.528398</ele>
        <time>2025-02-05T10:43:22.325Z</time>
      </trkpt>
      <trkpt lat="43.89029" lon="4.64315">
        <ele>56.597164</ele>
        <time>2025-02-05T10:43:25.307Z</time>
      </trkpt>
      <trkpt lat="43.89028" lon="4.64298">
        <ele>56.666159</ele>
        <time>2025-02-05T10:43:28.310Z</time>
      </trkpt>
      <trkpt lat="43.89027" lon="4.6428">
        <ele>56.737036</ele>
        <time>2025-02-05T10:43:31.305Z</time>
      </trkpt>
      <trkpt lat="43.89024" lon="4.64263">
        <ele>56.807541</ele>
        <time>2025-02-05T10:43:34.315Z</time>
      </trkpt>
      <trkpt lat="43.89021" lon="4.64245">
        <ele>56.881076</ele>
        <time>2025-02-05T10:43:37.309Z</time>
      </trkpt>
      <trkpt lat="43.89016" lon="4.64228">
        <ele>56.954806</ele>
        <time>2025-02-05T10:43:40.322Z</time>
      </trkpt>
      <trkpt lat="43.89012" lon="4.64211">
        <ele>57.025336</ele>
        <time>2025-02-05T10:43:43.332Z</time>
      </trkpt>
      <trkpt lat="43.89008" lon="4.64196">
        <ele>57.039133</ele>
        <time>2025-02-05T10:43:46.352Z</time>
      </trkpt>
      <trkpt lat="43.89004" lon="4.64183">
        <ele>57.01236</ele>
        <time>2025-02-05T10:43:49.314Z</time>
      </trkpt>
      <trkpt lat="43.89" lon="4.6417">
        <ele>56.984504</ele>
        <time>2025-02-05T10:43:52.329Z</time>
      </trkpt>
      <trkpt lat="43.88994" lon="4.64153">
        <ele>56.949355</ele>
        <time>2025-02-05T10:43:55.330Z</time>
      </trkpt>
      <trkpt lat="43.8899" lon="4.64142">
        <ele>56.92516</ele>
        <time>2025-02-05T10:43:57.314Z</time>
      </trkpt>
      <trkpt lat="43.88986" lon="4.6413">
        <ele>56.900508</ele>
        <time>2025-02-05T10:43:59.309Z</time>
      </trkpt>
      <trkpt lat="43.88983" lon="4.64118">
        <ele>56.876478</ele>
        <time>2025-02-05T10:44:01.316Z</time>
      </trkpt>
      <trkpt lat="43.88979" lon="4.64106">
        <ele>56.852697</ele>
        <time>2025-02-05T10:44:03.349Z</time>
      </trkpt>
      <trkpt lat="43.88975" lon="4.6409">
        <ele>56.819466</ele>
        <time>2025-02-05T10:44:06.303Z</time>
      </trkpt>
      <trkpt lat="43.88974" lon="4.64071">
        <ele>56.784488</ele>
        <time>2025-02-05T10:44:09.305Z</time>
      </trkpt>
      <trkpt lat="43.88975" lon="4.64054">
        <ele>56.751419</ele>
        <time>2025-02-05T10:44:12.332Z</time>
      </trkpt>
      <trkpt lat="43.88976" lon="4.64037">
        <ele>56.718141</ele>
        <time>2025-02-05T10:44:15.322Z</time>
      </trkpt>
      <trkpt lat="43.88977" lon="4.64019">
        <ele>56.684046</ele>
        <time>2025-02-05T10:44:18.300Z</time>
      </trkpt>
      <trkpt lat="43.88979" lon="4.64001">
        <ele>56.650986</ele>
        <time>2025-02-05T10:44:21.296Z</time>
      </trkpt>
      <trkpt lat="43.8898" lon="4.63984">
        <ele>56.617669</ele>
        <time>2025-02-05T10:44:24.318Z</time>
      </trkpt>
      <trkpt lat="43.8898" lon="4.63966">
        <ele>56.583816</ele>
        <time>2025-02-05T10:44:27.321Z</time>
      </trkpt>
      <trkpt lat="43.88981" lon="4.63949">
        <ele>56.574123</ele>
        <time>2025-02-05T10:44:30.331Z</time>
      </trkpt>
      <trkpt lat="43.88982" lon="4.63932">
        <ele>56.56595</ele>
        <time>2025-02-05T10:44:33.325Z</time>
      </trkpt>
      <trkpt lat="43.88983" lon="4.63915">
        <ele>56.557892</ele>
        <time>2025-02-05T10:44:36.322Z</time>
      </trkpt>
      <trkpt lat="43.88984" lon="4.63897">
        <ele>56.549164</ele>
        <time>2025-02-05T10:44:39.340Z</time>
      </trkpt>
      <trkpt lat="43.88984" lon="4.63879">
        <ele>56.540262</ele>
        <time>2025-02-05T10:44:42.318Z</time>
      </trkpt>
      <trkpt lat="43.88984" lon="4.63861">
        <ele>56.531293</ele>
        <time>2025-02-05T10:44:45.295Z</time>
      </trkpt>
      <trkpt lat="43.88983" lon="4.63842">
        <ele>56.522289</ele>
        <time>2025-02-05T10:44:48.325Z</time>
      </trkpt>
      <trkpt lat="43.88982" lon="4.63824">
        <ele>56.513473</ele>
        <time>2025-02-05T10:44:51.318Z</time>
      </trkpt>
      <trkpt lat="43.88981" lon="4.63806">
        <ele>56.504831</ele>
        <time>2025-02-05T10:44:54.320Z</time>
      </trkpt>
      <trkpt lat="43.88979" lon="4.63789">
        <ele>56.496642</ele>
        <time>2025-02-05T10:44:57.343Z</time>
      </trkpt>
      <trkpt lat="43.88977" lon="4.63771">
        <ele>56.487917</ele>
        <time>2025-02-05T10:45:00.315Z</time>
      </trkpt>
      <trkpt lat="43.88975" lon="4.63754">
        <ele>56.479175</ele>
        <time>2025-02-05T10:45:03.320Z</time>
      </trkpt>
      <trkpt lat="43.88974" lon="4.63736">
        <ele>56.470441</ele>
        <time>2025-02-05T10:45:06.323Z</time>
      </trkpt>
      <trkpt lat="43.88972" lon="4.63717">
        <ele>56.461555</ele>
        <time>2025-02-05T10:45:09.319Z</time>
      </trkpt>
      <trkpt lat="43.8897" lon="4.637">
        <ele>56.410482</ele>
        <time>2025-02-05T10:45:12.334Z</time>
      </trkpt>
      <trkpt lat="43.88969" lon="4.63682">
        <ele>56.358033</ele>
        <time>2025-02-05T10:45:15.331Z</time>
      </trkpt>
      <trkpt lat="43.88967" lon="4.63664">
        <ele>56.306859</ele>
        <time>2025-02-05T10:45:18.325Z</time>
      </trkpt>
      <trkpt lat="43.88965" lon="4.63652">
        <ele>56.270604</ele>
        <time>2025-02-05T10:45:20.305Z</time>
      </trkpt>
      <trkpt lat="43.8896" lon="4.63635">
        <ele>56.217571</ele>
        <time>2025-02-05T10:45:23.314Z</time>
      </trkpt>
      <trkpt lat="43.88955" lon="4.63618">
        <ele>56.164624</ele>
        <time>2025-02-05T10:45:26.323Z</time>
      </trkpt>
      <trkpt lat="43.88951" lon="4.63601">
        <ele>56.109948</ele>
        <time>2025-02-05T10:45:29.324Z</time>
      </trkpt>
      <trkpt lat="43.88947" lon="4.63584">
        <ele>56.057939</ele>
        <time>2025-02-05T10:45:32.338Z</time>
      </trkpt>
      <trkpt lat="43.88944" lon="4.63566">
        <ele>56.004963</ele>
        <time>2025-02-05T10:45:35.324Z</time>
      </trkpt>
      <trkpt lat="43.88941" lon="4.63548">
        <ele>55.951712</ele>
        <time>2025-02-05T10:45:38.320Z</time>
      </trkpt>
      <trkpt lat="43.88938" lon="4.6353">
        <ele>55.897886</ele>
        <time>2025-02-05T10:45:41.326Z</time>
      </trkpt>
      <trkpt lat="43.88935" lon="4.63512">
        <ele>55.845108</ele>
        <time>2025-02-05T10:45:44.319Z</time>
      </trkpt>
      <trkpt lat="43.88933" lon="4.63496">
        <ele>55.797329</ele>
        <time>2025-02-05T10:45:47.316Z</time>
      </trkpt>
      <trkpt lat="43.88931" lon="4.6348">
        <ele>55.747622</ele>
        <time>2025-02-05T10:45:50.318Z</time>
      </trkpt>
      <trkpt lat="43.8893" lon="4.63463">
        <ele>55.755782</ele>
        <time>2025-02-05T10:45:53.317Z</time>
      </trkpt>
      <trkpt lat="43.88928" lon="4.63447">
        <ele>55.785187</ele>
        <time>2025-02-05T10:45:56.336Z</time>
      </trkpt>
      <trkpt lat="43.88928" lon="4.6343">
        <ele>55.815072</ele>
        <time>2025-02-05T10:45:59.308Z</time>
      </trkpt>
      <trkpt lat="43.88928" lon="4.63414">
        <ele>55.844598</ele>
        <time>2025-02-05T10:46:02.334Z</time>
      </trkpt>
      <trkpt lat="43.88928" lon="4.63397">
        <ele>55.874877</ele>
        <time>2025-02-05T10:46:05.320Z</time>
      </trkpt>
      <trkpt lat="43.88927" lon="4.6338">
        <ele>55.905006</ele>
        <time>2025-02-05T10:46:08.314Z</time>
      </trkpt>
      <trkpt lat="43.88927" lon="4.63364">
        <ele>55.932574</ele>
        <time>2025-02-05T10:46:11.318Z</time>
      </trkpt>
      <trkpt lat="43.88927" lon="4.63349">
        <ele>55.959963</ele>
        <time>2025-02-05T10:46:14.317Z</time>
      </trkpt>
      <trkpt lat="43.88927" lon="4.63335">
        <ele>55.98609</ele>
        <time>2025-02-05T10:46:17.315Z</time>
      </trkpt>
      <trkpt lat="43.88925" lon="4.63319">
        <ele>56.013402</ele>
        <time>2025-02-05T10:46:20.299Z</time>
      </trkpt>
      <trkpt lat="43.88923" lon="4.63303">
        <ele>56.042813</ele>
        <time>2025-02-05T10:46:23.318Z</time>
      </trkpt>
      <trkpt lat="43.88922" lon="4.63287">
        <ele>56.071931</ele>
        <time>2025-02-05T10:46:26.326Z</time>
      </trkpt>
      <trkpt lat="43.8892" lon="4.63271">
        <ele>56.100596</ele>
        <time>2025-02-05T10:46:29.317Z</time>
      </trkpt>
      <trkpt lat="43.88918" lon="4.63254">
        <ele>56.131243</ele>
        <time>2025-02-05T10:46:32.320Z</time>
      </trkpt>
      <trkpt lat="43.88914" lon="4.63239">
        <ele>56.161312</ele>
        <time>2025-02-05T10:46:35.326Z</time>
      </trkpt>
      <trkpt lat="43.8891" lon="4.63223">
        <ele>56.192733</ele>
        <time>2025-02-05T10:46:38.316Z</time>
      </trkpt>
      <trkpt lat="43.88906" lon="4.63207">
        <ele>56.22429</ele>
        <time>2025-02-05T10:46:41.316Z</time>
      </trkpt>
      <trkpt lat="43.88901" lon="4.63191">
        <ele>56.256201</ele>
        <time>2025-02-05T10:46:44.333Z</time>
      </trkpt>
      <trkpt lat="43.88897" lon="4.63175">
        <ele>56.287362</ele>
        <time>2025-02-05T10:46:47.314Z</time>
      </trkpt>
      <trkpt lat="43.88893" lon="4.6316">
        <ele>56.318701</ele>
        <time>2025-02-05T10:46:50.314Z</time>
      </trkpt>
      <trkpt lat="43.88894" lon="4.63144">
        <ele>56.349504</ele>
        <time>2025-02-05T10:46:53.335Z</time>
      </trkpt>
      <trkpt lat="43.88896" lon="4.63128">
        <ele>56.378632</ele>
        <time>2025-02-05T10:46:56.334Z</time>
      </trkpt>
      <trkpt lat="43.88902" lon="4.63114">
        <ele>56.409831</ele>
        <time>2025-02-05T10:46:59.320Z</time>
      </trkpt>
      <trkpt lat="43.88911" lon="4.63103">
        <ele>56.440207</ele>
        <time>2025-02-05T10:47:02.325Z</time>
      </trkpt>
      <trkpt lat="43.8892" lon="4.63092">
        <ele>56.471224</ele>
        <time>2025-02-05T10:47:05.315Z</time>
      </trkpt>
      <trkpt lat="43.88928" lon="4.6308">
        <ele>56.502178</ele>
        <time>2025-02-05T10:47:08.322Z</time>
      </trkpt>
      <trkpt lat="43.88935" lon="4.63068">
        <ele>56.533272</ele>
        <time>2025-02-05T10:47:11.312Z</time>
      </trkpt>
      <trkpt lat="43.88942" lon="4.63056">
        <ele>56.562098</ele>
        <time>2025-02-05T10:47:14.319Z</time>
      </trkpt>
      <trkpt lat="43.8895" lon="4.63044">
        <ele>56.592298</ele>
        <time>2025-02-05T10:47:17.320Z</time>
      </trkpt>
      <trkpt lat="43.88959" lon="4.63033">
        <ele>56.623706</ele>
        <time>2025-02-05T10:47:20.310Z</time>
      </trkpt>
      <trkpt lat="43.88968" lon="4.63025">
        <ele>56.650352</ele>
        <time>2025-02-05T10:47:23.293Z</time>
      </trkpt>
      <trkpt lat="43.88977" lon="4.63016">
        <ele>56.617986</ele>
        <time>2025-02-05T10:47:26.322Z</time>
      </trkpt>
      <trkpt lat="43.88986" lon="4.63008">
        <ele>56.585746</ele>
        <time>2025-02-05T10:47:29.304Z</time>
      </trkpt>
      <trkpt lat="43.88995" lon="4.62997">
        <ele>56.548713</ele>
        <time>2025-02-05T10:47:32.333Z</time>
      </trkpt>
      <trkpt lat="43.89004" lon="4.6299">
        <ele>56.514987</ele>
        <time>2025-02-05T10:47:35.330Z</time>
      </trkpt>
      <trkpt lat="43.89014" lon="4.62982">
        <ele>56.482876</ele>
        <time>2025-02-05T10:47:38.305Z</time>
      </trkpt>
      <trkpt lat="43.89022" lon="4.62975">
        <ele>56.450747</ele>
        <time>2025-02-05T10:47:41.327Z</time>
      </trkpt>
      <trkpt lat="43.8903" lon="4.62968">
        <ele>56.42248</ele>
        <time>2025-02-05T10:47:44.330Z</time>
      </trkpt>
      <trkpt lat="43.8904" lon="4.62958">
        <ele>56.385582</ele>
        <time>2025-02-05T10:47:48.317Z</time>
      </trkpt>
      <trkpt lat="43.89048" lon="4.62951">
        <ele>56.355861</ele>
        <time>2025-02-05T10:47:51.328Z</time>
      </trkpt>
      <trkpt lat="43.89056" lon="4.62944">
        <ele>56.327265</ele>
        <time>2025-02-05T10:47:54.321Z</time>
      </trkpt>
      <trkpt lat="43.89064" lon="4.62936">
        <ele>56.298679</ele>
        <time>2025-02-05T10:47:57.325Z</time>
      </trkpt>
      <trkpt lat="43.89071" lon="4.62929">
        <ele>56.270718</ele>
        <time>2025-02-05T10:48:00.320Z</time>
      </trkpt>
      <trkpt lat="43.89081" lon="4.6292">
        <ele>56.23407</ele>
        <time>2025-02-05T10:48:04.319Z</time>
      </trkpt>
      <trkpt lat="43.89091" lon="4.62911">
        <ele>56.197778</ele>
        <time>2025-02-05T10:48:08.312Z</time>
      </trkpt>
      <trkpt lat="43.89099" lon="4.62905">
        <ele>56.169632</ele>
        <time>2025-02-05T10:48:11.333Z</time>
      </trkpt>
      <trkpt lat="43.89108" lon="4.629">
        <ele>56.140326</ele>
        <time>2025-02-05T10:48:14.322Z</time>
      </trkpt>
      <trkpt lat="43.89117" lon="4.62893">
        <ele>56.109495</ele>
        <time>2025-02-05T10:48:17.320Z</time>
      </trkpt>
      <trkpt lat="43.89126" lon="4.62888">
        <ele>56.107672</ele>
        <time>2025-02-05T10:48:20.324Z</time>
      </trkpt>
      <trkpt lat="43.89135" lon="4.62881">
        <ele>56.117796</ele>
        <time>2025-02-05T10:48:23.283Z</time>
      </trkpt>
      <trkpt lat="43.89144" lon="4.62874">
        <ele>56.127953</ele>
        <time>2025-02-05T10:48:26.309Z</time>
      </trkpt>
      <trkpt lat="43.89153" lon="4.62869">
        <ele>56.138429</ele>
        <time>2025-02-05T10:48:29.311Z</time>
      </trkpt>
      <trkpt lat="43.89162" lon="4.62862">
        <ele>56.148744</ele>
        <time>2025-02-05T10:48:32.305Z</time>
      </trkpt>
      <trkpt lat="43.89171" lon="4.62855">
        <ele>56.158924</ele>
        <time>2025-02-05T10:48:35.298Z</time>
      </trkpt>
      <trkpt lat="43.8918" lon="4.62848">
        <ele>56.16917</ele>
        <time>2025-02-05T10:48:38.311Z</time>
      </trkpt>
      <trkpt lat="43.89188" lon="4.62841">
        <ele>56.179108</ele>
        <time>2025-02-05T10:48:41.320Z</time>
      </trkpt>
      <trkpt lat="43.89197" lon="4.62835">
        <ele>56.188789</ele>
        <time>2025-02-05T10:48:44.306Z</time>
      </trkpt>
      <trkpt lat="43.89206" lon="4.62827">
        <ele>56.199308</ele>
        <time>2025-02-05T10:48:47.298Z</time>
      </trkpt>
      <trkpt lat="43.89214" lon="4.62819">
        <ele>56.209447</ele>
        <time>2025-02-05T10:48:50.307Z</time>
      </trkpt>
      <trkpt lat="43.89223" lon="4.62813">
        <ele>56.219235</ele>
        <time>2025-02-05T10:48:53.313Z</time>
      </trkpt>
      <trkpt lat="43.8923" lon="4.62806">
        <ele>56.228709</ele>
        <time>2025-02-05T10:48:56.316Z</time>
      </trkpt>
      <trkpt lat="43.89239" lon="4.62798">
        <ele>56.238724</ele>
        <time>2025-02-05T10:48:59.308Z</time>
      </trkpt>
      <trkpt lat="43.89247" lon="4.6279">
        <ele>56.249146</ele>
        <time>2025-02-05T10:49:02.310Z</time>
      </trkpt>
      <trkpt lat="43.89256" lon="4.62783">
        <ele>56.259429</ele>
        <time>2025-02-05T10:49:05.316Z</time>
      </trkpt>
      <trkpt lat="43.89265" lon="4.62775">
        <ele>56.26977</ele>
        <time>2025-02-05T10:49:08.313Z</time>
      </trkpt>
      <trkpt lat="43.89274" lon="4.62767">
        <ele>56.28048</ele>
        <time>2025-02-05T10:49:11.318Z</time>
      </trkpt>
      <trkpt lat="43.89282" lon="4.62759">
        <ele>56.266872</ele>
        <time>2025-02-05T10:49:14.316Z</time>
      </trkpt>
      <trkpt lat="43.89291" lon="4.62751">
        <ele>56.250963</ele>
        <time>2025-02-05T10:49:17.317Z</time>
      </trkpt>
      <trkpt lat="43.893" lon="4.62743">
        <ele>56.234264</ele>
        <time>2025-02-05T10:49:20.303Z</time>
      </trkpt>
      <trkpt lat="43.89308" lon="4.62735">
        <ele>56.218491</ele>
        <time>2025-02-05T10:49:23.302Z</time>
      </trkpt>
      <trkpt lat="43.89315" lon="4.62726">
        <ele>56.20277</ele>
        <time>2025-02-05T10:49:26.308Z</time>
      </trkpt>
      <trkpt lat="43.89321" lon="4.62714">
        <ele>56.186426</ele>
        <time>2025-02-05T10:49:29.299Z</time>
      </trkpt>
      <trkpt lat="43.89325" lon="4.62701">
        <ele>56.169628</ele>
        <time>2025-02-05T10:49:32.331Z</time>
      </trkpt>
      <trkpt lat="43.89328" lon="4.62685">
        <ele>56.150907</ele>
        <time>2025-02-05T10:49:35.310Z</time>
      </trkpt>
      <trkpt lat="43.89329" lon="4.62669">
        <ele>56.132744</ele>
        <time>2025-02-05T10:49:38.334Z</time>
      </trkpt>
      <trkpt lat="43.8933" lon="4.62654">
        <ele>56.115012</ele>
        <time>2025-02-05T10:49:41.327Z</time>
      </trkpt>
      <trkpt lat="43.89329" lon="4.62639">
        <ele>56.098195</ele>
        <time>2025-02-05T10:49:44.304Z</time>
      </trkpt>
      <trkpt lat="43.8933" lon="4.62624">
        <ele>56.08137</ele>
        <time>2025-02-05T10:49:47.325Z</time>
      </trkpt>
      <trkpt lat="43.89331" lon="4.6261">
        <ele>56.064756</ele>
        <time>2025-02-05T10:49:50.325Z</time>
      </trkpt>
      <trkpt lat="43.8933" lon="4.62595">
        <ele>56.047833</ele>
        <time>2025-02-05T10:49:53.332Z</time>
      </trkpt>
      <trkpt lat="43.89331" lon="4.6258">
        <ele>56.030725</ele>
        <time>2025-02-05T10:49:56.317Z</time>
      </trkpt>
      <trkpt lat="43.89333" lon="4.62566">
        <ele>56.014057</ele>
        <time>2025-02-05T10:49:59.321Z</time>
      </trkpt>
      <trkpt lat="43.89336" lon="4.62552">
        <ele>55.997545</ele>
        <time>2025-02-05T10:50:02.319Z</time>
      </trkpt>
      <trkpt lat="43.89345" lon="4.62543">
        <ele>56.05169</ele>
        <time>2025-02-05T10:50:05.341Z</time>
      </trkpt>
      <trkpt lat="43.89353" lon="4.62535">
        <ele>56.110009</ele>
        <time>2025-02-05T10:50:08.335Z</time>
      </trkpt>
      <trkpt lat="43.89361" lon="4.62527">
        <ele>56.16875</ele>
        <time>2025-02-05T10:50:11.311Z</time>
      </trkpt>
      <trkpt lat="43.89369" lon="4.62519">
        <ele>56.227259</ele>
        <time>2025-02-05T10:50:14.314Z</time>
      </trkpt>
      <trkpt lat="43.89378" lon="4.6251">
        <ele>56.285545</ele>
        <time>2025-02-05T10:50:17.327Z</time>
      </trkpt>
      <trkpt lat="43.89385" lon="4.62501">
        <ele>56.345306</ele>
        <time>2025-02-05T10:50:20.311Z</time>
      </trkpt>
      <trkpt lat="43.89393" lon="4.62491">
        <ele>56.405035</ele>
        <time>2025-02-05T10:50:23.314Z</time>
      </trkpt>
      <trkpt lat="43.894" lon="4.6248">
        <ele>56.465517</ele>
        <time>2025-02-05T10:50:26.306Z</time>
      </trkpt>
      <trkpt lat="43.89407" lon="4.62469">
        <ele>56.526715</ele>
        <time>2025-02-05T10:50:29.301Z</time>
      </trkpt>
      <trkpt lat="43.89414" lon="4.62458">
        <ele>56.588324</ele>
        <time>2025-02-05T10:50:32.307Z</time>
      </trkpt>
      <trkpt lat="43.89421" lon="4.62447">
        <ele>56.648822</ele>
        <time>2025-02-05T10:50:35.305Z</time>
      </trkpt>
      <trkpt lat="43.89429" lon="4.62435">
        <ele>56.712701</ele>
        <time>2025-02-05T10:50:38.326Z</time>
      </trkpt>
      <trkpt lat="43.89436" lon="4.62425">
        <ele>56.773677</ele>
        <time>2025-02-05T10:50:41.319Z</time>
      </trkpt>
      <trkpt lat="43.89443" lon="4.62415">
        <ele>56.834107</ele>
        <time>2025-02-05T10:50:44.289Z</time>
      </trkpt>
      <trkpt lat="43.89452" lon="4.62405">
        <ele>56.896523</ele>
        <time>2025-02-05T10:50:47.315Z</time>
      </trkpt>
      <trkpt lat="43.8946" lon="4.62396">
        <ele>56.956469</ele>
        <time>2025-02-05T10:50:50.326Z</time>
      </trkpt>
      <trkpt lat="43.89469" lon="4.62389">
        <ele>57.014092</ele>
        <time>2025-02-05T10:50:53.295Z</time>
      </trkpt>
      <trkpt lat="43.89479" lon="4.62382">
        <ele>57.002197</ele>
        <time>2025-02-05T10:50:57.325Z</time>
      </trkpt>
      <trkpt lat="43.89489" lon="4.6238">
        <ele>56.968555</ele>
        <time>2025-02-05T10:51:01.320Z</time>
      </trkpt>
      <trkpt lat="43.89498" lon="4.62379">
        <ele>56.938097</ele>
        <time>2025-02-05T10:51:05.345Z</time>
      </trkpt>
      <trkpt lat="43.89509" lon="4.62378">
        <ele>56.903603</ele>
        <time>2025-02-05T10:51:10.300Z</time>
      </trkpt>
      <trkpt lat="43.89519" lon="4.62373">
        <ele>56.870283</ele>
        <time>2025-02-05T10:51:15.299Z</time>
      </trkpt>
      <trkpt lat="43.89528" lon="4.6237">
        <ele>56.840504</ele>
        <time>2025-02-05T10:51:19.308Z</time>
      </trkpt>
      <trkpt lat="43.89539" lon="4.62369">
        <ele>56.805475</ele>
        <time>2025-02-05T10:51:24.325Z</time>
      </trkpt>
      <trkpt lat="43.89549" lon="4.62368">
        <ele>56.772044</ele>
        <time>2025-02-05T10:51:29.316Z</time>
      </trkpt>
      <trkpt lat="43.8956" lon="4.62367">
        <ele>56.738644</ele>
        <time>2025-02-05T10:51:33.313Z</time>
      </trkpt>
      <trkpt lat="43.89571" lon="4.62365">
        <ele>56.702355</ele>
        <time>2025-02-05T10:51:37.309Z</time>
      </trkpt>
      <trkpt lat="43.89581" lon="4.62363">
        <ele>56.668733</ele>
        <time>2025-02-05T10:51:40.330Z</time>
      </trkpt>
      <trkpt lat="43.89593" lon="4.62359">
        <ele>56.631884</ele>
        <time>2025-02-05T10:51:43.312Z</time>
      </trkpt>
      <trkpt lat="43.89605" lon="4.62356">
        <ele>56.590741</ele>
        <time>2025-02-05T10:51:46.298Z</time>
      </trkpt>
      <trkpt lat="43.89618" lon="4.62352">
        <ele>56.549884</ele>
        <time>2025-02-05T10:51:49.307Z</time>
      </trkpt>
      <trkpt lat="43.89629" lon="4.62349">
        <ele>56.513802</ele>
        <time>2025-02-05T10:51:52.326Z</time>
      </trkpt>
      <trkpt lat="43.89638" lon="4.62348">
        <ele>56.482567</ele>
        <time>2025-02-05T10:51:55.318Z</time>
      </trkpt>
      <trkpt lat="43.8965" lon="4.62345">
        <ele>56.446618</ele>
        <time>2025-02-05T10:51:59.307Z</time>
      </trkpt>
      <trkpt lat="43.89662" lon="4.62343">
        <ele>56.417788</ele>
        <time>2025-02-05T10:52:03.320Z</time>
      </trkpt>
      <trkpt lat="43.89671" lon="4.62342">
        <ele>56.395074</ele>
        <time>2025-02-05T10:52:06.312Z</time>
      </trkpt>
      <trkpt lat="43.89681" lon="4.6234">
        <ele>56.37191</ele>
        <time>2025-02-05T10:52:09.317Z</time>
      </trkpt>
      <trkpt lat="43.89691" lon="4.62338">
        <ele>56.346788</ele>
        <time>2025-02-05T10:52:12.325Z</time>
      </trkpt>
      <trkpt lat="43.89701" lon="4.62335">
        <ele>56.322499</ele>
        <time>2025-02-05T10:52:15.314Z</time>
      </trkpt>
      <trkpt lat="43.89711" lon="4.62333">
        <ele>56.298731</ele>
        <time>2025-02-05T10:52:18.320Z</time>
      </trkpt>
      <trkpt lat="43.89721" lon="4.62331">
        <ele>56.274137</ele>
        <time>2025-02-05T10:52:21.316Z</time>
      </trkpt>
      <trkpt lat="43.89731" lon="4.6233">
        <ele>56.250067</ele>
        <time>2025-02-05T10:52:24.333Z</time>
      </trkpt>
      <trkpt lat="43.89741" lon="4.62327">
        <ele>56.225365</ele>
        <time>2025-02-05T10:52:27.323Z</time>
      </trkpt>
      <trkpt lat="43.89751" lon="4.62325">
        <ele>56.201405</ele>
        <time>2025-02-05T10:52:30.326Z</time>
      </trkpt>
      <trkpt lat="43.8976" lon="4.62323">
        <ele>56.177877</ele>
        <time>2025-02-05T10:52:33.311Z</time>
      </trkpt>
      <trkpt lat="43.8977" lon="4.62321">
        <ele>56.153258</ele>
        <time>2025-02-05T10:52:36.294Z</time>
      </trkpt>
      <trkpt lat="43.8978" lon="4.6232">
        <ele>56.129688</ele>
        <time>2025-02-05T10:52:39.316Z</time>
      </trkpt>
      <trkpt lat="43.8979" lon="4.62318">
        <ele>56.10614</ele>
        <time>2025-02-05T10:52:42.293Z</time>
      </trkpt>
      <trkpt lat="43.898" lon="4.62315">
        <ele>56.082291</ele>
        <time>2025-02-05T10:52:45.294Z</time>
      </trkpt>
      <trkpt lat="43.8981" lon="4.62313">
        <ele>56.057797</ele>
        <time>2025-02-05T10:52:48.321Z</time>
      </trkpt>
      <trkpt lat="43.89819" lon="4.62311">
        <ele>56.033966</ele>
        <time>2025-02-05T10:52:51.316Z</time>
      </trkpt>
      <trkpt lat="43.89829" lon="4.62309">
        <ele>56.10107</ele>
        <time>2025-02-05T10:52:54.321Z</time>
      </trkpt>
      <trkpt lat="43.89838" lon="4.62307">
        <ele>56.316765</ele>
        <time>2025-02-05T10:52:57.325Z</time>
      </trkpt>
      <trkpt lat="43.89848" lon="4.62305">
        <ele>56.538373</ele>
        <time>2025-02-05T10:53:00.317Z</time>
      </trkpt>
      <trkpt lat="43.8986" lon="4.62303">
        <ele>56.816017</ele>
        <time>2025-02-05T10:53:04.321Z</time>
      </trkpt>
      <trkpt lat="43.89872" lon="4.62301">
        <ele>57.08792</ele>
        <time>2025-02-05T10:53:08.320Z</time>
      </trkpt>
      <trkpt lat="43.89881" lon="4.62299">
        <ele>57.312679</ele>
        <time>2025-02-05T10:53:11.309Z</time>
      </trkpt>
      <trkpt lat="43.89891" lon="4.62297">
        <ele>57.532043</ele>
        <time>2025-02-05T10:53:14.314Z</time>
      </trkpt>
      <trkpt lat="43.899" lon="4.62294">
        <ele>57.751406</ele>
        <time>2025-02-05T10:53:17.305Z</time>
      </trkpt>
      <trkpt lat="43.89909" lon="4.62293">
        <ele>57.963529</ele>
        <time>2025-02-05T10:53:20.317Z</time>
      </trkpt>
      <trkpt lat="43.89919" lon="4.62291">
        <ele>58.18149</ele>
        <time>2025-02-05T10:53:23.303Z</time>
      </trkpt>
      <trkpt lat="43.89928" lon="4.62289">
        <ele>58.401969</ele>
        <time>2025-02-05T10:53:26.317Z</time>
      </trkpt>
      <trkpt lat="43.8994" lon="4.62286">
        <ele>58.66423</ele>
        <time>2025-02-05T10:53:30.313Z</time>
      </trkpt>
      <trkpt lat="43.8995" lon="4.62283">
        <ele>58.899073</ele>
        <time>2025-02-05T10:53:34.301Z</time>
      </trkpt>
      <trkpt lat="43.8996" lon="4.62282">
        <ele>59.14968</ele>
        <time>2025-02-05T10:53:38.312Z</time>
      </trkpt>
      <trkpt lat="43.89971" lon="4.62279">
        <ele>59.397962</ele>
        <time>2025-02-05T10:53:42.312Z</time>
      </trkpt>
      <trkpt lat="43.89981" lon="4.62275">
        <ele>59.643232</ele>
        <time>2025-02-05T10:53:46.286Z</time>
      </trkpt>
      <trkpt lat="43.89992" lon="4.62271">
        <ele>59.887558</ele>
        <time>2025-02-05T10:53:50.300Z</time>
      </trkpt>
      <trkpt lat="43.90002" lon="4.62268">
        <ele>60.140667</ele>
        <time>2025-02-05T10:53:54.309Z</time>
      </trkpt>
      <trkpt lat="43.90013" lon="4.62264">
        <ele>60.244359</ele>
        <time>2025-02-05T10:53:58.301Z</time>
      </trkpt>
      <trkpt lat="43.90023" lon="4.6226">
        <ele>60.342818</ele>
        <time>2025-02-05T10:54:02.314Z</time>
      </trkpt>
      <trkpt lat="43.90033" lon="4.62257">
        <ele>60.436118</ele>
        <time>2025-02-05T10:54:06.319Z</time>
      </trkpt>
      <trkpt lat="43.90042" lon="4.62254">
        <ele>60.532805</ele>
        <time>2025-02-05T10:54:10.315Z</time>
      </trkpt>
      <trkpt lat="43.90052" lon="4.62251">
        <ele>60.624503</ele>
        <time>2025-02-05T10:54:14.308Z</time>
      </trkpt>
      <trkpt lat="43.90061" lon="4.62249">
        <ele>60.714594</ele>
        <time>2025-02-05T10:54:18.315Z</time>
      </trkpt>
      <trkpt lat="43.9007" lon="4.62246">
        <ele>60.80326</ele>
        <time>2025-02-05T10:54:22.307Z</time>
      </trkpt>
      <trkpt lat="43.90079" lon="4.62244">
        <ele>60.889107</ele>
        <time>2025-02-05T10:54:26.295Z</time>
      </trkpt>
      <trkpt lat="43.9009" lon="4.62239">
        <ele>60.996389</ele>
        <time>2025-02-05T10:54:31.296Z</time>
      </trkpt>
      <trkpt lat="43.90101" lon="4.62235">
        <ele>61.099099</ele>
        <time>2025-02-05T10:54:36.305Z</time>
      </trkpt>
      <trkpt lat="43.90112" lon="4.62232">
        <ele>61.2069</ele>
        <time>2025-02-05T10:54:41.309Z</time>
      </trkpt>
      <trkpt lat="43.90121" lon="4.62229">
        <ele>61.295846</ele>
        <time>2025-02-05T10:54:45.307Z</time>
      </trkpt>
      <trkpt lat="43.90131" lon="4.62225">
        <ele>61.398718</ele>
        <time>2025-02-05T10:54:50.301Z</time>
      </trkpt>
      <trkpt lat="43.90143" lon="4.62224">
        <ele>61.506395</ele>
        <time>2025-02-05T10:54:55.295Z</time>
      </trkpt>
      <trkpt lat="43.90152" lon="4.62224">
        <ele>61.594712</ele>
        <time>2025-02-05T10:54:59.301Z</time>
      </trkpt>
      <trkpt lat="43.90162" lon="4.62223">
        <ele>61.686989</ele>
        <time>2025-02-05T10:55:03.298Z</time>
      </trkpt>
      <trkpt lat="43.90171" lon="4.62223">
        <ele>61.781125</ele>
        <time>2025-02-05T10:55:07.306Z</time>
      </trkpt>
      <trkpt lat="43.90181" lon="4.62223">
        <ele>61.90246</ele>
        <time>2025-02-05T10:55:11.308Z</time>
      </trkpt>
      <trkpt lat="43.9019" lon="4.62223">
        <ele>62.162072</ele>
        <time>2025-02-05T10:55:15.317Z</time>
      </trkpt>
      <trkpt lat="43.90201" lon="4.62224">
        <ele>62.430131</ele>
        <time>2025-02-05T10:55:19.326Z</time>
      </trkpt>
      <trkpt lat="43.9021" lon="4.62227">
        <ele>62.684796</ele>
        <time>2025-02-05T10:55:23.314Z</time>
      </trkpt>
      <trkpt lat="43.9022" lon="4.62228">
        <ele>62.938624</ele>
        <time>2025-02-05T10:55:27.314Z</time>
      </trkpt>
      <trkpt lat="43.90229" lon="4.62229">
        <ele>63.200819</ele>
        <time>2025-02-05T10:55:31.318Z</time>
      </trkpt>
      <trkpt lat="43.90239" lon="4.62231">
        <ele>63.461015</ele>
        <time>2025-02-05T10:55:35.324Z</time>
      </trkpt>
      <trkpt lat="43.90249" lon="4.62233">
        <ele>63.711967</ele>
        <time>2025-02-05T10:55:39.312Z</time>
      </trkpt>
      <trkpt lat="43.90258" lon="4.62236">
        <ele>63.983889</ele>
        <time>2025-02-05T10:55:43.327Z</time>
      </trkpt>
      <trkpt lat="43.90267" lon="4.62242">
        <ele>64.241801</ele>
        <time>2025-02-05T10:55:47.321Z</time>
      </trkpt>
      <trkpt lat="43.90277" lon="4.62248">
        <ele>64.518112</ele>
        <time>2025-02-05T10:55:51.342Z</time>
      </trkpt>
      <trkpt lat="43.90286" lon="4.62256">
        <ele>64.806303</ele>
        <time>2025-02-05T10:55:55.314Z</time>
      </trkpt>
      <trkpt lat="43.90294" lon="4.62265">
        <ele>65.086914</ele>
        <time>2025-02-05T10:55:59.314Z</time>
      </trkpt>
      <trkpt lat="43.90303" lon="4.62271">
        <ele>65.33088</ele>
        <time>2025-02-05T10:56:03.319Z</time>
      </trkpt>
      <trkpt lat="43.90313" lon="4.62267">
        <ele>65.609977</ele>
        <time>2025-02-05T10:56:07.308Z</time>
      </trkpt>
      <trkpt lat="43.90324" lon="4.62263">
        <ele>65.905892</ele>
        <time>2025-02-05T10:56:11.315Z</time>
      </trkpt>
      <trkpt lat="43.90333" lon="4.62262">
        <ele>66.17047</ele>
        <time>2025-02-05T10:56:14.321Z</time>
      </trkpt>
      <trkpt lat="43.90344" lon="4.62261">
        <ele>66.440739</ele>
        <time>2025-02-05T10:56:17.299Z</time>
      </trkpt>
      <trkpt lat="43.90353" lon="4.62261">
        <ele>66.628585</ele>
        <time>2025-02-05T10:56:20.302Z</time>
      </trkpt>
      <trkpt lat="43.90364" lon="4.62262">
        <ele>66.685328</ele>
        <time>2025-02-05T10:56:23.311Z</time>
      </trkpt>
      <trkpt lat="43.90374" lon="4.62262">
        <ele>66.73723</ele>
        <time>2025-02-05T10:56:26.294Z</time>
      </trkpt>
      <trkpt lat="43.90383" lon="4.62263">
        <ele>66.789268</ele>
        <time>2025-02-05T10:56:29.312Z</time>
      </trkpt>
      <trkpt lat="43.90393" lon="4.62262">
        <ele>66.839582</ele>
        <time>2025-02-05T10:56:32.301Z</time>
      </trkpt>
      <trkpt lat="43.90403" lon="4.62262">
        <ele>66.896829</ele>
        <time>2025-02-05T10:56:36.321Z</time>
      </trkpt>
      <trkpt lat="43.90414" lon="4.62261">
        <ele>66.952098</ele>
        <time>2025-02-05T10:56:40.331Z</time>
      </trkpt>
      <trkpt lat="43.90424" lon="4.62259">
        <ele>67.007638</ele>
        <time>2025-02-05T10:56:44.340Z</time>
      </trkpt>
      <trkpt lat="43.90436" lon="4.62257">
        <ele>67.071108</ele>
        <time>2025-02-05T10:56:48.299Z</time>
      </trkpt>
      <trkpt lat="43.90447" lon="4.62257">
        <ele>67.13004</ele>
        <time>2025-02-05T10:56:52.314Z</time>
      </trkpt>
      <trkpt lat="43.90456" lon="4.62255">
        <ele>67.179747</ele>
        <time>2025-02-05T10:56:55.312Z</time>
      </trkpt>
      <trkpt lat="43.90467" lon="4.62254">
        <ele>67.239712</ele>
        <time>2025-02-05T10:56:59.318Z</time>
      </trkpt>
      <trkpt lat="43.90479" lon="4.62255">
        <ele>67.305146</ele>
        <time>2025-02-05T10:57:03.315Z</time>
      </trkpt>
      <trkpt lat="43.90491" lon="4.62254">
        <ele>67.367327</ele>
        <time>2025-02-05T10:57:07.325Z</time>
      </trkpt>
      <trkpt lat="43.90502" lon="4.62252">
        <ele>67.427957</ele>
        <time>2025-02-05T10:57:11.303Z</time>
      </trkpt>
      <trkpt lat="43.90511" lon="4.62249">
        <ele>67.47714</ele>
        <time>2025-02-05T10:57:14.323Z</time>
      </trkpt>
      <trkpt lat="43.90522" lon="4.62245">
        <ele>67.539414</ele>
        <time>2025-02-05T10:57:18.318Z</time>
      </trkpt>
      <trkpt lat="43.90533" lon="4.6224">
        <ele>67.572198</ele>
        <time>2025-02-05T10:57:22.314Z</time>
      </trkpt>
      <trkpt lat="43.90544" lon="4.62236">
        <ele>67.569503</ele>
        <time>2025-02-05T10:57:26.309Z</time>
      </trkpt>
      <trkpt lat="43.90555" lon="4.6223">
        <ele>67.56671</ele>
        <time>2025-02-05T10:57:30.319Z</time>
      </trkpt>
      <trkpt lat="43.90563" lon="4.62225">
        <ele>67.564526</ele>
        <time>2025-02-05T10:57:33.321Z</time>
      </trkpt>
      <trkpt lat="43.90574" lon="4.62219">
        <ele>67.561595</ele>
        <time>2025-02-05T10:57:37.330Z</time>
      </trkpt>
      <trkpt lat="43.90583" lon="4.62213">
        <ele>67.559252</ele>
        <time>2025-02-05T10:57:40.318Z</time>
      </trkpt>
      <trkpt lat="43.90593" lon="4.62207">
        <ele>67.556698</ele>
        <time>2025-02-05T10:57:43.311Z</time>
      </trkpt>
      <trkpt lat="43.90602" lon="4.62201">
        <ele>67.554224</ele>
        <time>2025-02-05T10:57:46.305Z</time>
      </trkpt>
      <trkpt lat="43.90612" lon="4.62195">
        <ele>67.551656</ele>
        <time>2025-02-05T10:57:49.320Z</time>
      </trkpt>
      <trkpt lat="43.90622" lon="4.62189">
        <ele>67.549084</ele>
        <time>2025-02-05T10:57:52.311Z</time>
      </trkpt>
      <trkpt lat="43.90631" lon="4.62184">
        <ele>67.546602</ele>
        <time>2025-02-05T10:57:55.311Z</time>
      </trkpt>
      <trkpt lat="43.90641" lon="4.62177">
        <ele>67.543901</ele>
        <time>2025-02-05T10:58:00.321Z</time>
      </trkpt>
      <trkpt lat="43.90651" lon="4.62172">
        <ele>67.54149</ele>
        <time>2025-02-05T10:58:03.317Z</time>
      </trkpt>
      <trkpt lat="43.9066" lon="4.62167">
        <ele>67.539067</ele>
        <time>2025-02-05T10:58:06.401Z</time>
      </trkpt>
      <trkpt lat="43.90671" lon="4.62162">
        <ele>67.536285</ele>
        <time>2025-02-05T10:58:09.299Z</time>
      </trkpt>
      <trkpt lat="43.90683" lon="4.62157">
        <ele>67.533301</ele>
        <time>2025-02-05T10:58:12.309Z</time>
      </trkpt>
      <trkpt lat="43.90695" lon="4.62154">
        <ele>67.530293</ele>
        <time>2025-02-05T10:58:15.313Z</time>
      </trkpt>
      <trkpt lat="43.90707" lon="4.62151">
        <ele>67.460315</ele>
        <time>2025-02-05T10:58:18.301Z</time>
      </trkpt>
      <trkpt lat="43.90718" lon="4.62149">
        <ele>67.386903</ele>
        <time>2025-02-05T10:58:21.298Z</time>
      </trkpt>
      <trkpt lat="43.90729" lon="4.62148">
        <ele>67.321728</ele>
        <time>2025-02-05T10:58:24.338Z</time>
      </trkpt>
      <trkpt lat="43.90738" lon="4.62146">
        <ele>67.261943</ele>
        <time>2025-02-05T10:58:27.296Z</time>
      </trkpt>
      <trkpt lat="43.90747" lon="4.62144">
        <ele>67.201751</ele>
        <time>2025-02-05T10:58:30.333Z</time>
      </trkpt>
      <trkpt lat="43.90757" lon="4.62143">
        <ele>67.140338</ele>
        <time>2025-02-05T10:58:33.319Z</time>
      </trkpt>
      <trkpt lat="43.90766" lon="4.62141">
        <ele>67.082525</ele>
        <time>2025-02-05T10:58:36.335Z</time>
      </trkpt>
      <trkpt lat="43.90775" lon="4.62138">
        <ele>67.021114</ele>
        <time>2025-02-05T10:58:39.320Z</time>
      </trkpt>
      <trkpt lat="43.90784" lon="4.62134">
        <ele>66.962437</ele>
        <time>2025-02-05T10:58:42.322Z</time>
      </trkpt>
      <trkpt lat="43.90793" lon="4.6213">
        <ele>66.904237</ele>
        <time>2025-02-05T10:58:45.317Z</time>
      </trkpt>
      <trkpt lat="43.90801" lon="4.62124">
        <ele>66.846646</ele>
        <time>2025-02-05T10:58:48.323Z</time>
      </trkpt>
      <trkpt lat="43.90809" lon="4.62118">
        <ele>66.787702</ele>
        <time>2025-02-05T10:58:51.340Z</time>
      </trkpt>
      <trkpt lat="43.90816" lon="4.62109">
        <ele>66.726343</ele>
        <time>2025-02-05T10:58:54.310Z</time>
      </trkpt>
      <trkpt lat="43.90823" lon="4.621">
        <ele>66.66715</ele>
        <time>2025-02-05T10:58:57.314Z</time>
      </trkpt>
      <trkpt lat="43.9083" lon="4.62091">
        <ele>66.607467</ele>
        <time>2025-02-05T10:59:00.317Z</time>
      </trkpt>
      <trkpt lat="43.90836" lon="4.62081">
        <ele>66.546601</ele>
        <time>2025-02-05T10:59:03.327Z</time>
      </trkpt>
      <trkpt lat="43.90842" lon="4.62072">
        <ele>66.486836</ele>
        <time>2025-02-05T10:59:06.313Z</time>
      </trkpt>
      <trkpt lat="43.90848" lon="4.62062">
        <ele>66.427591</ele>
        <time>2025-02-05T10:59:09.310Z</time>
      </trkpt>
      <trkpt lat="43.90854" lon="4.62051">
        <ele>66.405304</ele>
        <time>2025-02-05T10:59:12.314Z</time>
      </trkpt>
      <trkpt lat="43.90859" lon="4.6204">
        <ele>66.478526</ele>
        <time>2025-02-05T10:59:15.309Z</time>
      </trkpt>
      <trkpt lat="43.90865" lon="4.62028">
        <ele>66.554974</ele>
        <time>2025-02-05T10:59:18.274Z</time>
      </trkpt>
      <trkpt lat="43.9087" lon="4.62017">
        <ele>66.63009</ele>
        <time>2025-02-05T10:59:21.314Z</time>
      </trkpt>
      <trkpt lat="43.90875" lon="4.62005">
        <ele>66.70287</ele>
        <time>2025-02-05T10:59:24.321Z</time>
      </trkpt>
      <trkpt lat="43.9088" lon="4.61994">
        <ele>66.776253</ele>
        <time>2025-02-05T10:59:27.323Z</time>
      </trkpt>
      <trkpt lat="43.90884" lon="4.61982">
        <ele>66.848782</ele>
        <time>2025-02-05T10:59:30.326Z</time>
      </trkpt>
      <trkpt lat="43.90889" lon="4.6197">
        <ele>66.923363</ele>
        <time>2025-02-05T10:59:33.323Z</time>
      </trkpt>
      <trkpt lat="43.90894" lon="4.61958">
        <ele>66.997468</ele>
        <time>2025-02-05T10:59:36.318Z</time>
      </trkpt>
      <trkpt lat="43.90899" lon="4.61947">
        <ele>67.071204</ele>
        <time>2025-02-05T10:59:39.320Z</time>
      </trkpt>
      <trkpt lat="43.90904" lon="4.61935">
        <ele>67.145212</ele>
        <time>2025-02-05T10:59:42.317Z</time>
      </trkpt>
      <trkpt lat="43.90907" lon="4.61923">
        <ele>67.215727</ele>
        <time>2025-02-05T10:59:45.324Z</time>
      </trkpt>
      <trkpt lat="43.90911" lon="4.61909">
        <ele>67.298818</ele>
        <time>2025-02-05T10:59:49.339Z</time>
      </trkpt>
      <trkpt lat="43.90914" lon="4.61895">
        <ele>67.378756</ele>
        <time>2025-02-05T10:59:53.308Z</time>
      </trkpt>
      <trkpt lat="43.90914" lon="4.6188">
        <ele>67.459779</ele>
        <time>2025-02-05T10:59:57.318Z</time>
      </trkpt>
      <trkpt lat="43.90914" lon="4.61866">
        <ele>67.537448</ele>
        <time>2025-02-05T11:00:01.355Z</time>
      </trkpt>
      <trkpt lat="43.90913" lon="4.61851">
        <ele>67.621611</ele>
        <time>2025-02-05T11:00:05.320Z</time>
      </trkpt>
      <trkpt lat="43.90911" lon="4.61836">
        <ele>67.702345</ele>
        <time>2025-02-05T11:00:09.312Z</time>
      </trkpt>
      <trkpt lat="43.90909" lon="4.61822">
        <ele>67.910127</ele>
        <time>2025-02-05T11:00:13.307Z</time>
      </trkpt>
      <trkpt lat="43.90906" lon="4.61808">
        <ele>68.298769</ele>
        <time>2025-02-05T11:00:17.318Z</time>
      </trkpt>
      <trkpt lat="43.90902" lon="4.61795">
        <ele>68.692611</ele>
        <time>2025-02-05T11:00:21.307Z</time>
      </trkpt>
      <trkpt lat="43.909" lon="4.61781">
        <ele>69.078382</ele>
        <time>2025-02-05T11:00:25.316Z</time>
      </trkpt>
      <trkpt lat="43.90896" lon="4.61768">
        <ele>69.468228</ele>
        <time>2025-02-05T11:00:29.319Z</time>
      </trkpt>
      <trkpt lat="43.90893" lon="4.61754">
        <ele>69.852899</ele>
        <time>2025-02-05T11:00:33.307Z</time>
      </trkpt>
      <trkpt lat="43.9089" lon="4.6174">
        <ele>70.247084</ele>
        <time>2025-02-05T11:00:37.318Z</time>
      </trkpt>
      <trkpt lat="43.90887" lon="4.61726">
        <ele>70.664407</ele>
        <time>2025-02-05T11:00:41.311Z</time>
      </trkpt>
      <trkpt lat="43.90884" lon="4.61712">
        <ele>71.071279</ele>
        <time>2025-02-05T11:00:45.312Z</time>
      </trkpt>
      <trkpt lat="43.9088" lon="4.61698">
        <ele>71.470328</ele>
        <time>2025-02-05T11:00:49.310Z</time>
      </trkpt>
      <trkpt lat="43.90877" lon="4.61684">
        <ele>71.869377</ele>
        <time>2025-02-05T11:00:53.314Z</time>
      </trkpt>
      <trkpt lat="43.90875" lon="4.6167">
        <ele>72.270992</ele>
        <time>2025-02-05T11:00:57.316Z</time>
      </trkpt>
      <trkpt lat="43.90873" lon="4.61656">
        <ele>72.656545</ele>
        <time>2025-02-05T11:01:01.332Z</time>
      </trkpt>
      <trkpt lat="43.90872" lon="4.61643">
        <ele>73.018792</ele>
        <time>2025-02-05T11:01:05.324Z</time>
      </trkpt>
      <trkpt lat="43.90872" lon="4.61629">
        <ele>73.379764</ele>
        <time>2025-02-05T11:01:09.327Z</time>
      </trkpt>
      <trkpt lat="43.90873" lon="4.61614">
        <ele>73.792079</ele>
        <time>2025-02-05T11:01:14.330Z</time>
      </trkpt>
      <trkpt lat="43.90876" lon="4.61599">
        <ele>74.212269</ele>
        <time>2025-02-05T11:01:19.316Z</time>
      </trkpt>
      <trkpt lat="43.90878" lon="4.61587">
        <ele>74.566512</ele>
        <time>2025-02-05T11:01:23.318Z</time>
      </trkpt>
      <trkpt lat="43.90883" lon="4.61574">
        <ele>75.129949</ele>
        <time>2025-02-05T11:01:28.323Z</time>
      </trkpt>
      <trkpt lat="43.90889" lon="4.61561">
        <ele>75.703347</ele>
        <time>2025-02-05T11:01:33.340Z</time>
      </trkpt>
      <trkpt lat="43.90897" lon="4.61549">
        <ele>76.26971</ele>
        <time>2025-02-05T11:01:38.327Z</time>
      </trkpt>
      <trkpt lat="43.90903" lon="4.61541">
        <ele>76.742166</ele>
        <time>2025-02-05T11:01:42.319Z</time>
      </trkpt>
      <trkpt lat="43.90912" lon="4.61532">
        <ele>77.287453</ele>
        <time>2025-02-05T11:01:47.328Z</time>
      </trkpt>
      <trkpt lat="43.90921" lon="4.61525">
        <ele>77.845417</ele>
        <time>2025-02-05T11:01:52.317Z</time>
      </trkpt>
      <trkpt lat="43.90931" lon="4.61519">
        <ele>78.393417</ele>
        <time>2025-02-05T11:01:57.335Z</time>
      </trkpt>
      <trkpt lat="43.90941" lon="4.61516">
        <ele>78.945366</ele>
        <time>2025-02-05T11:02:02.332Z</time>
      </trkpt>
      <trkpt lat="43.90951" lon="4.61513">
        <ele>79.489618</ele>
        <time>2025-02-05T11:02:07.333Z</time>
      </trkpt>
      <trkpt lat="43.90961" lon="4.61513">
        <ele>79.999834</ele>
        <time>2025-02-05T11:02:12.327Z</time>
      </trkpt>
      <trkpt lat="43.90971" lon="4.61514">
        <ele>80.521968</ele>
        <time>2025-02-05T11:02:17.324Z</time>
      </trkpt>
      <trkpt lat="43.90981" lon="4.61517">
        <ele>81.047118</ele>
        <time>2025-02-05T11:02:22.321Z</time>
      </trkpt>
      <trkpt lat="43.90991" lon="4.6152">
        <ele>81.580767</ele>
        <time>2025-02-05T11:02:28.314Z</time>
      </trkpt>
      <trkpt lat="43.91" lon="4.61526">
        <ele>82.125588</ele>
        <time>2025-02-05T11:02:34.311Z</time>
      </trkpt>
      <trkpt lat="43.91009" lon="4.61533">
        <ele>82.64856</ele>
        <time>2025-02-05T11:02:40.316Z</time>
      </trkpt>
      <trkpt lat="43.91018" lon="4.61539">
        <ele>83.140065</ele>
        <time>2025-02-05T11:02:45.322Z</time>
      </trkpt>
      <trkpt lat="43.91026" lon="4.61545">
        <ele>83.615158</ele>
        <time>2025-02-05T11:02:50.315Z</time>
      </trkpt>
      <trkpt lat="43.91035" lon="4.61551">
        <ele>83.880565</ele>
        <time>2025-02-05T11:02:56.298Z</time>
      </trkpt>
      <trkpt lat="43.91044" lon="4.61557">
        <ele>83.746258</ele>
        <time>2025-02-05T11:03:01.302Z</time>
      </trkpt>
      <trkpt lat="43.91054" lon="4.61561">
        <ele>83.599189</ele>
        <time>2025-02-05T11:03:06.309Z</time>
      </trkpt>
      <trkpt lat="43.91064" lon="4.61563">
        <ele>83.45367</ele>
        <time>2025-02-05T11:03:10.318Z</time>
      </trkpt>
      <trkpt lat="43.91074" lon="4.61564">
        <ele>83.313951</ele>
        <time>2025-02-05T11:03:13.320Z</time>
      </trkpt>
      <trkpt lat="43.91085" lon="4.61564">
        <ele>83.163291</ele>
        <time>2025-02-05T11:03:16.310Z</time>
      </trkpt>
      <trkpt lat="43.91098" lon="4.6156">
        <ele>82.973883</ele>
        <time>2025-02-05T11:03:19.297Z</time>
      </trkpt>
      <trkpt lat="43.91108" lon="4.61556">
        <ele>82.825611</ele>
        <time>2025-02-05T11:03:21.324Z</time>
      </trkpt>
      <trkpt lat="43.91119" lon="4.61551">
        <ele>82.66945</ele>
        <time>2025-02-05T11:03:23.313Z</time>
      </trkpt>
      <trkpt lat="43.9113" lon="4.61545">
        <ele>82.511315</ele>
        <time>2025-02-05T11:03:25.326Z</time>
      </trkpt>
      <trkpt lat="43.9114" lon="4.6154">
        <ele>82.353112</ele>
        <time>2025-02-05T11:03:27.317Z</time>
      </trkpt>
      <trkpt lat="43.91151" lon="4.61535">
        <ele>82.202555</ele>
        <time>2025-02-05T11:03:29.323Z</time>
      </trkpt>
      <trkpt lat="43.9116" lon="4.6153">
        <ele>82.059895</ele>
        <time>2025-02-05T11:03:31.322Z</time>
      </trkpt>
      <trkpt lat="43.91169" lon="4.61526">
        <ele>81.923152</ele>
        <time>2025-02-05T11:03:33.320Z</time>
      </trkpt>
      <trkpt lat="43.91178" lon="4.61521">
        <ele>81.793646</ele>
        <time>2025-02-05T11:03:35.308Z</time>
      </trkpt>
      <trkpt lat="43.9119" lon="4.61515">
        <ele>81.621922</ele>
        <time>2025-02-05T11:03:38.326Z</time>
      </trkpt>
      <trkpt lat="43.912" lon="4.61509">
        <ele>81.460281</ele>
        <time>2025-02-05T11:03:41.320Z</time>
      </trkpt>
      <trkpt lat="43.91211" lon="4.61502">
        <ele>81.321268</ele>
        <time>2025-02-05T11:03:44.334Z</time>
      </trkpt>
      <trkpt lat="43.91222" lon="4.61495">
        <ele>81.191737</ele>
        <time>2025-02-05T11:03:47.324Z</time>
      </trkpt>
      <trkpt lat="43.91233" lon="4.61488">
        <ele>81.062831</ele>
        <time>2025-02-05T11:03:50.324Z</time>
      </trkpt>
      <trkpt lat="43.91243" lon="4.6148">
        <ele>80.933649</ele>
        <time>2025-02-05T11:03:53.313Z</time>
      </trkpt>
      <trkpt lat="43.91253" lon="4.61473">
        <ele>80.808454</ele>
        <time>2025-02-05T11:03:56.307Z</time>
      </trkpt>
      <trkpt lat="43.91263" lon="4.61467">
        <ele>80.688231</ele>
        <time>2025-02-05T11:03:59.308Z</time>
      </trkpt>
      <trkpt lat="43.91273" lon="4.6146">
        <ele>80.566335</ele>
        <time>2025-02-05T11:04:02.337Z</time>
      </trkpt>
      <trkpt lat="43.91283" lon="4.61453">
        <ele>80.444714</ele>
        <time>2025-02-05T11:04:05.331Z</time>
      </trkpt>
      <trkpt lat="43.91293" lon="4.61446">
        <ele>80.320783</ele>
        <time>2025-02-05T11:04:08.337Z</time>
      </trkpt>
      <trkpt lat="43.91303" lon="4.61439">
        <ele>80.198069</ele>
        <time>2025-02-05T11:04:11.320Z</time>
      </trkpt>
      <trkpt lat="43.91312" lon="4.61432">
        <ele>80.086119</ele>
        <time>2025-02-05T11:04:14.310Z</time>
      </trkpt>
      <trkpt lat="43.91322" lon="4.61426">
        <ele>79.97142</ele>
        <time>2025-02-05T11:04:17.339Z</time>
      </trkpt>
      <trkpt lat="43.91331" lon="4.61419">
        <ele>79.857439</ele>
        <time>2025-02-05T11:04:20.319Z</time>
      </trkpt>
      <trkpt lat="43.9134" lon="4.61412">
        <ele>79.742593</ele>
        <time>2025-02-05T11:04:23.310Z</time>
      </trkpt>
      <trkpt lat="43.91349" lon="4.61405">
        <ele>79.627794</ele>
        <time>2025-02-05T11:04:26.324Z</time>
      </trkpt>
      <trkpt lat="43.91358" lon="4.61396">
        <ele>79.510423</ele>
        <time>2025-02-05T11:04:29.311Z</time>
      </trkpt>
      <trkpt lat="43.91367" lon="4.61387">
        <ele>79.423433</ele>
        <time>2025-02-05T11:04:32.334Z</time>
      </trkpt>
      <trkpt lat="43.91376" lon="4.61379">
        <ele>79.362087</ele>
        <time>2025-02-05T11:04:35.317Z</time>
      </trkpt>
      <trkpt lat="43.91384" lon="4.61368">
        <ele>79.299983</ele>
        <time>2025-02-05T11:04:38.330Z</time>
      </trkpt>
      <trkpt lat="43.91393" lon="4.61358">
        <ele>79.233825</ele>
        <time>2025-02-05T11:04:41.317Z</time>
      </trkpt>
      <trkpt lat="43.91402" lon="4.61346">
        <ele>79.164071</ele>
        <time>2025-02-05T11:04:44.304Z</time>
      </trkpt>
      <trkpt lat="43.91411" lon="4.61334">
        <ele>79.090585</ele>
        <time>2025-02-05T11:04:47.332Z</time>
      </trkpt>
      <trkpt lat="43.91421" lon="4.61322">
        <ele>79.018056</ele>
        <time>2025-02-05T11:04:50.322Z</time>
      </trkpt>
      <trkpt lat="43.91429" lon="4.61308">
        <ele>78.946551</ele>
        <time>2025-02-05T11:04:53.318Z</time>
      </trkpt>
      <trkpt lat="43.91435" lon="4.61294">
        <ele>78.878683</ele>
        <time>2025-02-05T11:04:56.315Z</time>
      </trkpt>
      <trkpt lat="43.91439" lon="4.61279">
        <ele>78.812278</ele>
        <time>2025-02-05T11:04:59.311Z</time>
      </trkpt>
      <trkpt lat="43.91443" lon="4.61261">
        <ele>78.736788</ele>
        <time>2025-02-05T11:05:02.324Z</time>
      </trkpt>
      <trkpt lat="43.91445" lon="4.61249">
        <ele>78.685209</ele>
        <time>2025-02-05T11:05:04.296Z</time>
      </trkpt>
      <trkpt lat="43.91447" lon="4.61236">
        <ele>78.632553</ele>
        <time>2025-02-05T11:05:06.321Z</time>
      </trkpt>
      <trkpt lat="43.91449" lon="4.61224">
        <ele>78.581062</ele>
        <time>2025-02-05T11:05:08.324Z</time>
      </trkpt>
      <trkpt lat="43.91452" lon="4.61212">
        <ele>78.527998</ele>
        <time>2025-02-05T11:05:10.330Z</time>
      </trkpt>
      <trkpt lat="43.91454" lon="4.61199">
        <ele>78.474966</ele>
        <time>2025-02-05T11:05:12.319Z</time>
      </trkpt>
      <trkpt lat="43.91457" lon="4.61187">
        <ele>78.41516</ele>
        <time>2025-02-05T11:05:14.320Z</time>
      </trkpt>
      <trkpt lat="43.9146" lon="4.61175">
        <ele>78.340985</ele>
        <time>2025-02-05T11:05:16.334Z</time>
      </trkpt>
      <trkpt lat="43.91462" lon="4.61162">
        <ele>78.268565</ele>
        <time>2025-02-05T11:05:18.312Z</time>
      </trkpt>
      <trkpt lat="43.91465" lon="4.6115">
        <ele>78.192965</ele>
        <time>2025-02-05T11:05:20.340Z</time>
      </trkpt>
      <trkpt lat="43.91468" lon="4.61137">
        <ele>78.117909</ele>
        <time>2025-02-05T11:05:22.337Z</time>
      </trkpt>
      <trkpt lat="43.91471" lon="4.61125">
        <ele>78.045344</ele>
        <time>2025-02-05T11:05:24.316Z</time>
      </trkpt>
      <trkpt lat="43.91474" lon="4.61113">
        <ele>77.970884</ele>
        <time>2025-02-05T11:05:26.315Z</time>
      </trkpt>
      <trkpt lat="43.91478" lon="4.611">
        <ele>77.894829</ele>
        <time>2025-02-05T11:05:28.324Z</time>
      </trkpt>
      <trkpt lat="43.91481" lon="4.61088">
        <ele>77.818781</ele>
        <time>2025-02-05T11:05:30.331Z</time>
      </trkpt>
      <trkpt lat="43.91484" lon="4.61075">
        <ele>77.742733</ele>
        <time>2025-02-05T11:05:32.319Z</time>
      </trkpt>
      <trkpt lat="43.91488" lon="4.61062">
        <ele>77.664755</ele>
        <time>2025-02-05T11:05:34.333Z</time>
      </trkpt>
      <trkpt lat="43.91491" lon="4.6105">
        <ele>77.5887</ele>
        <time>2025-02-05T11:05:36.317Z</time>
      </trkpt>
      <trkpt lat="43.91494" lon="4.61037">
        <ele>77.512115</ele>
        <time>2025-02-05T11:05:38.324Z</time>
      </trkpt>
      <trkpt lat="43.91498" lon="4.61025">
        <ele>77.440064</ele>
        <time>2025-02-05T11:05:40.325Z</time>
      </trkpt>
      <trkpt lat="43.91501" lon="4.61013">
        <ele>77.365844</ele>
        <time>2025-02-05T11:05:42.314Z</time>
      </trkpt>
      <trkpt lat="43.91504" lon="4.61001">
        <ele>77.293258</ele>
        <time>2025-02-05T11:05:44.315Z</time>
      </trkpt>
      <trkpt lat="43.91507" lon="4.60989">
        <ele>77.221489</ele>
        <time>2025-02-05T11:05:46.316Z</time>
      </trkpt>
      <trkpt lat="43.91511" lon="4.60977">
        <ele>77.146741</ele>
        <time>2025-02-05T11:05:48.330Z</time>
      </trkpt>
      <trkpt lat="43.91514" lon="4.60964">
        <ele>77.070122</ele>
        <time>2025-02-05T11:05:50.332Z</time>
      </trkpt>
      <trkpt lat="43.91517" lon="4.60952">
        <ele>77.014851</ele>
        <time>2025-02-05T11:05:52.323Z</time>
      </trkpt>
      <trkpt lat="43.9152" lon="4.6094">
        <ele>77.00237</ele>
        <time>2025-02-05T11:05:54.338Z</time>
      </trkpt>
      <trkpt lat="43.91524" lon="4.60927">
        <ele>76.989376</ele>
        <time>2025-02-05T11:05:56.315Z</time>
      </trkpt>
      <trkpt lat="43.91527" lon="4.60915">
        <ele>76.976536</ele>
        <time>2025-02-05T11:05:58.321Z</time>
      </trkpt>
      <trkpt lat="43.9153" lon="4.60902">
        <ele>76.964146</ele>
        <time>2025-02-05T11:06:00.320Z</time>
      </trkpt>
      <trkpt lat="43.91534" lon="4.6089">
        <ele>76.951575</ele>
        <time>2025-02-05T11:06:02.331Z</time>
      </trkpt>
      <trkpt lat="43.91538" lon="4.60878">
        <ele>76.938798</ele>
        <time>2025-02-05T11:06:04.336Z</time>
      </trkpt>
      <trkpt lat="43.91541" lon="4.60866">
        <ele>76.926626</ele>
        <time>2025-02-05T11:06:06.298Z</time>
      </trkpt>
      <trkpt lat="43.91544" lon="4.60854">
        <ele>76.913874</ele>
        <time>2025-02-05T11:06:08.339Z</time>
      </trkpt>
      <trkpt lat="43.91547" lon="4.60841">
        <ele>76.901154</ele>
        <time>2025-02-05T11:06:10.315Z</time>
      </trkpt>
      <trkpt lat="43.9155" lon="4.60828">
        <ele>76.888262</ele>
        <time>2025-02-05T11:06:12.314Z</time>
      </trkpt>
      <trkpt lat="43.91552" lon="4.60816">
        <ele>76.876093</ele>
        <time>2025-02-05T11:06:14.317Z</time>
      </trkpt>
      <trkpt lat="43.91554" lon="4.60803">
        <ele>76.863736</ele>
        <time>2025-02-05T11:06:16.321Z</time>
      </trkpt>
      <trkpt lat="43.91556" lon="4.60786">
        <ele>76.847563</ele>
        <time>2025-02-05T11:06:19.300Z</time>
      </trkpt>
      <trkpt lat="43.91558" lon="4.60771">
        <ele>76.832552</ele>
        <time>2025-02-05T11:06:22.322Z</time>
      </trkpt>
      <trkpt lat="43.9156" lon="4.60756">
        <ele>76.817954</ele>
        <time>2025-02-05T11:06:25.320Z</time>
      </trkpt>
      <trkpt lat="43.91561" lon="4.60741">
        <ele>76.803579</ele>
        <time>2025-02-05T11:06:28.316Z</time>
      </trkpt>
      <trkpt lat="43.91563" lon="4.60726">
        <ele>76.78917</ele>
        <time>2025-02-05T11:06:31.333Z</time>
      </trkpt>
      <trkpt lat="43.91564" lon="4.60711">
        <ele>76.6326</ele>
        <time>2025-02-05T11:06:34.328Z</time>
      </trkpt>
      <trkpt lat="43.91566" lon="4.60696">
        <ele>76.212308</ele>
        <time>2025-02-05T11:06:37.305Z</time>
      </trkpt>
      <trkpt lat="43.91567" lon="4.60679">
        <ele>75.715367</ele>
        <time>2025-02-05T11:06:40.285Z</time>
      </trkpt>
      <trkpt lat="43.91568" lon="4.60666">
        <ele>75.354993</ele>
        <time>2025-02-05T11:06:42.320Z</time>
      </trkpt>
      <trkpt lat="43.91571" lon="4.60651">
        <ele>74.937012</ele>
        <time>2025-02-05T11:06:44.329Z</time>
      </trkpt>
      <trkpt lat="43.91574" lon="4.60636">
        <ele>74.506691</ele>
        <time>2025-02-05T11:06:46.326Z</time>
      </trkpt>
      <trkpt lat="43.91579" lon="4.6062">
        <ele>74.01867</ele>
        <time>2025-02-05T11:06:48.319Z</time>
      </trkpt>
      <trkpt lat="43.91585" lon="4.60604">
        <ele>73.518928</ele>
        <time>2025-02-05T11:06:50.307Z</time>
      </trkpt>
      <trkpt lat="43.91591" lon="4.60588">
        <ele>73.006481</ele>
        <time>2025-02-05T11:06:52.320Z</time>
      </trkpt>
      <trkpt lat="43.91597" lon="4.60569">
        <ele>72.450158</ele>
        <time>2025-02-05T11:06:54.318Z</time>
      </trkpt>
      <trkpt lat="43.91603" lon="4.6055">
        <ele>71.854022</ele>
        <time>2025-02-05T11:06:56.306Z</time>
      </trkpt>
      <trkpt lat="43.91609" lon="4.60529">
        <ele>71.231693</ele>
        <time>2025-02-05T11:06:58.314Z</time>
      </trkpt>
      <trkpt lat="43.91616" lon="4.60507">
        <ele>70.574885</ele>
        <time>2025-02-05T11:07:00.313Z</time>
      </trkpt>
      <trkpt lat="43.91622" lon="4.60484">
        <ele>69.899208</ele>
        <time>2025-02-05T11:07:02.317Z</time>
      </trkpt>
      <trkpt lat="43.9163" lon="4.60463">
        <ele>69.682608</ele>
        <time>2025-02-05T11:07:04.317Z</time>
      </trkpt>
      <trkpt lat="43.91635" lon="4.60452">
        <ele>69.589608</ele>
        <time>2025-02-05T11:07:05.305Z</time>
      </trkpt>
      <trkpt lat="43.91647" lon="4.60435">
        <ele>69.416374</ele>
        <time>2025-02-05T11:07:07.310Z</time>
      </trkpt>
      <trkpt lat="43.91658" lon="4.60421">
        <ele>69.260402</ele>
        <time>2025-02-05T11:07:09.321Z</time>
      </trkpt>
      <trkpt lat="43.91668" lon="4.60407">
        <ele>69.120056</ele>
        <time>2025-02-05T11:07:11.303Z</time>
      </trkpt>
      <trkpt lat="43.91677" lon="4.60394">
        <ele>68.987821</ele>
        <time>2025-02-05T11:07:13.312Z</time>
      </trkpt>
      <trkpt lat="43.91683" lon="4.60378">
        <ele>68.860162</ele>
        <time>2025-02-05T11:07:15.326Z</time>
      </trkpt>
      <trkpt lat="43.91686" lon="4.60363">
        <ele>68.741652</ele>
        <time>2025-02-05T11:07:17.297Z</time>
      </trkpt>
      <trkpt lat="43.91689" lon="4.60348">
        <ele>68.625704</ele>
        <time>2025-02-05T11:07:19.312Z</time>
      </trkpt>
      <trkpt lat="43.91691" lon="4.60332">
        <ele>68.511812</ele>
        <time>2025-02-05T11:07:21.309Z</time>
      </trkpt>
      <trkpt lat="43.91694" lon="4.60317">
        <ele>68.399399</ele>
        <time>2025-02-05T11:07:23.312Z</time>
      </trkpt>
      <trkpt lat="43.91697" lon="4.60303">
        <ele>68.2863</ele>
        <time>2025-02-05T11:07:25.322Z</time>
      </trkpt>
      <trkpt lat="43.91701" lon="4.60288">
        <ele>68.174664</ele>
        <time>2025-02-05T11:07:27.327Z</time>
      </trkpt>
      <trkpt lat="43.91705" lon="4.60275">
        <ele>68.069836</ele>
        <time>2025-02-05T11:07:29.321Z</time>
      </trkpt>
      <trkpt lat="43.91708" lon="4.60262">
        <ele>68.000283</ele>
        <time>2025-02-05T11:07:31.328Z</time>
      </trkpt>
      <trkpt lat="43.91711" lon="4.60249">
        <ele>67.960878</ele>
        <time>2025-02-05T11:07:33.323Z</time>
      </trkpt>
      <trkpt lat="43.91714" lon="4.60237">
        <ele>67.921188</ele>
        <time>2025-02-05T11:07:35.320Z</time>
      </trkpt>
      <trkpt lat="43.91718" lon="4.60225">
        <ele>67.883942</ele>
        <time>2025-02-05T11:07:37.323Z</time>
      </trkpt>
      <trkpt lat="43.91723" lon="4.60209">
        <ele>67.831802</ele>
        <time>2025-02-05T11:07:40.330Z</time>
      </trkpt>
      <trkpt lat="43.91727" lon="4.60194">
        <ele>67.783733</ele>
        <time>2025-02-05T11:07:43.321Z</time>
      </trkpt>
      <trkpt lat="43.91731" lon="4.60181">
        <ele>67.742723</ele>
        <time>2025-02-05T11:07:46.333Z</time>
      </trkpt>
      <trkpt lat="43.91734" lon="4.60168">
        <ele>67.701634</ele>
        <time>2025-02-05T11:07:49.319Z</time>
      </trkpt>
      <trkpt lat="43.91737" lon="4.60156">
        <ele>67.662084</ele>
        <time>2025-02-05T11:07:52.327Z</time>
      </trkpt>
      <trkpt lat="43.91741" lon="4.60143">
        <ele>67.62084</ele>
        <time>2025-02-05T11:07:55.317Z</time>
      </trkpt>
      <trkpt lat="43.91745" lon="4.6013">
        <ele>67.578078</ele>
        <time>2025-02-05T11:07:58.327Z</time>
      </trkpt>
      <trkpt lat="43.9175" lon="4.60116">
        <ele>67.533439</ele>
        <time>2025-02-05T11:08:01.323Z</time>
      </trkpt>
      <trkpt lat="43.91755" lon="4.60103">
        <ele>67.489078</ele>
        <time>2025-02-05T11:08:04.336Z</time>
      </trkpt>
      <trkpt lat="43.91761" lon="4.60089">
        <ele>67.442132</ele>
        <time>2025-02-05T11:08:07.325Z</time>
      </trkpt>
      <trkpt lat="43.91766" lon="4.60074">
        <ele>67.391756</ele>
        <time>2025-02-05T11:08:10.326Z</time>
      </trkpt>
      <trkpt lat="43.91771" lon="4.60059">
        <ele>67.342019</ele>
        <time>2025-02-05T11:08:13.335Z</time>
      </trkpt>
      <trkpt lat="43.91776" lon="4.60044">
        <ele>67.293512</ele>
        <time>2025-02-05T11:08:16.294Z</time>
      </trkpt>
      <trkpt lat="43.9178" lon="4.60029">
        <ele>67.164879</ele>
        <time>2025-02-05T11:08:19.310Z</time>
      </trkpt>
      <trkpt lat="43.91784" lon="4.60015">
        <ele>67.00046</ele>
        <time>2025-02-05T11:08:22.324Z</time>
      </trkpt>
      <trkpt lat="43.91789" lon="4.59999">
        <ele>66.826152</ele>
        <time>2025-02-05T11:08:25.321Z</time>
      </trkpt>
      <trkpt lat="43.91793" lon="4.59983">
        <ele>66.644592</ele>
        <time>2025-02-05T11:08:28.331Z</time>
      </trkpt>
      <trkpt lat="43.91798" lon="4.59966">
        <ele>66.451755</ele>
        <time>2025-02-05T11:08:31.314Z</time>
      </trkpt>
      <trkpt lat="43.91802" lon="4.59954">
        <ele>66.313118</ele>
        <time>2025-02-05T11:08:33.336Z</time>
      </trkpt>
      <trkpt lat="43.91806" lon="4.59941">
        <ele>66.171603</ele>
        <time>2025-02-05T11:08:35.318Z</time>
      </trkpt>
      <trkpt lat="43.9181" lon="4.59929">
        <ele>66.028344</ele>
        <time>2025-02-05T11:08:37.321Z</time>
      </trkpt>
      <trkpt lat="43.91814" lon="4.59916">
        <ele>65.88146</ele>
        <time>2025-02-05T11:08:39.321Z</time>
      </trkpt>
      <trkpt lat="43.91818" lon="4.59903">
        <ele>65.736035</ele>
        <time>2025-02-05T11:08:41.313Z</time>
      </trkpt>
      <trkpt lat="43.91823" lon="4.5989">
        <ele>65.587776</ele>
        <time>2025-02-05T11:08:43.317Z</time>
      </trkpt>
      <trkpt lat="43.91827" lon="4.59878">
        <ele>65.4464</ele>
        <time>2025-02-05T11:08:45.325Z</time>
      </trkpt>
      <trkpt lat="43.91831" lon="4.59866">
        <ele>65.305846</ele>
        <time>2025-02-05T11:08:47.333Z</time>
      </trkpt>
      <trkpt lat="43.91835" lon="4.59853">
        <ele>65.164483</ele>
        <time>2025-02-05T11:08:49.307Z</time>
      </trkpt>
      <trkpt lat="43.91839" lon="4.59841">
        <ele>65.02</ele>
        <time>2025-02-05T11:08:51.324Z</time>
      </trkpt>
      <trkpt lat="43.91843" lon="4.59828">
        <ele>64.870441</ele>
        <time>2025-02-05T11:08:53.334Z</time>
      </trkpt>
      <trkpt lat="43.91848" lon="4.59815">
        <ele>64.719063</ele>
        <time>2025-02-05T11:08:55.324Z</time>
      </trkpt>
      <trkpt lat="43.91852" lon="4.59802">
        <ele>64.622036</ele>
        <time>2025-02-05T11:08:57.326Z</time>
      </trkpt>
      <trkpt lat="43.91857" lon="4.59789">
        <ele>64.547323</ele>
        <time>2025-02-05T11:08:59.316Z</time>
      </trkpt>
      <trkpt lat="43.91861" lon="4.59776">
        <ele>64.473565</ele>
        <time>2025-02-05T11:09:01.319Z</time>
      </trkpt>
      <trkpt lat="43.91865" lon="4.59763">
        <ele>64.39847</ele>
        <time>2025-02-05T11:09:03.326Z</time>
      </trkpt>
      <trkpt lat="43.91869" lon="4.5975">
        <ele>64.323374</ele>
        <time>2025-02-05T11:09:05.315Z</time>
      </trkpt>
      <trkpt lat="43.91874" lon="4.59737">
        <ele>64.245856</ele>
        <time>2025-02-05T11:09:07.334Z</time>
      </trkpt>
      <trkpt lat="43.91881" lon="4.59725">
        <ele>64.165083</ele>
        <time>2025-02-05T11:09:09.315Z</time>
      </trkpt>
      <trkpt lat="43.91891" lon="4.59716">
        <ele>64.080759</ele>
        <time>2025-02-05T11:09:11.304Z</time>
      </trkpt>
      <trkpt lat="43.919" lon="4.59709">
        <ele>64.005505</ele>
        <time>2025-02-05T11:09:13.307Z</time>
      </trkpt>
      <trkpt lat="43.91908" lon="4.59701">
        <ele>63.931289</ele>
        <time>2025-02-05T11:09:15.339Z</time>
      </trkpt>
      <trkpt lat="43.91916" lon="4.59695">
        <ele>63.865595</ele>
        <time>2025-02-05T11:09:17.315Z</time>
      </trkpt>
      <trkpt lat="43.91927" lon="4.59687">
        <ele>63.778147</ele>
        <time>2025-02-05T11:09:20.318Z</time>
      </trkpt>
      <trkpt lat="43.91937" lon="4.59679">
        <ele>63.696294</ele>
        <time>2025-02-05T11:09:23.304Z</time>
      </trkpt>
      <trkpt lat="43.91946" lon="4.59672">
        <ele>63.6217</ele>
        <time>2025-02-05T11:09:26.321Z</time>
      </trkpt>
      <trkpt lat="43.91954" lon="4.59666">
        <ele>63.551945</ele>
        <time>2025-02-05T11:09:29.309Z</time>
      </trkpt>
      <trkpt lat="43.91964" lon="4.59658">
        <ele>63.465245</ele>
        <time>2025-02-05T11:09:33.308Z</time>
      </trkpt>
      <trkpt lat="43.91974" lon="4.59648">
        <ele>63.382112</ele>
        <time>2025-02-05T11:09:37.316Z</time>
      </trkpt>
      <trkpt lat="43.91981" lon="4.59638">
        <ele>63.413218</ele>
        <time>2025-02-05T11:09:41.327Z</time>
      </trkpt>
      <trkpt lat="43.91989" lon="4.59626">
        <ele>63.477582</ele>
        <time>2025-02-05T11:09:45.322Z</time>
      </trkpt>
      <trkpt lat="43.91994" lon="4.59614">
        <ele>63.531266</ele>
        <time>2025-02-05T11:09:48.322Z</time>
      </trkpt>
      <trkpt lat="43.92" lon="4.59602">
        <ele>63.589422</ele>
        <time>2025-02-05T11:09:51.317Z</time>
      </trkpt>
      <trkpt lat="43.92007" lon="4.5959">
        <ele>63.647291</ele>
        <time>2025-02-05T11:09:54.313Z</time>
      </trkpt>
      <trkpt lat="43.92014" lon="4.59579">
        <ele>63.703901</ele>
        <time>2025-02-05T11:09:57.307Z</time>
      </trkpt>
      <trkpt lat="43.92023" lon="4.59571">
        <ele>63.76155</ele>
        <time>2025-02-05T11:10:00.302Z</time>
      </trkpt>
      <trkpt lat="43.92034" lon="4.59569">
        <ele>63.821439</ele>
        <time>2025-02-05T11:10:03.319Z</time>
      </trkpt>
      <trkpt lat="43.92044" lon="4.59571">
        <ele>63.880454</ele>
        <time>2025-02-05T11:10:06.316Z</time>
      </trkpt>
      <trkpt lat="43.92055" lon="4.59575">
        <ele>63.940704</ele>
        <time>2025-02-05T11:10:09.302Z</time>
      </trkpt>
      <trkpt lat="43.92065" lon="4.5958">
        <ele>63.996669</ele>
        <time>2025-02-05T11:10:12.313Z</time>
      </trkpt>
      <trkpt lat="43.92074" lon="4.59586">
        <ele>64.055248</ele>
        <time>2025-02-05T11:10:15.311Z</time>
      </trkpt>
      <trkpt lat="43.92085" lon="4.59593">
        <ele>64.11716</ele>
        <time>2025-02-05T11:10:18.317Z</time>
      </trkpt>
      <trkpt lat="43.92094" lon="4.59601">
        <ele>64.177339</ele>
        <time>2025-02-05T11:10:21.317Z</time>
      </trkpt>
      <trkpt lat="43.92104" lon="4.59607">
        <ele>64.235099</ele>
        <time>2025-02-05T11:10:24.314Z</time>
      </trkpt>
      <trkpt lat="43.92114" lon="4.59613">
        <ele>64.293947</ele>
        <time>2025-02-05T11:10:27.321Z</time>
      </trkpt>
      <trkpt lat="43.92124" lon="4.59616">
        <ele>64.375789</ele>
        <time>2025-02-05T11:10:30.326Z</time>
      </trkpt>
      <trkpt lat="43.92135" lon="4.59616">
        <ele>64.634593</ele>
        <time>2025-02-05T11:10:33.317Z</time>
      </trkpt>
      <trkpt lat="43.92146" lon="4.59615">
        <ele>64.884375</ele>
        <time>2025-02-05T11:10:36.294Z</time>
      </trkpt>
      <trkpt lat="43.92156" lon="4.59615">
        <ele>65.126656</ele>
        <time>2025-02-05T11:10:39.316Z</time>
      </trkpt>
      <trkpt lat="43.92165" lon="4.59616">
        <ele>65.351315</ele>
        <time>2025-02-05T11:10:42.329Z</time>
      </trkpt>
      <trkpt lat="43.92174" lon="4.59619">
        <ele>65.56799</ele>
        <time>2025-02-05T11:10:45.333Z</time>
      </trkpt>
      <trkpt lat="43.92184" lon="4.59623">
        <ele>65.817841</ele>
        <time>2025-02-05T11:10:49.306Z</time>
      </trkpt>
      <trkpt lat="43.92193" lon="4.59628">
        <ele>66.050213</ele>
        <time>2025-02-05T11:10:53.313Z</time>
      </trkpt>
      <trkpt lat="43.92203" lon="4.59635">
        <ele>66.310234</ele>
        <time>2025-02-05T11:10:57.317Z</time>
      </trkpt>
      <trkpt lat="43.92212" lon="4.59639">
        <ele>66.526845</ele>
        <time>2025-02-05T11:11:00.350Z</time>
      </trkpt>
      <trkpt lat="43.92222" lon="4.59644">
        <ele>66.781444</ele>
        <time>2025-02-05T11:11:04.307Z</time>
      </trkpt>
      <trkpt lat="43.92232" lon="4.59647">
        <ele>67.027081</ele>
        <time>2025-02-05T11:11:08.316Z</time>
      </trkpt>
      <trkpt lat="43.92242" lon="4.59649">
        <ele>67.263979</ele>
        <time>2025-02-05T11:11:12.292Z</time>
      </trkpt>
      <trkpt lat="43.92251" lon="4.59652">
        <ele>67.490676</ele>
        <time>2025-02-05T11:11:16.315Z</time>
      </trkpt>
      <trkpt lat="43.92262" lon="4.59655">
        <ele>67.755613</ele>
        <time>2025-02-05T11:11:21.311Z</time>
      </trkpt>
      <trkpt lat="43.92271" lon="4.59657">
        <ele>67.974369</ele>
        <time>2025-02-05T11:11:25.317Z</time>
      </trkpt>
      <trkpt lat="43.9228" lon="4.59659">
        <ele>68.195472</ele>
        <time>2025-02-05T11:11:29.313Z</time>
      </trkpt>
      <trkpt lat="43.92289" lon="4.59661">
        <ele>68.413485</ele>
        <time>2025-02-05T11:11:33.313Z</time>
      </trkpt>
      <trkpt lat="43.92299" lon="4.59662">
        <ele>68.661572</ele>
        <time>2025-02-05T11:11:37.306Z</time>
      </trkpt>
      <trkpt lat="43.92308" lon="4.59664">
        <ele>69.210908</ele>
        <time>2025-02-05T11:11:41.321Z</time>
      </trkpt>
      <trkpt lat="43.92317" lon="4.59666">
        <ele>69.748658</ele>
        <time>2025-02-05T11:11:45.321Z</time>
      </trkpt>
      <trkpt lat="43.92326" lon="4.59668">
        <ele>70.287661</ele>
        <time>2025-02-05T11:11:49.317Z</time>
      </trkpt>
      <trkpt lat="43.92335" lon="4.59671">
        <ele>70.833879</ele>
        <time>2025-02-05T11:11:53.316Z</time>
      </trkpt>
      <trkpt lat="43.92344" lon="4.59673">
        <ele>71.379329</ele>
        <time>2025-02-05T11:11:57.323Z</time>
      </trkpt>
      <trkpt lat="43.92353" lon="4.59675">
        <ele>71.909733</ele>
        <time>2025-02-05T11:12:01.325Z</time>
      </trkpt>
      <trkpt lat="43.92362" lon="4.59678">
        <ele>72.450117</ele>
        <time>2025-02-05T11:12:05.301Z</time>
      </trkpt>
      <trkpt lat="43.92373" lon="4.59679">
        <ele>73.073458</ele>
        <time>2025-02-05T11:12:10.322Z</time>
      </trkpt>
      <trkpt lat="43.92383" lon="4.59682">
        <ele>73.673651</ele>
        <time>2025-02-05T11:12:15.320Z</time>
      </trkpt>
      <trkpt lat="43.92392" lon="4.59683">
        <ele>74.204474</ele>
        <time>2025-02-05T11:12:19.318Z</time>
      </trkpt>
      <trkpt lat="43.92401" lon="4.59683">
        <ele>74.736914</ele>
        <time>2025-02-05T11:12:23.315Z</time>
      </trkpt>
      <trkpt lat="43.92412" lon="4.59682">
        <ele>75.394794</ele>
        <time>2025-02-05T11:12:28.300Z</time>
      </trkpt>
      <trkpt lat="43.92425" lon="4.59675">
        <ele>76.177899</ele>
        <time>2025-02-05T11:13:31.327Z</time>
      </trkpt>
      <trkpt lat="43.92433" lon="4.59668">
        <ele>76.709525</ele>
        <time>2025-02-05T11:13:38.322Z</time>
      </trkpt>
      <trkpt lat="43.92441" lon="4.59662">
        <ele>77.256102</ele>
        <time>2025-02-05T11:13:46.332Z</time>
      </trkpt>
      <trkpt lat="43.92449" lon="4.59656">
        <ele>77.815354</ele>
        <time>2025-02-05T11:13:53.316Z</time>
      </trkpt>
      <trkpt lat="43.92459" lon="4.59653">
        <ele>78.40245</ele>
        <time>2025-02-05T11:14:02.309Z</time>
      </trkpt>
      <trkpt lat="43.92468" lon="4.5965">
        <ele>78.953454</ele>
        <time>2025-02-05T11:14:10.332Z</time>
      </trkpt>
      <trkpt lat="43.92478" lon="4.59647">
        <ele>79.656484</ele>
        <time>2025-02-05T11:14:18.316Z</time>
      </trkpt>
      <trkpt lat="43.92487" lon="4.59645">
        <ele>80.400168</ele>
        <time>2025-02-05T11:14:25.322Z</time>
      </trkpt>
      <trkpt lat="43.92496" lon="4.59642">
        <ele>81.185385</ele>
        <time>2025-02-05T11:14:33.291Z</time>
      </trkpt>
      <trkpt lat="43.92505" lon="4.59638">
        <ele>81.924808</ele>
        <time>2025-02-05T11:14:41.318Z</time>
      </trkpt>
      <trkpt lat="43.92514" lon="4.59632">
        <ele>82.688087</ele>
        <time>2025-02-05T11:14:50.320Z</time>
      </trkpt>
      <trkpt lat="43.92522" lon="4.59624">
        <ele>83.480492</ele>
        <time>2025-02-05T11:14:58.335Z</time>
      </trkpt>
      <trkpt lat="43.92529" lon="4.59618">
        <ele>84.204223</ele>
        <time>2025-02-05T11:15:06.323Z</time>
      </trkpt>
      <trkpt lat="43.92537" lon="4.5961">
        <ele>84.957325</ele>
        <time>2025-02-05T11:15:15.317Z</time>
      </trkpt>
      <trkpt lat="43.92544" lon="4.59601">
        <ele>85.71321</ele>
        <time>2025-02-05T11:15:24.320Z</time>
      </trkpt>
      <trkpt lat="43.92552" lon="4.59594">
        <ele>86.452952</ele>
        <time>2025-02-05T11:15:33.320Z</time>
      </trkpt>
      <trkpt lat="43.9256" lon="4.59588">
        <ele>87.201994</ele>
        <time>2025-02-05T11:15:42.332Z</time>
      </trkpt>
      <trkpt lat="43.92568" lon="4.59584">
        <ele>87.922278</ele>
        <time>2025-02-05T11:15:50.314Z</time>
      </trkpt>
      <trkpt lat="43.92577" lon="4.59581">
        <ele>88.647608</ele>
        <time>2025-02-05T11:15:58.321Z</time>
      </trkpt>
      <trkpt lat="43.92587" lon="4.59577">
        <ele>89.442103</ele>
        <time>2025-02-05T11:16:07.309Z</time>
      </trkpt>
      <trkpt lat="43.92596" lon="4.59573">
        <ele>90.216493</ele>
        <time>2025-02-05T11:16:16.324Z</time>
      </trkpt>
      <trkpt lat="43.92605" lon="4.59567">
        <ele>91.008444</ele>
        <time>2025-02-05T11:16:32.313Z</time>
      </trkpt>
      <trkpt lat="43.92614" lon="4.59561">
        <ele>91.810115</ele>
        <time>2025-02-05T11:16:41.312Z</time>
      </trkpt>
      <trkpt lat="43.92623" lon="4.59556">
        <ele>92.57046</ele>
        <time>2025-02-05T11:16:49.318Z</time>
      </trkpt>
      <trkpt lat="43.92631" lon="4.59549">
        <ele>93.344013</ele>
        <time>2025-02-05T11:16:58.328Z</time>
      </trkpt>
      <trkpt lat="43.92639" lon="4.59541">
        <ele>93.602267</ele>
        <time>2025-02-05T11:17:06.327Z</time>
      </trkpt>
      <trkpt lat="43.92647" lon="4.59535">
        <ele>93.686815</ele>
        <time>2025-02-05T11:17:14.330Z</time>
      </trkpt>
      <trkpt lat="43.92655" lon="4.59529">
        <ele>93.778334</ele>
        <time>2025-02-05T11:17:22.313Z</time>
      </trkpt>
      <trkpt lat="43.92663" lon="4.59523">
        <ele>93.866627</ele>
        <time>2025-02-05T11:17:30.330Z</time>
      </trkpt>
      <trkpt lat="43.92671" lon="4.59517">
        <ele>93.951969</ele>
        <time>2025-02-05T11:17:38.309Z</time>
      </trkpt>
      <trkpt lat="43.92684" lon="4.59511">
        <ele>94.079809</ele>
        <time>2025-02-05T11:18:50.327Z</time>
      </trkpt>
      <trkpt lat="43.92694" lon="4.59505">
        <ele>94.179668</ele>
        <time>2025-02-05T11:19:08.309Z</time>
      </trkpt>
      <trkpt lat="43.92704" lon="4.595">
        <ele>94.281353</ele>
        <time>2025-02-05T11:19:13.308Z</time>
      </trkpt>
      <trkpt lat="43.92713" lon="4.59496">
        <ele>94.370315</ele>
        <time>2025-02-05T11:19:17.327Z</time>
      </trkpt>
      <trkpt lat="43.92723" lon="4.59493">
        <ele>94.468834</ele>
        <time>2025-02-05T11:19:21.309Z</time>
      </trkpt>
      <trkpt lat="43.92735" lon="4.59491">
        <ele>94.578025</ele>
        <time>2025-02-05T11:19:25.312Z</time>
      </trkpt>
      <trkpt lat="43.92746" lon="4.5949">
        <ele>94.686581</ele>
        <time>2025-02-05T11:19:29.311Z</time>
      </trkpt>
      <trkpt lat="43.92756" lon="4.5949">
        <ele>94.773256</ele>
        <time>2025-02-05T11:19:32.315Z</time>
      </trkpt>
      <trkpt lat="43.92765" lon="4.5949">
        <ele>94.861839</ele>
        <time>2025-02-05T11:19:35.342Z</time>
      </trkpt>
      <trkpt lat="43.92776" lon="4.59491">
        <ele>94.963645</ele>
        <time>2025-02-05T11:19:38.331Z</time>
      </trkpt>
      <trkpt lat="43.92785" lon="4.59492">
        <ele>95.050585</ele>
        <time>2025-02-05T11:19:40.318Z</time>
      </trkpt>
      <trkpt lat="43.92796" lon="4.59493">
        <ele>95.151504</ele>
        <time>2025-02-05T11:19:42.326Z</time>
      </trkpt>
      <trkpt lat="43.92807" lon="4.59494">
        <ele>95.02199</ele>
        <time>2025-02-05T11:19:44.316Z</time>
      </trkpt>
      <trkpt lat="43.9282" lon="4.59497">
        <ele>94.209916</ele>
        <time>2025-02-05T11:19:46.322Z</time>
      </trkpt>
      <trkpt lat="43.92834" lon="4.595">
        <ele>93.362221</ele>
        <time>2025-02-05T11:19:48.300Z</time>
      </trkpt>
      <trkpt lat="43.92849" lon="4.59503">
        <ele>92.447757</ele>
        <time>2025-02-05T11:19:50.322Z</time>
      </trkpt>
      <trkpt lat="43.92865" lon="4.59506">
        <ele>91.469153</ele>
        <time>2025-02-05T11:19:52.334Z</time>
      </trkpt>
      <trkpt lat="43.92881" lon="4.5951">
        <ele>90.483231</ele>
        <time>2025-02-05T11:19:54.326Z</time>
      </trkpt>
      <trkpt lat="43.92897" lon="4.59513">
        <ele>89.478581</ele>
        <time>2025-02-05T11:19:56.315Z</time>
      </trkpt>
      <trkpt lat="43.92914" lon="4.59517">
        <ele>88.473252</ele>
        <time>2025-02-05T11:19:58.325Z</time>
      </trkpt>
      <trkpt lat="43.9293" lon="4.5952">
        <ele>87.463878</ele>
        <time>2025-02-05T11:20:00.313Z</time>
      </trkpt>
      <trkpt lat="43.92946" lon="4.59524">
        <ele>86.458548</ele>
        <time>2025-02-05T11:20:02.317Z</time>
      </trkpt>
      <trkpt lat="43.92962" lon="4.59526">
        <ele>85.478765</ele>
        <time>2025-02-05T11:20:04.326Z</time>
      </trkpt>
      <trkpt lat="43.92977" lon="4.59529">
        <ele>84.553704</ele>
        <time>2025-02-05T11:20:06.337Z</time>
      </trkpt>
      <trkpt lat="43.92991" lon="4.59535">
        <ele>84.222818</ele>
        <time>2025-02-05T11:20:08.328Z</time>
      </trkpt>
      <trkpt lat="43.93004" lon="4.59545">
        <ele>84.150823</ele>
        <time>2025-02-05T11:20:10.317Z</time>
      </trkpt>
      <trkpt lat="43.93014" lon="4.59558">
        <ele>84.080568</ele>
        <time>2025-02-05T11:20:12.306Z</time>
      </trkpt>
      <trkpt lat="43.93022" lon="4.59572">
        <ele>84.014809</ele>
        <time>2025-02-05T11:20:14.319Z</time>
      </trkpt>
      <trkpt lat="43.93029" lon="4.59586">
        <ele>83.954072</ele>
        <time>2025-02-05T11:20:16.320Z</time>
      </trkpt>
      <trkpt lat="43.93036" lon="4.59597">
        <ele>83.902376</ele>
        <time>2025-02-05T11:20:18.324Z</time>
      </trkpt>
      <trkpt lat="43.93042" lon="4.59608">
        <ele>83.853343</ele>
        <time>2025-02-05T11:20:20.300Z</time>
      </trkpt>
      <trkpt lat="43.9305" lon="4.59619">
        <ele>83.794511</ele>
        <time>2025-02-05T11:20:23.320Z</time>
      </trkpt>
      <trkpt lat="43.93058" lon="4.59626">
        <ele>83.745845</ele>
        <time>2025-02-05T11:20:26.320Z</time>
      </trkpt>
      <trkpt lat="43.93067" lon="4.59632">
        <ele>83.699062</ele>
        <time>2025-02-05T11:20:29.316Z</time>
      </trkpt>
      <trkpt lat="43.93079" lon="4.59626">
        <ele>83.635617</ele>
        <time>2025-02-05T11:20:33.334Z</time>
      </trkpt>
      <trkpt lat="43.93086" lon="4.59612">
        <ele>83.573959</ele>
        <time>2025-02-05T11:20:36.333Z</time>
      </trkpt>
      <trkpt lat="43.93092" lon="4.59598">
        <ele>83.513806</ele>
        <time>2025-02-05T11:20:39.309Z</time>
      </trkpt>
      <trkpt lat="43.93098" lon="4.59588">
        <ele>83.46624</ele>
        <time>2025-02-05T11:20:41.304Z</time>
      </trkpt>
      <trkpt lat="43.93104" lon="4.59578">
        <ele>83.419498</ele>
        <time>2025-02-05T11:20:43.321Z</time>
      </trkpt>
      <trkpt lat="43.9311" lon="4.59569">
        <ele>83.374352</ele>
        <time>2025-02-05T11:20:45.306Z</time>
      </trkpt>
      <trkpt lat="43.93116" lon="4.59557">
        <ele>83.410061</ele>
        <time>2025-02-05T11:20:47.321Z</time>
      </trkpt>
      <trkpt lat="43.93123" lon="4.59546">
        <ele>83.455589</ele>
        <time>2025-02-05T11:20:49.314Z</time>
      </trkpt>
      <trkpt lat="43.93131" lon="4.59536">
        <ele>83.499365</ele>
        <time>2025-02-05T11:20:51.315Z</time>
      </trkpt>
      <trkpt lat="43.93138" lon="4.59527">
        <ele>83.540875</ele>
        <time>2025-02-05T11:20:53.318Z</time>
      </trkpt>
      <trkpt lat="43.93145" lon="4.59518">
        <ele>83.581387</ele>
        <time>2025-02-05T11:20:55.293Z</time>
      </trkpt>
      <trkpt lat="43.93154" lon="4.59511">
        <ele>83.624263</ele>
        <time>2025-02-05T11:20:57.334Z</time>
      </trkpt>
      <trkpt lat="43.93163" lon="4.59504">
        <ele>83.665067</ele>
        <time>2025-02-05T11:20:59.307Z</time>
      </trkpt>
      <trkpt lat="43.9317" lon="4.59498">
        <ele>83.702576</ele>
        <time>2025-02-05T11:21:01.316Z</time>
      </trkpt>
      <trkpt lat="43.93182" lon="4.5949">
        <ele>83.757864</ele>
        <time>2025-02-05T11:21:04.318Z</time>
      </trkpt>
      <trkpt lat="43.93193" lon="4.59482">
        <ele>83.807711</ele>
        <time>2025-02-05T11:21:07.311Z</time>
      </trkpt>
      <trkpt lat="43.93202" lon="4.59475">
        <ele>83.853059</ele>
        <time>2025-02-05T11:21:10.319Z</time>
      </trkpt>
      <trkpt lat="43.93211" lon="4.59469">
        <ele>83.894645</ele>
        <time>2025-02-05T11:21:13.344Z</time>
      </trkpt>
      <trkpt lat="43.9322" lon="4.59462">
        <ele>83.936989</ele>
        <time>2025-02-05T11:21:16.314Z</time>
      </trkpt>
      <trkpt lat="43.93229" lon="4.59457">
        <ele>83.977929</ele>
        <time>2025-02-05T11:21:19.317Z</time>
      </trkpt>
      <trkpt lat="43.93237" lon="4.59451">
        <ele>84.017882</ele>
        <time>2025-02-05T11:21:22.355Z</time>
      </trkpt>
      <trkpt lat="43.93246" lon="4.59444">
        <ele>84.058344</ele>
        <time>2025-02-05T11:21:25.321Z</time>
      </trkpt>
      <trkpt lat="43.93254" lon="4.59439">
        <ele>84.097386</ele>
        <time>2025-02-05T11:21:28.317Z</time>
      </trkpt>
      <trkpt lat="43.93265" lon="4.59434">
        <ele>84.193344</ele>
        <time>2025-02-05T11:21:32.331Z</time>
      </trkpt>
      <trkpt lat="43.93277" lon="4.59435">
        <ele>84.359852</ele>
        <time>2025-02-05T11:21:36.314Z</time>
      </trkpt>
      <trkpt lat="43.93286" lon="4.5943">
        <ele>84.49519</ele>
        <time>2025-02-05T11:21:39.312Z</time>
      </trkpt>
      <trkpt lat="43.9329" lon="4.59415">
        <ele>84.657719</ele>
        <time>2025-02-05T11:21:43.325Z</time>
      </trkpt>
      <trkpt lat="43.93287" lon="4.59403">
        <ele>84.787621</ele>
        <time>2025-02-05T11:21:46.325Z</time>
      </trkpt>
      <trkpt lat="43.93281" lon="4.59392">
        <ele>84.932773</ele>
        <time>2025-02-05T11:21:49.320Z</time>
      </trkpt>
      <trkpt lat="43.93275" lon="4.59379">
        <ele>85.092083</ele>
        <time>2025-02-05T11:21:52.322Z</time>
      </trkpt>
      <trkpt lat="43.93271" lon="4.59363">
        <ele>85.262589</ele>
        <time>2025-02-05T11:21:55.325Z</time>
      </trkpt>
      <trkpt lat="43.9327" lon="4.59346">
        <ele>85.437479</ele>
        <time>2025-02-05T11:21:58.308Z</time>
      </trkpt>
      <trkpt lat="43.93268" lon="4.59328">
        <ele>85.622623</ele>
        <time>2025-02-05T11:22:01.325Z</time>
      </trkpt>
      <trkpt lat="43.93267" lon="4.59315">
        <ele>85.751516</ele>
        <time>2025-02-05T11:22:03.317Z</time>
      </trkpt>
      <trkpt lat="43.93264" lon="4.59297">
        <ele>85.939374</ele>
        <time>2025-02-05T11:22:06.324Z</time>
      </trkpt>
      <trkpt lat="43.93263" lon="4.59279">
        <ele>86.129168</ele>
        <time>2025-02-05T11:22:09.311Z</time>
      </trkpt>
      <trkpt lat="43.93261" lon="4.59261">
        <ele>86.313052</ele>
        <time>2025-02-05T11:22:12.333Z</time>
      </trkpt>
      <trkpt lat="43.9326" lon="4.59244">
        <ele>86.486451</ele>
        <time>2025-02-05T11:22:15.324Z</time>
      </trkpt>
      <trkpt lat="43.93258" lon="4.59228">
        <ele>86.651368</ele>
        <time>2025-02-05T11:22:18.331Z</time>
      </trkpt>
      <trkpt lat="43.93256" lon="4.59212">
        <ele>86.591363</ele>
        <time>2025-02-05T11:22:21.327Z</time>
      </trkpt>
      <trkpt lat="43.93255" lon="4.59195">
        <ele>86.492538</ele>
        <time>2025-02-05T11:22:24.319Z</time>
      </trkpt>
      <trkpt lat="43.93254" lon="4.59178">
        <ele>86.390937</ele>
        <time>2025-02-05T11:22:27.323Z</time>
      </trkpt>
      <trkpt lat="43.93252" lon="4.59161">
        <ele>86.287553</ele>
        <time>2025-02-05T11:22:30.330Z</time>
      </trkpt>
      <trkpt lat="43.9325" lon="4.59143">
        <ele>86.180908</ele>
        <time>2025-02-05T11:22:33.347Z</time>
      </trkpt>
      <trkpt lat="43.93249" lon="4.59131">
        <ele>86.104225</ele>
        <time>2025-02-05T11:22:35.320Z</time>
      </trkpt>
      <trkpt lat="43.93248" lon="4.59118">
        <ele>86.025559</ele>
        <time>2025-02-05T11:22:37.316Z</time>
      </trkpt>
      <trkpt lat="43.93247" lon="4.59104">
        <ele>85.943155</ele>
        <time>2025-02-05T11:22:39.307Z</time>
      </trkpt>
      <trkpt lat="43.93245" lon="4.59091">
        <ele>85.864578</ele>
        <time>2025-02-05T11:22:41.321Z</time>
      </trkpt>
      <trkpt lat="43.93244" lon="4.59077">
        <ele>85.780891</ele>
        <time>2025-02-05T11:22:43.317Z</time>
      </trkpt>
      <trkpt lat="43.93243" lon="4.59063">
        <ele>85.698878</ele>
        <time>2025-02-05T11:22:45.342Z</time>
      </trkpt>
      <trkpt lat="43.93242" lon="4.5905">
        <ele>85.617068</ele>
        <time>2025-02-05T11:22:47.319Z</time>
      </trkpt>
      <trkpt lat="43.93241" lon="4.59036">
        <ele>85.536689</ele>
        <time>2025-02-05T11:22:49.308Z</time>
      </trkpt>
      <trkpt lat="43.9324" lon="4.59023">
        <ele>85.454879</ele>
        <time>2025-02-05T11:22:51.327Z</time>
      </trkpt>
      <trkpt lat="43.93239" lon="4.59009">
        <ele>85.371085</ele>
        <time>2025-02-05T11:22:53.342Z</time>
      </trkpt>
      <trkpt lat="43.9324" lon="4.58994">
        <ele>85.281382</ele>
        <time>2025-02-05T11:22:55.320Z</time>
      </trkpt>
      <trkpt lat="43.93241" lon="4.58978">
        <ele>85.186317</ele>
        <time>2025-02-05T11:22:57.327Z</time>
      </trkpt>
      <trkpt lat="43.93243" lon="4.58962">
        <ele>85.087518</ele>
        <time>2025-02-05T11:22:59.315Z</time>
      </trkpt>
      <trkpt lat="43.93246" lon="4.58946">
        <ele>84.991693</ele>
        <time>2025-02-05T11:23:01.314Z</time>
      </trkpt>
      <trkpt lat="43.9325" lon="4.58932">
        <ele>84.897393</ele>
        <time>2025-02-05T11:23:03.294Z</time>
      </trkpt>
      <trkpt lat="43.93254" lon="4.58917">
        <ele>84.805599</ele>
        <time>2025-02-05T11:23:05.300Z</time>
      </trkpt>
      <trkpt lat="43.93259" lon="4.58904">
        <ele>84.719293</ele>
        <time>2025-02-05T11:23:07.305Z</time>
      </trkpt>
      <trkpt lat="43.93263" lon="4.58891">
        <ele>84.634236</ele>
        <time>2025-02-05T11:23:09.312Z</time>
      </trkpt>
      <trkpt lat="43.93268" lon="4.5888">
        <ele>84.553949</ele>
        <time>2025-02-05T11:23:11.316Z</time>
      </trkpt>
      <trkpt lat="43.93272" lon="4.58869">
        <ele>84.478251</ele>
        <time>2025-02-05T11:23:13.323Z</time>
      </trkpt>
      <trkpt lat="43.93277" lon="4.58858">
        <ele>84.402882</ele>
        <time>2025-02-05T11:23:15.305Z</time>
      </trkpt>
      <trkpt lat="43.93283" lon="4.58842">
        <ele>84.292581</ele>
        <time>2025-02-05T11:23:18.318Z</time>
      </trkpt>
      <trkpt lat="43.93289" lon="4.58826">
        <ele>84.186841</ele>
        <time>2025-02-05T11:23:21.312Z</time>
      </trkpt>
      <trkpt lat="43.93295" lon="4.58811">
        <ele>84.087708</ele>
        <time>2025-02-05T11:23:24.311Z</time>
      </trkpt>
      <trkpt lat="43.93301" lon="4.58797">
        <ele>83.986192</ele>
        <time>2025-02-05T11:23:27.327Z</time>
      </trkpt>
      <trkpt lat="43.93307" lon="4.58782">
        <ele>83.884972</ele>
        <time>2025-02-05T11:23:30.317Z</time>
      </trkpt>
      <trkpt lat="43.93313" lon="4.58767">
        <ele>83.784152</ele>
        <time>2025-02-05T11:23:33.313Z</time>
      </trkpt>
      <trkpt lat="43.93319" lon="4.58751">
        <ele>83.665752</ele>
        <time>2025-02-05T11:23:36.326Z</time>
      </trkpt>
      <trkpt lat="43.93325" lon="4.58735">
        <ele>83.485781</ele>
        <time>2025-02-05T11:23:39.321Z</time>
      </trkpt>
      <trkpt lat="43.93331" lon="4.58719">
        <ele>83.311086</ele>
        <time>2025-02-05T11:23:42.324Z</time>
      </trkpt>
      <trkpt lat="43.93337" lon="4.58703">
        <ele>83.13787</ele>
        <time>2025-02-05T11:23:45.342Z</time>
      </trkpt>
      <trkpt lat="43.93342" lon="4.58686">
        <ele>82.959971</ele>
        <time>2025-02-05T11:23:48.312Z</time>
      </trkpt>
      <trkpt lat="43.93345" lon="4.58675">
        <ele>82.836888</ele>
        <time>2025-02-05T11:23:50.333Z</time>
      </trkpt>
      <trkpt lat="43.93349" lon="4.58658">
        <ele>82.661438</ele>
        <time>2025-02-05T11:23:53.315Z</time>
      </trkpt>
      <trkpt lat="43.93353" lon="4.58641">
        <ele>82.491095</ele>
        <time>2025-02-05T11:23:56.322Z</time>
      </trkpt>
      <trkpt lat="43.93357" lon="4.58625">
        <ele>82.319284</ele>
        <time>2025-02-05T11:23:59.312Z</time>
      </trkpt>
      <trkpt lat="43.93362" lon="4.58608">
        <ele>82.146617</ele>
        <time>2025-02-05T11:24:02.320Z</time>
      </trkpt>
      <trkpt lat="43.93366" lon="4.58591">
        <ele>81.967513</ele>
        <time>2025-02-05T11:24:05.311Z</time>
      </trkpt>
      <trkpt lat="43.9337" lon="4.58574">
        <ele>81.790206</ele>
        <time>2025-02-05T11:24:08.336Z</time>
      </trkpt>
      <trkpt lat="43.93375" lon="4.58556">
        <ele>81.607433</ele>
        <time>2025-02-05T11:24:11.327Z</time>
      </trkpt>
      <trkpt lat="43.93378" lon="4.58544">
        <ele>81.482197</ele>
        <time>2025-02-05T11:24:13.316Z</time>
      </trkpt>
      <trkpt lat="43.93382" lon="4.58526">
        <ele>81.301242</ele>
        <time>2025-02-05T11:24:16.332Z</time>
      </trkpt>
      <trkpt lat="43.93386" lon="4.58509">
        <ele>81.158819</ele>
        <time>2025-02-05T11:24:19.312Z</time>
      </trkpt>
      <trkpt lat="43.9339" lon="4.58491">
        <ele>81.031011</ele>
        <time>2025-02-05T11:24:22.329Z</time>
      </trkpt>
      <trkpt lat="43.93393" lon="4.58479">
        <ele>80.943785</ele>
        <time>2025-02-05T11:24:24.320Z</time>
      </trkpt>
      <trkpt lat="43.93398" lon="4.58462">
        <ele>80.815357</ele>
        <time>2025-02-05T11:24:27.319Z</time>
      </trkpt>
      <trkpt lat="43.93401" lon="4.5845">
        <ele>80.729702</ele>
        <time>2025-02-05T11:24:29.330Z</time>
      </trkpt>
      <trkpt lat="43.93403" lon="4.58438">
        <ele>80.644047</ele>
        <time>2025-02-05T11:24:31.326Z</time>
      </trkpt>
      <trkpt lat="43.93408" lon="4.5842">
        <ele>80.518786</ele>
        <time>2025-02-05T11:24:34.311Z</time>
      </trkpt>
      <trkpt lat="43.9341" lon="4.58408">
        <ele>80.432832</ele>
        <time>2025-02-05T11:24:36.313Z</time>
      </trkpt>
      <trkpt lat="43.93415" lon="4.58391">
        <ele>80.308591</ele>
        <time>2025-02-05T11:24:39.329Z</time>
      </trkpt>
      <trkpt lat="43.93419" lon="4.58374">
        <ele>80.181431</ele>
        <time>2025-02-05T11:24:42.333Z</time>
      </trkpt>
      <trkpt lat="43.93424" lon="4.58356">
        <ele>80.05461</ele>
        <time>2025-02-05T11:24:45.322Z</time>
      </trkpt>
      <trkpt lat="43.93428" lon="4.58339">
        <ele>79.931656</ele>
        <time>2025-02-05T11:24:48.316Z</time>
      </trkpt>
      <trkpt lat="43.93432" lon="4.58323">
        <ele>79.812858</ele>
        <time>2025-02-05T11:24:51.317Z</time>
      </trkpt>
      <trkpt lat="43.93437" lon="4.58307">
        <ele>79.689748</ele>
        <time>2025-02-05T11:24:54.318Z</time>
      </trkpt>
      <trkpt lat="43.93443" lon="4.5829">
        <ele>79.562669</ele>
        <time>2025-02-05T11:24:57.334Z</time>
      </trkpt>
      <trkpt lat="43.93451" lon="4.58274">
        <ele>79.24389</ele>
        <time>2025-02-05T11:25:00.305Z</time>
      </trkpt>
      <trkpt lat="43.93459" lon="4.5826">
        <ele>78.885941</ele>
        <time>2025-02-05T11:25:03.338Z</time>
      </trkpt>
      <trkpt lat="43.93465" lon="4.58251">
        <ele>78.634174</ele>
        <time>2025-02-05T11:25:05.346Z</time>
      </trkpt>
      <trkpt lat="43.93472" lon="4.5824">
        <ele>78.358405</ele>
        <time>2025-02-05T11:25:07.326Z</time>
      </trkpt>
      <trkpt lat="43.9348" lon="4.5823">
        <ele>78.077458</ele>
        <time>2025-02-05T11:25:09.311Z</time>
      </trkpt>
      <trkpt lat="43.93487" lon="4.5822">
        <ele>77.793512</ele>
        <time>2025-02-05T11:25:11.316Z</time>
      </trkpt>
      <trkpt lat="43.93494" lon="4.58209">
        <ele>77.512399</ele>
        <time>2025-02-05T11:25:13.298Z</time>
      </trkpt>
      <trkpt lat="43.93502" lon="4.58199">
        <ele>77.228453</ele>
        <time>2025-02-05T11:25:15.310Z</time>
      </trkpt>
      <trkpt lat="43.93509" lon="4.58188">
        <ele>76.936684</ele>
        <time>2025-02-05T11:25:17.316Z</time>
      </trkpt>
      <trkpt lat="43.93516" lon="4.58178">
        <ele>76.651372</ele>
        <time>2025-02-05T11:25:19.325Z</time>
      </trkpt>
      <trkpt lat="43.93524" lon="4.58167">
        <ele>76.357531</ele>
        <time>2025-02-05T11:25:21.333Z</time>
      </trkpt>
      <trkpt lat="43.93531" lon="4.58156">
        <ele>76.054913</ele>
        <time>2025-02-05T11:25:23.347Z</time>
      </trkpt>
      <trkpt lat="43.93539" lon="4.58144">
        <ele>75.745265</ele>
        <time>2025-02-05T11:25:25.334Z</time>
      </trkpt>
      <trkpt lat="43.93547" lon="4.58133">
        <ele>75.436756</ele>
        <time>2025-02-05T11:25:27.332Z</time>
      </trkpt>
      <trkpt lat="43.93555" lon="4.58121">
        <ele>75.117096</ele>
        <time>2025-02-05T11:25:29.313Z</time>
      </trkpt>
      <trkpt lat="43.93564" lon="4.58109">
        <ele>74.773563</ele>
        <time>2025-02-05T11:25:31.319Z</time>
      </trkpt>
      <trkpt lat="43.93573" lon="4.58097">
        <ele>74.557662</ele>
        <time>2025-02-05T11:25:33.303Z</time>
      </trkpt>
      <trkpt lat="43.93582" lon="4.58084">
        <ele>74.409635</ele>
        <time>2025-02-05T11:25:35.346Z</time>
      </trkpt>
      <trkpt lat="43.9359" lon="4.58071">
        <ele>74.266219</ele>
        <time>2025-02-05T11:25:37.335Z</time>
      </trkpt>
      <trkpt lat="43.93599" lon="4.58059">
        <ele>74.125773</ele>
        <time>2025-02-05T11:25:39.298Z</time>
      </trkpt>
      <trkpt lat="43.93608" lon="4.58048">
        <ele>73.986553</ele>
        <time>2025-02-05T11:25:41.312Z</time>
      </trkpt>
      <trkpt lat="43.93616" lon="4.58036">
        <ele>73.851948</ele>
        <time>2025-02-05T11:25:43.303Z</time>
      </trkpt>
      <trkpt lat="43.93624" lon="4.58025">
        <ele>73.715723</ele>
        <time>2025-02-05T11:25:45.293Z</time>
      </trkpt>
      <trkpt lat="43.93632" lon="4.58014">
        <ele>73.586954</ele>
        <time>2025-02-05T11:25:47.319Z</time>
      </trkpt>
      <trkpt lat="43.93641" lon="4.58004">
        <ele>73.453111</ele>
        <time>2025-02-05T11:25:49.318Z</time>
      </trkpt>
      <trkpt lat="43.93649" lon="4.57992">
        <ele>73.318133</ele>
        <time>2025-02-05T11:25:51.319Z</time>
      </trkpt>
      <trkpt lat="43.93658" lon="4.57982">
        <ele>73.182686</ele>
        <time>2025-02-05T11:25:53.310Z</time>
      </trkpt>
      <trkpt lat="43.93668" lon="4.57975">
        <ele>73.057274</ele>
        <time>2025-02-05T11:25:55.321Z</time>
      </trkpt>
      <trkpt lat="43.93677" lon="4.57967">
        <ele>72.938119</ele>
        <time>2025-02-05T11:25:57.318Z</time>
      </trkpt>
      <trkpt lat="43.93685" lon="4.57962">
        <ele>72.82752</ele>
        <time>2025-02-05T11:25:59.297Z</time>
      </trkpt>
      <trkpt lat="43.93697" lon="4.57954">
        <ele>72.680534</ele>
        <time>2025-02-05T11:26:02.321Z</time>
      </trkpt>
      <trkpt lat="43.93709" lon="4.57949">
        <ele>72.496033</ele>
        <time>2025-02-05T11:26:05.306Z</time>
      </trkpt>
      <trkpt lat="43.9372" lon="4.57945">
        <ele>72.164153</ele>
        <time>2025-02-05T11:26:08.322Z</time>
      </trkpt>
      <trkpt lat="43.93731" lon="4.57942">
        <ele>71.843408</ele>
        <time>2025-02-05T11:26:11.321Z</time>
      </trkpt>
      <trkpt lat="43.93743" lon="4.57938">
        <ele>71.504298</ele>
        <time>2025-02-05T11:26:14.336Z</time>
      </trkpt>
      <trkpt lat="43.93755" lon="4.57934">
        <ele>71.146087</ele>
        <time>2025-02-05T11:26:17.319Z</time>
      </trkpt>
      <trkpt lat="43.93764" lon="4.57923">
        <ele>70.818458</ele>
        <time>2025-02-05T11:26:20.315Z</time>
      </trkpt>
      <trkpt lat="43.93766" lon="4.57906">
        <ele>70.46868</ele>
        <time>2025-02-05T11:26:23.310Z</time>
      </trkpt>
      <trkpt lat="43.93766" lon="4.57887">
        <ele>70.075586</ele>
        <time>2025-02-05T11:26:26.313Z</time>
      </trkpt>
      <trkpt lat="43.93767" lon="4.57871">
        <ele>69.76201</ele>
        <time>2025-02-05T11:26:28.312Z</time>
      </trkpt>
      <trkpt lat="43.93769" lon="4.57854">
        <ele>69.403816</ele>
        <time>2025-02-05T11:26:30.310Z</time>
      </trkpt>
      <trkpt lat="43.93771" lon="4.57835">
        <ele>69.019882</ele>
        <time>2025-02-05T11:26:32.336Z</time>
      </trkpt>
      <trkpt lat="43.93774" lon="4.57816">
        <ele>68.610019</ele>
        <time>2025-02-05T11:26:34.336Z</time>
      </trkpt>
      <trkpt lat="43.9378" lon="4.57796">
        <ele>68.180098</ele>
        <time>2025-02-05T11:26:36.313Z</time>
      </trkpt>
      <trkpt lat="43.93786" lon="4.57776">
        <ele>67.74075</ele>
        <time>2025-02-05T11:26:38.326Z</time>
      </trkpt>
      <trkpt lat="43.93793" lon="4.57757">
        <ele>67.404375</ele>
        <time>2025-02-05T11:26:40.319Z</time>
      </trkpt>
      <trkpt lat="43.938" lon="4.5774">
        <ele>67.188735</ele>
        <time>2025-02-05T11:26:42.316Z</time>
      </trkpt>
      <trkpt lat="43.93806" lon="4.57722">
        <ele>66.981454</ele>
        <time>2025-02-05T11:26:44.315Z</time>
      </trkpt>
      <trkpt lat="43.93809" lon="4.57705">
        <ele>66.785917</ele>
        <time>2025-02-05T11:26:46.322Z</time>
      </trkpt>
      <trkpt lat="43.93804" lon="4.57688">
        <ele>66.589947</ele>
        <time>2025-02-05T11:26:48.310Z</time>
      </trkpt>
      <trkpt lat="43.93794" lon="4.57676">
        <ele>66.393044</ele>
        <time>2025-02-05T11:26:50.324Z</time>
      </trkpt>
      <trkpt lat="43.93783" lon="4.57672">
        <ele>66.216866</ele>
        <time>2025-02-05T11:26:52.306Z</time>
      </trkpt>
      <trkpt lat="43.93771" lon="4.57667">
        <ele>66.034627</ele>
        <time>2025-02-05T11:26:54.316Z</time>
      </trkpt>
      <trkpt lat="43.9376" lon="4.57658">
        <ele>65.844133</ele>
        <time>2025-02-05T11:26:56.317Z</time>
      </trkpt>
      <trkpt lat="43.93753" lon="4.57645">
        <ele>65.667142</ele>
        <time>2025-02-05T11:26:58.310Z</time>
      </trkpt>
      <trkpt lat="43.93752" lon="4.5763">
        <ele>65.50065</ele>
        <time>2025-02-05T11:27:00.308Z</time>
      </trkpt>
      <trkpt lat="43.93754" lon="4.57614">
        <ele>65.323959</ele>
        <time>2025-02-05T11:27:02.321Z</time>
      </trkpt>
      <trkpt lat="43.93755" lon="4.57599">
        <ele>65.161739</ele>
        <time>2025-02-05T11:27:04.312Z</time>
      </trkpt>
      <trkpt lat="43.93756" lon="4.57585">
        <ele>65.015117</ele>
        <time>2025-02-05T11:27:06.316Z</time>
      </trkpt>
      <trkpt lat="43.93757" lon="4.57572">
        <ele>64.876322</ele>
        <time>2025-02-05T11:27:08.310Z</time>
      </trkpt>
      <trkpt lat="43.93758" lon="4.5756">
        <ele>64.931783</ele>
        <time>2025-02-05T11:27:10.303Z</time>
      </trkpt>
      <trkpt lat="43.93762" lon="4.57543">
        <ele>65.258266</ele>
        <time>2025-02-05T11:27:13.531Z</time>
      </trkpt>
      <trkpt lat="43.93764" lon="4.57526">
        <ele>65.577754</ele>
        <time>2025-02-05T11:27:16.302Z</time>
      </trkpt>
      <trkpt lat="43.93765" lon="4.5751">
        <ele>65.875068</ele>
        <time>2025-02-05T11:27:19.310Z</time>
      </trkpt>
      <trkpt lat="43.93767" lon="4.57494">
        <ele>66.165392</ele>
        <time>2025-02-05T11:27:22.300Z</time>
      </trkpt>
      <trkpt lat="43.93768" lon="4.57479">
        <ele>66.445776</ele>
        <time>2025-02-05T11:27:25.318Z</time>
      </trkpt>
      <trkpt lat="43.9377" lon="4.57465">
        <ele>66.716644</ele>
        <time>2025-02-05T11:27:28.298Z</time>
      </trkpt>
      <trkpt lat="43.93772" lon="4.57451">
        <ele>66.973476</ele>
        <time>2025-02-05T11:27:31.310Z</time>
      </trkpt>
      <trkpt lat="43.93774" lon="4.57437">
        <ele>67.231592</ele>
        <time>2025-02-05T11:27:34.298Z</time>
      </trkpt>
      <trkpt lat="43.93776" lon="4.57424">
        <ele>67.481994</ele>
        <time>2025-02-05T11:27:37.309Z</time>
      </trkpt>
      <trkpt lat="43.93778" lon="4.57412">
        <ele>67.716085</ele>
        <time>2025-02-05T11:27:40.314Z</time>
      </trkpt>
      <trkpt lat="43.93779" lon="4.57399">
        <ele>67.955089</ele>
        <time>2025-02-05T11:27:43.317Z</time>
      </trkpt>
      <trkpt lat="43.93781" lon="4.57386">
        <ele>68.191604</ele>
        <time>2025-02-05T11:27:46.314Z</time>
      </trkpt>
      <trkpt lat="43.93782" lon="4.57374">
        <ele>68.430126</ele>
        <time>2025-02-05T11:27:49.319Z</time>
      </trkpt>
      <trkpt lat="43.93783" lon="4.57358">
        <ele>68.725326</ele>
        <time>2025-02-05T11:27:53.334Z</time>
      </trkpt>
      <trkpt lat="43.93784" lon="4.57343">
        <ele>68.999039</ele>
        <time>2025-02-05T11:27:57.319Z</time>
      </trkpt>
      <trkpt lat="43.93784" lon="4.57328">
        <ele>69.268639</ele>
        <time>2025-02-05T11:28:01.300Z</time>
      </trkpt>
      <trkpt lat="43.93784" lon="4.57313">
        <ele>69.441744</ele>
        <time>2025-02-05T11:28:05.322Z</time>
      </trkpt>
      <trkpt lat="43.93784" lon="4.57299">
        <ele>69.483033</ele>
        <time>2025-02-05T11:28:09.300Z</time>
      </trkpt>
      <trkpt lat="43.93784" lon="4.57284">
        <ele>69.526147</ele>
        <time>2025-02-05T11:28:13.327Z</time>
      </trkpt>
      <trkpt lat="43.93783" lon="4.57268">
        <ele>69.570143</ele>
        <time>2025-02-05T11:28:17.313Z</time>
      </trkpt>
      <trkpt lat="43.93782" lon="4.57255">
        <ele>69.609395</ele>
        <time>2025-02-05T11:28:21.317Z</time>
      </trkpt>
      <trkpt lat="43.93779" lon="4.57241">
        <ele>69.648913</ele>
        <time>2025-02-05T11:28:25.305Z</time>
      </trkpt>
      <trkpt lat="43.93774" lon="4.57227">
        <ele>69.693839</ele>
        <time>2025-02-05T11:28:29.320Z</time>
      </trkpt>
      <trkpt lat="43.93771" lon="4.57215">
        <ele>69.72962</ele>
        <time>2025-02-05T11:28:32.326Z</time>
      </trkpt>
      <trkpt lat="43.93766" lon="4.572">
        <ele>69.776201</ele>
        <time>2025-02-05T11:28:36.319Z</time>
      </trkpt>
      <trkpt lat="43.93762" lon="4.57188">
        <ele>69.81441</ele>
        <time>2025-02-05T11:28:39.317Z</time>
      </trkpt>
      <trkpt lat="43.93757" lon="4.57176">
        <ele>69.8536</ele>
        <time>2025-02-05T11:28:42.320Z</time>
      </trkpt>
      <trkpt lat="43.93753" lon="4.57164">
        <ele>69.892363</ele>
        <time>2025-02-05T11:28:45.324Z</time>
      </trkpt>
      <trkpt lat="43.93749" lon="4.57151">
        <ele>69.932255</ele>
        <time>2025-02-05T11:28:48.321Z</time>
      </trkpt>
      <trkpt lat="43.93745" lon="4.57138">
        <ele>69.971832</ele>
        <time>2025-02-05T11:28:51.336Z</time>
      </trkpt>
      <trkpt lat="43.93741" lon="4.57125">
        <ele>70.012767</ele>
        <time>2025-02-05T11:28:54.331Z</time>
      </trkpt>
      <trkpt lat="43.93737" lon="4.57112">
        <ele>70.054121</ele>
        <time>2025-02-05T11:28:57.324Z</time>
      </trkpt>
      <trkpt lat="43.93733" lon="4.57099">
        <ele>70.093493</ele>
        <time>2025-02-05T11:29:00.321Z</time>
      </trkpt>
      <trkpt lat="43.93728" lon="4.57086">
        <ele>70.134778</ele>
        <time>2025-02-05T11:29:03.326Z</time>
      </trkpt>
      <trkpt lat="43.93724" lon="4.57072">
        <ele>70.186568</ele>
        <time>2025-02-05T11:29:06.344Z</time>
      </trkpt>
      <trkpt lat="43.93719" lon="4.57059">
        <ele>70.237886</ele>
        <time>2025-02-05T11:29:09.314Z</time>
      </trkpt>
      <trkpt lat="43.93714" lon="4.57045">
        <ele>70.28816</ele>
        <time>2025-02-05T11:29:12.323Z</time>
      </trkpt>
      <trkpt lat="43.9371" lon="4.57033">
        <ele>70.335137</ele>
        <time>2025-02-05T11:29:15.301Z</time>
      </trkpt>
      <trkpt lat="43.93706" lon="4.57021">
        <ele>70.380481</ele>
        <time>2025-02-05T11:29:18.318Z</time>
      </trkpt>
      <trkpt lat="43.93701" lon="4.57006">
        <ele>70.435881</ele>
        <time>2025-02-05T11:29:22.318Z</time>
      </trkpt>
      <trkpt lat="43.93697" lon="4.5699">
        <ele>70.492482</ele>
        <time>2025-02-05T11:29:26.327Z</time>
      </trkpt>
      <trkpt lat="43.93692" lon="4.56976">
        <ele>70.547259</ele>
        <time>2025-02-05T11:29:30.298Z</time>
      </trkpt>
      <trkpt lat="43.93689" lon="4.56962">
        <ele>70.594401</ele>
        <time>2025-02-05T11:29:33.305Z</time>
      </trkpt>
      <trkpt lat="43.93689" lon="4.56948">
        <ele>70.643105</ele>
        <time>2025-02-05T11:29:36.315Z</time>
      </trkpt>
      <trkpt lat="43.93692" lon="4.56934">
        <ele>70.691807</ele>
        <time>2025-02-05T11:29:39.311Z</time>
      </trkpt>
      <trkpt lat="43.93695" lon="4.56921">
        <ele>70.738019</ele>
        <time>2025-02-05T11:29:42.336Z</time>
      </trkpt>
      <trkpt lat="43.93698" lon="4.56909">
        <ele>70.784362</ele>
        <time>2025-02-05T11:29:45.325Z</time>
      </trkpt>
      <trkpt lat="43.937" lon="4.56895">
        <ele>70.831878</ele>
        <time>2025-02-05T11:29:48.309Z</time>
      </trkpt>
      <trkpt lat="43.93702" lon="4.56881">
        <ele>70.879059</ele>
        <time>2025-02-05T11:29:51.325Z</time>
      </trkpt>
      <trkpt lat="43.93705" lon="4.56869">
        <ele>70.925084</ele>
        <time>2025-02-05T11:29:54.324Z</time>
      </trkpt>
      <trkpt lat="43.93707" lon="4.56855">
        <ele>70.973877</ele>
        <time>2025-02-05T11:29:57.322Z</time>
      </trkpt>
      <trkpt lat="43.9371" lon="4.56841">
        <ele>70.974452</ele>
        <time>2025-02-05T11:30:00.333Z</time>
      </trkpt>
      <trkpt lat="43.93712" lon="4.56826">
        <ele>70.960162</ele>
        <time>2025-02-05T11:30:03.324Z</time>
      </trkpt>
      <trkpt lat="43.93714" lon="4.56812">
        <ele>70.945982</ele>
        <time>2025-02-05T11:30:06.324Z</time>
      </trkpt>
      <trkpt lat="43.93717" lon="4.56798">
        <ele>70.932079</ele>
        <time>2025-02-05T11:30:09.319Z</time>
      </trkpt>
      <trkpt lat="43.93719" lon="4.56783">
        <ele>70.917813</ele>
        <time>2025-02-05T11:30:12.329Z</time>
      </trkpt>
      <trkpt lat="43.93722" lon="4.56769">
        <ele>70.903799</ele>
        <time>2025-02-05T11:30:15.315Z</time>
      </trkpt>
      <trkpt lat="43.93724" lon="4.56755">
        <ele>70.890426</ele>
        <time>2025-02-05T11:30:18.318Z</time>
      </trkpt>
      <trkpt lat="43.93727" lon="4.56741">
        <ele>70.876561</ele>
        <time>2025-02-05T11:30:21.324Z</time>
      </trkpt>
      <trkpt lat="43.93728" lon="4.56727">
        <ele>70.863064</ele>
        <time>2025-02-05T11:30:24.312Z</time>
      </trkpt>
      <trkpt lat="43.93729" lon="4.56713">
        <ele>70.850082</ele>
        <time>2025-02-05T11:30:27.313Z</time>
      </trkpt>
      <trkpt lat="43.93729" lon="4.567">
        <ele>70.837801</ele>
        <time>2025-02-05T11:30:30.314Z</time>
      </trkpt>
      <trkpt lat="43.9373" lon="4.56687">
        <ele>70.825236</ele>
        <time>2025-02-05T11:30:33.317Z</time>
      </trkpt>
      <trkpt lat="43.9373" lon="4.56674">
        <ele>70.812497</ele>
        <time>2025-02-05T11:30:36.325Z</time>
      </trkpt>
      <trkpt lat="43.93729" lon="4.56661">
        <ele>70.799916</ele>
        <time>2025-02-05T11:30:39.312Z</time>
      </trkpt>
      <trkpt lat="43.93728" lon="4.56648">
        <ele>70.788055</ele>
        <time>2025-02-05T11:30:42.320Z</time>
      </trkpt>
      <trkpt lat="43.93729" lon="4.56633">
        <ele>70.773386</ele>
        <time>2025-02-05T11:30:46.327Z</time>
      </trkpt>
      <trkpt lat="43.93728" lon="4.56612">
        <ele>70.753693</ele>
        <time>2025-02-05T11:31:21.313Z</time>
      </trkpt>
      <trkpt lat="43.93727" lon="4.56598">
        <ele>70.756871</ele>
        <time>2025-02-05T11:31:25.301Z</time>
      </trkpt>
      <trkpt lat="43.93727" lon="4.56584">
        <ele>70.774887</ele>
        <time>2025-02-05T11:31:29.311Z</time>
      </trkpt>
      <trkpt lat="43.93725" lon="4.5657">
        <ele>70.7942</ele>
        <time>2025-02-05T11:31:34.325Z</time>
      </trkpt>
      <trkpt lat="43.93724" lon="4.56557">
        <ele>70.811423</ele>
        <time>2025-02-05T11:31:38.339Z</time>
      </trkpt>
      <trkpt lat="43.93724" lon="4.56541">
        <ele>70.831674</ele>
        <time>2025-02-05T11:31:42.332Z</time>
      </trkpt>
      <trkpt lat="43.93728" lon="4.56526">
        <ele>70.852595</ele>
        <time>2025-02-05T11:31:46.310Z</time>
      </trkpt>
      <trkpt lat="43.93737" lon="4.56518">
        <ele>70.872271</ele>
        <time>2025-02-05T11:31:50.321Z</time>
      </trkpt>
      <trkpt lat="43.93746" lon="4.56513">
        <ele>70.89</ele>
        <time>2025-02-05T11:31:54.323Z</time>
      </trkpt>
      <trkpt lat="43.93756" lon="4.56508">
        <ele>70.909275</ele>
        <time>2025-02-05T11:31:58.298Z</time>
      </trkpt>
      <trkpt lat="43.93765" lon="4.56508">
        <ele>70.926071</ele>
        <time>2025-02-05T11:32:01.308Z</time>
      </trkpt>
      <trkpt lat="43.93774" lon="4.56508">
        <ele>70.942682</ele>
        <time>2025-02-05T11:32:04.316Z</time>
      </trkpt>
      <trkpt lat="43.93783" lon="4.56509">
        <ele>70.959368</ele>
        <time>2025-02-05T11:32:07.313Z</time>
      </trkpt>
      <trkpt lat="43.93793" lon="4.5651">
        <ele>70.977145</ele>
        <time>2025-02-05T11:32:10.304Z</time>
      </trkpt>
      <trkpt lat="43.93802" lon="4.56511">
        <ele>70.993857</ele>
        <time>2025-02-05T11:32:13.313Z</time>
      </trkpt>
      <trkpt lat="43.93813" lon="4.56513">
        <ele>71.015331</ele>
        <time>2025-02-05T11:32:17.306Z</time>
      </trkpt>
      <trkpt lat="43.93825" lon="4.56512">
        <ele>71.036161</ele>
        <time>2025-02-05T11:32:21.315Z</time>
      </trkpt>
      <trkpt lat="43.93836" lon="4.56514">
        <ele>71.056774</ele>
        <time>2025-02-05T11:32:25.309Z</time>
      </trkpt>
      <trkpt lat="43.93847" lon="4.56516">
        <ele>71.0641</ele>
        <time>2025-02-05T11:32:29.313Z</time>
      </trkpt>
      <trkpt lat="43.93858" lon="4.56511">
        <ele>70.887878</ele>
        <time>2025-02-05T11:32:33.321Z</time>
      </trkpt>
      <trkpt lat="43.93865" lon="4.56502">
        <ele>70.750991</ele>
        <time>2025-02-05T11:32:36.338Z</time>
      </trkpt>
      <trkpt lat="43.93871" lon="4.56492">
        <ele>70.613505</ele>
        <time>2025-02-05T11:32:39.316Z</time>
      </trkpt>
      <trkpt lat="43.93877" lon="4.56484">
        <ele>70.477447</ele>
        <time>2025-02-05T11:32:42.322Z</time>
      </trkpt>
      <trkpt lat="43.93886" lon="4.56478">
        <ele>70.330375</ele>
        <time>2025-02-05T11:32:46.304Z</time>
      </trkpt>
      <trkpt lat="43.93895" lon="4.56474">
        <ele>70.192662</ele>
        <time>2025-02-05T11:33:06.314Z</time>
      </trkpt>
      <trkpt lat="43.93899" lon="4.56462">
        <ele>70.053239</ele>
        <time>2025-02-05T11:33:09.320Z</time>
      </trkpt>
      <trkpt lat="43.93899" lon="4.56448">
        <ele>69.900746</ele>
        <time>2025-02-05T11:33:12.312Z</time>
      </trkpt>
      <trkpt lat="43.93898" lon="4.56433">
        <ele>69.745855</ele>
        <time>2025-02-05T11:33:15.304Z</time>
      </trkpt>
      <trkpt lat="43.93898" lon="4.5642">
        <ele>69.601891</ele>
        <time>2025-02-05T11:33:18.309Z</time>
      </trkpt>
      <trkpt lat="43.93897" lon="4.56407">
        <ele>69.456432</ele>
        <time>2025-02-05T11:33:21.314Z</time>
      </trkpt>
      <trkpt lat="43.93896" lon="4.56393">
        <ele>69.310173</ele>
        <time>2025-02-05T11:33:24.304Z</time>
      </trkpt>
      <trkpt lat="43.93895" lon="4.5638">
        <ele>69.16517</ele>
        <time>2025-02-05T11:33:27.308Z</time>
      </trkpt>
      <trkpt lat="43.93893" lon="4.56366">
        <ele>69.012326</ele>
        <time>2025-02-05T11:33:30.318Z</time>
      </trkpt>
      <trkpt lat="43.93892" lon="4.56352">
        <ele>68.86323</ele>
        <time>2025-02-05T11:33:33.316Z</time>
      </trkpt>
      <trkpt lat="43.93891" lon="4.56338">
        <ele>68.716701</ele>
        <time>2025-02-05T11:33:36.303Z</time>
      </trkpt>
      <trkpt lat="43.93891" lon="4.56324">
        <ele>68.566245</ele>
        <time>2025-02-05T11:33:39.302Z</time>
      </trkpt>
      <trkpt lat="43.93891" lon="4.5631">
        <ele>68.419121</ele>
        <time>2025-02-05T11:33:42.304Z</time>
      </trkpt>
      <trkpt lat="43.9389" lon="4.56298">
        <ele>68.412616</ele>
        <time>2025-02-05T11:33:45.312Z</time>
      </trkpt>
      <trkpt lat="43.93891" lon="4.56285">
        <ele>68.437372</ele>
        <time>2025-02-05T11:33:48.309Z</time>
      </trkpt>
      <trkpt lat="43.93891" lon="4.56269">
        <ele>68.466623</ele>
        <time>2025-02-05T11:33:52.307Z</time>
      </trkpt>
      <trkpt lat="43.9389" lon="4.56256">
        <ele>68.491461</ele>
        <time>2025-02-05T11:33:56.313Z</time>
      </trkpt>
      <trkpt lat="43.93889" lon="4.56232">
        <ele>68.536099</ele>
        <time>2025-02-05T11:34:22.346Z</time>
      </trkpt>
      <trkpt lat="43.93889" lon="4.56218">
        <ele>68.56316</ele>
        <time>2025-02-05T11:34:26.309Z</time>
      </trkpt>
      <trkpt lat="43.93888" lon="4.56205">
        <ele>68.586959</ele>
        <time>2025-02-05T11:34:29.307Z</time>
      </trkpt>
      <trkpt lat="43.93887" lon="4.56192">
        <ele>68.611073</ele>
        <time>2025-02-05T11:34:32.319Z</time>
      </trkpt>
      <trkpt lat="43.93886" lon="4.56176">
        <ele>68.641091</ele>
        <time>2025-02-05T11:34:36.329Z</time>
      </trkpt>
      <trkpt lat="43.93886" lon="4.56161">
        <ele>68.669634</ele>
        <time>2025-02-05T11:34:40.316Z</time>
      </trkpt>
      <trkpt lat="43.93884" lon="4.56145">
        <ele>68.699111</ele>
        <time>2025-02-05T11:34:44.320Z</time>
      </trkpt>
      <trkpt lat="43.93883" lon="4.56133">
        <ele>68.72257</ele>
        <time>2025-02-05T11:34:47.309Z</time>
      </trkpt>
      <trkpt lat="43.93883" lon="4.56117">
        <ele>68.753338</ele>
        <time>2025-02-05T11:34:51.312Z</time>
      </trkpt>
      <trkpt lat="43.93882" lon="4.56103">
        <ele>68.779038</ele>
        <time>2025-02-05T11:34:54.317Z</time>
      </trkpt>
      <trkpt lat="43.93882" lon="4.5609">
        <ele>68.80401</ele>
        <time>2025-02-05T11:34:57.316Z</time>
      </trkpt>
      <trkpt lat="43.93882" lon="4.56077">
        <ele>68.82821</ele>
        <time>2025-02-05T11:35:00.329Z</time>
      </trkpt>
      <trkpt lat="43.93881" lon="4.56061">
        <ele>68.85822</ele>
        <time>2025-02-05T11:35:04.332Z</time>
      </trkpt>
      <trkpt lat="43.93881" lon="4.56046">
        <ele>69.081338</ele>
        <time>2025-02-05T11:35:08.326Z</time>
      </trkpt>
      <trkpt lat="43.93881" lon="4.56033">
        <ele>69.304754</ele>
        <time>2025-02-05T11:35:12.333Z</time>
      </trkpt>
      <trkpt lat="43.93881" lon="4.56018">
        <ele>69.549276</ele>
        <time>2025-02-05T11:35:17.322Z</time>
      </trkpt>
      <trkpt lat="43.93885" lon="4.56005">
        <ele>69.784181</ele>
        <time>2025-02-05T11:35:23.308Z</time>
      </trkpt>
      <trkpt lat="43.93899" lon="4.56008">
        <ele>70.109263</ele>
        <time>2025-02-05T11:35:53.311Z</time>
      </trkpt>
      <trkpt lat="43.93909" lon="4.56009">
        <ele>70.345387</ele>
        <time>2025-02-05T11:35:58.319Z</time>
      </trkpt>
      <trkpt lat="43.93915" lon="4.56">
        <ele>70.559819</ele>
        <time>2025-02-05T11:36:06.313Z</time>
      </trkpt>
      <trkpt lat="43.93925" lon="4.55997">
        <ele>70.802323</ele>
        <time>2025-02-05T11:36:16.339Z</time>
      </trkpt>
      <trkpt lat="43.93934" lon="4.55998">
        <ele>71.026284</ele>
        <time>2025-02-05T11:36:20.303Z</time>
      </trkpt>
      <trkpt lat="43.93943" lon="4.55999">
        <ele>71.238156</ele>
        <time>2025-02-05T11:36:23.321Z</time>
      </trkpt>
      <trkpt lat="43.93954" lon="4.55998">
        <ele>71.493149</ele>
        <time>2025-02-05T11:36:27.328Z</time>
      </trkpt>
      <trkpt lat="43.93965" lon="4.55998">
        <ele>71.749365</ele>
        <time>2025-02-05T11:36:32.319Z</time>
      </trkpt>
      <trkpt lat="43.93977" lon="4.55999">
        <ele>72.02432</ele>
        <time>2025-02-05T11:36:37.332Z</time>
      </trkpt>
      <trkpt lat="43.93986" lon="4.56">
        <ele>72.23907</ele>
        <time>2025-02-05T11:36:40.330Z</time>
      </trkpt>
      <trkpt lat="43.93976" lon="4.55994">
        <ele>72.489339</ele>
        <time>2025-02-05T11:37:34.327Z</time>
      </trkpt>
      <trkpt lat="43.93965" lon="4.55994">
        <ele>72.738368</ele>
        <time>2025-02-05T11:37:38.408Z</time>
      </trkpt>
      <trkpt lat="43.93955" lon="4.55994">
        <ele>72.982792</ele>
        <time>2025-02-05T11:37:42.318Z</time>
      </trkpt>
      <trkpt lat="43.93945" lon="4.55995">
        <ele>73.070356</ele>
        <time>2025-02-05T11:37:46.335Z</time>
      </trkpt>
      <trkpt lat="43.93934" lon="4.55993">
        <ele>73.03988</ele>
        <time>2025-02-05T11:37:50.324Z</time>
      </trkpt>
      <trkpt lat="43.93923" lon="4.55994">
        <ele>73.009836</ele>
        <time>2025-02-05T11:37:54.325Z</time>
      </trkpt>
      <trkpt lat="43.93913" lon="4.55993">
        <ele>72.979445</ele>
        <time>2025-02-05T11:37:58.294Z</time>
      </trkpt>
      <trkpt lat="43.93903" lon="4.5599">
        <ele>72.951239</ele>
        <time>2025-02-05T11:38:02.315Z</time>
      </trkpt>
      <trkpt lat="43.93894" lon="4.55989">
        <ele>72.925139</ele>
        <time>2025-02-05T11:38:06.317Z</time>
      </trkpt>
      <trkpt lat="43.93887" lon="4.55999">
        <ele>72.897838</ele>
        <time>2025-02-05T11:38:11.311Z</time>
      </trkpt>
      <trkpt lat="43.93874" lon="4.56009">
        <ele>72.856418</ele>
        <time>2025-02-05T11:39:35.319Z</time>
      </trkpt>
      <trkpt lat="43.93877" lon="4.56023">
        <ele>72.82598</ele>
        <time>2025-02-05T11:40:06.314Z</time>
      </trkpt>
      <trkpt lat="43.93877" lon="4.56037">
        <ele>72.798205</ele>
        <time>2025-02-05T11:40:10.337Z</time>
      </trkpt>
      <trkpt lat="43.93879" lon="4.56053">
        <ele>72.765068</ele>
        <time>2025-02-05T11:40:14.321Z</time>
      </trkpt>
      <trkpt lat="43.9388" lon="4.56066">
        <ele>72.73869</ele>
        <time>2025-02-05T11:40:18.329Z</time>
      </trkpt>
      <trkpt lat="43.93882" lon="4.5608">
        <ele>72.70992</ele>
        <time>2025-02-05T11:40:23.315Z</time>
      </trkpt>
      <trkpt lat="43.93882" lon="4.56093">
        <ele>72.682132</ele>
        <time>2025-02-05T11:40:27.311Z</time>
      </trkpt>
      <trkpt lat="43.93881" lon="4.56106">
        <ele>72.65636</ele>
        <time>2025-02-05T11:40:31.316Z</time>
      </trkpt>
      <trkpt lat="43.9388" lon="4.5612">
        <ele>72.627014</ele>
        <time>2025-02-05T11:40:36.321Z</time>
      </trkpt>
      <trkpt lat="43.93881" lon="4.56134">
        <ele>72.598131</ele>
        <time>2025-02-05T11:40:41.322Z</time>
      </trkpt>
      <trkpt lat="43.93885" lon="4.56146">
        <ele>72.552133</ele>
        <time>2025-02-05T11:40:48.344Z</time>
      </trkpt>
      <trkpt lat="43.93886" lon="4.56159">
        <ele>72.433978</ele>
        <time>2025-02-05T11:40:54.327Z</time>
      </trkpt>
      <trkpt lat="43.93887" lon="4.56172">
        <ele>72.313262</ele>
        <time>2025-02-05T11:40:58.316Z</time>
      </trkpt>
      <trkpt lat="43.93885" lon="4.56185">
        <ele>72.188567</ele>
        <time>2025-02-05T11:41:02.328Z</time>
      </trkpt>
      <trkpt lat="43.93885" lon="4.562">
        <ele>72.052311</ele>
        <time>2025-02-05T11:41:06.319Z</time>
      </trkpt>
      <trkpt lat="43.93885" lon="4.56213">
        <ele>71.929972</ele>
        <time>2025-02-05T11:41:10.314Z</time>
      </trkpt>
      <trkpt lat="43.93886" lon="4.56226">
        <ele>71.81031</ele>
        <time>2025-02-05T11:41:14.316Z</time>
      </trkpt>
      <trkpt lat="43.93886" lon="4.5624">
        <ele>71.685239</ele>
        <time>2025-02-05T11:41:19.318Z</time>
      </trkpt>
      <trkpt lat="43.93886" lon="4.56254">
        <ele>71.558323</ele>
        <time>2025-02-05T11:41:26.332Z</time>
      </trkpt>
      <trkpt lat="43.93882" lon="4.56242">
        <ele>71.442254</ele>
        <time>2025-02-05T12:53:16.299Z</time>
      </trkpt>
      <trkpt lat="43.93884" lon="4.56228">
        <ele>71.311238</ele>
        <time>2025-02-05T12:53:22.311Z</time>
      </trkpt>
      <trkpt lat="43.93883" lon="4.56214">
        <ele>71.17963</ele>
        <time>2025-02-05T12:53:27.297Z</time>
      </trkpt>
      <trkpt lat="43.93883" lon="4.562">
        <ele>71.049016</ele>
        <time>2025-02-05T12:53:32.317Z</time>
      </trkpt>
      <trkpt lat="43.93881" lon="4.56187">
        <ele>70.932029</ele>
        <time>2025-02-05T12:53:37.290Z</time>
      </trkpt>
      <trkpt lat="43.93879" lon="4.56175">
        <ele>70.813373</ele>
        <time>2025-02-05T12:53:44.291Z</time>
      </trkpt>
      <trkpt lat="43.93879" lon="4.56155">
        <ele>70.635717</ele>
        <time>2025-02-05T12:54:07.300Z</time>
      </trkpt>
      <trkpt lat="43.93878" lon="4.56142">
        <ele>70.51023</ele>
        <time>2025-02-05T12:54:11.315Z</time>
      </trkpt>
      <trkpt lat="43.93877" lon="4.56128">
        <ele>70.3828</ele>
        <time>2025-02-05T12:54:15.296Z</time>
      </trkpt>
      <trkpt lat="43.93876" lon="4.56113">
        <ele>70.25891</ele>
        <time>2025-02-05T12:54:19.296Z</time>
      </trkpt>
      <trkpt lat="43.93876" lon="4.56097">
        <ele>70.165005</ele>
        <time>2025-02-05T12:54:23.306Z</time>
      </trkpt>
      <trkpt lat="43.93876" lon="4.56084">
        <ele>70.08415</ele>
        <time>2025-02-05T12:54:27.310Z</time>
      </trkpt>
      <trkpt lat="43.93877" lon="4.5607">
        <ele>69.999028</ele>
        <time>2025-02-05T12:54:31.298Z</time>
      </trkpt>
      <trkpt lat="43.93877" lon="4.56055">
        <ele>69.909876</ele>
        <time>2025-02-05T12:54:35.307Z</time>
      </trkpt>
      <trkpt lat="43.93877" lon="4.56038">
        <ele>69.81417</ele>
        <time>2025-02-05T12:54:39.305Z</time>
      </trkpt>
      <trkpt lat="43.93876" lon="4.56023">
        <ele>69.720189</ele>
        <time>2025-02-05T12:54:43.312Z</time>
      </trkpt>
      <trkpt lat="43.93876" lon="4.5601">
        <ele>69.643491</ele>
        <time>2025-02-05T12:54:47.286Z</time>
      </trkpt>
      <trkpt lat="43.93876" lon="4.55997">
        <ele>69.567316</ele>
        <time>2025-02-05T12:54:51.316Z</time>
      </trkpt>
      <trkpt lat="43.93873" lon="4.55984">
        <ele>69.483927</ele>
        <time>2025-02-05T12:54:56.306Z</time>
      </trkpt>
      <trkpt lat="43.93866" lon="4.55971">
        <ele>69.392218</ele>
        <time>2025-02-05T12:55:01.290Z</time>
      </trkpt>
      <trkpt lat="43.93869" lon="4.55958">
        <ele>69.315942</ele>
        <time>2025-02-05T12:55:06.306Z</time>
      </trkpt>
      <trkpt lat="43.93864" lon="4.55944">
        <ele>69.223955</ele>
        <time>2025-02-05T12:55:11.303Z</time>
      </trkpt>
      <trkpt lat="43.93856" lon="4.55932">
        <ele>69.129206</ele>
        <time>2025-02-05T12:55:15.285Z</time>
      </trkpt>
      <trkpt lat="43.9385" lon="4.55918">
        <ele>69.031267</ele>
        <time>2025-02-05T12:55:19.299Z</time>
      </trkpt>
      <trkpt lat="43.93845" lon="4.55906">
        <ele>68.948464</ele>
        <time>2025-02-05T12:55:23.292Z</time>
      </trkpt>
      <trkpt lat="43.93839" lon="4.55896">
        <ele>68.870323</ele>
        <time>2025-02-05T12:55:29.310Z</time>
      </trkpt>
      <trkpt lat="43.93836" lon="4.5588">
        <ele>68.83183</ele>
        <time>2025-02-05T12:55:49.307Z</time>
      </trkpt>
      <trkpt lat="43.93829" lon="4.55869">
        <ele>68.98234</ele>
        <time>2025-02-05T12:55:54.311Z</time>
      </trkpt>
      <trkpt lat="43.93823" lon="4.55857">
        <ele>69.132038</ele>
        <time>2025-02-05T12:55:59.296Z</time>
      </trkpt>
      <trkpt lat="43.93817" lon="4.55846">
        <ele>69.270111</ele>
        <time>2025-02-05T12:56:04.307Z</time>
      </trkpt>
      <trkpt lat="43.93821" lon="4.5583">
        <ele>69.442432</ele>
        <time>2025-02-05T12:56:31.297Z</time>
      </trkpt>
      <trkpt lat="43.93814" lon="4.55818">
        <ele>69.590672</ele>
        <time>2025-02-05T12:56:35.303Z</time>
      </trkpt>
      <trkpt lat="43.93809" lon="4.55808">
        <ele>69.717999</ele>
        <time>2025-02-05T12:56:38.290Z</time>
      </trkpt>
      <trkpt lat="43.93803" lon="4.55798">
        <ele>69.851123</ele>
        <time>2025-02-05T12:56:41.305Z</time>
      </trkpt>
      <trkpt lat="43.93798" lon="4.55788">
        <ele>69.978451</ele>
        <time>2025-02-05T12:56:44.305Z</time>
      </trkpt>
      <trkpt lat="43.93793" lon="4.55777">
        <ele>70.111565</ele>
        <time>2025-02-05T12:56:48.313Z</time>
      </trkpt>
      <trkpt lat="43.93787" lon="4.55767">
        <ele>70.238155</ele>
        <time>2025-02-05T12:56:52.301Z</time>
      </trkpt>
      <trkpt lat="43.93782" lon="4.55757">
        <ele>70.366358</ele>
        <time>2025-02-05T12:56:56.310Z</time>
      </trkpt>
      <trkpt lat="43.93776" lon="4.55745">
        <ele>70.514367</ele>
        <time>2025-02-05T12:57:00.303Z</time>
      </trkpt>
      <trkpt lat="43.93768" lon="4.55734">
        <ele>70.67056</ele>
        <time>2025-02-05T12:57:04.366Z</time>
      </trkpt>
      <trkpt lat="43.93761" lon="4.5572">
        <ele>70.840062</ele>
        <time>2025-02-05T12:57:08.314Z</time>
      </trkpt>
      <trkpt lat="43.93756" lon="4.5571">
        <ele>70.969048</ele>
        <time>2025-02-05T12:57:11.288Z</time>
      </trkpt>
      <trkpt lat="43.9375" lon="4.557">
        <ele>71.103071</ele>
        <time>2025-02-05T12:57:14.316Z</time>
      </trkpt>
      <trkpt lat="43.93744" lon="4.55689">
        <ele>71.24372</ele>
        <time>2025-02-05T12:57:17.313Z</time>
      </trkpt>
      <trkpt lat="43.93738" lon="4.55678">
        <ele>71.306719</ele>
        <time>2025-02-05T12:57:20.317Z</time>
      </trkpt>
      <trkpt lat="43.93732" lon="4.55667">
        <ele>71.170175</ele>
        <time>2025-02-05T12:57:23.304Z</time>
      </trkpt>
      <trkpt lat="43.93726" lon="4.55657">
        <ele>71.03181</ele>
        <time>2025-02-05T12:57:26.305Z</time>
      </trkpt>
      <trkpt lat="43.9372" lon="4.55645">
        <ele>70.895278</ele>
        <time>2025-02-05T12:57:29.305Z</time>
      </trkpt>
      <trkpt lat="43.93715" lon="4.55634">
        <ele>70.757015</ele>
        <time>2025-02-05T12:57:32.291Z</time>
      </trkpt>
      <trkpt lat="43.9371" lon="4.5562">
        <ele>70.604602</ele>
        <time>2025-02-05T12:57:35.302Z</time>
      </trkpt>
      <trkpt lat="43.93708" lon="4.55606">
        <ele>70.462281</ele>
        <time>2025-02-05T12:57:38.295Z</time>
      </trkpt>
      <trkpt lat="43.93709" lon="4.55593">
        <ele>70.326188</ele>
        <time>2025-02-05T12:57:41.295Z</time>
      </trkpt>
      <trkpt lat="43.93714" lon="4.5558">
        <ele>70.188212</ele>
        <time>2025-02-05T12:57:45.333Z</time>
      </trkpt>
      <trkpt lat="43.93721" lon="4.55568">
        <ele>70.028019</ele>
        <time>2025-02-05T12:57:49.296Z</time>
      </trkpt>
      <trkpt lat="43.93728" lon="4.5556">
        <ele>69.900355</ele>
        <time>2025-02-05T12:57:52.300Z</time>
      </trkpt>
      <trkpt lat="43.93735" lon="4.55552">
        <ele>69.775026</ele>
        <time>2025-02-05T12:57:55.316Z</time>
      </trkpt>
      <trkpt lat="43.93743" lon="4.55542">
        <ele>69.627918</ele>
        <time>2025-02-05T12:57:59.294Z</time>
      </trkpt>
      <trkpt lat="43.93751" lon="4.55535">
        <ele>69.500583</ele>
        <time>2025-02-05T12:58:04.297Z</time>
      </trkpt>
      <trkpt lat="43.93762" lon="4.55522">
        <ele>69.300861</ele>
        <time>2025-02-05T12:58:38.315Z</time>
      </trkpt>
      <trkpt lat="43.93769" lon="4.55514">
        <ele>69.174898</ele>
        <time>2025-02-05T12:58:41.313Z</time>
      </trkpt>
      <trkpt lat="43.93777" lon="4.55506">
        <ele>69.031247</ele>
        <time>2025-02-05T12:58:44.312Z</time>
      </trkpt>
      <trkpt lat="43.93787" lon="4.55499">
        <ele>68.883158</ele>
        <time>2025-02-05T12:58:47.309Z</time>
      </trkpt>
      <trkpt lat="43.93797" lon="4.55493">
        <ele>68.830932</ele>
        <time>2025-02-05T12:58:50.305Z</time>
      </trkpt>
      <trkpt lat="43.93807" lon="4.55486">
        <ele>68.801127</ele>
        <time>2025-02-05T12:58:53.299Z</time>
      </trkpt>
      <trkpt lat="43.93818" lon="4.55479">
        <ele>68.76991</ele>
        <time>2025-02-05T12:58:56.304Z</time>
      </trkpt>
      <trkpt lat="43.9383" lon="4.55471">
        <ele>68.734971</ele>
        <time>2025-02-05T12:58:59.288Z</time>
      </trkpt>
      <trkpt lat="43.93842" lon="4.55462">
        <ele>68.699428</ele>
        <time>2025-02-05T12:59:02.305Z</time>
      </trkpt>
      <trkpt lat="43.9385" lon="4.55456">
        <ele>68.674445</ele>
        <time>2025-02-05T12:59:04.311Z</time>
      </trkpt>
      <trkpt lat="43.93859" lon="4.5545">
        <ele>68.648826</ele>
        <time>2025-02-05T12:59:06.316Z</time>
      </trkpt>
      <trkpt lat="43.93867" lon="4.55445">
        <ele>68.624653</ele>
        <time>2025-02-05T12:59:08.301Z</time>
      </trkpt>
      <trkpt lat="43.93875" lon="4.55439">
        <ele>68.60008</ele>
        <time>2025-02-05T12:59:10.311Z</time>
      </trkpt>
      <trkpt lat="43.93884" lon="4.55433">
        <ele>68.573746</ele>
        <time>2025-02-05T12:59:12.313Z</time>
      </trkpt>
      <trkpt lat="43.93893" lon="4.55428">
        <ele>68.548608</ele>
        <time>2025-02-05T12:59:14.313Z</time>
      </trkpt>
      <trkpt lat="43.93901" lon="4.55423">
        <ele>68.524355</ele>
        <time>2025-02-05T12:59:16.320Z</time>
      </trkpt>
      <trkpt lat="43.9391" lon="4.55417">
        <ele>68.49914</ele>
        <time>2025-02-05T12:59:18.303Z</time>
      </trkpt>
      <trkpt lat="43.93919" lon="4.55412">
        <ele>68.474087</ele>
        <time>2025-02-05T12:59:20.303Z</time>
      </trkpt>
      <trkpt lat="43.93927" lon="4.55406">
        <ele>68.449501</ele>
        <time>2025-02-05T12:59:22.304Z</time>
      </trkpt>
      <trkpt lat="43.93935" lon="4.554">
        <ele>68.425386</ele>
        <time>2025-02-05T12:59:24.305Z</time>
      </trkpt>
      <trkpt lat="43.93943" lon="4.55394">
        <ele>68.401095</ele>
        <time>2025-02-05T12:59:26.304Z</time>
      </trkpt>
      <trkpt lat="43.93955" lon="4.55384">
        <ele>68.366193</ele>
        <time>2025-02-05T12:59:29.307Z</time>
      </trkpt>
      <trkpt lat="43.93963" lon="4.55377">
        <ele>68.343721</ele>
        <time>2025-02-05T12:59:31.308Z</time>
      </trkpt>
      <trkpt lat="43.93971" lon="4.55371">
        <ele>68.322327</ele>
        <time>2025-02-05T12:59:33.304Z</time>
      </trkpt>
      <trkpt lat="43.93982" lon="4.55361">
        <ele>68.290739</ele>
        <time>2025-02-05T12:59:36.304Z</time>
      </trkpt>
      <trkpt lat="43.93993" lon="4.55351">
        <ele>68.259091</ele>
        <time>2025-02-05T12:59:39.307Z</time>
      </trkpt>
      <trkpt lat="43.94" lon="4.55344">
        <ele>68.23757</ele>
        <time>2025-02-05T12:59:41.301Z</time>
      </trkpt>
      <trkpt lat="43.94008" lon="4.55336">
        <ele>68.215949</ele>
        <time>2025-02-05T12:59:43.300Z</time>
      </trkpt>
      <trkpt lat="43.94016" lon="4.55329">
        <ele>68.193163</ele>
        <time>2025-02-05T12:59:45.298Z</time>
      </trkpt>
      <trkpt lat="43.94024" lon="4.55322">
        <ele>68.171216</ele>
        <time>2025-02-05T12:59:47.317Z</time>
      </trkpt>
      <trkpt lat="43.94032" lon="4.55315">
        <ele>68.148949</ele>
        <time>2025-02-05T12:59:49.299Z</time>
      </trkpt>
      <trkpt lat="43.9404" lon="4.55309">
        <ele>68.126937</ele>
        <time>2025-02-05T12:59:51.312Z</time>
      </trkpt>
      <trkpt lat="43.94048" lon="4.55302">
        <ele>68.104465</ele>
        <time>2025-02-05T12:59:53.294Z</time>
      </trkpt>
      <trkpt lat="43.94056" lon="4.55296">
        <ele>68.082536</ele>
        <time>2025-02-05T12:59:55.314Z</time>
      </trkpt>
      <trkpt lat="43.94064" lon="4.5529">
        <ele>68.061227</ele>
        <time>2025-02-05T12:59:57.313Z</time>
      </trkpt>
      <trkpt lat="43.94075" lon="4.55281">
        <ele>68.03051</ele>
        <time>2025-02-05T13:00:00.314Z</time>
      </trkpt>
      <trkpt lat="43.94086" lon="4.55272">
        <ele>68.000325</ele>
        <time>2025-02-05T13:00:03.306Z</time>
      </trkpt>
      <trkpt lat="43.94098" lon="4.55265">
        <ele>67.970274</ele>
        <time>2025-02-05T13:00:06.299Z</time>
      </trkpt>
      <trkpt lat="43.94109" lon="4.55257">
        <ele>67.93509</ele>
        <time>2025-02-05T13:00:09.293Z</time>
      </trkpt>
      <trkpt lat="43.94119" lon="4.5525">
        <ele>67.894727</ele>
        <time>2025-02-05T13:00:12.281Z</time>
      </trkpt>
      <trkpt lat="43.94129" lon="4.55242">
        <ele>67.85267</ele>
        <time>2025-02-05T13:00:15.305Z</time>
      </trkpt>
      <trkpt lat="43.9414" lon="4.55234">
        <ele>67.808178</ele>
        <time>2025-02-05T13:00:18.309Z</time>
      </trkpt>
      <trkpt lat="43.94151" lon="4.55226">
        <ele>67.762963</ele>
        <time>2025-02-05T13:00:21.291Z</time>
      </trkpt>
      <trkpt lat="43.94161" lon="4.55218">
        <ele>67.720197</ele>
        <time>2025-02-05T13:00:24.306Z</time>
      </trkpt>
      <trkpt lat="43.94172" lon="4.55212">
        <ele>67.678898</ele>
        <time>2025-02-05T13:00:27.302Z</time>
      </trkpt>
      <trkpt lat="43.94182" lon="4.55204">
        <ele>67.635389</ele>
        <time>2025-02-05T13:00:30.314Z</time>
      </trkpt>
      <trkpt lat="43.94194" lon="4.55196">
        <ele>67.588954</ele>
        <time>2025-02-05T13:00:33.309Z</time>
      </trkpt>
      <trkpt lat="43.94205" lon="4.55188">
        <ele>67.542822</ele>
        <time>2025-02-05T13:00:36.309Z</time>
      </trkpt>
      <trkpt lat="43.94217" lon="4.5518">
        <ele>67.495927</ele>
        <time>2025-02-05T13:00:39.308Z</time>
      </trkpt>
      <trkpt lat="43.94228" lon="4.55173">
        <ele>67.451667</ele>
        <time>2025-02-05T13:00:42.306Z</time>
      </trkpt>
      <trkpt lat="43.94238" lon="4.55165">
        <ele>67.410422</ele>
        <time>2025-02-05T13:00:45.309Z</time>
      </trkpt>
      <trkpt lat="43.94248" lon="4.55157">
        <ele>67.369985</ele>
        <time>2025-02-05T13:00:48.304Z</time>
      </trkpt>
      <trkpt lat="43.94257" lon="4.5515">
        <ele>67.331898</ele>
        <time>2025-02-05T13:00:51.316Z</time>
      </trkpt>
      <trkpt lat="43.94266" lon="4.55143">
        <ele>67.32053</ele>
        <time>2025-02-05T13:00:54.289Z</time>
      </trkpt>
      <trkpt lat="43.94277" lon="4.55136">
        <ele>67.403014</ele>
        <time>2025-02-05T13:00:57.303Z</time>
      </trkpt>
      <trkpt lat="43.94287" lon="4.55128">
        <ele>67.481297</ele>
        <time>2025-02-05T13:01:00.301Z</time>
      </trkpt>
      <trkpt lat="43.94296" lon="4.55121">
        <ele>67.552866</ele>
        <time>2025-02-05T13:01:03.305Z</time>
      </trkpt>
      <trkpt lat="43.94306" lon="4.55114">
        <ele>67.626488</ele>
        <time>2025-02-05T13:01:06.314Z</time>
      </trkpt>
      <trkpt lat="43.94315" lon="4.55107">
        <ele>67.698821</ele>
        <time>2025-02-05T13:01:09.305Z</time>
      </trkpt>
      <trkpt lat="43.94324" lon="4.551">
        <ele>67.77194</ele>
        <time>2025-02-05T13:01:12.300Z</time>
      </trkpt>
      <trkpt lat="43.94333" lon="4.55092">
        <ele>67.842785</ele>
        <time>2025-02-05T13:01:15.315Z</time>
      </trkpt>
      <trkpt lat="43.94341" lon="4.55084">
        <ele>67.908793</ele>
        <time>2025-02-05T13:01:18.299Z</time>
      </trkpt>
      <trkpt lat="43.94349" lon="4.55076">
        <ele>67.979876</ele>
        <time>2025-02-05T13:01:21.322Z</time>
      </trkpt>
      <trkpt lat="43.94358" lon="4.55068">
        <ele>68.050958</ele>
        <time>2025-02-05T13:01:24.312Z</time>
      </trkpt>
      <trkpt lat="43.94367" lon="4.5506">
        <ele>68.122313</ele>
        <time>2025-02-05T13:01:27.302Z</time>
      </trkpt>
      <trkpt lat="43.94376" lon="4.55052">
        <ele>68.197117</ele>
        <time>2025-02-05T13:01:30.309Z</time>
      </trkpt>
      <trkpt lat="43.94385" lon="4.55044">
        <ele>68.27409</ele>
        <time>2025-02-05T13:01:33.307Z</time>
      </trkpt>
      <trkpt lat="43.94395" lon="4.55036">
        <ele>68.349213</ele>
        <time>2025-02-05T13:01:36.307Z</time>
      </trkpt>
      <trkpt lat="43.94404" lon="4.55028">
        <ele>68.426025</ele>
        <time>2025-02-05T13:01:39.290Z</time>
      </trkpt>
      <trkpt lat="43.94413" lon="4.55021">
        <ele>68.49726</ele>
        <time>2025-02-05T13:01:42.300Z</time>
      </trkpt>
      <trkpt lat="43.94422" lon="4.55013">
        <ele>68.593116</ele>
        <time>2025-02-05T13:01:45.324Z</time>
      </trkpt>
      <trkpt lat="43.94431" lon="4.55005">
        <ele>68.718718</ele>
        <time>2025-02-05T13:01:48.292Z</time>
      </trkpt>
      <trkpt lat="43.9444" lon="4.54997">
        <ele>68.849293</ele>
        <time>2025-02-05T13:01:51.306Z</time>
      </trkpt>
      <trkpt lat="43.94449" lon="4.54988">
        <ele>68.982367</ele>
        <time>2025-02-05T13:01:54.304Z</time>
      </trkpt>
      <trkpt lat="43.94458" lon="4.5498">
        <ele>69.113523</ele>
        <time>2025-02-05T13:01:57.310Z</time>
      </trkpt>
      <trkpt lat="43.94467" lon="4.54972">
        <ele>69.2402</ele>
        <time>2025-02-05T13:02:00.320Z</time>
      </trkpt>
      <trkpt lat="43.94475" lon="4.54964">
        <ele>69.365337</ele>
        <time>2025-02-05T13:02:03.303Z</time>
      </trkpt>
      <trkpt lat="43.94484" lon="4.54955">
        <ele>69.501925</ele>
        <time>2025-02-05T13:02:06.309Z</time>
      </trkpt>
      <trkpt lat="43.94493" lon="4.54946">
        <ele>69.637076</ele>
        <time>2025-02-05T13:02:09.299Z</time>
      </trkpt>
      <trkpt lat="43.94502" lon="4.54937">
        <ele>69.774123</ele>
        <time>2025-02-05T13:02:12.300Z</time>
      </trkpt>
      <trkpt lat="43.94511" lon="4.54928">
        <ele>69.902249</ele>
        <time>2025-02-05T13:02:15.303Z</time>
      </trkpt>
      <trkpt lat="43.9452" lon="4.54921">
        <ele>70.031552</ele>
        <time>2025-02-05T13:02:18.280Z</time>
      </trkpt>
      <trkpt lat="43.94529" lon="4.54912">
        <ele>70.157642</ele>
        <time>2025-02-05T13:02:21.297Z</time>
      </trkpt>
      <trkpt lat="43.94537" lon="4.54904">
        <ele>70.279788</ele>
        <time>2025-02-05T13:02:24.302Z</time>
      </trkpt>
      <trkpt lat="43.94546" lon="4.54896">
        <ele>70.411039</ele>
        <time>2025-02-05T13:02:27.297Z</time>
      </trkpt>
      <trkpt lat="43.94556" lon="4.54888">
        <ele>70.546</ele>
        <time>2025-02-05T13:02:30.280Z</time>
      </trkpt>
      <trkpt lat="43.94565" lon="4.5488">
        <ele>70.68307</ele>
        <time>2025-02-05T13:02:33.303Z</time>
      </trkpt>
      <trkpt lat="43.94574" lon="4.54871">
        <ele>70.802296</ele>
        <time>2025-02-05T13:02:36.316Z</time>
      </trkpt>
      <trkpt lat="43.94584" lon="4.54863">
        <ele>70.913744</ele>
        <time>2025-02-05T13:02:39.285Z</time>
      </trkpt>
      <trkpt lat="43.94593" lon="4.54854">
        <ele>71.025978</ele>
        <time>2025-02-05T13:02:42.302Z</time>
      </trkpt>
      <trkpt lat="43.94602" lon="4.54845">
        <ele>71.135377</ele>
        <time>2025-02-05T13:02:45.281Z</time>
      </trkpt>
      <trkpt lat="43.94611" lon="4.54836">
        <ele>71.252959</ele>
        <time>2025-02-05T13:02:48.342Z</time>
      </trkpt>
      <trkpt lat="43.94621" lon="4.54826">
        <ele>71.371361</ele>
        <time>2025-02-05T13:02:51.298Z</time>
      </trkpt>
      <trkpt lat="43.94631" lon="4.54817">
        <ele>71.488538</ele>
        <time>2025-02-05T13:02:54.304Z</time>
      </trkpt>
      <trkpt lat="43.9464" lon="4.54808">
        <ele>71.604887</ele>
        <time>2025-02-05T13:02:57.316Z</time>
      </trkpt>
      <trkpt lat="43.9465" lon="4.54799">
        <ele>71.725012</ele>
        <time>2025-02-05T13:03:00.301Z</time>
      </trkpt>
      <trkpt lat="43.9466" lon="4.54789">
        <ele>71.840578</ele>
        <time>2025-02-05T13:03:03.316Z</time>
      </trkpt>
      <trkpt lat="43.94668" lon="4.54781">
        <ele>71.946235</ele>
        <time>2025-02-05T13:03:06.308Z</time>
      </trkpt>
      <trkpt lat="43.94677" lon="4.54772">
        <ele>72.057675</ele>
        <time>2025-02-05T13:03:09.286Z</time>
      </trkpt>
      <trkpt lat="43.94687" lon="4.54763">
        <ele>72.169505</ele>
        <time>2025-02-05T13:03:12.288Z</time>
      </trkpt>
      <trkpt lat="43.94695" lon="4.54753">
        <ele>72.280553</ele>
        <time>2025-02-05T13:03:15.298Z</time>
      </trkpt>
      <trkpt lat="43.94703" lon="4.54744">
        <ele>72.384133</ele>
        <time>2025-02-05T13:03:18.310Z</time>
      </trkpt>
      <trkpt lat="43.94709" lon="4.54733">
        <ele>72.484485</ele>
        <time>2025-02-05T13:03:21.319Z</time>
      </trkpt>
      <trkpt lat="43.94716" lon="4.54721">
        <ele>72.343166</ele>
        <time>2025-02-05T13:03:24.303Z</time>
      </trkpt>
      <trkpt lat="43.94723" lon="4.54709">
        <ele>72.077722</ele>
        <time>2025-02-05T13:03:27.329Z</time>
      </trkpt>
      <trkpt lat="43.94729" lon="4.54698">
        <ele>71.82647</ele>
        <time>2025-02-05T13:03:30.306Z</time>
      </trkpt>
      <trkpt lat="43.94735" lon="4.54687">
        <ele>71.581103</ele>
        <time>2025-02-05T13:03:33.297Z</time>
      </trkpt>
      <trkpt lat="43.94741" lon="4.54676">
        <ele>71.33439</ele>
        <time>2025-02-05T13:03:36.302Z</time>
      </trkpt>
      <trkpt lat="43.94748" lon="4.54663">
        <ele>71.051857</ele>
        <time>2025-02-05T13:03:40.308Z</time>
      </trkpt>
      <trkpt lat="43.94755" lon="4.54652">
        <ele>70.790372</ele>
        <time>2025-02-05T13:03:44.316Z</time>
      </trkpt>
      <trkpt lat="43.94761" lon="4.54641">
        <ele>70.562211</ele>
        <time>2025-02-05T13:03:48.298Z</time>
      </trkpt>
      <trkpt lat="43.94767" lon="4.54629">
        <ele>70.299827</ele>
        <time>2025-02-05T13:03:52.298Z</time>
      </trkpt>
      <trkpt lat="43.94774" lon="4.54616">
        <ele>70.014603</ele>
        <time>2025-02-05T13:03:56.301Z</time>
      </trkpt>
      <trkpt lat="43.94781" lon="4.54603">
        <ele>69.726409</ele>
        <time>2025-02-05T13:04:00.302Z</time>
      </trkpt>
      <trkpt lat="43.94786" lon="4.54592">
        <ele>69.501896</ele>
        <time>2025-02-05T13:04:03.297Z</time>
      </trkpt>
      <trkpt lat="43.94792" lon="4.54582">
        <ele>69.270455</ele>
        <time>2025-02-05T13:04:06.286Z</time>
      </trkpt>
      <trkpt lat="43.94798" lon="4.54571">
        <ele>69.030882</ele>
        <time>2025-02-05T13:04:09.302Z</time>
      </trkpt>
      <trkpt lat="43.94803" lon="4.54558">
        <ele>68.78574</ele>
        <time>2025-02-05T13:04:12.307Z</time>
      </trkpt>
      <trkpt lat="43.94809" lon="4.54546">
        <ele>68.52621</ele>
        <time>2025-02-05T13:04:15.308Z</time>
      </trkpt>
      <trkpt lat="43.94817" lon="4.54534">
        <ele>68.232629</ele>
        <time>2025-02-05T13:04:18.312Z</time>
      </trkpt>
      <trkpt lat="43.94823" lon="4.54522">
        <ele>67.989936</ele>
        <time>2025-02-05T13:04:21.300Z</time>
      </trkpt>
      <trkpt lat="43.9483" lon="4.54509">
        <ele>67.766627</ele>
        <time>2025-02-05T13:04:24.291Z</time>
      </trkpt>
      <trkpt lat="43.94836" lon="4.54497">
        <ele>67.537416</ele>
        <time>2025-02-05T13:04:27.318Z</time>
      </trkpt>
      <trkpt lat="43.94844" lon="4.54486">
        <ele>67.321595</ele>
        <time>2025-02-05T13:04:30.313Z</time>
      </trkpt>
      <trkpt lat="43.94852" lon="4.54475">
        <ele>67.086393</ele>
        <time>2025-02-05T13:04:33.307Z</time>
      </trkpt>
      <trkpt lat="43.94858" lon="4.54465">
        <ele>66.898482</ele>
        <time>2025-02-05T13:04:35.302Z</time>
      </trkpt>
      <trkpt lat="43.94864" lon="4.54453">
        <ele>66.685891</ele>
        <time>2025-02-05T13:04:37.318Z</time>
      </trkpt>
      <trkpt lat="43.94871" lon="4.5444">
        <ele>66.455483</ele>
        <time>2025-02-05T13:04:39.295Z</time>
      </trkpt>
      <trkpt lat="43.94877" lon="4.54428">
        <ele>66.231002</ele>
        <time>2025-02-05T13:04:41.306Z</time>
      </trkpt>
      <trkpt lat="43.94883" lon="4.54415">
        <ele>66.006127</ele>
        <time>2025-02-05T13:04:43.283Z</time>
      </trkpt>
      <trkpt lat="43.94889" lon="4.54401">
        <ele>65.777334</ele>
        <time>2025-02-05T13:04:45.312Z</time>
      </trkpt>
      <trkpt lat="43.94894" lon="4.54386">
        <ele>65.536298</ele>
        <time>2025-02-05T13:04:47.304Z</time>
      </trkpt>
      <trkpt lat="43.94897" lon="4.54372">
        <ele>65.313768</ele>
        <time>2025-02-05T13:04:49.299Z</time>
      </trkpt>
      <trkpt lat="43.94901" lon="4.54356">
        <ele>65.069332</ele>
        <time>2025-02-05T13:04:52.317Z</time>
      </trkpt>
      <trkpt lat="43.94902" lon="4.54344">
        <ele>64.886236</ele>
        <time>2025-02-05T13:04:55.292Z</time>
      </trkpt>
      <trkpt lat="43.94905" lon="4.54332">
        <ele>64.696167</ele>
        <time>2025-02-05T13:05:00.305Z</time>
      </trkpt>
      <trkpt lat="43.9491" lon="4.5432">
        <ele>64.50773</ele>
        <time>2025-02-05T13:05:04.306Z</time>
      </trkpt>
      <trkpt lat="43.9491" lon="4.54307">
        <ele>64.533876</ele>
        <time>2025-02-05T13:05:07.293Z</time>
      </trkpt>
      <trkpt lat="43.94905" lon="4.5429">
        <ele>64.631607</ele>
        <time>2025-02-05T13:05:10.292Z</time>
      </trkpt>
      <trkpt lat="43.94903" lon="4.54278">
        <ele>64.699104</ele>
        <time>2025-02-05T13:05:12.298Z</time>
      </trkpt>
      <trkpt lat="43.949" lon="4.54266">
        <ele>64.768211</ele>
        <time>2025-02-05T13:05:14.293Z</time>
      </trkpt>
      <trkpt lat="43.94898" lon="4.54247">
        <ele>64.866348</ele>
        <time>2025-02-05T13:05:17.299Z</time>
      </trkpt>
      <trkpt lat="43.94897" lon="4.54231">
        <ele>64.954366</ele>
        <time>2025-02-05T13:05:20.297Z</time>
      </trkpt>
      <trkpt lat="43.94896" lon="4.54217">
        <ele>65.03182</ele>
        <time>2025-02-05T13:05:23.308Z</time>
      </trkpt>
      <trkpt lat="43.94895" lon="4.54204">
        <ele>65.100793</ele>
        <time>2025-02-05T13:05:26.282Z</time>
      </trkpt>
      <trkpt lat="43.94896" lon="4.54191">
        <ele>65.171621</ele>
        <time>2025-02-05T13:05:30.294Z</time>
      </trkpt>
      <trkpt lat="43.94898" lon="4.54171">
        <ele>65.27878</ele>
        <time>2025-02-05T13:06:24.295Z</time>
      </trkpt>
      <trkpt lat="43.94887" lon="4.54169">
        <ele>65.360392</ele>
        <time>2025-02-05T13:06:29.291Z</time>
      </trkpt>
      <trkpt lat="43.94877" lon="4.54168">
        <ele>65.434649</ele>
        <time>2025-02-05T13:06:33.300Z</time>
      </trkpt>
      <trkpt lat="43.94868" lon="4.54169">
        <ele>65.503288</ele>
        <time>2025-02-05T13:06:37.304Z</time>
      </trkpt>
      <trkpt lat="43.94858" lon="4.5417">
        <ele>65.573816</ele>
        <time>2025-02-05T13:06:41.299Z</time>
      </trkpt>
      <trkpt lat="43.94854" lon="4.54157">
        <ele>65.649235</ele>
        <time>2025-02-05T13:06:46.290Z</time>
      </trkpt>
      <trkpt lat="43.94854" lon="4.54144">
        <ele>65.719186</ele>
        <time>2025-02-05T13:06:50.304Z</time>
      </trkpt>
      <trkpt lat="43.94857" lon="4.54129">
        <ele>65.801085</ele>
        <time>2025-02-05T13:06:54.306Z</time>
      </trkpt>
      <trkpt lat="43.9486" lon="4.54117">
        <ele>65.99258</ele>
        <time>2025-02-05T13:06:57.314Z</time>
      </trkpt>
      <trkpt lat="43.94865" lon="4.54103">
        <ele>66.234728</ele>
        <time>2025-02-05T13:07:00.303Z</time>
      </trkpt>
      <trkpt lat="43.9487" lon="4.54089">
        <ele>66.487289</ele>
        <time>2025-02-05T13:07:03.303Z</time>
      </trkpt>
      <trkpt lat="43.94874" lon="4.54073">
        <ele>66.750689</ele>
        <time>2025-02-05T13:07:06.282Z</time>
      </trkpt>
      <trkpt lat="43.94878" lon="4.54058">
        <ele>67.013337</ele>
        <time>2025-02-05T13:07:09.306Z</time>
      </trkpt>
      <trkpt lat="43.94881" lon="4.54044">
        <ele>67.247392</ele>
        <time>2025-02-05T13:07:12.312Z</time>
      </trkpt>
      <trkpt lat="43.94884" lon="4.54029">
        <ele>67.481446</ele>
        <time>2025-02-05T13:07:15.291Z</time>
      </trkpt>
      <trkpt lat="43.94886" lon="4.54015">
        <ele>67.719936</ele>
        <time>2025-02-05T13:07:18.305Z</time>
      </trkpt>
      <trkpt lat="43.94889" lon="4.54001">
        <ele>67.949761</ele>
        <time>2025-02-05T13:07:21.313Z</time>
      </trkpt>
      <trkpt lat="43.94892" lon="4.53986">
        <ele>68.192413</ele>
        <time>2025-02-05T13:07:24.289Z</time>
      </trkpt>
      <trkpt lat="43.94891" lon="4.53971">
        <ele>68.425678</ele>
        <time>2025-02-05T13:07:27.303Z</time>
      </trkpt>
      <trkpt lat="43.94889" lon="4.53957">
        <ele>68.659571</ele>
        <time>2025-02-05T13:07:30.282Z</time>
      </trkpt>
      <trkpt lat="43.94886" lon="4.53942">
        <ele>68.898599</ele>
        <time>2025-02-05T13:07:33.306Z</time>
      </trkpt>
      <trkpt lat="43.94882" lon="4.5393">
        <ele>69.113034</ele>
        <time>2025-02-05T13:07:36.307Z</time>
      </trkpt>
      <trkpt lat="43.94881" lon="4.53917">
        <ele>69.32401</ele>
        <time>2025-02-05T13:07:39.312Z</time>
      </trkpt>
      <trkpt lat="43.94885" lon="4.53904">
        <ele>69.545869</ele>
        <time>2025-02-05T13:07:43.297Z</time>
      </trkpt>
      <trkpt lat="43.94889" lon="4.53892">
        <ele>69.758109</ele>
        <time>2025-02-05T13:07:47.306Z</time>
      </trkpt>
      <trkpt lat="43.94893" lon="4.5388">
        <ele>70.034706</ele>
        <time>2025-02-05T13:07:51.306Z</time>
      </trkpt>
      <trkpt lat="43.9489" lon="4.53868">
        <ele>70.32329</ele>
        <time>2025-02-05T13:18:55.288Z</time>
      </trkpt>
      <trkpt lat="43.94881" lon="4.53862">
        <ele>70.638142</ele>
        <time>2025-02-05T13:19:33.298Z</time>
      </trkpt>
      <trkpt lat="43.94874" lon="4.53854">
        <ele>70.928274</ele>
        <time>2025-02-05T13:19:37.291Z</time>
      </trkpt>
      <trkpt lat="43.94865" lon="4.53845">
        <ele>71.248063</ele>
        <time>2025-02-05T13:19:41.301Z</time>
      </trkpt>
      <trkpt lat="43.94858" lon="4.53835">
        <ele>71.573776</ele>
        <time>2025-02-05T13:19:45.301Z</time>
      </trkpt>
      <trkpt lat="43.9485" lon="4.53826">
        <ele>71.881853</ele>
        <time>2025-02-05T13:19:49.298Z</time>
      </trkpt>
      <trkpt lat="43.94843" lon="4.53814">
        <ele>72.234138</ele>
        <time>2025-02-05T13:19:53.300Z</time>
      </trkpt>
      <trkpt lat="43.94839" lon="4.538">
        <ele>72.563303</ele>
        <time>2025-02-05T13:19:57.299Z</time>
      </trkpt>
      <trkpt lat="43.94833" lon="4.53788">
        <ele>72.881404</ele>
        <time>2025-02-05T13:20:02.291Z</time>
      </trkpt>
      <trkpt lat="43.94819" lon="4.53788">
        <ele>73.318254</ele>
        <time>2025-02-05T13:22:40.309Z</time>
      </trkpt>
      <trkpt lat="43.94811" lon="4.53784">
        <ele>73.604128</ele>
        <time>2025-02-05T13:22:46.294Z</time>
      </trkpt>
      <trkpt lat="43.94802" lon="4.53778">
        <ele>73.88228</ele>
        <time>2025-02-05T13:22:50.301Z</time>
      </trkpt>
      <trkpt lat="43.94793" lon="4.53775">
        <ele>74.170973</ele>
        <time>2025-02-05T13:22:54.303Z</time>
      </trkpt>
      <trkpt lat="43.94783" lon="4.53774">
        <ele>74.498235</ele>
        <time>2025-02-05T13:22:58.308Z</time>
      </trkpt>
      <trkpt lat="43.94774" lon="4.53764">
        <ele>74.851691</ele>
        <time>2025-02-05T13:23:02.301Z</time>
      </trkpt>
      <trkpt lat="43.94766" lon="4.53753">
        <ele>75.176061</ele>
        <time>2025-02-05T13:23:06.299Z</time>
      </trkpt>
      <trkpt lat="43.94758" lon="4.53742">
        <ele>75.522721</ele>
        <time>2025-02-05T13:23:10.298Z</time>
      </trkpt>
      <trkpt lat="43.94752" lon="4.53733">
        <ele>75.795471</ele>
        <time>2025-02-05T13:23:13.292Z</time>
      </trkpt>
      <trkpt lat="43.94745" lon="4.53724">
        <ele>76.06884</ele>
        <time>2025-02-05T13:23:16.302Z</time>
      </trkpt>
      <trkpt lat="43.94736" lon="4.53714">
        <ele>76.410531</ele>
        <time>2025-02-05T13:23:20.304Z</time>
      </trkpt>
      <trkpt lat="43.9473" lon="4.53704">
        <ele>76.706394</ele>
        <time>2025-02-05T13:23:24.296Z</time>
      </trkpt>
      <trkpt lat="43.94722" lon="4.53693">
        <ele>77.030537</ele>
        <time>2025-02-05T13:23:29.303Z</time>
      </trkpt>
      <trkpt lat="43.94716" lon="4.53683">
        <ele>77.305313</ele>
        <time>2025-02-05T13:23:33.305Z</time>
      </trkpt>
      <trkpt lat="43.94707" lon="4.53676">
        <ele>77.599574</ele>
        <time>2025-02-05T13:23:37.291Z</time>
      </trkpt>
      <trkpt lat="43.94701" lon="4.53666">
        <ele>77.887181</ele>
        <time>2025-02-05T13:23:41.301Z</time>
      </trkpt>
      <trkpt lat="43.94694" lon="4.53655">
        <ele>78.209692</ele>
        <time>2025-02-05T13:23:46.300Z</time>
      </trkpt>
      <trkpt lat="43.94689" lon="4.53642">
        <ele>78.508717</ele>
        <time>2025-02-05T13:23:51.300Z</time>
      </trkpt>
      <trkpt lat="43.94685" lon="4.53631">
        <ele>78.777957</ele>
        <time>2025-02-05T13:23:56.294Z</time>
      </trkpt>
      <trkpt lat="43.94681" lon="4.53619">
        <ele>79.069227</ele>
        <time>2025-02-05T13:24:01.303Z</time>
      </trkpt>
      <trkpt lat="43.94687" lon="4.53607">
        <ele>79.37847</ele>
        <time>2025-02-05T13:24:07.290Z</time>
      </trkpt>
      <trkpt lat="43.94693" lon="4.53597">
        <ele>79.672312</ele>
        <time>2025-02-05T13:24:12.294Z</time>
      </trkpt>
      <trkpt lat="43.94699" lon="4.53587">
        <ele>79.944311</ele>
        <time>2025-02-05T13:24:17.307Z</time>
      </trkpt>
      <trkpt lat="43.94712" lon="4.53567">
        <ele>80.505793</ele>
        <time>2025-02-05T13:24:52.317Z</time>
      </trkpt>
      <trkpt lat="43.94725" lon="4.53551">
        <ele>80.668143</ele>
        <time>2025-02-05T13:27:01.305Z</time>
      </trkpt>
      <trkpt lat="43.9473" lon="4.5354">
        <ele>80.683266</ele>
        <time>2025-02-05T13:27:05.291Z</time>
      </trkpt>
      <trkpt lat="43.94736" lon="4.53529">
        <ele>80.700411</ele>
        <time>2025-02-05T13:27:09.293Z</time>
      </trkpt>
      <trkpt lat="43.94742" lon="4.53518">
        <ele>80.717085</ele>
        <time>2025-02-05T13:27:13.310Z</time>
      </trkpt>
      <trkpt lat="43.94748" lon="4.53508">
        <ele>80.73255</ele>
        <time>2025-02-05T13:27:17.309Z</time>
      </trkpt>
      <trkpt lat="43.94755" lon="4.53498">
        <ele>80.748049</ele>
        <time>2025-02-05T13:27:21.292Z</time>
      </trkpt>
      <trkpt lat="43.94763" lon="4.53488">
        <ele>80.766232</ele>
        <time>2025-02-05T13:27:26.299Z</time>
      </trkpt>
      <trkpt lat="43.9477" lon="4.53476">
        <ele>80.785272</ele>
        <time>2025-02-05T13:27:31.321Z</time>
      </trkpt>
      <trkpt lat="43.9478" lon="4.53468">
        <ele>80.803805</ele>
        <time>2025-02-05T13:27:35.284Z</time>
      </trkpt>
      <trkpt lat="43.94789" lon="4.53474">
        <ele>80.819064</ele>
        <time>2025-02-05T13:27:38.313Z</time>
      </trkpt>
      <trkpt lat="43.94799" lon="4.53481">
        <ele>80.837855</ele>
        <time>2025-02-05T13:27:42.318Z</time>
      </trkpt>
      <trkpt lat="43.94807" lon="4.5349">
        <ele>80.85442</ele>
        <time>2025-02-05T13:27:46.290Z</time>
      </trkpt>
      <trkpt lat="43.94815" lon="4.53501">
        <ele>80.872768</ele>
        <time>2025-02-05T13:27:50.294Z</time>
      </trkpt>
      <trkpt lat="43.94823" lon="4.53509">
        <ele>80.889314</ele>
        <time>2025-02-05T13:27:54.298Z</time>
      </trkpt>
      <trkpt lat="43.94831" lon="4.53517">
        <ele>80.905698</ele>
        <time>2025-02-05T13:27:58.305Z</time>
      </trkpt>
      <trkpt lat="43.94838" lon="4.53526">
        <ele>80.921603</ele>
        <time>2025-02-05T13:28:02.295Z</time>
      </trkpt>
      <trkpt lat="43.94846" lon="4.53533">
        <ele>80.937378</ele>
        <time>2025-02-05T13:28:06.288Z</time>
      </trkpt>
      <trkpt lat="43.94857" lon="4.53539">
        <ele>81.057418</ele>
        <time>2025-02-05T13:28:10.310Z</time>
      </trkpt>
      <trkpt lat="43.94866" lon="4.53548">
        <ele>81.245672</ele>
        <time>2025-02-05T13:28:14.295Z</time>
      </trkpt>
      <trkpt lat="43.94875" lon="4.53553">
        <ele>81.387693</ele>
        <time>2025-02-05T13:28:17.309Z</time>
      </trkpt>
      <trkpt lat="43.94884" lon="4.53556">
        <ele>81.538611</ele>
        <time>2025-02-05T13:28:20.296Z</time>
      </trkpt>
      <trkpt lat="43.94895" lon="4.53556">
        <ele>81.714444</ele>
        <time>2025-02-05T13:28:24.292Z</time>
      </trkpt>
      <trkpt lat="43.94905" lon="4.53554">
        <ele>81.861292</ele>
        <time>2025-02-05T13:28:27.306Z</time>
      </trkpt>
      <trkpt lat="43.94915" lon="4.53551">
        <ele>82.031625</ele>
        <time>2025-02-05T13:28:31.324Z</time>
      </trkpt>
      <trkpt lat="43.94925" lon="4.53547">
        <ele>82.191992</ele>
        <time>2025-02-05T13:28:35.304Z</time>
      </trkpt>
      <trkpt lat="43.94934" lon="4.53544">
        <ele>82.34187</ele>
        <time>2025-02-05T13:28:38.310Z</time>
      </trkpt>
      <trkpt lat="43.94945" lon="4.5354">
        <ele>82.51981</ele>
        <time>2025-02-05T13:28:42.315Z</time>
      </trkpt>
      <trkpt lat="43.94956" lon="4.53538">
        <ele>82.683233</ele>
        <time>2025-02-05T13:28:46.293Z</time>
      </trkpt>
      <trkpt lat="43.94966" lon="4.5354">
        <ele>82.849456</ele>
        <time>2025-02-05T13:28:50.304Z</time>
      </trkpt>
      <trkpt lat="43.94975" lon="4.53542">
        <ele>82.996404</ele>
        <time>2025-02-05T13:28:54.292Z</time>
      </trkpt>
      <trkpt lat="43.9497" lon="4.5353">
        <ele>83.156823</ele>
        <time>2025-02-05T13:29:01.308Z</time>
      </trkpt>
      <trkpt lat="43.94961" lon="4.53521">
        <ele>83.334773</ele>
        <time>2025-02-05T13:29:05.312Z</time>
      </trkpt>
      <trkpt lat="43.94955" lon="4.53511">
        <ele>83.489126</ele>
        <time>2025-02-05T13:29:09.294Z</time>
      </trkpt>
      <trkpt lat="43.94954" lon="4.53497">
        <ele>83.646045</ele>
        <time>2025-02-05T13:29:14.295Z</time>
      </trkpt>
      <trkpt lat="43.94956" lon="4.53484">
        <ele>83.821079</ele>
        <time>2025-02-05T13:29:19.291Z</time>
      </trkpt>
      <trkpt lat="43.94955" lon="4.53469">
        <ele>84.13286</ele>
        <time>2025-02-05T13:29:25.296Z</time>
      </trkpt>
      <trkpt lat="43.9495" lon="4.53458">
        <ele>84.426443</ele>
        <time>2025-02-05T13:29:30.331Z</time>
      </trkpt>
      <trkpt lat="43.94946" lon="4.53446">
        <ele>84.696438</ele>
        <time>2025-02-05T13:29:35.297Z</time>
      </trkpt>
      <trkpt lat="43.94938" lon="4.53438">
        <ele>84.970656</ele>
        <time>2025-02-05T13:29:40.307Z</time>
      </trkpt>
      <trkpt lat="43.94936" lon="4.53425">
        <ele>85.267674</ele>
        <time>2025-02-05T13:29:47.296Z</time>
      </trkpt>
      <trkpt lat="43.94941" lon="4.53413">
        <ele>85.565343</ele>
        <time>2025-02-05T13:29:52.303Z</time>
      </trkpt>
      <trkpt lat="43.94947" lon="4.53401">
        <ele>85.869895</ele>
        <time>2025-02-05T13:29:57.300Z</time>
      </trkpt>
      <trkpt lat="43.94951" lon="4.53389">
        <ele>86.158306</ele>
        <time>2025-02-05T13:30:02.299Z</time>
      </trkpt>
      <trkpt lat="43.94956" lon="4.53376">
        <ele>86.464468</ele>
        <time>2025-02-05T13:30:07.290Z</time>
      </trkpt>
      <trkpt lat="43.94961" lon="4.53364">
        <ele>86.764439</ele>
        <time>2025-02-05T13:30:12.290Z</time>
      </trkpt>
      <trkpt lat="43.94966" lon="4.53352">
        <ele>87.060322</ele>
        <time>2025-02-05T13:30:17.289Z</time>
      </trkpt>
      <trkpt lat="43.9497" lon="4.53338">
        <ele>87.374227</ele>
        <time>2025-02-05T13:30:23.297Z</time>
      </trkpt>
      <trkpt lat="43.94974" lon="4.53325">
        <ele>87.671549</ele>
        <time>2025-02-05T13:30:28.297Z</time>
      </trkpt>
      <trkpt lat="43.94977" lon="4.53313">
        <ele>87.947249</ele>
        <time>2025-02-05T13:30:33.285Z</time>
      </trkpt>
      <trkpt lat="43.9498" lon="4.533">
        <ele>88.235961</ele>
        <time>2025-02-05T13:30:38.287Z</time>
      </trkpt>
      <trkpt lat="43.94985" lon="4.53288">
        <ele>88.527954</ele>
        <time>2025-02-05T13:30:43.305Z</time>
      </trkpt>
      <trkpt lat="43.9499" lon="4.53277">
        <ele>88.805142</ele>
        <time>2025-02-05T13:30:48.306Z</time>
      </trkpt>
      <trkpt lat="43.94994" lon="4.53265">
        <ele>89.09702</ele>
        <time>2025-02-05T13:30:53.285Z</time>
      </trkpt>
      <trkpt lat="43.94999" lon="4.53253">
        <ele>89.399153</ele>
        <time>2025-02-05T13:30:58.305Z</time>
      </trkpt>
      <trkpt lat="43.95004" lon="4.53241">
        <ele>89.730913</ele>
        <time>2025-02-05T13:31:04.291Z</time>
      </trkpt>
      <trkpt lat="43.95009" lon="4.53227">
        <ele>90.065038</ele>
        <time>2025-02-05T13:31:09.305Z</time>
      </trkpt>
      <trkpt lat="43.95015" lon="4.53215">
        <ele>90.387385</ele>
        <time>2025-02-05T13:31:14.300Z</time>
      </trkpt>
      <trkpt lat="43.95019" lon="4.53202">
        <ele>90.705763</ele>
        <time>2025-02-05T13:31:19.292Z</time>
      </trkpt>
      <trkpt lat="43.95025" lon="4.53191">
        <ele>91.024434</ele>
        <time>2025-02-05T13:31:24.301Z</time>
      </trkpt>
      <trkpt lat="43.95031" lon="4.53179">
        <ele>91.339811</ele>
        <time>2025-02-05T13:31:29.292Z</time>
      </trkpt>
      <trkpt lat="43.95037" lon="4.53168">
        <ele>91.64602</ele>
        <time>2025-02-05T13:31:34.289Z</time>
      </trkpt>
      <trkpt lat="43.95042" lon="4.53157">
        <ele>91.939782</ele>
        <time>2025-02-05T13:31:39.311Z</time>
      </trkpt>
      <trkpt lat="43.95048" lon="4.53146">
        <ele>92.258661</ele>
        <time>2025-02-05T13:31:45.301Z</time>
      </trkpt>
      <trkpt lat="43.95058" lon="4.53138">
        <ele>92.618707</ele>
        <time>2025-02-05T13:34:47.288Z</time>
      </trkpt>
      <trkpt lat="43.95064" lon="4.53148">
        <ele>92.907043</ele>
        <time>2025-02-05T13:34:52.290Z</time>
      </trkpt>
      <trkpt lat="43.9507" lon="4.53158">
        <ele>93.211979</ele>
        <time>2025-02-05T13:34:58.308Z</time>
      </trkpt>
      <trkpt lat="43.95078" lon="4.53168">
        <ele>93.537851</ele>
        <time>2025-02-05T13:35:04.297Z</time>
      </trkpt>
      <trkpt lat="43.95083" lon="4.53179">
        <ele>93.827365</ele>
        <time>2025-02-05T13:35:09.307Z</time>
      </trkpt>
      <trkpt lat="43.95088" lon="4.5319">
        <ele>94.132619</ele>
        <time>2025-02-05T13:35:14.306Z</time>
      </trkpt>
      <trkpt lat="43.95095" lon="4.532">
        <ele>94.446759</ele>
        <time>2025-02-05T13:35:19.299Z</time>
      </trkpt>
      <trkpt lat="43.95106" lon="4.53195">
        <ele>94.696871</ele>
        <time>2025-02-05T13:35:24.322Z</time>
      </trkpt>
      <trkpt lat="43.95115" lon="4.53184">
        <ele>94.700784</ele>
        <time>2025-02-05T13:35:28.315Z</time>
      </trkpt>
      <trkpt lat="43.95122" lon="4.53175">
        <ele>94.704006</ele>
        <time>2025-02-05T13:35:31.306Z</time>
      </trkpt>
      <trkpt lat="43.95131" lon="4.53167">
        <ele>94.70758</ele>
        <time>2025-02-05T13:35:35.304Z</time>
      </trkpt>
      <trkpt lat="43.95139" lon="4.53157">
        <ele>94.711201</ele>
        <time>2025-02-05T13:35:39.285Z</time>
      </trkpt>
      <trkpt lat="43.95148" lon="4.5315">
        <ele>94.714698</ele>
        <time>2025-02-05T13:35:43.306Z</time>
      </trkpt>
      <trkpt lat="43.95159" lon="4.53144">
        <ele>94.718473</ele>
        <time>2025-02-05T13:35:47.287Z</time>
      </trkpt>
      <trkpt lat="43.9517" lon="4.5314">
        <ele>94.722442</ele>
        <time>2025-02-05T13:35:51.304Z</time>
      </trkpt>
      <trkpt lat="43.95179" lon="4.53137">
        <ele>94.725533</ele>
        <time>2025-02-05T13:35:54.316Z</time>
      </trkpt>
      <trkpt lat="43.95191" lon="4.53134">
        <ele>94.729457</ele>
        <time>2025-02-05T13:35:58.301Z</time>
      </trkpt>
      <trkpt lat="43.95202" lon="4.53132">
        <ele>94.733309</ele>
        <time>2025-02-05T13:36:02.317Z</time>
      </trkpt>
      <trkpt lat="43.95214" lon="4.53128">
        <ele>94.737282</ele>
        <time>2025-02-05T13:36:06.300Z</time>
      </trkpt>
      <trkpt lat="43.95225" lon="4.53126">
        <ele>94.741092</ele>
        <time>2025-02-05T13:36:10.304Z</time>
      </trkpt>
      <trkpt lat="43.95236" lon="4.53124">
        <ele>94.744628</ele>
        <time>2025-02-05T13:36:14.293Z</time>
      </trkpt>
      <trkpt lat="43.95245" lon="4.53122">
        <ele>94.747907</ele>
        <time>2025-02-05T13:36:18.293Z</time>
      </trkpt>
      <trkpt lat="43.95256" lon="4.5312">
        <ele>94.751466</ele>
        <time>2025-02-05T13:36:22.296Z</time>
      </trkpt>
      <trkpt lat="43.95266" lon="4.53116">
        <ele>94.755</ele>
        <time>2025-02-05T13:36:26.287Z</time>
      </trkpt>
      <trkpt lat="43.95275" lon="4.53114">
        <ele>94.544325</ele>
        <time>2025-02-05T13:36:32.292Z</time>
      </trkpt>
      <trkpt lat="43.95281" lon="4.53125">
        <ele>94.234393</ele>
        <time>2025-02-05T13:36:46.310Z</time>
      </trkpt>
      <trkpt lat="43.95284" lon="4.53138">
        <ele>93.932156</ele>
        <time>2025-02-05T13:36:50.317Z</time>
      </trkpt>
      <trkpt lat="43.95287" lon="4.53154">
        <ele>93.581987</ele>
        <time>2025-02-05T13:36:54.309Z</time>
      </trkpt>
      <trkpt lat="43.95288" lon="4.53167">
        <ele>93.304223</ele>
        <time>2025-02-05T13:36:58.282Z</time>
      </trkpt>
      <trkpt lat="43.95291" lon="4.53183">
        <ele>92.940066</ele>
        <time>2025-02-05T13:37:21.316Z</time>
      </trkpt>
      <trkpt lat="43.95291" lon="4.53198">
        <ele>92.616271</ele>
        <time>2025-02-05T13:37:26.289Z</time>
      </trkpt>
      <trkpt lat="43.95293" lon="4.53212">
        <ele>92.307616</ele>
        <time>2025-02-05T13:37:30.333Z</time>
      </trkpt>
      <trkpt lat="43.95295" lon="4.53227">
        <ele>91.982129</ele>
        <time>2025-02-05T13:37:35.288Z</time>
      </trkpt>
      <trkpt lat="43.95298" lon="4.53242">
        <ele>91.646622</ele>
        <time>2025-02-05T13:37:39.309Z</time>
      </trkpt>
      <trkpt lat="43.95299" lon="4.53255">
        <ele>91.349933</ele>
        <time>2025-02-05T13:37:42.290Z</time>
      </trkpt>
      <trkpt lat="43.95301" lon="4.5327">
        <ele>91.032269</ele>
        <time>2025-02-05T13:37:45.303Z</time>
      </trkpt>
      <trkpt lat="43.95303" lon="4.53283">
        <ele>90.744612</ele>
        <time>2025-02-05T13:37:48.299Z</time>
      </trkpt>
      <trkpt lat="43.95313" lon="4.5329">
        <ele>90.404329</ele>
        <time>2025-02-05T13:37:52.288Z</time>
      </trkpt>
      <trkpt lat="43.95322" lon="4.5329">
        <ele>90.118097</ele>
        <time>2025-02-05T13:37:56.295Z</time>
      </trkpt>
      <trkpt lat="43.95329" lon="4.53299">
        <ele>89.828566</ele>
        <time>2025-02-05T13:38:01.287Z</time>
      </trkpt>
      <trkpt lat="43.95332" lon="4.53312">
        <ele>89.548824</ele>
        <time>2025-02-05T13:38:06.308Z</time>
      </trkpt>
      <trkpt lat="43.9534" lon="4.53317">
        <ele>89.284404</ele>
        <time>2025-02-05T13:38:10.288Z</time>
      </trkpt>
      <trkpt lat="43.95349" lon="4.53322">
        <ele>89.058038</ele>
        <time>2025-02-05T13:38:14.371Z</time>
      </trkpt>
      <trkpt lat="43.95357" lon="4.53335">
        <ele>88.765508</ele>
        <time>2025-02-05T13:38:18.289Z</time>
      </trkpt>
      <trkpt lat="43.95363" lon="4.53345">
        <ele>88.526461</ele>
        <time>2025-02-05T13:38:21.314Z</time>
      </trkpt>
      <trkpt lat="43.95371" lon="4.53357">
        <ele>88.2372</ele>
        <time>2025-02-05T13:38:25.302Z</time>
      </trkpt>
      <trkpt lat="43.95379" lon="4.53369">
        <ele>87.954084</ele>
        <time>2025-02-05T13:38:29.296Z</time>
      </trkpt>
      <trkpt lat="43.95385" lon="4.53379">
        <ele>87.73099</ele>
        <time>2025-02-05T13:38:32.311Z</time>
      </trkpt>
      <trkpt lat="43.95392" lon="4.53391">
        <ele>87.451834</ele>
        <time>2025-02-05T13:38:36.304Z</time>
      </trkpt>
      <trkpt lat="43.95399" lon="4.53401">
        <ele>87.224205</ele>
        <time>2025-02-05T13:38:40.316Z</time>
      </trkpt>
      <trkpt lat="43.95403" lon="4.53413">
        <ele>86.990554</ele>
        <time>2025-02-05T13:38:45.299Z</time>
      </trkpt>
      <trkpt lat="43.95404" lon="4.53425">
        <ele>86.771595</ele>
        <time>2025-02-05T13:38:48.306Z</time>
      </trkpt>
      <trkpt lat="43.95403" lon="4.5344">
        <ele>86.50765</ele>
        <time>2025-02-05T13:38:52.306Z</time>
      </trkpt>
      <trkpt lat="43.95401" lon="4.53453">
        <ele>86.277274</ele>
        <time>2025-02-05T13:38:55.295Z</time>
      </trkpt>
      <trkpt lat="43.95399" lon="4.53466">
        <ele>86.048343</ele>
        <time>2025-02-05T13:38:58.303Z</time>
      </trkpt>
      <trkpt lat="43.95401" lon="4.53478">
        <ele>85.823239</ele>
        <time>2025-02-05T13:39:01.305Z</time>
      </trkpt>
      <trkpt lat="43.95402" lon="4.53491">
        <ele>85.591802</ele>
        <time>2025-02-05T13:39:04.305Z</time>
      </trkpt>
      <trkpt lat="43.95407" lon="4.53502">
        <ele>85.371039</ele>
        <time>2025-02-05T13:39:07.285Z</time>
      </trkpt>
      <trkpt lat="43.95409" lon="4.53516">
        <ele>85.120163</ele>
        <time>2025-02-05T13:39:11.302Z</time>
      </trkpt>
      <trkpt lat="43.9541" lon="4.5353">
        <ele>84.939131</ele>
        <time>2025-02-05T13:39:15.320Z</time>
      </trkpt>
      <trkpt lat="43.95409" lon="4.53543">
        <ele>84.896889</ele>
        <time>2025-02-05T13:39:20.307Z</time>
      </trkpt>
      <trkpt lat="43.95399" lon="4.53545">
        <ele>84.851881</ele>
        <time>2025-02-05T13:39:25.299Z</time>
      </trkpt>
      <trkpt lat="43.95388" lon="4.53542">
        <ele>84.802486</ele>
        <time>2025-02-05T13:39:29.309Z</time>
      </trkpt>
      <trkpt lat="43.95376" lon="4.53539">
        <ele>84.752658</ele>
        <time>2025-02-05T13:39:33.308Z</time>
      </trkpt>
      <trkpt lat="43.95367" lon="4.53538">
        <ele>84.711844</ele>
        <time>2025-02-05T13:39:37.309Z</time>
      </trkpt>
      <trkpt lat="43.95356" lon="4.53536">
        <ele>84.663678</ele>
        <time>2025-02-05T13:39:41.309Z</time>
      </trkpt>
      <trkpt lat="43.95346" lon="4.53535">
        <ele>84.618902</ele>
        <time>2025-02-05T13:39:45.303Z</time>
      </trkpt>
      <trkpt lat="43.95336" lon="4.53541">
        <ele>84.571779</ele>
        <time>2025-02-05T13:39:50.301Z</time>
      </trkpt>
      <trkpt lat="43.95333" lon="4.53556">
        <ele>84.521989</ele>
        <time>2025-02-05T13:39:55.289Z</time>
      </trkpt>
      <trkpt lat="43.95325" lon="4.53568">
        <ele>84.474027</ele>
        <time>2025-02-05T13:39:59.282Z</time>
      </trkpt>
      <trkpt lat="43.95314" lon="4.53571">
        <ele>84.425503</ele>
        <time>2025-02-05T13:40:02.291Z</time>
      </trkpt>
      <trkpt lat="43.95303" lon="4.53572">
        <ele>84.376595</ele>
        <time>2025-02-05T13:40:05.306Z</time>
      </trkpt>
      <trkpt lat="43.95295" lon="4.53578">
        <ele>84.336164</ele>
        <time>2025-02-05T13:40:09.282Z</time>
      </trkpt>
      <trkpt lat="43.95291" lon="4.5359">
        <ele>84.295646</ele>
        <time>2025-02-05T13:40:16.300Z</time>
      </trkpt>
      <trkpt lat="43.95281" lon="4.53595">
        <ele>84.248334</ele>
        <time>2025-02-05T13:40:21.303Z</time>
      </trkpt>
      <trkpt lat="43.95272" lon="4.536">
        <ele>84.208233</ele>
        <time>2025-02-05T13:40:26.323Z</time>
      </trkpt>
      <trkpt lat="43.95263" lon="4.53606">
        <ele>84.164543</ele>
        <time>2025-02-05T13:40:31.302Z</time>
      </trkpt>
      <trkpt lat="43.95252" lon="4.53603">
        <ele>83.858682</ele>
        <time>2025-02-05T13:40:38.314Z</time>
      </trkpt>
      <trkpt lat="43.95242" lon="4.53607">
        <ele>83.575224</ele>
        <time>2025-02-05T13:40:41.312Z</time>
      </trkpt>
      <trkpt lat="43.95232" lon="4.53612">
        <ele>83.282338</ele>
        <time>2025-02-05T13:40:44.312Z</time>
      </trkpt>
      <trkpt lat="43.95223" lon="4.53617">
        <ele>83.026485</ele>
        <time>2025-02-05T13:40:47.310Z</time>
      </trkpt>
      <trkpt lat="43.95212" lon="4.53623">
        <ele>82.696778</ele>
        <time>2025-02-05T13:40:51.307Z</time>
      </trkpt>
      <trkpt lat="43.95209" lon="4.53638">
        <ele>82.382491</ele>
        <time>2025-02-05T13:40:54.287Z</time>
      </trkpt>
      <trkpt lat="43.95213" lon="4.53655">
        <ele>82.039628</ele>
        <time>2025-02-05T13:40:57.320Z</time>
      </trkpt>
      <trkpt lat="43.95219" lon="4.53668">
        <ele>81.734643</ele>
        <time>2025-02-05T13:41:00.310Z</time>
      </trkpt>
      <trkpt lat="43.95227" lon="4.53678">
        <ele>81.450536</ele>
        <time>2025-02-05T13:41:03.288Z</time>
      </trkpt>
      <trkpt lat="43.95235" lon="4.53686">
        <ele>81.181885</ele>
        <time>2025-02-05T13:41:06.292Z</time>
      </trkpt>
      <trkpt lat="43.95242" lon="4.53698">
        <ele>80.881438</ele>
        <time>2025-02-05T13:41:11.288Z</time>
      </trkpt>
      <trkpt lat="43.95252" lon="4.53707">
        <ele>80.547103</ele>
        <time>2025-02-05T13:41:15.296Z</time>
      </trkpt>
      <trkpt lat="43.95261" lon="4.53717">
        <ele>80.238327</ele>
        <time>2025-02-05T13:41:18.294Z</time>
      </trkpt>
      <trkpt lat="43.95271" lon="4.53727">
        <ele>79.906214</ele>
        <time>2025-02-05T13:41:21.300Z</time>
      </trkpt>
      <trkpt lat="43.95281" lon="4.53736">
        <ele>79.587267</ele>
        <time>2025-02-05T13:41:24.301Z</time>
      </trkpt>
      <trkpt lat="43.9529" lon="4.53745">
        <ele>79.281094</ele>
        <time>2025-02-05T13:41:27.292Z</time>
      </trkpt>
      <trkpt lat="43.95299" lon="4.53755">
        <ele>79.146946</ele>
        <time>2025-02-05T13:41:30.310Z</time>
      </trkpt>
      <trkpt lat="43.95308" lon="4.53763">
        <ele>79.013868</ele>
        <time>2025-02-05T13:41:33.303Z</time>
      </trkpt>
      <trkpt lat="43.95316" lon="4.53772">
        <ele>78.890045</ele>
        <time>2025-02-05T13:41:36.299Z</time>
      </trkpt>
      <trkpt lat="43.95323" lon="4.53781">
        <ele>78.768677</ele>
        <time>2025-02-05T13:41:39.296Z</time>
      </trkpt>
      <trkpt lat="43.95332" lon="4.53789">
        <ele>78.642116</ele>
        <time>2025-02-05T13:41:42.306Z</time>
      </trkpt>
      <trkpt lat="43.9534" lon="4.53798">
        <ele>78.508492</ele>
        <time>2025-02-05T13:41:45.304Z</time>
      </trkpt>
      <trkpt lat="43.9535" lon="4.53807">
        <ele>78.367362</ele>
        <time>2025-02-05T13:41:48.303Z</time>
      </trkpt>
      <trkpt lat="43.9536" lon="4.53816">
        <ele>78.22073</ele>
        <time>2025-02-05T13:41:51.321Z</time>
      </trkpt>
      <trkpt lat="43.9537" lon="4.53826">
        <ele>78.073577</ele>
        <time>2025-02-05T13:41:54.308Z</time>
      </trkpt>
      <trkpt lat="43.95379" lon="4.53836">
        <ele>77.93511</ele>
        <time>2025-02-05T13:41:57.316Z</time>
      </trkpt>
      <trkpt lat="43.95388" lon="4.53845">
        <ele>77.796496</ele>
        <time>2025-02-05T13:42:00.305Z</time>
      </trkpt>
      <trkpt lat="43.95397" lon="4.53854">
        <ele>77.657743</ele>
        <time>2025-02-05T13:42:03.302Z</time>
      </trkpt>
      <trkpt lat="43.95405" lon="4.53863">
        <ele>77.529622</ele>
        <time>2025-02-05T13:42:06.305Z</time>
      </trkpt>
      <trkpt lat="43.95413" lon="4.53871">
        <ele>77.406587</ele>
        <time>2025-02-05T13:42:09.329Z</time>
      </trkpt>
      <trkpt lat="43.95421" lon="4.5388">
        <ele>77.283858</ele>
        <time>2025-02-05T13:42:12.308Z</time>
      </trkpt>
      <trkpt lat="43.95429" lon="4.53888">
        <ele>77.170161</ele>
        <time>2025-02-05T13:42:15.312Z</time>
      </trkpt>
      <trkpt lat="43.95435" lon="4.53896">
        <ele>77.120825</ele>
        <time>2025-02-05T13:42:18.269Z</time>
      </trkpt>
      <trkpt lat="43.95443" lon="4.53905">
        <ele>77.310805</ele>
        <time>2025-02-05T13:42:22.295Z</time>
      </trkpt>
      <trkpt lat="43.95452" lon="4.53914">
        <ele>77.517434</ele>
        <time>2025-02-05T13:42:27.303Z</time>
      </trkpt>
      <trkpt lat="43.9546" lon="4.53905">
        <ele>77.700043</ele>
        <time>2025-02-05T13:42:32.293Z</time>
      </trkpt>
      <trkpt lat="43.95467" lon="4.53898">
        <ele>77.87162</ele>
        <time>2025-02-05T13:42:36.287Z</time>
      </trkpt>
      <trkpt lat="43.95475" lon="4.53891">
        <ele>78.038741</ele>
        <time>2025-02-05T13:42:40.295Z</time>
      </trkpt>
      <trkpt lat="43.9548" lon="4.53879">
        <ele>78.220158</ele>
        <time>2025-02-05T13:42:44.299Z</time>
      </trkpt>
      <trkpt lat="43.9548" lon="4.53865">
        <ele>78.406274</ele>
        <time>2025-02-05T13:42:48.292Z</time>
      </trkpt>
      <trkpt lat="43.95478" lon="4.53852">
        <ele>78.591093</ele>
        <time>2025-02-05T13:42:52.294Z</time>
      </trkpt>
      <trkpt lat="43.95478" lon="4.53837">
        <ele>78.791716</ele>
        <time>2025-02-05T13:42:56.312Z</time>
      </trkpt>
      <trkpt lat="43.95478" lon="4.53821">
        <ele>79.006911</ele>
        <time>2025-02-05T13:43:00.306Z</time>
      </trkpt>
      <trkpt lat="43.95478" lon="4.53805">
        <ele>79.218219</ele>
        <time>2025-02-05T13:43:04.310Z</time>
      </trkpt>
      <trkpt lat="43.95478" lon="4.53789">
        <ele>79.426723</ele>
        <time>2025-02-05T13:43:08.304Z</time>
      </trkpt>
      <trkpt lat="43.95477" lon="4.53777">
        <ele>79.595172</ele>
        <time>2025-02-05T13:43:12.306Z</time>
      </trkpt>
      <trkpt lat="43.95476" lon="4.53762">
        <ele>79.790709</ele>
        <time>2025-02-05T13:43:16.320Z</time>
      </trkpt>
      <trkpt lat="43.95476" lon="4.53749">
        <ele>79.970049</ele>
        <time>2025-02-05T13:43:20.310Z</time>
      </trkpt>
      <trkpt lat="43.95474" lon="4.53736">
        <ele>80.145471</ele>
        <time>2025-02-05T13:43:33.293Z</time>
      </trkpt>
      <trkpt lat="43.95474" lon="4.53723">
        <ele>80.32065</ele>
        <time>2025-02-05T13:43:37.304Z</time>
      </trkpt>
      <trkpt lat="43.95472" lon="4.53708">
        <ele>80.48989</ele>
        <time>2025-02-05T13:43:42.304Z</time>
      </trkpt>
      <trkpt lat="43.95469" lon="4.53695">
        <ele>80.604607</ele>
        <time>2025-02-05T13:43:46.304Z</time>
      </trkpt>
      <trkpt lat="43.95467" lon="4.53681">
        <ele>80.734986</ele>
        <time>2025-02-05T13:43:51.322Z</time>
      </trkpt>
      <trkpt lat="43.95464" lon="4.53665">
        <ele>80.873427</ele>
        <time>2025-02-05T13:43:56.290Z</time>
      </trkpt>
      <trkpt lat="43.95464" lon="4.5365">
        <ele>81.00934</ele>
        <time>2025-02-05T13:44:01.310Z</time>
      </trkpt>
      <trkpt lat="43.95465" lon="4.53636">
        <ele>81.13224</ele>
        <time>2025-02-05T13:44:05.288Z</time>
      </trkpt>
      <trkpt lat="43.95466" lon="4.53619">
        <ele>81.275219</ele>
        <time>2025-02-05T13:44:09.310Z</time>
      </trkpt>
      <trkpt lat="43.95467" lon="4.53603">
        <ele>81.417929</ele>
        <time>2025-02-05T13:44:13.290Z</time>
      </trkpt>
      <trkpt lat="43.95469" lon="4.53588">
        <ele>81.554418</ele>
        <time>2025-02-05T13:44:17.313Z</time>
      </trkpt>
      <trkpt lat="43.95472" lon="4.53575">
        <ele>81.668033</ele>
        <time>2025-02-05T13:44:20.306Z</time>
      </trkpt>
      <trkpt lat="43.95473" lon="4.53562">
        <ele>81.786853</ele>
        <time>2025-02-05T13:44:23.306Z</time>
      </trkpt>
      <trkpt lat="43.95476" lon="4.53549">
        <ele>81.899911</ele>
        <time>2025-02-05T13:44:26.321Z</time>
      </trkpt>
      <trkpt lat="43.95479" lon="4.53534">
        <ele>82.045508</ele>
        <time>2025-02-05T13:44:30.305Z</time>
      </trkpt>
      <trkpt lat="43.95484" lon="4.53519">
        <ele>82.189188</ele>
        <time>2025-02-05T13:44:34.308Z</time>
      </trkpt>
      <trkpt lat="43.95489" lon="4.53503">
        <ele>82.334835</ele>
        <time>2025-02-05T13:44:38.304Z</time>
      </trkpt>
      <trkpt lat="43.95493" lon="4.53491">
        <ele>82.456634</ele>
        <time>2025-02-05T13:44:41.313Z</time>
      </trkpt>
      <trkpt lat="43.95497" lon="4.53478">
        <ele>82.578309</ele>
        <time>2025-02-05T13:44:44.308Z</time>
      </trkpt>
      <trkpt lat="43.95503" lon="4.53464">
        <ele>82.879584</ele>
        <time>2025-02-05T13:44:48.316Z</time>
      </trkpt>
      <trkpt lat="43.95509" lon="4.53449">
        <ele>83.230239</ele>
        <time>2025-02-05T13:44:52.309Z</time>
      </trkpt>
      <trkpt lat="43.95515" lon="4.53435">
        <ele>83.580499</ele>
        <time>2025-02-05T13:44:56.307Z</time>
      </trkpt>
      <trkpt lat="43.9552" lon="4.53423">
        <ele>83.88798</ele>
        <time>2025-02-05T13:45:00.316Z</time>
      </trkpt>
      <trkpt lat="43.95528" lon="4.53415">
        <ele>84.179101</ele>
        <time>2025-02-05T13:45:03.286Z</time>
      </trkpt>
      <trkpt lat="43.95537" lon="4.53403">
        <ele>84.536321</ele>
        <time>2025-02-05T13:45:06.292Z</time>
      </trkpt>
      <trkpt lat="43.95543" lon="4.53389">
        <ele>84.884871</ele>
        <time>2025-02-05T13:45:09.289Z</time>
      </trkpt>
      <trkpt lat="43.95549" lon="4.53376">
        <ele>85.211977</ele>
        <time>2025-02-05T13:45:12.291Z</time>
      </trkpt>
      <trkpt lat="43.95554" lon="4.53364">
        <ele>85.510308</ele>
        <time>2025-02-05T13:45:15.300Z</time>
      </trkpt>
      <trkpt lat="43.95559" lon="4.53353">
        <ele>85.783015</ele>
        <time>2025-02-05T13:45:18.324Z</time>
      </trkpt>
      <trkpt lat="43.95565" lon="4.53339">
        <ele>86.131085</ele>
        <time>2025-02-05T13:45:22.303Z</time>
      </trkpt>
      <trkpt lat="43.9557" lon="4.53326">
        <ele>86.437008</ele>
        <time>2025-02-05T13:45:26.307Z</time>
      </trkpt>
      <trkpt lat="43.95575" lon="4.53313">
        <ele>86.753788</ele>
        <time>2025-02-05T13:45:30.300Z</time>
      </trkpt>
      <trkpt lat="43.9558" lon="4.533">
        <ele>87.063743</ele>
        <time>2025-02-05T13:45:34.313Z</time>
      </trkpt>
      <trkpt lat="43.95586" lon="4.53287">
        <ele>87.385152</ele>
        <time>2025-02-05T13:45:38.306Z</time>
      </trkpt>
      <trkpt lat="43.95591" lon="4.53275">
        <ele>87.68252</ele>
        <time>2025-02-05T13:45:42.302Z</time>
      </trkpt>
      <trkpt lat="43.95596" lon="4.53264">
        <ele>87.943904</ele>
        <time>2025-02-05T13:45:46.298Z</time>
      </trkpt>
      <trkpt lat="43.95601" lon="4.53252">
        <ele>88.068225</ele>
        <time>2025-02-05T13:45:50.316Z</time>
      </trkpt>
      <trkpt lat="43.95605" lon="4.53241">
        <ele>88.185558</ele>
        <time>2025-02-05T13:45:54.307Z</time>
      </trkpt>
      <trkpt lat="43.95609" lon="4.53229">
        <ele>88.303824</ele>
        <time>2025-02-05T13:45:58.297Z</time>
      </trkpt>
      <trkpt lat="43.95614" lon="4.53218">
        <ele>88.421946</ele>
        <time>2025-02-05T13:46:02.294Z</time>
      </trkpt>
      <trkpt lat="43.95619" lon="4.53205">
        <ele>88.562188</ele>
        <time>2025-02-05T13:46:07.296Z</time>
      </trkpt>
      <trkpt lat="43.95624" lon="4.53192">
        <ele>88.693988</ele>
        <time>2025-02-05T13:46:12.291Z</time>
      </trkpt>
      <trkpt lat="43.95629" lon="4.53179">
        <ele>88.830216</ele>
        <time>2025-02-05T13:46:17.296Z</time>
      </trkpt>
      <trkpt lat="43.95634" lon="4.53165">
        <ele>88.967217</ele>
        <time>2025-02-05T13:46:22.293Z</time>
      </trkpt>
      <trkpt lat="43.95638" lon="4.53151">
        <ele>89.105491</ele>
        <time>2025-02-05T13:46:27.301Z</time>
      </trkpt>
      <trkpt lat="43.95642" lon="4.53137">
        <ele>89.241476</ele>
        <time>2025-02-05T13:46:32.300Z</time>
      </trkpt>
      <trkpt lat="43.95645" lon="4.53123">
        <ele>89.381099</ele>
        <time>2025-02-05T13:46:37.310Z</time>
      </trkpt>
      <trkpt lat="43.95648" lon="4.53109">
        <ele>89.517582</ele>
        <time>2025-02-05T13:46:42.293Z</time>
      </trkpt>
      <trkpt lat="43.95649" lon="4.53095">
        <ele>89.641441</ele>
        <time>2025-02-05T13:46:47.301Z</time>
      </trkpt>
      <trkpt lat="43.95642" lon="4.53085">
        <ele>89.778019</ele>
        <time>2025-02-05T13:46:52.303Z</time>
      </trkpt>
      <trkpt lat="43.95639" lon="4.5307">
        <ele>89.919596</ele>
        <time>2025-02-05T13:46:57.305Z</time>
      </trkpt>
      <trkpt lat="43.95645" lon="4.53058">
        <ele>90.052202</ele>
        <time>2025-02-05T13:47:01.325Z</time>
      </trkpt>
      <trkpt lat="43.95652" lon="4.53047">
        <ele>90.184878</ele>
        <time>2025-02-05T13:47:07.285Z</time>
      </trkpt>
      <trkpt lat="43.95659" lon="4.53035">
        <ele>90.013563</ele>
        <time>2025-02-05T13:47:13.288Z</time>
      </trkpt>
      <trkpt lat="43.95668" lon="4.53037">
        <ele>89.796755</ele>
        <time>2025-02-05T13:47:18.286Z</time>
      </trkpt>
      <trkpt lat="43.95678" lon="4.53041">
        <ele>89.560222</ele>
        <time>2025-02-05T13:47:23.306Z</time>
      </trkpt>
      <trkpt lat="43.95686" lon="4.53044">
        <ele>89.350007</ele>
        <time>2025-02-05T13:47:26.285Z</time>
      </trkpt>
      <trkpt lat="43.95695" lon="4.5305">
        <ele>89.123002</ele>
        <time>2025-02-05T13:47:29.290Z</time>
      </trkpt>
      <trkpt lat="43.95702" lon="4.53061">
        <ele>88.890027</ele>
        <time>2025-02-05T13:47:32.293Z</time>
      </trkpt>
      <trkpt lat="43.95709" lon="4.53068">
        <ele>88.679852</ele>
        <time>2025-02-05T13:47:35.309Z</time>
      </trkpt>
      <trkpt lat="43.9572" lon="4.53062">
        <ele>88.407392</ele>
        <time>2025-02-05T13:47:38.304Z</time>
      </trkpt>
      <trkpt lat="43.95732" lon="4.53053">
        <ele>88.104568</ele>
        <time>2025-02-05T13:47:41.309Z</time>
      </trkpt>
      <trkpt lat="43.95743" lon="4.53044">
        <ele>87.806752</ele>
        <time>2025-02-05T13:47:44.300Z</time>
      </trkpt>
      <trkpt lat="43.95753" lon="4.53035">
        <ele>87.524156</ele>
        <time>2025-02-05T13:47:47.306Z</time>
      </trkpt>
      <trkpt lat="43.95763" lon="4.53027">
        <ele>87.26121</ele>
        <time>2025-02-05T13:47:50.307Z</time>
      </trkpt>
      <trkpt lat="43.95773" lon="4.53019">
        <ele>86.999127</ele>
        <time>2025-02-05T13:47:53.310Z</time>
      </trkpt>
      <trkpt lat="43.95782" lon="4.53011">
        <ele>86.748666</ele>
        <time>2025-02-05T13:47:56.301Z</time>
      </trkpt>
      <trkpt lat="43.95789" lon="4.53001">
        <ele>86.509075</ele>
        <time>2025-02-05T13:47:59.291Z</time>
      </trkpt>
      <trkpt lat="43.95797" lon="4.52992">
        <ele>86.281946</ele>
        <time>2025-02-05T13:48:02.329Z</time>
      </trkpt>
      <trkpt lat="43.95805" lon="4.52986">
        <ele>86.062488</ele>
        <time>2025-02-05T13:48:05.306Z</time>
      </trkpt>
      <trkpt lat="43.95816" lon="4.52982">
        <ele>85.898044</ele>
        <time>2025-02-05T13:48:09.289Z</time>
      </trkpt>
      <trkpt lat="43.95827" lon="4.52978">
        <ele>85.738375</ele>
        <time>2025-02-05T13:48:13.312Z</time>
      </trkpt>
      <trkpt lat="43.95837" lon="4.52976">
        <ele>85.605253</ele>
        <time>2025-02-05T13:48:17.303Z</time>
      </trkpt>
      <trkpt lat="43.95847" lon="4.5298">
        <ele>85.454983</ele>
        <time>2025-02-05T13:48:21.301Z</time>
      </trkpt>
      <trkpt lat="43.95856" lon="4.52981">
        <ele>85.327166</ele>
        <time>2025-02-05T13:48:24.293Z</time>
      </trkpt>
      <trkpt lat="43.95867" lon="4.52979">
        <ele>85.172168</ele>
        <time>2025-02-05T13:48:28.313Z</time>
      </trkpt>
      <trkpt lat="43.95876" lon="4.52975">
        <ele>85.044753</ele>
        <time>2025-02-05T13:48:31.303Z</time>
      </trkpt>
      <trkpt lat="43.95887" lon="4.5297">
        <ele>84.878099</ele>
        <time>2025-02-05T13:48:35.318Z</time>
      </trkpt>
      <trkpt lat="43.95897" lon="4.52966">
        <ele>84.743736</ele>
        <time>2025-02-05T13:48:38.292Z</time>
      </trkpt>
      <trkpt lat="43.95906" lon="4.52963">
        <ele>84.6067</ele>
        <time>2025-02-05T13:48:41.306Z</time>
      </trkpt>
      <trkpt lat="43.95918" lon="4.52958">
        <ele>84.441027</ele>
        <time>2025-02-05T13:48:45.304Z</time>
      </trkpt>
      <trkpt lat="43.95929" lon="4.52954">
        <ele>84.284421</ele>
        <time>2025-02-05T13:48:49.305Z</time>
      </trkpt>
      <trkpt lat="43.95937" lon="4.52951">
        <ele>84.159666</ele>
        <time>2025-02-05T13:48:52.306Z</time>
      </trkpt>
      <trkpt lat="43.95949" lon="4.52946">
        <ele>83.990974</ele>
        <time>2025-02-05T13:48:56.309Z</time>
      </trkpt>
      <trkpt lat="43.95958" lon="4.52942">
        <ele>83.853385</ele>
        <time>2025-02-05T13:48:59.289Z</time>
      </trkpt>
      <trkpt lat="43.95968" lon="4.52939">
        <ele>83.713131</ele>
        <time>2025-02-05T13:49:02.318Z</time>
      </trkpt>
      <trkpt lat="43.95977" lon="4.52935">
        <ele>83.580057</ele>
        <time>2025-02-05T13:49:05.311Z</time>
      </trkpt>
      <trkpt lat="43.95986" lon="4.52932">
        <ele>83.52948</ele>
        <time>2025-02-05T13:49:08.321Z</time>
      </trkpt>
      <trkpt lat="43.95996" lon="4.52929">
        <ele>83.501098</ele>
        <time>2025-02-05T13:49:11.307Z</time>
      </trkpt>
      <trkpt lat="43.96007" lon="4.52925">
        <ele>83.465758</ele>
        <time>2025-02-05T13:49:15.299Z</time>
      </trkpt>
      <trkpt lat="43.96017" lon="4.52921">
        <ele>83.436411</ele>
        <time>2025-02-05T13:49:18.308Z</time>
      </trkpt>
      <trkpt lat="43.96027" lon="4.52918">
        <ele>83.406257</ele>
        <time>2025-02-05T13:49:21.305Z</time>
      </trkpt>
      <trkpt lat="43.96037" lon="4.52914">
        <ele>83.3748</ele>
        <time>2025-02-05T13:49:24.301Z</time>
      </trkpt>
      <trkpt lat="43.96048" lon="4.52909">
        <ele>83.339452</ele>
        <time>2025-02-05T13:49:27.294Z</time>
      </trkpt>
      <trkpt lat="43.96058" lon="4.52904">
        <ele>83.308026</ele>
        <time>2025-02-05T13:49:30.320Z</time>
      </trkpt>
      <trkpt lat="43.96068" lon="4.52899">
        <ele>83.27758</ele>
        <time>2025-02-05T13:49:33.314Z</time>
      </trkpt>
      <trkpt lat="43.96078" lon="4.52893">
        <ele>83.245699</ele>
        <time>2025-02-05T13:49:36.272Z</time>
      </trkpt>
      <trkpt lat="43.96088" lon="4.52888">
        <ele>83.214251</ele>
        <time>2025-02-05T13:49:39.300Z</time>
      </trkpt>
      <trkpt lat="43.96097" lon="4.52881">
        <ele>83.184561</ele>
        <time>2025-02-05T13:49:42.306Z</time>
      </trkpt>
      <trkpt lat="43.96107" lon="4.52875">
        <ele>83.152792</ele>
        <time>2025-02-05T13:49:45.303Z</time>
      </trkpt>
      <trkpt lat="43.96115" lon="4.52867">
        <ele>83.122041</ele>
        <time>2025-02-05T13:49:48.303Z</time>
      </trkpt>
      <trkpt lat="43.96125" lon="4.5286">
        <ele>83.090456</ele>
        <time>2025-02-05T13:49:51.288Z</time>
      </trkpt>
      <trkpt lat="43.96134" lon="4.52852">
        <ele>83.059314</ele>
        <time>2025-02-05T13:49:54.302Z</time>
      </trkpt>
      <trkpt lat="43.96142" lon="4.52844">
        <ele>83.028697</ele>
        <time>2025-02-05T13:49:57.294Z</time>
      </trkpt>
      <trkpt lat="43.96151" lon="4.52836">
        <ele>82.970067</ele>
        <time>2025-02-05T13:50:00.298Z</time>
      </trkpt>
      <trkpt lat="43.9616" lon="4.52826">
        <ele>82.899543</ele>
        <time>2025-02-05T13:50:03.301Z</time>
      </trkpt>
      <trkpt lat="43.96168" lon="4.52817">
        <ele>82.831249</ele>
        <time>2025-02-05T13:50:06.301Z</time>
      </trkpt>
      <trkpt lat="43.96176" lon="4.52807">
        <ele>82.762417</ele>
        <time>2025-02-05T13:50:09.290Z</time>
      </trkpt>
      <trkpt lat="43.96184" lon="4.52796">
        <ele>82.692488</ele>
        <time>2025-02-05T13:50:12.305Z</time>
      </trkpt>
      <trkpt lat="43.96192" lon="4.52787">
        <ele>82.625063</ele>
        <time>2025-02-05T13:50:15.304Z</time>
      </trkpt>
      <trkpt lat="43.96199" lon="4.52776">
        <ele>82.557903</ele>
        <time>2025-02-05T13:50:18.300Z</time>
      </trkpt>
      <trkpt lat="43.96206" lon="4.52765">
        <ele>82.488421</ele>
        <time>2025-02-05T13:50:21.300Z</time>
      </trkpt>
      <trkpt lat="43.96213" lon="4.52753">
        <ele>82.418502</ele>
        <time>2025-02-05T13:50:24.293Z</time>
      </trkpt>
      <trkpt lat="43.9622" lon="4.52741">
        <ele>82.34658</ele>
        <time>2025-02-05T13:50:27.296Z</time>
      </trkpt>
      <trkpt lat="43.96227" lon="4.52729">
        <ele>82.274581</ele>
        <time>2025-02-05T13:50:30.304Z</time>
      </trkpt>
      <trkpt lat="43.96234" lon="4.52716">
        <ele>82.20041</ele>
        <time>2025-02-05T13:50:33.303Z</time>
      </trkpt>
      <trkpt lat="43.9624" lon="4.52702">
        <ele>82.125457</ele>
        <time>2025-02-05T13:50:36.302Z</time>
      </trkpt>
      <trkpt lat="43.96247" lon="4.52688">
        <ele>82.046286</ele>
        <time>2025-02-05T13:50:39.299Z</time>
      </trkpt>
      <trkpt lat="43.96253" lon="4.52672">
        <ele>81.96588</ele>
        <time>2025-02-05T13:50:42.292Z</time>
      </trkpt>
      <trkpt lat="43.96259" lon="4.52657">
        <ele>81.884964</ele>
        <time>2025-02-05T13:50:45.308Z</time>
      </trkpt>
      <trkpt lat="43.96265" lon="4.52643">
        <ele>81.933098</ele>
        <time>2025-02-05T13:50:48.303Z</time>
      </trkpt>
      <trkpt lat="43.96273" lon="4.52631">
        <ele>82.024727</ele>
        <time>2025-02-05T13:50:51.286Z</time>
      </trkpt>
      <trkpt lat="43.96279" lon="4.52617">
        <ele>82.113271</ele>
        <time>2025-02-05T13:50:54.273Z</time>
      </trkpt>
      <trkpt lat="43.96283" lon="4.52603">
        <ele>82.201984</ele>
        <time>2025-02-05T13:50:57.291Z</time>
      </trkpt>
      <trkpt lat="43.96289" lon="4.52588">
        <ele>82.294441</ele>
        <time>2025-02-05T13:51:00.303Z</time>
      </trkpt>
      <trkpt lat="43.96294" lon="4.52573">
        <ele>82.387189</ele>
        <time>2025-02-05T13:51:03.306Z</time>
      </trkpt>
      <trkpt lat="43.96299" lon="4.52561">
        <ele>82.469071</ele>
        <time>2025-02-05T13:51:06.300Z</time>
      </trkpt>
      <trkpt lat="43.96305" lon="4.52549">
        <ele>82.549683</ele>
        <time>2025-02-05T13:51:09.288Z</time>
      </trkpt>
      <trkpt lat="43.96309" lon="4.52535">
        <ele>82.630986</ele>
        <time>2025-02-05T13:51:12.286Z</time>
      </trkpt>
      <trkpt lat="43.96315" lon="4.52523">
        <ele>82.715698</ele>
        <time>2025-02-05T13:51:15.280Z</time>
      </trkpt>
      <trkpt lat="43.9632" lon="4.5251">
        <ele>82.799885</ele>
        <time>2025-02-05T13:51:18.298Z</time>
      </trkpt>
      <trkpt lat="43.96326" lon="4.52498">
        <ele>82.881864</ele>
        <time>2025-02-05T13:51:21.301Z</time>
      </trkpt>
      <trkpt lat="43.96331" lon="4.52485">
        <ele>82.96297</ele>
        <time>2025-02-05T13:51:24.312Z</time>
      </trkpt>
      <trkpt lat="43.96336" lon="4.52473">
        <ele>83.041009</ele>
        <time>2025-02-05T13:51:27.304Z</time>
      </trkpt>
      <trkpt lat="43.96341" lon="4.52461">
        <ele>83.118035</ele>
        <time>2025-02-05T13:51:30.312Z</time>
      </trkpt>
      <trkpt lat="43.96347" lon="4.52449">
        <ele>83.197987</ele>
        <time>2025-02-05T13:51:33.309Z</time>
      </trkpt>
      <trkpt lat="43.96352" lon="4.52437">
        <ele>83.284166</ele>
        <time>2025-02-05T13:51:36.296Z</time>
      </trkpt>
      <trkpt lat="43.96357" lon="4.52424">
        <ele>83.403205</ele>
        <time>2025-02-05T13:51:39.308Z</time>
      </trkpt>
      <trkpt lat="43.96362" lon="4.52411">
        <ele>83.528678</ele>
        <time>2025-02-05T13:51:42.281Z</time>
      </trkpt>
      <trkpt lat="43.96367" lon="4.52398">
        <ele>83.646571</ele>
        <time>2025-02-05T13:51:45.312Z</time>
      </trkpt>
      <trkpt lat="43.96371" lon="4.52386">
        <ele>83.759997</ele>
        <time>2025-02-05T13:51:48.305Z</time>
      </trkpt>
      <trkpt lat="43.96377" lon="4.52374">
        <ele>83.873872</ele>
        <time>2025-02-05T13:51:51.305Z</time>
      </trkpt>
      <trkpt lat="43.96383" lon="4.52365">
        <ele>83.979061</ele>
        <time>2025-02-05T13:51:54.307Z</time>
      </trkpt>
      <trkpt lat="43.96388" lon="4.52354">
        <ele>84.088618</ele>
        <time>2025-02-05T13:51:57.283Z</time>
      </trkpt>
      <trkpt lat="43.96394" lon="4.52341">
        <ele>84.211111</ele>
        <time>2025-02-05T13:52:00.275Z</time>
      </trkpt>
      <trkpt lat="43.96399" lon="4.52328">
        <ele>84.334158</ele>
        <time>2025-02-05T13:52:03.302Z</time>
      </trkpt>
      <trkpt lat="43.96404" lon="4.52315">
        <ele>84.457567</ele>
        <time>2025-02-05T13:52:06.295Z</time>
      </trkpt>
      <trkpt lat="43.9641" lon="4.52303">
        <ele>84.580466</ele>
        <time>2025-02-05T13:52:09.289Z</time>
      </trkpt>
      <trkpt lat="43.96415" lon="4.52291">
        <ele>84.697907</ele>
        <time>2025-02-05T13:52:12.292Z</time>
      </trkpt>
      <trkpt lat="43.9642" lon="4.52277">
        <ele>84.825858</ele>
        <time>2025-02-05T13:52:15.296Z</time>
      </trkpt>
      <trkpt lat="43.96426" lon="4.52264">
        <ele>84.951633</ele>
        <time>2025-02-05T13:52:18.295Z</time>
      </trkpt>
      <trkpt lat="43.96431" lon="4.52251">
        <ele>85.076129</ele>
        <time>2025-02-05T13:52:21.291Z</time>
      </trkpt>
      <trkpt lat="43.96435" lon="4.52237">
        <ele>85.199703</ele>
        <time>2025-02-05T13:52:24.281Z</time>
      </trkpt>
      <trkpt lat="43.9644" lon="4.52224">
        <ele>85.321469</ele>
        <time>2025-02-05T13:52:27.283Z</time>
      </trkpt>
      <trkpt lat="43.96446" lon="4.52212">
        <ele>85.475693</ele>
        <time>2025-02-05T13:52:30.298Z</time>
      </trkpt>
      <trkpt lat="43.9645" lon="4.522">
        <ele>85.627319</ele>
        <time>2025-02-05T13:52:33.296Z</time>
      </trkpt>
      <trkpt lat="43.96456" lon="4.52189">
        <ele>85.780611</ele>
        <time>2025-02-05T13:52:36.296Z</time>
      </trkpt>
      <trkpt lat="43.9646" lon="4.52177">
        <ele>85.934634</ele>
        <time>2025-02-05T13:52:39.284Z</time>
      </trkpt>
      <trkpt lat="43.96465" lon="4.52165">
        <ele>86.089377</ele>
        <time>2025-02-05T13:52:42.284Z</time>
      </trkpt>
      <trkpt lat="43.9647" lon="4.52154">
        <ele>86.23457</ele>
        <time>2025-02-05T13:52:45.301Z</time>
      </trkpt>
      <trkpt lat="43.96475" lon="4.52142">
        <ele>86.390513</ele>
        <time>2025-02-05T13:52:48.293Z</time>
      </trkpt>
      <trkpt lat="43.96481" lon="4.52131">
        <ele>86.550834</ele>
        <time>2025-02-05T13:52:51.291Z</time>
      </trkpt>
      <trkpt lat="43.96486" lon="4.52119">
        <ele>86.711409</ele>
        <time>2025-02-05T13:52:54.292Z</time>
      </trkpt>
      <trkpt lat="43.96491" lon="4.52106">
        <ele>86.867351</ele>
        <time>2025-02-05T13:52:57.297Z</time>
      </trkpt>
      <trkpt lat="43.96497" lon="4.52092">
        <ele>87.054374</ele>
        <time>2025-02-05T13:53:01.300Z</time>
      </trkpt>
      <trkpt lat="43.96502" lon="4.5208">
        <ele>87.210096</ele>
        <time>2025-02-05T13:53:04.296Z</time>
      </trkpt>
      <trkpt lat="43.96507" lon="4.52067">
        <ele>87.373258</ele>
        <time>2025-02-05T13:53:07.291Z</time>
      </trkpt>
      <trkpt lat="43.96511" lon="4.52056">
        <ele>87.522542</ele>
        <time>2025-02-05T13:53:10.290Z</time>
      </trkpt>
      <trkpt lat="43.96517" lon="4.52044">
        <ele>87.673831</ele>
        <time>2025-02-05T13:53:13.295Z</time>
      </trkpt>
      <trkpt lat="43.96522" lon="4.52032">
        <ele>87.831928</ele>
        <time>2025-02-05T13:53:16.300Z</time>
      </trkpt>
      <trkpt lat="43.96526" lon="4.5202">
        <ele>87.987379</ele>
        <time>2025-02-05T13:53:19.286Z</time>
      </trkpt>
      <trkpt lat="43.96532" lon="4.52009">
        <ele>88.14236</ele>
        <time>2025-02-05T13:53:22.281Z</time>
      </trkpt>
      <trkpt lat="43.96536" lon="4.51996">
        <ele>88.133022</ele>
        <time>2025-02-05T13:53:25.289Z</time>
      </trkpt>
      <trkpt lat="43.96541" lon="4.51984">
        <ele>88.109107</ele>
        <time>2025-02-05T13:53:28.286Z</time>
      </trkpt>
      <trkpt lat="43.96546" lon="4.51973">
        <ele>88.086182</ele>
        <time>2025-02-05T13:53:31.291Z</time>
      </trkpt>
      <trkpt lat="43.96551" lon="4.51962">
        <ele>88.061996</ele>
        <time>2025-02-05T13:53:34.294Z</time>
      </trkpt>
      <trkpt lat="43.96556" lon="4.5195">
        <ele>88.038394</ele>
        <time>2025-02-05T13:53:37.290Z</time>
      </trkpt>
      <trkpt lat="43.96561" lon="4.51937">
        <ele>88.010934</ele>
        <time>2025-02-05T13:53:40.289Z</time>
      </trkpt>
      <trkpt lat="43.96566" lon="4.51923">
        <ele>87.982173</ele>
        <time>2025-02-05T13:53:43.288Z</time>
      </trkpt>
      <trkpt lat="43.96571" lon="4.51909">
        <ele>87.955498</ele>
        <time>2025-02-05T13:53:46.288Z</time>
      </trkpt>
      <trkpt lat="43.96576" lon="4.51896">
        <ele>87.928915</ele>
        <time>2025-02-05T13:53:49.294Z</time>
      </trkpt>
      <trkpt lat="43.9658" lon="4.51881">
        <ele>87.901318</ele>
        <time>2025-02-05T13:53:52.270Z</time>
      </trkpt>
      <trkpt lat="43.96584" lon="4.51866">
        <ele>87.872635</ele>
        <time>2025-02-05T13:53:55.295Z</time>
      </trkpt>
      <trkpt lat="43.96589" lon="4.51852">
        <ele>87.844658</ele>
        <time>2025-02-05T13:53:58.294Z</time>
      </trkpt>
      <trkpt lat="43.96593" lon="4.51837">
        <ele>87.816652</ele>
        <time>2025-02-05T13:54:01.301Z</time>
      </trkpt>
      <trkpt lat="43.96596" lon="4.51824">
        <ele>87.790983</ele>
        <time>2025-02-05T13:54:04.312Z</time>
      </trkpt>
      <trkpt lat="43.96599" lon="4.51812">
        <ele>87.768001</ele>
        <time>2025-02-05T13:54:07.304Z</time>
      </trkpt>
      <trkpt lat="43.96602" lon="4.51799">
        <ele>87.744102</ele>
        <time>2025-02-05T13:54:10.301Z</time>
      </trkpt>
      <trkpt lat="43.96605" lon="4.51786">
        <ele>87.719358</ele>
        <time>2025-02-05T13:54:13.307Z</time>
      </trkpt>
      <trkpt lat="43.96609" lon="4.51773">
        <ele>87.852135</ele>
        <time>2025-02-05T13:54:16.290Z</time>
      </trkpt>
      <trkpt lat="43.96611" lon="4.5176">
        <ele>88.077057</ele>
        <time>2025-02-05T13:54:19.298Z</time>
      </trkpt>
      <trkpt lat="43.96615" lon="4.51747">
        <ele>88.309154</ele>
        <time>2025-02-05T13:54:22.296Z</time>
      </trkpt>
      <trkpt lat="43.96618" lon="4.51734">
        <ele>88.531872</ele>
        <time>2025-02-05T13:54:25.300Z</time>
      </trkpt>
      <trkpt lat="43.96621" lon="4.51721">
        <ele>88.754594</ele>
        <time>2025-02-05T13:54:28.311Z</time>
      </trkpt>
      <trkpt lat="43.96623" lon="4.51708">
        <ele>88.975131</ele>
        <time>2025-02-05T13:54:31.305Z</time>
      </trkpt>
      <trkpt lat="43.96626" lon="4.51695">
        <ele>89.201984</ele>
        <time>2025-02-05T13:54:34.277Z</time>
      </trkpt>
      <trkpt lat="43.96629" lon="4.51682">
        <ele>89.435174</ele>
        <time>2025-02-05T13:54:37.296Z</time>
      </trkpt>
      <trkpt lat="43.96631" lon="4.51668">
        <ele>89.665339</ele>
        <time>2025-02-05T13:54:40.310Z</time>
      </trkpt>
      <trkpt lat="43.96634" lon="4.51655">
        <ele>89.897111</ele>
        <time>2025-02-05T13:54:43.306Z</time>
      </trkpt>
      <trkpt lat="43.96636" lon="4.51641">
        <ele>90.131294</ele>
        <time>2025-02-05T13:54:46.317Z</time>
      </trkpt>
      <trkpt lat="43.96638" lon="4.51626">
        <ele>90.377559</ele>
        <time>2025-02-05T13:54:49.286Z</time>
      </trkpt>
      <trkpt lat="43.96639" lon="4.51612">
        <ele>90.61315</ele>
        <time>2025-02-05T13:54:52.283Z</time>
      </trkpt>
      <trkpt lat="43.96641" lon="4.51597">
        <ele>90.858291</ele>
        <time>2025-02-05T13:54:55.284Z</time>
      </trkpt>
      <trkpt lat="43.96641" lon="4.51582">
        <ele>91.112201</ele>
        <time>2025-02-05T13:54:58.310Z</time>
      </trkpt>
      <trkpt lat="43.96643" lon="4.51568">
        <ele>91.354944</ele>
        <time>2025-02-05T13:55:01.302Z</time>
      </trkpt>
      <trkpt lat="43.96644" lon="4.51552">
        <ele>91.615823</ele>
        <time>2025-02-05T13:55:04.302Z</time>
      </trkpt>
      <trkpt lat="43.96645" lon="4.51536">
        <ele>91.868229</ele>
        <time>2025-02-05T13:55:07.299Z</time>
      </trkpt>
      <trkpt lat="43.96645" lon="4.5152">
        <ele>92.034249</ele>
        <time>2025-02-05T13:55:10.301Z</time>
      </trkpt>
      <trkpt lat="43.96646" lon="4.51504">
        <ele>92.201884</ele>
        <time>2025-02-05T13:55:13.303Z</time>
      </trkpt>
      <trkpt lat="43.96647" lon="4.51489">
        <ele>92.36326</ele>
        <time>2025-02-05T13:55:16.309Z</time>
      </trkpt>
      <trkpt lat="43.96648" lon="4.51476">
        <ele>92.498189</ele>
        <time>2025-02-05T13:55:19.295Z</time>
      </trkpt>
      <trkpt lat="43.9665" lon="4.51463">
        <ele>92.630018</ele>
        <time>2025-02-05T13:55:22.279Z</time>
      </trkpt>
      <trkpt lat="43.9665" lon="4.51451">
        <ele>92.761927</ele>
        <time>2025-02-05T13:55:25.309Z</time>
      </trkpt>
      <trkpt lat="43.96651" lon="4.51435">
        <ele>92.923818</ele>
        <time>2025-02-05T13:55:29.305Z</time>
      </trkpt>
      <trkpt lat="43.96652" lon="4.5142">
        <ele>93.079674</ele>
        <time>2025-02-05T13:55:33.307Z</time>
      </trkpt>
      <trkpt lat="43.96653" lon="4.51404">
        <ele>93.248623</ele>
        <time>2025-02-05T13:55:37.307Z</time>
      </trkpt>
      <trkpt lat="43.96654" lon="4.51388">
        <ele>93.41535</ele>
        <time>2025-02-05T13:55:41.300Z</time>
      </trkpt>
      <trkpt lat="43.96655" lon="4.51372">
        <ele>93.586105</ele>
        <time>2025-02-05T13:55:45.313Z</time>
      </trkpt>
      <trkpt lat="43.96655" lon="4.51359">
        <ele>93.723033</ele>
        <time>2025-02-05T13:55:48.311Z</time>
      </trkpt>
      <trkpt lat="43.96655" lon="4.51346">
        <ele>93.85885</ele>
        <time>2025-02-05T13:55:51.295Z</time>
      </trkpt>
      <trkpt lat="43.96655" lon="4.51333">
        <ele>93.994666</ele>
        <time>2025-02-05T13:55:54.297Z</time>
      </trkpt>
      <trkpt lat="43.96654" lon="4.51319">
        <ele>94.142019</ele>
        <time>2025-02-05T13:55:57.302Z</time>
      </trkpt>
      <trkpt lat="43.96653" lon="4.51305">
        <ele>94.28945</ele>
        <time>2025-02-05T13:56:00.304Z</time>
      </trkpt>
      <trkpt lat="43.96653" lon="4.51291">
        <ele>94.438122</ele>
        <time>2025-02-05T13:56:03.290Z</time>
      </trkpt>
      <trkpt lat="43.96652" lon="4.51276">
        <ele>94.362429</ele>
        <time>2025-02-05T13:56:06.306Z</time>
      </trkpt>
      <trkpt lat="43.96651" lon="4.51262">
        <ele>94.258641</ele>
        <time>2025-02-05T13:56:09.293Z</time>
      </trkpt>
      <trkpt lat="43.9665" lon="4.51248">
        <ele>94.15388</ele>
        <time>2025-02-05T13:56:12.298Z</time>
      </trkpt>
      <trkpt lat="43.96649" lon="4.51233">
        <ele>94.046786</ele>
        <time>2025-02-05T13:56:15.285Z</time>
      </trkpt>
      <trkpt lat="43.96648" lon="4.51218">
        <ele>93.935168</ele>
        <time>2025-02-05T13:56:18.306Z</time>
      </trkpt>
      <trkpt lat="43.96647" lon="4.51202">
        <ele>93.822489</ele>
        <time>2025-02-05T13:56:21.307Z</time>
      </trkpt>
      <trkpt lat="43.96645" lon="4.51187">
        <ele>93.711929</ele>
        <time>2025-02-05T13:56:24.316Z</time>
      </trkpt>
      <trkpt lat="43.96643" lon="4.51173">
        <ele>93.604403</ele>
        <time>2025-02-05T13:56:27.304Z</time>
      </trkpt>
      <trkpt lat="43.96642" lon="4.51158">
        <ele>93.499022</ele>
        <time>2025-02-05T13:56:30.291Z</time>
      </trkpt>
      <trkpt lat="43.9664" lon="4.51144">
        <ele>93.391817</ele>
        <time>2025-02-05T13:56:33.295Z</time>
      </trkpt>
      <trkpt lat="43.96638" lon="4.51129">
        <ele>93.283105</ele>
        <time>2025-02-05T13:56:36.281Z</time>
      </trkpt>
      <trkpt lat="43.96635" lon="4.51114">
        <ele>93.172976</ele>
        <time>2025-02-05T13:56:39.297Z</time>
      </trkpt>
      <trkpt lat="43.96632" lon="4.511">
        <ele>93.062143</ele>
        <time>2025-02-05T13:56:42.293Z</time>
      </trkpt>
      <trkpt lat="43.9663" lon="4.51086">
        <ele>92.961664</ele>
        <time>2025-02-05T13:56:45.297Z</time>
      </trkpt>
      <trkpt lat="43.96628" lon="4.51073">
        <ele>92.861787</ele>
        <time>2025-02-05T13:56:48.298Z</time>
      </trkpt>
      <trkpt lat="43.96626" lon="4.51059">
        <ele>92.759892</ele>
        <time>2025-02-05T13:56:51.294Z</time>
      </trkpt>
      <trkpt lat="43.96624" lon="4.51045">
        <ele>92.654232</ele>
        <time>2025-02-05T13:56:54.300Z</time>
      </trkpt>
      <trkpt lat="43.96621" lon="4.51028">
        <ele>92.711242</ele>
        <time>2025-02-05T13:56:57.289Z</time>
      </trkpt>
      <trkpt lat="43.96617" lon="4.51016">
        <ele>92.772618</ele>
        <time>2025-02-05T13:56:59.310Z</time>
      </trkpt>
      <trkpt lat="43.96615" lon="4.51002">
        <ele>92.838924</ele>
        <time>2025-02-05T13:57:01.294Z</time>
      </trkpt>
      <trkpt lat="43.96612" lon="4.50986">
        <ele>92.915646</ele>
        <time>2025-02-05T13:57:03.296Z</time>
      </trkpt>
      <trkpt lat="43.96609" lon="4.5097">
        <ele>92.994486</ele>
        <time>2025-02-05T13:57:05.286Z</time>
      </trkpt>
      <trkpt lat="43.96606" lon="4.50956">
        <ele>93.064472</ele>
        <time>2025-02-05T13:57:07.300Z</time>
      </trkpt>
      <trkpt lat="43.96606" lon="4.50941">
        <ele>93.134527</ele>
        <time>2025-02-05T13:57:09.299Z</time>
      </trkpt>
      <trkpt lat="43.96604" lon="4.50925">
        <ele>93.206664</ele>
        <time>2025-02-05T13:57:11.284Z</time>
      </trkpt>
      <trkpt lat="43.96602" lon="4.50911">
        <ele>93.273634</ele>
        <time>2025-02-05T13:57:13.298Z</time>
      </trkpt>
      <trkpt lat="43.966" lon="4.50894">
        <ele>93.35554</ele>
        <time>2025-02-05T13:57:16.305Z</time>
      </trkpt>
      <trkpt lat="43.96598" lon="4.50879">
        <ele>93.426703</ele>
        <time>2025-02-05T13:57:19.297Z</time>
      </trkpt>
      <trkpt lat="43.96597" lon="4.50865">
        <ele>93.492141</ele>
        <time>2025-02-05T13:57:22.285Z</time>
      </trkpt>
      <trkpt lat="43.96596" lon="4.50852">
        <ele>93.555329</ele>
        <time>2025-02-05T13:57:25.306Z</time>
      </trkpt>
      <trkpt lat="43.96595" lon="4.50836">
        <ele>93.626327</ele>
        <time>2025-02-05T13:57:29.290Z</time>
      </trkpt>
      <trkpt lat="43.96594" lon="4.50821">
        <ele>93.698514</ele>
        <time>2025-02-05T13:57:33.281Z</time>
      </trkpt>
      <trkpt lat="43.96594" lon="4.50805">
        <ele>93.773778</ele>
        <time>2025-02-05T13:57:37.303Z</time>
      </trkpt>
      <trkpt lat="43.96593" lon="4.50792">
        <ele>93.897485</ele>
        <time>2025-02-05T13:57:40.303Z</time>
      </trkpt>
      <trkpt lat="43.96593" lon="4.5078">
        <ele>94.105874</ele>
        <time>2025-02-05T13:57:43.300Z</time>
      </trkpt>
      <trkpt lat="43.96593" lon="4.50767">
        <ele>94.31903</ele>
        <time>2025-02-05T13:57:46.292Z</time>
      </trkpt>
      <trkpt lat="43.96594" lon="4.5075">
        <ele>94.591178</ele>
        <time>2025-02-05T13:57:50.280Z</time>
      </trkpt>
      <trkpt lat="43.96595" lon="4.50734">
        <ele>94.865801</ele>
        <time>2025-02-05T13:57:54.309Z</time>
      </trkpt>
      <trkpt lat="43.96596" lon="4.50717">
        <ele>95.139815</ele>
        <time>2025-02-05T13:57:58.293Z</time>
      </trkpt>
      <trkpt lat="43.96596" lon="4.50705">
        <ele>95.346668</ele>
        <time>2025-02-05T13:58:01.296Z</time>
      </trkpt>
      <trkpt lat="43.96597" lon="4.50692">
        <ele>95.561044</ele>
        <time>2025-02-05T13:58:04.297Z</time>
      </trkpt>
      <trkpt lat="43.96599" lon="4.50679">
        <ele>95.777903</ele>
        <time>2025-02-05T13:58:07.291Z</time>
      </trkpt>
      <trkpt lat="43.966" lon="4.50665">
        <ele>96.003603</ele>
        <time>2025-02-05T13:58:10.303Z</time>
      </trkpt>
      <trkpt lat="43.96602" lon="4.50652">
        <ele>96.224774</ele>
        <time>2025-02-05T13:58:13.292Z</time>
      </trkpt>
      <trkpt lat="43.96603" lon="4.50639">
        <ele>96.451219</ele>
        <time>2025-02-05T13:58:16.293Z</time>
      </trkpt>
      <trkpt lat="43.96605" lon="4.50625">
        <ele>96.68589</ele>
        <time>2025-02-05T13:58:19.296Z</time>
      </trkpt>
      <trkpt lat="43.96607" lon="4.50611">
        <ele>96.912005</ele>
        <time>2025-02-05T13:58:22.297Z</time>
      </trkpt>
      <trkpt lat="43.96609" lon="4.50598">
        <ele>97.139738</ele>
        <time>2025-02-05T13:58:25.291Z</time>
      </trkpt>
      <trkpt lat="43.96611" lon="4.50585">
        <ele>97.361002</ele>
        <time>2025-02-05T13:58:28.292Z</time>
      </trkpt>
      <trkpt lat="43.96614" lon="4.50572">
        <ele>97.579803</ele>
        <time>2025-02-05T13:58:31.290Z</time>
      </trkpt>
      <trkpt lat="43.96617" lon="4.50559">
        <ele>97.809111</ele>
        <time>2025-02-05T13:58:34.297Z</time>
      </trkpt>
      <trkpt lat="43.9662" lon="4.50546">
        <ele>97.916648</ele>
        <time>2025-02-05T13:58:37.305Z</time>
      </trkpt>
      <trkpt lat="43.96623" lon="4.50534">
        <ele>97.869436</ele>
        <time>2025-02-05T13:58:40.286Z</time>
      </trkpt>
      <trkpt lat="43.96626" lon="4.50521">
        <ele>97.820454</ele>
        <time>2025-02-05T13:58:43.292Z</time>
      </trkpt>
      <trkpt lat="43.9663" lon="4.50508">
        <ele>97.772105</ele>
        <time>2025-02-05T13:58:46.317Z</time>
      </trkpt>
      <trkpt lat="43.96634" lon="4.50496">
        <ele>97.722833</ele>
        <time>2025-02-05T13:58:49.292Z</time>
      </trkpt>
      <trkpt lat="43.96638" lon="4.50483">
        <ele>97.673027</ele>
        <time>2025-02-05T13:58:52.291Z</time>
      </trkpt>
      <trkpt lat="43.96642" lon="4.50471">
        <ele>97.623554</ele>
        <time>2025-02-05T13:58:55.291Z</time>
      </trkpt>
      <trkpt lat="43.96647" lon="4.50459">
        <ele>97.573857</ele>
        <time>2025-02-05T13:58:58.299Z</time>
      </trkpt>
      <trkpt lat="43.96651" lon="4.50446">
        <ele>97.523631</ele>
        <time>2025-02-05T13:59:01.293Z</time>
      </trkpt>
      <trkpt lat="43.96655" lon="4.50433">
        <ele>97.472962</ele>
        <time>2025-02-05T13:59:04.290Z</time>
      </trkpt>
      <trkpt lat="43.9666" lon="4.50422">
        <ele>97.424827</ele>
        <time>2025-02-05T13:59:07.292Z</time>
      </trkpt>
      <trkpt lat="43.96665" lon="4.50409">
        <ele>97.374581</ele>
        <time>2025-02-05T13:59:10.290Z</time>
      </trkpt>
      <trkpt lat="43.9667" lon="4.50399">
        <ele>97.327202</ele>
        <time>2025-02-05T13:59:13.304Z</time>
      </trkpt>
      <trkpt lat="43.96675" lon="4.50386">
        <ele>97.277678</ele>
        <time>2025-02-05T13:59:16.296Z</time>
      </trkpt>
      <trkpt lat="43.9668" lon="4.50375">
        <ele>97.229149</ele>
        <time>2025-02-05T13:59:19.291Z</time>
      </trkpt>
      <trkpt lat="43.96686" lon="4.50365">
        <ele>97.180913</ele>
        <time>2025-02-05T13:59:22.297Z</time>
      </trkpt>
      <trkpt lat="43.96692" lon="4.50354">
        <ele>97.134139</ele>
        <time>2025-02-05T13:59:25.300Z</time>
      </trkpt>
      <trkpt lat="43.96696" lon="4.50342">
        <ele>97.085383</ele>
        <time>2025-02-05T13:59:28.275Z</time>
      </trkpt>
      <trkpt lat="43.96703" lon="4.50333">
        <ele>97.038387</ele>
        <time>2025-02-05T13:59:31.296Z</time>
      </trkpt>
      <trkpt lat="43.96708" lon="4.50322">
        <ele>97.10856</ele>
        <time>2025-02-05T13:59:34.286Z</time>
      </trkpt>
      <trkpt lat="43.96714" lon="4.50311">
        <ele>97.181295</ele>
        <time>2025-02-05T13:59:37.300Z</time>
      </trkpt>
      <trkpt lat="43.96719" lon="4.503">
        <ele>97.258635</ele>
        <time>2025-02-05T13:59:40.288Z</time>
      </trkpt>
      <trkpt lat="43.96725" lon="4.50289">
        <ele>97.336443</ele>
        <time>2025-02-05T13:59:43.280Z</time>
      </trkpt>
      <trkpt lat="43.96732" lon="4.50279">
        <ele>97.415732</ele>
        <time>2025-02-05T13:59:46.295Z</time>
      </trkpt>
      <trkpt lat="43.96738" lon="4.50267">
        <ele>97.498632</ele>
        <time>2025-02-05T13:59:49.291Z</time>
      </trkpt>
      <trkpt lat="43.96744" lon="4.50256">
        <ele>97.574591</ele>
        <time>2025-02-05T13:59:52.287Z</time>
      </trkpt>
      <trkpt lat="43.96749" lon="4.50246">
        <ele>97.647386</ele>
        <time>2025-02-05T13:59:55.300Z</time>
      </trkpt>
      <trkpt lat="43.96756" lon="4.50233">
        <ele>97.736693</ele>
        <time>2025-02-05T13:59:58.299Z</time>
      </trkpt>
      <trkpt lat="43.96763" lon="4.50221">
        <ele>97.826522</ele>
        <time>2025-02-05T14:00:01.300Z</time>
      </trkpt>
      <trkpt lat="43.9677" lon="4.50209">
        <ele>97.912632</ele>
        <time>2025-02-05T14:00:04.302Z</time>
      </trkpt>
      <trkpt lat="43.96777" lon="4.50198">
        <ele>97.995486</ele>
        <time>2025-02-05T14:00:07.289Z</time>
      </trkpt>
      <trkpt lat="43.96783" lon="4.50186">
        <ele>98.079288</ele>
        <time>2025-02-05T14:00:10.305Z</time>
      </trkpt>
      <trkpt lat="43.96789" lon="4.50174">
        <ele>98.160769</ele>
        <time>2025-02-05T14:00:13.301Z</time>
      </trkpt>
      <trkpt lat="43.96796" lon="4.50163">
        <ele>98.24552</ele>
        <time>2025-02-05T14:00:16.298Z</time>
      </trkpt>
      <trkpt lat="43.96803" lon="4.50151">
        <ele>98.333009</ele>
        <time>2025-02-05T14:00:19.290Z</time>
      </trkpt>
      <trkpt lat="43.9681" lon="4.50138">
        <ele>98.421861</ele>
        <time>2025-02-05T14:00:22.281Z</time>
      </trkpt>
      <trkpt lat="43.96817" lon="4.50127">
        <ele>98.42611</ele>
        <time>2025-02-05T14:00:25.296Z</time>
      </trkpt>
      <trkpt lat="43.96823" lon="4.50115">
        <ele>98.381664</ele>
        <time>2025-02-05T14:00:28.294Z</time>
      </trkpt>
      <trkpt lat="43.9683" lon="4.50103">
        <ele>98.335667</ele>
        <time>2025-02-05T14:00:31.293Z</time>
      </trkpt>
      <trkpt lat="43.96837" lon="4.50091">
        <ele>98.291406</ele>
        <time>2025-02-05T14:00:34.286Z</time>
      </trkpt>
      <trkpt lat="43.96843" lon="4.5008">
        <ele>98.246935</ele>
        <time>2025-02-05T14:00:37.289Z</time>
      </trkpt>
      <trkpt lat="43.9685" lon="4.50067">
        <ele>98.20225</ele>
        <time>2025-02-05T14:00:40.295Z</time>
      </trkpt>
      <trkpt lat="43.96856" lon="4.50055">
        <ele>98.15708</ele>
        <time>2025-02-05T14:00:43.295Z</time>
      </trkpt>
      <trkpt lat="43.96863" lon="4.50043">
        <ele>98.111373</ele>
        <time>2025-02-05T14:00:46.295Z</time>
      </trkpt>
      <trkpt lat="43.9687" lon="4.50031">
        <ele>98.066178</ele>
        <time>2025-02-05T14:00:49.305Z</time>
      </trkpt>
      <trkpt lat="43.96877" lon="4.50019">
        <ele>98.020239</ele>
        <time>2025-02-05T14:00:52.301Z</time>
      </trkpt>
      <trkpt lat="43.96884" lon="4.50007">
        <ele>97.974242</ele>
        <time>2025-02-05T14:00:55.296Z</time>
      </trkpt>
      <trkpt lat="43.9689" lon="4.49995">
        <ele>97.930766</ele>
        <time>2025-02-05T14:00:58.300Z</time>
      </trkpt>
      <trkpt lat="43.96898" lon="4.49983">
        <ele>97.883741</ele>
        <time>2025-02-05T14:01:01.302Z</time>
      </trkpt>
      <trkpt lat="43.96904" lon="4.49971">
        <ele>97.837847</ele>
        <time>2025-02-05T14:01:04.286Z</time>
      </trkpt>
      <trkpt lat="43.96911" lon="4.49958">
        <ele>97.790982</ele>
        <time>2025-02-05T14:01:07.294Z</time>
      </trkpt>
      <trkpt lat="43.96918" lon="4.49946">
        <ele>97.742639</ele>
        <time>2025-02-05T14:01:10.289Z</time>
      </trkpt>
      <trkpt lat="43.96926" lon="4.49932">
        <ele>97.646873</ele>
        <time>2025-02-05T14:01:13.300Z</time>
      </trkpt>
      <trkpt lat="43.96933" lon="4.4992">
        <ele>97.470545</ele>
        <time>2025-02-05T14:01:16.290Z</time>
      </trkpt>
      <trkpt lat="43.96941" lon="4.49907">
        <ele>97.292878</ele>
        <time>2025-02-05T14:01:19.308Z</time>
      </trkpt>
      <trkpt lat="43.96948" lon="4.49893">
        <ele>97.111719</ele>
        <time>2025-02-05T14:01:22.296Z</time>
      </trkpt>
      <trkpt lat="43.96955" lon="4.4988">
        <ele>96.940961</ele>
        <time>2025-02-05T14:01:25.307Z</time>
      </trkpt>
      <trkpt lat="43.96962" lon="4.49868">
        <ele>96.772784</ele>
        <time>2025-02-05T14:01:28.312Z</time>
      </trkpt>
      <trkpt lat="43.9697" lon="4.49855">
        <ele>96.595954</ele>
        <time>2025-02-05T14:01:31.286Z</time>
      </trkpt>
      <trkpt lat="43.96977" lon="4.49842">
        <ele>96.419124</ele>
        <time>2025-02-05T14:01:34.290Z</time>
      </trkpt>
      <trkpt lat="43.96984" lon="4.49829">
        <ele>96.248366</ele>
        <time>2025-02-05T14:01:37.295Z</time>
      </trkpt>
      <trkpt lat="43.96991" lon="4.49816">
        <ele>96.074234</ele>
        <time>2025-02-05T14:01:40.294Z</time>
      </trkpt>
      <trkpt lat="43.96999" lon="4.49803">
        <ele>95.901732</ele>
        <time>2025-02-05T14:01:43.294Z</time>
      </trkpt>
      <trkpt lat="43.97006" lon="4.4979">
        <ele>95.722238</ele>
        <time>2025-02-05T14:01:46.290Z</time>
      </trkpt>
      <trkpt lat="43.97014" lon="4.49776">
        <ele>95.542048</ele>
        <time>2025-02-05T14:01:49.290Z</time>
      </trkpt>
      <trkpt lat="43.97021" lon="4.49763">
        <ele>95.354892</ele>
        <time>2025-02-05T14:01:52.299Z</time>
      </trkpt>
      <trkpt lat="43.97029" lon="4.49749">
        <ele>95.169206</ele>
        <time>2025-02-05T14:01:55.278Z</time>
      </trkpt>
      <trkpt lat="43.97037" lon="4.49735">
        <ele>95.03289</ele>
        <time>2025-02-05T14:01:58.293Z</time>
      </trkpt>
      <trkpt lat="43.97045" lon="4.49722">
        <ele>94.971066</ele>
        <time>2025-02-05T14:02:01.286Z</time>
      </trkpt>
      <trkpt lat="43.97053" lon="4.49708">
        <ele>94.910798</ele>
        <time>2025-02-05T14:02:04.291Z</time>
      </trkpt>
      <trkpt lat="43.9706" lon="4.49693">
        <ele>94.848259</ele>
        <time>2025-02-05T14:02:07.295Z</time>
      </trkpt>
      <trkpt lat="43.97066" lon="4.49679">
        <ele>94.792171</ele>
        <time>2025-02-05T14:02:10.270Z</time>
      </trkpt>
      <trkpt lat="43.97073" lon="4.49668">
        <ele>94.741436</ele>
        <time>2025-02-05T14:02:13.294Z</time>
      </trkpt>
      <trkpt lat="43.97079" lon="4.49655">
        <ele>94.689305</ele>
        <time>2025-02-05T14:02:16.291Z</time>
      </trkpt>
      <trkpt lat="43.97088" lon="4.49644">
        <ele>94.631774</ele>
        <time>2025-02-05T14:02:19.291Z</time>
      </trkpt>
      <trkpt lat="43.97095" lon="4.4963">
        <ele>94.570087</ele>
        <time>2025-02-05T14:02:22.291Z</time>
      </trkpt>
      <trkpt lat="43.97103" lon="4.49615">
        <ele>94.508695</ele>
        <time>2025-02-05T14:02:25.294Z</time>
      </trkpt>
      <trkpt lat="43.97111" lon="4.49602">
        <ele>94.447178</ele>
        <time>2025-02-05T14:02:28.289Z</time>
      </trkpt>
      <trkpt lat="43.97119" lon="4.49588">
        <ele>94.388007</ele>
        <time>2025-02-05T14:02:31.291Z</time>
      </trkpt>
      <trkpt lat="43.97127" lon="4.49575">
        <ele>94.326796</ele>
        <time>2025-02-05T14:02:34.307Z</time>
      </trkpt>
      <trkpt lat="43.97135" lon="4.49561">
        <ele>94.264705</ele>
        <time>2025-02-05T14:02:37.309Z</time>
      </trkpt>
      <trkpt lat="43.97143" lon="4.49546">
        <ele>94.201883</ele>
        <time>2025-02-05T14:02:40.295Z</time>
      </trkpt>
      <trkpt lat="43.9715" lon="4.49532">
        <ele>94.117067</ele>
        <time>2025-02-05T14:02:43.298Z</time>
      </trkpt>
      <trkpt lat="43.97158" lon="4.49517">
        <ele>94.024611</ele>
        <time>2025-02-05T14:02:46.300Z</time>
      </trkpt>
      <trkpt lat="43.97167" lon="4.49503">
        <ele>93.932514</ele>
        <time>2025-02-05T14:02:49.290Z</time>
      </trkpt>
      <trkpt lat="43.97173" lon="4.49494">
        <ele>93.868469</ele>
        <time>2025-02-05T14:02:51.298Z</time>
      </trkpt>
      <trkpt lat="43.97181" lon="4.49479">
        <ele>93.776373</ele>
        <time>2025-02-05T14:02:54.295Z</time>
      </trkpt>
      <trkpt lat="43.9719" lon="4.49466">
        <ele>93.685371</ele>
        <time>2025-02-05T14:02:57.299Z</time>
      </trkpt>
      <trkpt lat="43.97197" lon="4.49453">
        <ele>93.600176</ele>
        <time>2025-02-05T14:03:00.284Z</time>
      </trkpt>
      <trkpt lat="43.97205" lon="4.49439">
        <ele>93.511358</ele>
        <time>2025-02-05T14:03:03.301Z</time>
      </trkpt>
      <trkpt lat="43.97213" lon="4.49424">
        <ele>93.416887</ele>
        <time>2025-02-05T14:03:06.290Z</time>
      </trkpt>
      <trkpt lat="43.97221" lon="4.49409">
        <ele>93.325577</ele>
        <time>2025-02-05T14:03:09.298Z</time>
      </trkpt>
      <trkpt lat="43.97229" lon="4.49395">
        <ele>93.232211</ele>
        <time>2025-02-05T14:03:12.301Z</time>
      </trkpt>
      <trkpt lat="43.97238" lon="4.49381">
        <ele>93.13889</ele>
        <time>2025-02-05T14:03:15.303Z</time>
      </trkpt>
      <trkpt lat="43.97246" lon="4.49366">
        <ele>93.046305</ele>
        <time>2025-02-05T14:03:18.307Z</time>
      </trkpt>
      <trkpt lat="43.97252" lon="4.49356">
        <ele>92.983333</ele>
        <time>2025-02-05T14:03:20.293Z</time>
      </trkpt>
      <trkpt lat="43.9726" lon="4.49342">
        <ele>92.967575</ele>
        <time>2025-02-05T14:03:23.291Z</time>
      </trkpt>
      <trkpt lat="43.97265" lon="4.49332">
        <ele>93.026993</ele>
        <time>2025-02-05T14:03:25.378Z</time>
      </trkpt>
      <trkpt lat="43.97273" lon="4.49317">
        <ele>93.114597</ele>
        <time>2025-02-05T14:03:28.276Z</time>
      </trkpt>
      <trkpt lat="43.97278" lon="4.49306">
        <ele>93.175213</ele>
        <time>2025-02-05T14:03:30.295Z</time>
      </trkpt>
      <trkpt lat="43.97285" lon="4.4929">
        <ele>93.261747</ele>
        <time>2025-02-05T14:03:33.301Z</time>
      </trkpt>
      <trkpt lat="43.97293" lon="4.49275">
        <ele>93.349067</ele>
        <time>2025-02-05T14:03:36.294Z</time>
      </trkpt>
      <trkpt lat="43.973" lon="4.49259">
        <ele>93.436428</ele>
        <time>2025-02-05T14:03:39.306Z</time>
      </trkpt>
      <trkpt lat="43.97307" lon="4.49243">
        <ele>93.523788</ele>
        <time>2025-02-05T14:03:42.276Z</time>
      </trkpt>
      <trkpt lat="43.97312" lon="4.49232">
        <ele>93.583164</ele>
        <time>2025-02-05T14:03:44.294Z</time>
      </trkpt>
      <trkpt lat="43.97316" lon="4.49221">
        <ele>93.643767</ele>
        <time>2025-02-05T14:03:46.294Z</time>
      </trkpt>
      <trkpt lat="43.97321" lon="4.4921">
        <ele>93.705012</ele>
        <time>2025-02-05T14:03:48.293Z</time>
      </trkpt>
      <trkpt lat="43.97325" lon="4.49199">
        <ele>93.764713</ele>
        <time>2025-02-05T14:03:50.301Z</time>
      </trkpt>
      <trkpt lat="43.9733" lon="4.49187">
        <ele>93.825647</ele>
        <time>2025-02-05T14:03:52.298Z</time>
      </trkpt>
      <trkpt lat="43.97334" lon="4.49176">
        <ele>93.886878</ele>
        <time>2025-02-05T14:03:54.304Z</time>
      </trkpt>
      <trkpt lat="43.97338" lon="4.49164">
        <ele>93.947238</ele>
        <time>2025-02-05T14:03:56.292Z</time>
      </trkpt>
      <trkpt lat="43.97342" lon="4.49152">
        <ele>94.009855</ele>
        <time>2025-02-05T14:03:58.301Z</time>
      </trkpt>
      <trkpt lat="43.97346" lon="4.4914">
        <ele>94.070788</ele>
        <time>2025-02-05T14:04:00.299Z</time>
      </trkpt>
      <trkpt lat="43.9735" lon="4.49128">
        <ele>94.099299</ele>
        <time>2025-02-05T14:04:02.296Z</time>
      </trkpt>
      <trkpt lat="43.97353" lon="4.49117">
        <ele>94.090319</ele>
        <time>2025-02-05T14:04:04.298Z</time>
      </trkpt>
      <trkpt lat="43.97357" lon="4.49104">
        <ele>94.08106</ele>
        <time>2025-02-05T14:04:06.297Z</time>
      </trkpt>
      <trkpt lat="43.97361" lon="4.49093">
        <ele>94.072202</ele>
        <time>2025-02-05T14:04:08.291Z</time>
      </trkpt>
      <trkpt lat="43.97365" lon="4.49082">
        <ele>94.063077</ele>
        <time>2025-02-05T14:04:10.306Z</time>
      </trkpt>
      <trkpt lat="43.97368" lon="4.4907">
        <ele>94.054184</ele>
        <time>2025-02-05T14:04:12.300Z</time>
      </trkpt>
      <trkpt lat="43.97373" lon="4.49054">
        <ele>94.041823</ele>
        <time>2025-02-05T14:04:15.299Z</time>
      </trkpt>
      <trkpt lat="43.97378" lon="4.49042">
        <ele>94.032868</ele>
        <time>2025-02-05T14:04:17.289Z</time>
      </trkpt>
      <trkpt lat="43.97381" lon="4.4903">
        <ele>94.02371</ele>
        <time>2025-02-05T14:04:19.302Z</time>
      </trkpt>
      <trkpt lat="43.97384" lon="4.49018">
        <ele>94.014783</ele>
        <time>2025-02-05T14:04:21.300Z</time>
      </trkpt>
      <trkpt lat="43.97388" lon="4.49007">
        <ele>94.005871</ele>
        <time>2025-02-05T14:04:23.284Z</time>
      </trkpt>
      <trkpt lat="43.97394" lon="4.4899">
        <ele>93.992838</ele>
        <time>2025-02-05T14:04:26.301Z</time>
      </trkpt>
      <trkpt lat="43.97397" lon="4.48978">
        <ele>93.983869</ele>
        <time>2025-02-05T14:04:28.300Z</time>
      </trkpt>
      <trkpt lat="43.97401" lon="4.48966">
        <ele>93.974954</ele>
        <time>2025-02-05T14:04:30.295Z</time>
      </trkpt>
      <trkpt lat="43.97406" lon="4.4895">
        <ele>93.962464</ele>
        <time>2025-02-05T14:04:33.294Z</time>
      </trkpt>
      <trkpt lat="43.97411" lon="4.48934">
        <ele>93.950004</ele>
        <time>2025-02-05T14:04:36.293Z</time>
      </trkpt>
      <trkpt lat="43.97417" lon="4.48917">
        <ele>93.937154</ele>
        <time>2025-02-05T14:04:39.297Z</time>
      </trkpt>
      <trkpt lat="43.97422" lon="4.48901">
        <ele>93.929296</ele>
        <time>2025-02-05T14:04:42.299Z</time>
      </trkpt>
      <trkpt lat="43.97426" lon="4.48884">
        <ele>93.934343</ele>
        <time>2025-02-05T14:04:45.292Z</time>
      </trkpt>
      <trkpt lat="43.97431" lon="4.48869">
        <ele>93.939245</ele>
        <time>2025-02-05T14:04:48.292Z</time>
      </trkpt>
      <trkpt lat="43.97435" lon="4.48853">
        <ele>93.944022</ele>
        <time>2025-02-05T14:04:51.290Z</time>
      </trkpt>
      <trkpt lat="43.9744" lon="4.48838">
        <ele>93.948872</ele>
        <time>2025-02-05T14:04:54.291Z</time>
      </trkpt>
      <trkpt lat="43.97445" lon="4.48823">
        <ele>93.953647</ele>
        <time>2025-02-05T14:04:57.276Z</time>
      </trkpt>
      <trkpt lat="43.97449" lon="4.48809">
        <ele>93.958036</ele>
        <time>2025-02-05T14:05:00.292Z</time>
      </trkpt>
      <trkpt lat="43.97453" lon="4.48794">
        <ele>93.962589</ele>
        <time>2025-02-05T14:05:03.300Z</time>
      </trkpt>
      <trkpt lat="43.97458" lon="4.48779">
        <ele>93.967295</ele>
        <time>2025-02-05T14:05:06.290Z</time>
      </trkpt>
      <trkpt lat="43.97463" lon="4.48764">
        <ele>93.972034</ele>
        <time>2025-02-05T14:05:09.293Z</time>
      </trkpt>
      <trkpt lat="43.97467" lon="4.4875">
        <ele>93.976434</ele>
        <time>2025-02-05T14:05:12.291Z</time>
      </trkpt>
      <trkpt lat="43.97471" lon="4.48737">
        <ele>93.980595</ele>
        <time>2025-02-05T14:05:15.291Z</time>
      </trkpt>
      <trkpt lat="43.97476" lon="4.48722">
        <ele>93.985132</ele>
        <time>2025-02-05T14:05:18.290Z</time>
      </trkpt>
      <trkpt lat="43.9748" lon="4.48708">
        <ele>93.989759</ele>
        <time>2025-02-05T14:05:21.291Z</time>
      </trkpt>
      <trkpt lat="43.97485" lon="4.48692">
        <ele>93.994588</ele>
        <time>2025-02-05T14:05:24.296Z</time>
      </trkpt>
      <trkpt lat="43.9749" lon="4.48678">
        <ele>93.999167</ele>
        <time>2025-02-05T14:05:27.276Z</time>
      </trkpt>
      <trkpt lat="43.97494" lon="4.48663">
        <ele>94.066686</ele>
        <time>2025-02-05T14:05:30.301Z</time>
      </trkpt>
      <trkpt lat="43.97499" lon="4.48649">
        <ele>94.145056</ele>
        <time>2025-02-05T14:05:33.295Z</time>
      </trkpt>
      <trkpt lat="43.97503" lon="4.48633">
        <ele>94.226966</ele>
        <time>2025-02-05T14:05:36.305Z</time>
      </trkpt>
      <trkpt lat="43.97508" lon="4.48619">
        <ele>94.307776</ele>
        <time>2025-02-05T14:05:39.296Z</time>
      </trkpt>
      <trkpt lat="43.97513" lon="4.48603">
        <ele>94.392069</ele>
        <time>2025-02-05T14:05:42.305Z</time>
      </trkpt>
      <trkpt lat="43.97518" lon="4.48588">
        <ele>94.475903</ele>
        <time>2025-02-05T14:05:45.320Z</time>
      </trkpt>
      <trkpt lat="43.97523" lon="4.48573">
        <ele>94.557576</ele>
        <time>2025-02-05T14:05:48.308Z</time>
      </trkpt>
      <trkpt lat="43.97527" lon="4.48557">
        <ele>94.640311</ele>
        <time>2025-02-05T14:05:51.296Z</time>
      </trkpt>
      <trkpt lat="43.97531" lon="4.48542">
        <ele>94.721953</ele>
        <time>2025-02-05T14:05:54.282Z</time>
      </trkpt>
      <trkpt lat="43.97536" lon="4.48528">
        <ele>94.801022</ele>
        <time>2025-02-05T14:05:57.293Z</time>
      </trkpt>
      <trkpt lat="43.9754" lon="4.48514">
        <ele>94.876791</ele>
        <time>2025-02-05T14:06:00.296Z</time>
      </trkpt>
      <trkpt lat="43.97544" lon="4.48501">
        <ele>94.946161</ele>
        <time>2025-02-05T14:06:03.304Z</time>
      </trkpt>
      <trkpt lat="43.97548" lon="4.48488">
        <ele>95.017903</ele>
        <time>2025-02-05T14:06:06.313Z</time>
      </trkpt>
      <trkpt lat="43.97552" lon="4.48474">
        <ele>95.092389</ele>
        <time>2025-02-05T14:06:09.292Z</time>
      </trkpt>
      <trkpt lat="43.97557" lon="4.4846">
        <ele>95.166709</ele>
        <time>2025-02-05T14:06:12.301Z</time>
      </trkpt>
      <trkpt lat="43.97561" lon="4.48446">
        <ele>95.242747</ele>
        <time>2025-02-05T14:06:15.309Z</time>
      </trkpt>
      <trkpt lat="43.97566" lon="4.48433">
        <ele>95.352102</ele>
        <time>2025-02-05T14:06:18.326Z</time>
      </trkpt>
      <trkpt lat="43.9757" lon="4.48419">
        <ele>95.464448</ele>
        <time>2025-02-05T14:06:21.281Z</time>
      </trkpt>
      <trkpt lat="43.97574" lon="4.48405">
        <ele>95.575137</ele>
        <time>2025-02-05T14:06:24.302Z</time>
      </trkpt>
      <trkpt lat="43.97578" lon="4.48391">
        <ele>95.686041</ele>
        <time>2025-02-05T14:06:27.301Z</time>
      </trkpt>
      <trkpt lat="43.97582" lon="4.48377">
        <ele>95.797495</ele>
        <time>2025-02-05T14:06:30.307Z</time>
      </trkpt>
      <trkpt lat="43.97587" lon="4.48364">
        <ele>95.906826</ele>
        <time>2025-02-05T14:06:33.296Z</time>
      </trkpt>
      <trkpt lat="43.97591" lon="4.4835">
        <ele>96.015363</ele>
        <time>2025-02-05T14:06:36.311Z</time>
      </trkpt>
      <trkpt lat="43.97594" lon="4.48336">
        <ele>96.122567</ele>
        <time>2025-02-05T14:06:39.284Z</time>
      </trkpt>
      <trkpt lat="43.97598" lon="4.48323">
        <ele>96.23163</ele>
        <time>2025-02-05T14:06:42.311Z</time>
      </trkpt>
      <trkpt lat="43.97603" lon="4.4831">
        <ele>96.339106</ele>
        <time>2025-02-05T14:06:45.312Z</time>
      </trkpt>
      <trkpt lat="43.97608" lon="4.48296">
        <ele>96.44883</ele>
        <time>2025-02-05T14:06:48.321Z</time>
      </trkpt>
      <trkpt lat="43.97612" lon="4.48283">
        <ele>96.556803</ele>
        <time>2025-02-05T14:06:51.307Z</time>
      </trkpt>
      <trkpt lat="43.97616" lon="4.4827">
        <ele>96.663692</ele>
        <time>2025-02-05T14:06:54.314Z</time>
      </trkpt>
      <trkpt lat="43.9762" lon="4.48256">
        <ele>96.770092</ele>
        <time>2025-02-05T14:06:57.312Z</time>
      </trkpt>
      <trkpt lat="43.97624" lon="4.48244">
        <ele>96.872444</ele>
        <time>2025-02-05T14:07:00.307Z</time>
      </trkpt>
      <trkpt lat="43.97628" lon="4.48231">
        <ele>96.972688</ele>
        <time>2025-02-05T14:07:03.319Z</time>
      </trkpt>
      <trkpt lat="43.97631" lon="4.48218">
        <ele>97.075276</ele>
        <time>2025-02-05T14:07:06.310Z</time>
      </trkpt>
      <trkpt lat="43.97635" lon="4.48206">
        <ele>97.188302</ele>
        <time>2025-02-05T14:07:09.294Z</time>
      </trkpt>
      <trkpt lat="43.97639" lon="4.48193">
        <ele>97.305888</ele>
        <time>2025-02-05T14:07:12.313Z</time>
      </trkpt>
      <trkpt lat="43.97643" lon="4.48181">
        <ele>97.422198</ele>
        <time>2025-02-05T14:07:15.293Z</time>
      </trkpt>
      <trkpt lat="43.97646" lon="4.48168">
        <ele>97.538179</ele>
        <time>2025-02-05T14:07:18.293Z</time>
      </trkpt>
      <trkpt lat="43.9765" lon="4.48155">
        <ele>97.657621</ele>
        <time>2025-02-05T14:07:21.290Z</time>
      </trkpt>
      <trkpt lat="43.97653" lon="4.48142">
        <ele>97.77891</ele>
        <time>2025-02-05T14:07:24.295Z</time>
      </trkpt>
      <trkpt lat="43.97657" lon="4.48129">
        <ele>97.898672</ele>
        <time>2025-02-05T14:07:27.277Z</time>
      </trkpt>
      <trkpt lat="43.9766" lon="4.48116">
        <ele>98.017154</ele>
        <time>2025-02-05T14:07:30.302Z</time>
      </trkpt>
      <trkpt lat="43.97663" lon="4.48103">
        <ele>98.133561</ele>
        <time>2025-02-05T14:07:33.313Z</time>
      </trkpt>
      <trkpt lat="43.97666" lon="4.4809">
        <ele>98.250054</ele>
        <time>2025-02-05T14:07:36.292Z</time>
      </trkpt>
      <trkpt lat="43.97669" lon="4.48076">
        <ele>98.368183</ele>
        <time>2025-02-05T14:07:39.290Z</time>
      </trkpt>
      <trkpt lat="43.97672" lon="4.48063">
        <ele>98.486791</ele>
        <time>2025-02-05T14:07:42.287Z</time>
      </trkpt>
      <trkpt lat="43.97674" lon="4.48049">
        <ele>98.607772</ele>
        <time>2025-02-05T14:07:45.292Z</time>
      </trkpt>
      <trkpt lat="43.97676" lon="4.48036">
        <ele>98.726515</ele>
        <time>2025-02-05T14:07:48.294Z</time>
      </trkpt>
      <trkpt lat="43.97679" lon="4.48022">
        <ele>98.845537</ele>
        <time>2025-02-05T14:07:51.290Z</time>
      </trkpt>
      <trkpt lat="43.97681" lon="4.48008">
        <ele>98.968448</ele>
        <time>2025-02-05T14:07:54.309Z</time>
      </trkpt>
      <trkpt lat="43.97683" lon="4.47995">
        <ele>99.088936</ele>
        <time>2025-02-05T14:07:57.284Z</time>
      </trkpt>
      <trkpt lat="43.97685" lon="4.47981">
        <ele>99.211103</ele>
        <time>2025-02-05T14:08:00.314Z</time>
      </trkpt>
      <trkpt lat="43.97688" lon="4.47967">
        <ele>99.255786</ele>
        <time>2025-02-05T14:08:03.309Z</time>
      </trkpt>
      <trkpt lat="43.9769" lon="4.47953">
        <ele>99.283239</ele>
        <time>2025-02-05T14:08:06.296Z</time>
      </trkpt>
      <trkpt lat="43.97693" lon="4.47939">
        <ele>99.31035</ele>
        <time>2025-02-05T14:08:09.293Z</time>
      </trkpt>
      <trkpt lat="43.97696" lon="4.47925">
        <ele>99.338796</ele>
        <time>2025-02-05T14:08:12.308Z</time>
      </trkpt>
      <trkpt lat="43.97699" lon="4.47911">
        <ele>99.366442</ele>
        <time>2025-02-05T14:08:15.309Z</time>
      </trkpt>
      <trkpt lat="43.97701" lon="4.47896">
        <ele>99.394205</ele>
        <time>2025-02-05T14:08:18.323Z</time>
      </trkpt>
      <trkpt lat="43.97704" lon="4.47882">
        <ele>99.422102</ele>
        <time>2025-02-05T14:08:21.310Z</time>
      </trkpt>
      <trkpt lat="43.97706" lon="4.47868">
        <ele>99.449681</ele>
        <time>2025-02-05T14:08:24.296Z</time>
      </trkpt>
      <trkpt lat="43.97709" lon="4.47854">
        <ele>99.476463</ele>
        <time>2025-02-05T14:08:27.314Z</time>
      </trkpt>
      <trkpt lat="43.97711" lon="4.4784">
        <ele>99.504285</ele>
        <time>2025-02-05T14:08:30.312Z</time>
      </trkpt>
      <trkpt lat="43.97713" lon="4.47826">
        <ele>99.532233</ele>
        <time>2025-02-05T14:08:33.302Z</time>
      </trkpt>
      <trkpt lat="43.97715" lon="4.47812">
        <ele>99.559277</ele>
        <time>2025-02-05T14:08:36.295Z</time>
      </trkpt>
      <trkpt lat="43.97719" lon="4.47799">
        <ele>99.584505</ele>
        <time>2025-02-05T14:08:39.304Z</time>
      </trkpt>
      <trkpt lat="43.9772" lon="4.47785">
        <ele>99.610785</ele>
        <time>2025-02-05T14:08:42.303Z</time>
      </trkpt>
      <trkpt lat="43.97723" lon="4.47773">
        <ele>99.635574</ele>
        <time>2025-02-05T14:08:45.308Z</time>
      </trkpt>
      <trkpt lat="43.97726" lon="4.47761">
        <ele>99.660811</ele>
        <time>2025-02-05T14:08:48.302Z</time>
      </trkpt>
      <trkpt lat="43.97729" lon="4.47746">
        <ele>99.68944</ele>
        <time>2025-02-05T14:08:51.321Z</time>
      </trkpt>
      <trkpt lat="43.97731" lon="4.47732">
        <ele>99.709081</ele>
        <time>2025-02-05T14:08:54.306Z</time>
      </trkpt>
      <trkpt lat="43.97734" lon="4.47719">
        <ele>99.712537</ele>
        <time>2025-02-05T14:08:57.295Z</time>
      </trkpt>
      <trkpt lat="43.97736" lon="4.47706">
        <ele>99.716099</ele>
        <time>2025-02-05T14:09:00.309Z</time>
      </trkpt>
      <trkpt lat="43.97738" lon="4.47692">
        <ele>99.719834</ele>
        <time>2025-02-05T14:09:03.318Z</time>
      </trkpt>
      <trkpt lat="43.9774" lon="4.47678">
        <ele>99.723643</ele>
        <time>2025-02-05T14:09:06.301Z</time>
      </trkpt>
      <trkpt lat="43.97743" lon="4.47664">
        <ele>99.72749</ele>
        <time>2025-02-05T14:09:09.302Z</time>
      </trkpt>
      <trkpt lat="43.97746" lon="4.4765">
        <ele>99.731267</ele>
        <time>2025-02-05T14:09:12.312Z</time>
      </trkpt>
      <trkpt lat="43.97749" lon="4.47636">
        <ele>99.735029</ele>
        <time>2025-02-05T14:09:15.320Z</time>
      </trkpt>
      <trkpt lat="43.97752" lon="4.47622">
        <ele>99.738774</ele>
        <time>2025-02-05T14:09:18.312Z</time>
      </trkpt>
      <trkpt lat="43.97755" lon="4.47608">
        <ele>99.742692</ele>
        <time>2025-02-05T14:09:21.305Z</time>
      </trkpt>
      <trkpt lat="43.97759" lon="4.47594">
        <ele>99.746447</ele>
        <time>2025-02-05T14:09:24.315Z</time>
      </trkpt>
      <trkpt lat="43.97763" lon="4.47581">
        <ele>99.750252</ele>
        <time>2025-02-05T14:09:27.307Z</time>
      </trkpt>
      <trkpt lat="43.97766" lon="4.47567">
        <ele>99.754032</ele>
        <time>2025-02-05T14:09:30.300Z</time>
      </trkpt>
      <trkpt lat="43.9777" lon="4.47553">
        <ele>99.757935</ele>
        <time>2025-02-05T14:09:33.289Z</time>
      </trkpt>
      <trkpt lat="43.97773" lon="4.4754">
        <ele>99.761641</ele>
        <time>2025-02-05T14:09:36.304Z</time>
      </trkpt>
      <trkpt lat="43.97777" lon="4.47527">
        <ele>99.765337</ele>
        <time>2025-02-05T14:09:39.302Z</time>
      </trkpt>
      <trkpt lat="43.97781" lon="4.47514">
        <ele>99.769147</ele>
        <time>2025-02-05T14:09:42.308Z</time>
      </trkpt>
      <trkpt lat="43.97785" lon="4.475">
        <ele>99.773027</ele>
        <time>2025-02-05T14:09:45.314Z</time>
      </trkpt>
      <trkpt lat="43.9779" lon="4.47486">
        <ele>99.73163</ele>
        <time>2025-02-05T14:09:48.299Z</time>
      </trkpt>
      <trkpt lat="43.97795" lon="4.47473">
        <ele>99.69045</ele>
        <time>2025-02-05T14:09:51.310Z</time>
      </trkpt>
      <trkpt lat="43.97799" lon="4.4746">
        <ele>99.648584</ele>
        <time>2025-02-05T14:09:54.304Z</time>
      </trkpt>
      <trkpt lat="43.97804" lon="4.47446">
        <ele>99.605335</ele>
        <time>2025-02-05T14:09:57.307Z</time>
      </trkpt>
      <trkpt lat="43.97809" lon="4.47432">
        <ele>99.560458</ele>
        <time>2025-02-05T14:10:00.313Z</time>
      </trkpt>
      <trkpt lat="43.97813" lon="4.47417">
        <ele>99.51512</ele>
        <time>2025-02-05T14:10:03.301Z</time>
      </trkpt>
      <trkpt lat="43.97818" lon="4.47403">
        <ele>99.470851</ele>
        <time>2025-02-05T14:10:06.312Z</time>
      </trkpt>
      <trkpt lat="43.97823" lon="4.47389">
        <ele>99.426841</ele>
        <time>2025-02-05T14:10:09.308Z</time>
      </trkpt>
      <trkpt lat="43.97827" lon="4.47376">
        <ele>99.384031</ele>
        <time>2025-02-05T14:10:12.290Z</time>
      </trkpt>
      <trkpt lat="43.97831" lon="4.47362">
        <ele>99.341032</ele>
        <time>2025-02-05T14:10:15.301Z</time>
      </trkpt>
      <trkpt lat="43.97836" lon="4.47348">
        <ele>99.298786</ele>
        <time>2025-02-05T14:10:18.294Z</time>
      </trkpt>
      <trkpt lat="43.9784" lon="4.47335">
        <ele>99.255961</ele>
        <time>2025-02-05T14:10:21.305Z</time>
      </trkpt>
      <trkpt lat="43.97845" lon="4.47321">
        <ele>99.211601</ele>
        <time>2025-02-05T14:10:24.314Z</time>
      </trkpt>
      <trkpt lat="43.9785" lon="4.47307">
        <ele>99.167161</ele>
        <time>2025-02-05T14:10:27.319Z</time>
      </trkpt>
      <trkpt lat="43.97854" lon="4.47292">
        <ele>99.122347</ele>
        <time>2025-02-05T14:10:30.300Z</time>
      </trkpt>
      <trkpt lat="43.9786" lon="4.47278">
        <ele>99.076611</ele>
        <time>2025-02-05T14:10:33.316Z</time>
      </trkpt>
      <trkpt lat="43.97864" lon="4.47264">
        <ele>99.050828</ele>
        <time>2025-02-05T14:10:36.304Z</time>
      </trkpt>
      <trkpt lat="43.97869" lon="4.4725">
        <ele>99.035878</ele>
        <time>2025-02-05T14:10:39.297Z</time>
      </trkpt>
      <trkpt lat="43.97874" lon="4.47236">
        <ele>99.021105</ele>
        <time>2025-02-05T14:10:42.300Z</time>
      </trkpt>
      <trkpt lat="43.97879" lon="4.47222">
        <ele>99.006183</ele>
        <time>2025-02-05T14:10:45.317Z</time>
      </trkpt>
      <trkpt lat="43.97884" lon="4.47208">
        <ele>98.991121</ele>
        <time>2025-02-05T14:10:48.317Z</time>
      </trkpt>
      <trkpt lat="43.97888" lon="4.47194">
        <ele>98.976166</ele>
        <time>2025-02-05T14:10:51.288Z</time>
      </trkpt>
      <trkpt lat="43.97893" lon="4.47179">
        <ele>98.960989</ele>
        <time>2025-02-05T14:10:54.297Z</time>
      </trkpt>
      <trkpt lat="43.97898" lon="4.47165">
        <ele>98.945696</ele>
        <time>2025-02-05T14:10:57.309Z</time>
      </trkpt>
      <trkpt lat="43.97903" lon="4.4715">
        <ele>98.929824</ele>
        <time>2025-02-05T14:11:00.301Z</time>
      </trkpt>
      <trkpt lat="43.97908" lon="4.47135">
        <ele>98.914039</ele>
        <time>2025-02-05T14:11:03.314Z</time>
      </trkpt>
      <trkpt lat="43.97913" lon="4.4712">
        <ele>98.898632</ele>
        <time>2025-02-05T14:11:06.313Z</time>
      </trkpt>
      <trkpt lat="43.97917" lon="4.47105">
        <ele>98.88278</ele>
        <time>2025-02-05T14:11:09.316Z</time>
      </trkpt>
      <trkpt lat="43.97923" lon="4.4709">
        <ele>98.866884</ele>
        <time>2025-02-05T14:11:12.335Z</time>
      </trkpt>
      <trkpt lat="43.97928" lon="4.47075">
        <ele>98.851102</ele>
        <time>2025-02-05T14:11:15.315Z</time>
      </trkpt>
      <trkpt lat="43.97932" lon="4.47061">
        <ele>98.836299</ele>
        <time>2025-02-05T14:11:18.323Z</time>
      </trkpt>
      <trkpt lat="43.97938" lon="4.47048">
        <ele>98.821434</ele>
        <time>2025-02-05T14:11:21.304Z</time>
      </trkpt>
      <trkpt lat="43.97942" lon="4.47033">
        <ele>98.753156</ele>
        <time>2025-02-05T14:11:24.301Z</time>
      </trkpt>
      <trkpt lat="43.97948" lon="4.47019">
        <ele>98.682991</ele>
        <time>2025-02-05T14:11:27.305Z</time>
      </trkpt>
      <trkpt lat="43.97953" lon="4.47007">
        <ele>98.620741</ele>
        <time>2025-02-05T14:11:30.305Z</time>
      </trkpt>
      <trkpt lat="43.97957" lon="4.46995">
        <ele>98.560777</ele>
        <time>2025-02-05T14:11:33.297Z</time>
      </trkpt>
      <trkpt lat="43.97961" lon="4.46982">
        <ele>98.501077</ele>
        <time>2025-02-05T14:11:36.299Z</time>
      </trkpt>
      <trkpt lat="43.97966" lon="4.46968">
        <ele>98.429598</ele>
        <time>2025-02-05T14:11:39.289Z</time>
      </trkpt>
      <trkpt lat="43.97971" lon="4.46953">
        <ele>98.358572</ele>
        <time>2025-02-05T14:11:42.310Z</time>
      </trkpt>
      <trkpt lat="43.97976" lon="4.46939">
        <ele>98.289788</ele>
        <time>2025-02-05T14:11:45.312Z</time>
      </trkpt>
      <trkpt lat="43.97981" lon="4.46925">
        <ele>98.221147</ele>
        <time>2025-02-05T14:11:48.319Z</time>
      </trkpt>
      <trkpt lat="43.97986" lon="4.46912">
        <ele>98.155687</ele>
        <time>2025-02-05T14:11:51.295Z</time>
      </trkpt>
      <trkpt lat="43.9799" lon="4.469">
        <ele>98.098655</ele>
        <time>2025-02-05T14:11:54.309Z</time>
      </trkpt>
      <trkpt lat="43.97994" lon="4.46888">
        <ele>98.038941</ele>
        <time>2025-02-05T14:11:57.312Z</time>
      </trkpt>
      <trkpt lat="43.97998" lon="4.46877">
        <ele>97.981108</ele>
        <time>2025-02-05T14:12:00.310Z</time>
      </trkpt>
      <trkpt lat="43.98002" lon="4.46864">
        <ele>97.921667</ele>
        <time>2025-02-05T14:12:04.304Z</time>
      </trkpt>
      <trkpt lat="43.98009" lon="4.46845">
        <ele>97.823922</ele>
        <time>2025-02-05T14:12:31.306Z</time>
      </trkpt>
      <trkpt lat="43.98013" lon="4.46833">
        <ele>97.766965</ele>
        <time>2025-02-05T14:12:34.320Z</time>
      </trkpt>
      <trkpt lat="43.98017" lon="4.46821">
        <ele>97.722076</ele>
        <time>2025-02-05T14:12:37.293Z</time>
      </trkpt>
      <trkpt lat="43.98022" lon="4.46808">
        <ele>97.825926</ele>
        <time>2025-02-05T14:12:40.297Z</time>
      </trkpt>
      <trkpt lat="43.98026" lon="4.46795">
        <ele>97.933835</ele>
        <time>2025-02-05T14:12:43.306Z</time>
      </trkpt>
      <trkpt lat="43.98031" lon="4.46782">
        <ele>98.045757</ele>
        <time>2025-02-05T14:12:46.292Z</time>
      </trkpt>
      <trkpt lat="43.98036" lon="4.46768">
        <ele>98.161552</ele>
        <time>2025-02-05T14:12:49.299Z</time>
      </trkpt>
      <trkpt lat="43.9804" lon="4.46753">
        <ele>98.283385</ele>
        <time>2025-02-05T14:12:52.301Z</time>
      </trkpt>
      <trkpt lat="43.98046" lon="4.46738">
        <ele>98.405175</ele>
        <time>2025-02-05T14:12:55.300Z</time>
      </trkpt>
      <trkpt lat="43.9805" lon="4.46724">
        <ele>98.520747</ele>
        <time>2025-02-05T14:12:58.304Z</time>
      </trkpt>
      <trkpt lat="43.98054" lon="4.46709">
        <ele>98.639101</ele>
        <time>2025-02-05T14:13:01.310Z</time>
      </trkpt>
      <trkpt lat="43.98058" lon="4.46695">
        <ele>98.753112</ele>
        <time>2025-02-05T14:13:04.296Z</time>
      </trkpt>
      <trkpt lat="43.98062" lon="4.4668">
        <ele>98.869336</ele>
        <time>2025-02-05T14:13:07.301Z</time>
      </trkpt>
      <trkpt lat="43.98067" lon="4.46666">
        <ele>98.985552</ele>
        <time>2025-02-05T14:13:10.314Z</time>
      </trkpt>
      <trkpt lat="43.98071" lon="4.46653">
        <ele>99.093271</ele>
        <time>2025-02-05T14:13:13.313Z</time>
      </trkpt>
      <trkpt lat="43.98075" lon="4.46641">
        <ele>99.197415</ele>
        <time>2025-02-05T14:13:16.308Z</time>
      </trkpt>
      <trkpt lat="43.98079" lon="4.46626">
        <ele>99.31574</ele>
        <time>2025-02-05T14:13:20.296Z</time>
      </trkpt>
      <trkpt lat="43.98083" lon="4.46614">
        <ele>99.410017</ele>
        <time>2025-02-05T14:13:23.319Z</time>
      </trkpt>
      <trkpt lat="43.98087" lon="4.466">
        <ele>99.518862</ele>
        <time>2025-02-05T14:13:26.306Z</time>
      </trkpt>
      <trkpt lat="43.9809" lon="4.46587">
        <ele>99.589658</ele>
        <time>2025-02-05T14:13:29.292Z</time>
      </trkpt>
      <trkpt lat="43.98093" lon="4.46575">
        <ele>99.615998</ele>
        <time>2025-02-05T14:13:32.317Z</time>
      </trkpt>
      <trkpt lat="43.98096" lon="4.46563">
        <ele>99.642143</ele>
        <time>2025-02-05T14:13:35.275Z</time>
      </trkpt>
      <trkpt lat="43.98099" lon="4.46547">
        <ele>99.675364</ele>
        <time>2025-02-05T14:13:39.316Z</time>
      </trkpt>
      <trkpt lat="43.98102" lon="4.46534">
        <ele>99.701641</ele>
        <time>2025-02-05T14:13:42.305Z</time>
      </trkpt>
      <trkpt lat="43.98103" lon="4.46521">
        <ele>99.727955</ele>
        <time>2025-02-05T14:13:45.287Z</time>
      </trkpt>
      <trkpt lat="43.98108" lon="4.46501">
        <ele>99.770978</ele>
        <time>2025-02-05T14:20:59.299Z</time>
      </trkpt>
      <trkpt lat="43.98111" lon="4.46488">
        <ele>99.797891</ele>
        <time>2025-02-05T14:21:05.293Z</time>
      </trkpt>
      <trkpt lat="43.98113" lon="4.46476">
        <ele>99.823801</ele>
        <time>2025-02-05T14:21:09.289Z</time>
      </trkpt>
      <trkpt lat="43.98117" lon="4.46462">
        <ele>99.852979</ele>
        <time>2025-02-05T14:21:13.297Z</time>
      </trkpt>
      <trkpt lat="43.9812" lon="4.46446">
        <ele>99.886328</ele>
        <time>2025-02-05T14:21:17.304Z</time>
      </trkpt>
      <trkpt lat="43.98121" lon="4.46432">
        <ele>99.91455</ele>
        <time>2025-02-05T14:21:20.290Z</time>
      </trkpt>
      <trkpt lat="43.98123" lon="4.46419">
        <ele>99.942194</ele>
        <time>2025-02-05T14:21:23.296Z</time>
      </trkpt>
      <trkpt lat="43.98125" lon="4.46405">
        <ele>99.969551</ele>
        <time>2025-02-05T14:21:26.282Z</time>
      </trkpt>
      <trkpt lat="43.98126" lon="4.46391">
        <ele>99.997939</ele>
        <time>2025-02-05T14:21:29.304Z</time>
      </trkpt>
      <trkpt lat="43.98128" lon="4.46378">
        <ele>100.025042</ele>
        <time>2025-02-05T14:21:32.280Z</time>
      </trkpt>
      <trkpt lat="43.9813" lon="4.46364">
        <ele>100.053134</ele>
        <time>2025-02-05T14:21:35.300Z</time>
      </trkpt>
      <trkpt lat="43.98132" lon="4.46351">
        <ele>100.080284</ele>
        <time>2025-02-05T14:21:38.318Z</time>
      </trkpt>
      <trkpt lat="43.98134" lon="4.46337">
        <ele>100.162613</ele>
        <time>2025-02-05T14:21:41.314Z</time>
      </trkpt>
      <trkpt lat="43.98135" lon="4.46324">
        <ele>100.240538</ele>
        <time>2025-02-05T14:21:44.309Z</time>
      </trkpt>
      <trkpt lat="43.98138" lon="4.46308">
        <ele>100.338381</ele>
        <time>2025-02-05T14:21:48.309Z</time>
      </trkpt>
      <trkpt lat="43.98139" lon="4.46292">
        <ele>100.434127</ele>
        <time>2025-02-05T14:21:52.297Z</time>
      </trkpt>
      <trkpt lat="43.98141" lon="4.46279">
        <ele>100.51057</ele>
        <time>2025-02-05T14:21:55.321Z</time>
      </trkpt>
      <trkpt lat="43.98143" lon="4.46267">
        <ele>100.585524</ele>
        <time>2025-02-05T14:21:58.304Z</time>
      </trkpt>
      <trkpt lat="43.98145" lon="4.46254">
        <ele>100.659545</ele>
        <time>2025-02-05T14:22:01.316Z</time>
      </trkpt>
      <trkpt lat="43.98147" lon="4.46241">
        <ele>100.739089</ele>
        <time>2025-02-05T14:22:04.300Z</time>
      </trkpt>
      <trkpt lat="43.98149" lon="4.46227">
        <ele>100.82554</ele>
        <time>2025-02-05T14:22:07.311Z</time>
      </trkpt>
      <trkpt lat="43.98151" lon="4.46214">
        <ele>100.899665</ele>
        <time>2025-02-05T14:22:10.319Z</time>
      </trkpt>
      <trkpt lat="43.98154" lon="4.46199">
        <ele>100.993898</ele>
        <time>2025-02-05T14:22:14.301Z</time>
      </trkpt>
      <trkpt lat="43.98156" lon="4.46182">
        <ele>101.091637</ele>
        <time>2025-02-05T14:22:18.274Z</time>
      </trkpt>
      <trkpt lat="43.98158" lon="4.46169">
        <ele>101.172887</ele>
        <time>2025-02-05T14:22:21.309Z</time>
      </trkpt>
      <trkpt lat="43.98161" lon="4.46152">
        <ele>101.273829</ele>
        <time>2025-02-05T14:22:25.298Z</time>
      </trkpt>
      <trkpt lat="43.98162" lon="4.46137">
        <ele>101.366329</ele>
        <time>2025-02-05T14:22:28.307Z</time>
      </trkpt>
      <trkpt lat="43.98164" lon="4.46122">
        <ele>101.45103</ele>
        <time>2025-02-05T14:22:31.295Z</time>
      </trkpt>
      <trkpt lat="43.98165" lon="4.46108">
        <ele>101.534569</ele>
        <time>2025-02-05T14:22:34.296Z</time>
      </trkpt>
      <trkpt lat="43.98168" lon="4.46094">
        <ele>101.64396</ele>
        <time>2025-02-05T14:22:37.312Z</time>
      </trkpt>
      <trkpt lat="43.98169" lon="4.46081">
        <ele>101.750758</ele>
        <time>2025-02-05T14:22:40.303Z</time>
      </trkpt>
      <trkpt lat="43.98171" lon="4.46067">
        <ele>101.85685</ele>
        <time>2025-02-05T14:22:43.300Z</time>
      </trkpt>
      <trkpt lat="43.98173" lon="4.46055">
        <ele>101.95941</ele>
        <time>2025-02-05T14:22:46.301Z</time>
      </trkpt>
      <trkpt lat="43.98175" lon="4.46042">
        <ele>102.060786</ele>
        <time>2025-02-05T14:22:49.308Z</time>
      </trkpt>
      <trkpt lat="43.98177" lon="4.4603">
        <ele>102.159007</ele>
        <time>2025-02-05T14:22:52.307Z</time>
      </trkpt>
      <trkpt lat="43.98179" lon="4.46014">
        <ele>102.284044</ele>
        <time>2025-02-05T14:22:56.309Z</time>
      </trkpt>
      <trkpt lat="43.98182" lon="4.45998">
        <ele>102.41526</ele>
        <time>2025-02-05T14:23:00.304Z</time>
      </trkpt>
      <trkpt lat="43.98183" lon="4.45985">
        <ele>102.519123</ele>
        <time>2025-02-05T14:23:03.302Z</time>
      </trkpt>
      <trkpt lat="43.98185" lon="4.45972">
        <ele>102.617626</ele>
        <time>2025-02-05T14:23:06.315Z</time>
      </trkpt>
      <trkpt lat="43.98187" lon="4.4596">
        <ele>102.716895</ele>
        <time>2025-02-05T14:23:09.310Z</time>
      </trkpt>
      <trkpt lat="43.98189" lon="4.45948">
        <ele>102.814577</ele>
        <time>2025-02-05T14:23:12.297Z</time>
      </trkpt>
      <trkpt lat="43.9819" lon="4.45935">
        <ele>102.917679</ele>
        <time>2025-02-05T14:23:15.304Z</time>
      </trkpt>
      <trkpt lat="43.98193" lon="4.45921">
        <ele>103.024295</ele>
        <time>2025-02-05T14:23:18.302Z</time>
      </trkpt>
      <trkpt lat="43.98195" lon="4.45907">
        <ele>103.136499</ele>
        <time>2025-02-05T14:23:21.300Z</time>
      </trkpt>
      <trkpt lat="43.98197" lon="4.45894">
        <ele>103.244975</ele>
        <time>2025-02-05T14:23:24.312Z</time>
      </trkpt>
      <trkpt lat="43.98199" lon="4.4588">
        <ele>103.35422</ele>
        <time>2025-02-05T14:23:27.303Z</time>
      </trkpt>
      <trkpt lat="43.98201" lon="4.45866">
        <ele>103.470467</ele>
        <time>2025-02-05T14:23:30.304Z</time>
      </trkpt>
      <trkpt lat="43.98203" lon="4.45851">
        <ele>103.441008</ele>
        <time>2025-02-05T14:23:33.305Z</time>
      </trkpt>
      <trkpt lat="43.98205" lon="4.45836">
        <ele>103.343458</ele>
        <time>2025-02-05T14:23:36.300Z</time>
      </trkpt>
      <trkpt lat="43.98207" lon="4.45822">
        <ele>103.24605</ele>
        <time>2025-02-05T14:23:39.305Z</time>
      </trkpt>
      <trkpt lat="43.98209" lon="4.45808">
        <ele>103.149103</ele>
        <time>2025-02-05T14:23:42.307Z</time>
      </trkpt>
      <trkpt lat="43.98212" lon="4.45794">
        <ele>103.05797</ele>
        <time>2025-02-05T14:23:45.309Z</time>
      </trkpt>
      <trkpt lat="43.98214" lon="4.4578">
        <ele>102.96238</ele>
        <time>2025-02-05T14:23:48.302Z</time>
      </trkpt>
      <trkpt lat="43.98216" lon="4.45766">
        <ele>102.866729</ele>
        <time>2025-02-05T14:23:51.304Z</time>
      </trkpt>
      <trkpt lat="43.98217" lon="4.45751">
        <ele>102.76854</ele>
        <time>2025-02-05T14:23:54.296Z</time>
      </trkpt>
      <trkpt lat="43.9822" lon="4.45737">
        <ele>102.668127</ele>
        <time>2025-02-05T14:23:57.282Z</time>
      </trkpt>
      <trkpt lat="43.98222" lon="4.45721">
        <ele>102.563003</ele>
        <time>2025-02-05T14:24:00.305Z</time>
      </trkpt>
      <trkpt lat="43.98224" lon="4.45705">
        <ele>102.457613</ele>
        <time>2025-02-05T14:24:03.304Z</time>
      </trkpt>
      <trkpt lat="43.98226" lon="4.4569">
        <ele>102.353048</ele>
        <time>2025-02-05T14:24:06.272Z</time>
      </trkpt>
      <trkpt lat="43.98228" lon="4.45674">
        <ele>102.244079</ele>
        <time>2025-02-05T14:24:09.288Z</time>
      </trkpt>
      <trkpt lat="43.98229" lon="4.45658">
        <ele>102.137765</ele>
        <time>2025-02-05T14:24:12.313Z</time>
      </trkpt>
      <trkpt lat="43.98231" lon="4.45643">
        <ele>102.03513</ele>
        <time>2025-02-05T14:24:15.300Z</time>
      </trkpt>
      <trkpt lat="43.98234" lon="4.45629">
        <ele>101.941007</ele>
        <time>2025-02-05T14:24:18.292Z</time>
      </trkpt>
      <trkpt lat="43.98236" lon="4.45614">
        <ele>101.851016</ele>
        <time>2025-02-05T14:24:21.316Z</time>
      </trkpt>
      <trkpt lat="43.98237" lon="4.45599">
        <ele>101.846034</ele>
        <time>2025-02-05T14:24:24.301Z</time>
      </trkpt>
      <trkpt lat="43.98239" lon="4.45584">
        <ele>101.841044</ele>
        <time>2025-02-05T14:24:27.301Z</time>
      </trkpt>
      <trkpt lat="43.98242" lon="4.45568">
        <ele>101.836042</ele>
        <time>2025-02-05T14:24:30.300Z</time>
      </trkpt>
      <trkpt lat="43.98244" lon="4.45553">
        <ele>101.831032</ele>
        <time>2025-02-05T14:24:33.301Z</time>
      </trkpt>
      <trkpt lat="43.98246" lon="4.45538">
        <ele>101.826102</ele>
        <time>2025-02-05T14:24:36.308Z</time>
      </trkpt>
      <trkpt lat="43.98248" lon="4.45525">
        <ele>101.821767</ele>
        <time>2025-02-05T14:24:39.294Z</time>
      </trkpt>
      <trkpt lat="43.9825" lon="4.45513">
        <ele>101.817583</ele>
        <time>2025-02-05T14:24:42.306Z</time>
      </trkpt>
      <trkpt lat="43.98252" lon="4.45499">
        <ele>101.813136</ele>
        <time>2025-02-05T14:24:45.304Z</time>
      </trkpt>
      <trkpt lat="43.98256" lon="4.45485">
        <ele>101.808276</ele>
        <time>2025-02-05T14:24:48.304Z</time>
      </trkpt>
      <trkpt lat="43.98258" lon="4.45469">
        <ele>101.803102</ele>
        <time>2025-02-05T14:24:51.296Z</time>
      </trkpt>
      <trkpt lat="43.9826" lon="4.45453">
        <ele>101.797882</ele>
        <time>2025-02-05T14:24:54.272Z</time>
      </trkpt>
      <trkpt lat="43.98263" lon="4.45437">
        <ele>101.792537</ele>
        <time>2025-02-05T14:24:57.288Z</time>
      </trkpt>
      <trkpt lat="43.98266" lon="4.45421">
        <ele>101.787035</ele>
        <time>2025-02-05T14:25:00.302Z</time>
      </trkpt>
      <trkpt lat="43.98269" lon="4.45405">
        <ele>101.781794</ele>
        <time>2025-02-05T14:25:03.309Z</time>
      </trkpt>
      <trkpt lat="43.9827" lon="4.45388">
        <ele>101.776186</ele>
        <time>2025-02-05T14:25:06.307Z</time>
      </trkpt>
      <trkpt lat="43.98273" lon="4.4537">
        <ele>101.772502</ele>
        <time>2025-02-05T14:25:09.308Z</time>
      </trkpt>
      <trkpt lat="43.98275" lon="4.45353">
        <ele>101.793342</ele>
        <time>2025-02-05T14:25:12.301Z</time>
      </trkpt>
      <trkpt lat="43.98276" lon="4.45336">
        <ele>101.813893</ele>
        <time>2025-02-05T14:25:15.277Z</time>
      </trkpt>
      <trkpt lat="43.98279" lon="4.45319">
        <ele>101.834235</ele>
        <time>2025-02-05T14:25:18.300Z</time>
      </trkpt>
      <trkpt lat="43.98281" lon="4.45304">
        <ele>101.852298</ele>
        <time>2025-02-05T14:25:21.307Z</time>
      </trkpt>
      <trkpt lat="43.98283" lon="4.45287">
        <ele>101.873348</ele>
        <time>2025-02-05T14:25:24.319Z</time>
      </trkpt>
      <trkpt lat="43.98285" lon="4.4527">
        <ele>101.893989</ele>
        <time>2025-02-05T14:25:27.317Z</time>
      </trkpt>
      <trkpt lat="43.98288" lon="4.45253">
        <ele>101.914446</ele>
        <time>2025-02-05T14:25:30.304Z</time>
      </trkpt>
      <trkpt lat="43.98291" lon="4.45236">
        <ele>101.934712</ele>
        <time>2025-02-05T14:25:33.312Z</time>
      </trkpt>
      <trkpt lat="43.98293" lon="4.4522">
        <ele>101.954411</ele>
        <time>2025-02-05T14:25:36.298Z</time>
      </trkpt>
      <trkpt lat="43.98296" lon="4.45203">
        <ele>101.974794</ele>
        <time>2025-02-05T14:25:39.305Z</time>
      </trkpt>
      <trkpt lat="43.98298" lon="4.45187">
        <ele>101.995483</ele>
        <time>2025-02-05T14:25:42.310Z</time>
      </trkpt>
      <trkpt lat="43.98301" lon="4.4517">
        <ele>102.016288</ele>
        <time>2025-02-05T14:25:45.308Z</time>
      </trkpt>
      <trkpt lat="43.98304" lon="4.45152">
        <ele>102.037138</ele>
        <time>2025-02-05T14:25:48.300Z</time>
      </trkpt>
      <trkpt lat="43.98306" lon="4.45135">
        <ele>102.058489</ele>
        <time>2025-02-05T14:25:51.285Z</time>
      </trkpt>
      <trkpt lat="43.9831" lon="4.45119">
        <ele>102.076126</ele>
        <time>2025-02-05T14:25:54.307Z</time>
      </trkpt>
      <trkpt lat="43.98313" lon="4.45102">
        <ele>102.091465</ele>
        <time>2025-02-05T14:25:57.301Z</time>
      </trkpt>
      <trkpt lat="43.98318" lon="4.45085">
        <ele>102.106756</ele>
        <time>2025-02-05T14:26:00.311Z</time>
      </trkpt>
      <trkpt lat="43.98322" lon="4.45069">
        <ele>102.121717</ele>
        <time>2025-02-05T14:26:03.303Z</time>
      </trkpt>
      <trkpt lat="43.98326" lon="4.45052">
        <ele>102.137547</ele>
        <time>2025-02-05T14:26:06.289Z</time>
      </trkpt>
      <trkpt lat="43.9833" lon="4.45036">
        <ele>102.152755</ele>
        <time>2025-02-05T14:26:09.294Z</time>
      </trkpt>
      <trkpt lat="43.98334" lon="4.45019">
        <ele>102.16858</ele>
        <time>2025-02-05T14:26:12.321Z</time>
      </trkpt>
      <trkpt lat="43.98339" lon="4.45002">
        <ele>102.183833</ele>
        <time>2025-02-05T14:26:15.301Z</time>
      </trkpt>
      <trkpt lat="43.98343" lon="4.44986">
        <ele>102.198548</ele>
        <time>2025-02-05T14:26:18.295Z</time>
      </trkpt>
      <trkpt lat="43.98347" lon="4.44971">
        <ele>102.213181</ele>
        <time>2025-02-05T14:26:21.300Z</time>
      </trkpt>
      <trkpt lat="43.98351" lon="4.44955">
        <ele>102.227691</ele>
        <time>2025-02-05T14:26:24.300Z</time>
      </trkpt>
      <trkpt lat="43.98356" lon="4.44942">
        <ele>102.240401</ele>
        <time>2025-02-05T14:26:27.304Z</time>
      </trkpt>
      <trkpt lat="43.98361" lon="4.44929">
        <ele>102.253184</ele>
        <time>2025-02-05T14:26:31.307Z</time>
      </trkpt>
      <trkpt lat="43.98366" lon="4.44914">
        <ele>102.267268</ele>
        <time>2025-02-05T14:26:35.304Z</time>
      </trkpt>
      <trkpt lat="43.9837" lon="4.44903">
        <ele>102.278823</ele>
        <time>2025-02-05T14:26:38.294Z</time>
      </trkpt>
      <trkpt lat="43.98375" lon="4.4489">
        <ele>102.281757</ele>
        <time>2025-02-05T14:26:41.303Z</time>
      </trkpt>
      <trkpt lat="43.9838" lon="4.44876">
        <ele>102.264799</ele>
        <time>2025-02-05T14:26:44.309Z</time>
      </trkpt>
      <trkpt lat="43.98385" lon="4.44863">
        <ele>102.249282</ele>
        <time>2025-02-05T14:26:47.301Z</time>
      </trkpt>
      <trkpt lat="43.98389" lon="4.44852">
        <ele>102.235398</ele>
        <time>2025-02-05T14:26:50.318Z</time>
      </trkpt>
      <trkpt lat="43.98394" lon="4.4484">
        <ele>102.221184</ele>
        <time>2025-02-05T14:26:53.314Z</time>
      </trkpt>
      <trkpt lat="43.98399" lon="4.44828">
        <ele>102.205881</ele>
        <time>2025-02-05T14:26:56.273Z</time>
      </trkpt>
      <trkpt lat="43.98404" lon="4.44816">
        <ele>102.189935</ele>
        <time>2025-02-05T14:26:59.305Z</time>
      </trkpt>
      <trkpt lat="43.9841" lon="4.44802">
        <ele>102.173174</ele>
        <time>2025-02-05T14:27:02.316Z</time>
      </trkpt>
      <trkpt lat="43.98415" lon="4.44788">
        <ele>102.156313</ele>
        <time>2025-02-05T14:27:05.286Z</time>
      </trkpt>
      <trkpt lat="43.9842" lon="4.44775">
        <ele>102.139043</ele>
        <time>2025-02-05T14:27:08.311Z</time>
      </trkpt>
      <trkpt lat="43.98425" lon="4.44762">
        <ele>102.123136</ele>
        <time>2025-02-05T14:27:11.301Z</time>
      </trkpt>
      <trkpt lat="43.98431" lon="4.44748">
        <ele>102.105883</ele>
        <time>2025-02-05T14:27:14.273Z</time>
      </trkpt>
      <trkpt lat="43.98436" lon="4.44733">
        <ele>102.088172</ele>
        <time>2025-02-05T14:27:17.310Z</time>
      </trkpt>
      <trkpt lat="43.98441" lon="4.44719">
        <ele>102.070882</ele>
        <time>2025-02-05T14:27:20.301Z</time>
      </trkpt>
      <trkpt lat="43.98447" lon="4.44707">
        <ele>102.054138</ele>
        <time>2025-02-05T14:27:23.317Z</time>
      </trkpt>
      <trkpt lat="43.98453" lon="4.44694">
        <ele>102.037851</ele>
        <time>2025-02-05T14:27:26.313Z</time>
      </trkpt>
      <trkpt lat="43.98458" lon="4.4468">
        <ele>102.020786</ele>
        <time>2025-02-05T14:27:29.295Z</time>
      </trkpt>
      <trkpt lat="43.98464" lon="4.44667">
        <ele>101.974916</ele>
        <time>2025-02-05T14:27:32.304Z</time>
      </trkpt>
      <trkpt lat="43.98469" lon="4.44653">
        <ele>101.911594</ele>
        <time>2025-02-05T14:27:35.275Z</time>
      </trkpt>
      <trkpt lat="43.98475" lon="4.4464">
        <ele>101.84819</ele>
        <time>2025-02-05T14:27:38.317Z</time>
      </trkpt>
      <trkpt lat="43.9848" lon="4.44626">
        <ele>101.782733</ele>
        <time>2025-02-05T14:27:41.310Z</time>
      </trkpt>
      <trkpt lat="43.98487" lon="4.44611">
        <ele>101.71462</ele>
        <time>2025-02-05T14:27:44.302Z</time>
      </trkpt>
      <trkpt lat="43.98492" lon="4.44596">
        <ele>101.644473</ele>
        <time>2025-02-05T14:27:47.290Z</time>
      </trkpt>
      <trkpt lat="43.98498" lon="4.44581">
        <ele>101.575244</ele>
        <time>2025-02-05T14:27:50.303Z</time>
      </trkpt>
      <trkpt lat="43.98504" lon="4.44566">
        <ele>101.505382</ele>
        <time>2025-02-05T14:27:53.300Z</time>
      </trkpt>
      <trkpt lat="43.9851" lon="4.4455">
        <ele>101.433943</ele>
        <time>2025-02-05T14:27:56.305Z</time>
      </trkpt>
      <trkpt lat="43.98517" lon="4.44535">
        <ele>101.360979</ele>
        <time>2025-02-05T14:27:59.305Z</time>
      </trkpt>
      <trkpt lat="43.98524" lon="4.44519">
        <ele>101.287688</ele>
        <time>2025-02-05T14:28:02.303Z</time>
      </trkpt>
      <trkpt lat="43.9853" lon="4.44505">
        <ele>101.217542</ele>
        <time>2025-02-05T14:28:05.296Z</time>
      </trkpt>
      <trkpt lat="43.98536" lon="4.4449">
        <ele>101.14676</ele>
        <time>2025-02-05T14:28:08.305Z</time>
      </trkpt>
      <trkpt lat="43.98542" lon="4.44474">
        <ele>101.07666</ele>
        <time>2025-02-05T14:28:11.309Z</time>
      </trkpt>
      <trkpt lat="43.98548" lon="4.44459">
        <ele>101.005845</ele>
        <time>2025-02-05T14:28:14.301Z</time>
      </trkpt>
      <trkpt lat="43.98554" lon="4.44444">
        <ele>100.995613</ele>
        <time>2025-02-05T14:28:17.310Z</time>
      </trkpt>
      <trkpt lat="43.9856" lon="4.44428">
        <ele>100.990757</ele>
        <time>2025-02-05T14:28:20.306Z</time>
      </trkpt>
      <trkpt lat="43.98566" lon="4.44412">
        <ele>100.98596</ele>
        <time>2025-02-05T14:28:23.297Z</time>
      </trkpt>
      <trkpt lat="43.98572" lon="4.44397">
        <ele>100.98126</ele>
        <time>2025-02-05T14:28:26.323Z</time>
      </trkpt>
      <trkpt lat="43.98578" lon="4.44383">
        <ele>100.976732</ele>
        <time>2025-02-05T14:28:29.306Z</time>
      </trkpt>
      <trkpt lat="43.98585" lon="4.44368">
        <ele>100.972068</ele>
        <time>2025-02-05T14:28:32.320Z</time>
      </trkpt>
      <trkpt lat="43.98591" lon="4.44353">
        <ele>100.967266</ele>
        <time>2025-02-05T14:28:35.305Z</time>
      </trkpt>
      <trkpt lat="43.98597" lon="4.44338">
        <ele>100.962565</ele>
        <time>2025-02-05T14:28:38.316Z</time>
      </trkpt>
      <trkpt lat="43.98603" lon="4.44322">
        <ele>100.957792</ele>
        <time>2025-02-05T14:28:41.300Z</time>
      </trkpt>
      <trkpt lat="43.98609" lon="4.44308">
        <ele>100.953193</ele>
        <time>2025-02-05T14:28:44.282Z</time>
      </trkpt>
      <trkpt lat="43.98615" lon="4.44292">
        <ele>100.948558</ele>
        <time>2025-02-05T14:28:47.286Z</time>
      </trkpt>
      <trkpt lat="43.98621" lon="4.44279">
        <ele>100.944159</ele>
        <time>2025-02-05T14:28:50.302Z</time>
      </trkpt>
      <trkpt lat="43.98627" lon="4.44265">
        <ele>100.939799</ele>
        <time>2025-02-05T14:28:53.307Z</time>
      </trkpt>
      <trkpt lat="43.98632" lon="4.44251">
        <ele>100.935521</ele>
        <time>2025-02-05T14:28:56.300Z</time>
      </trkpt>
      <trkpt lat="43.98637" lon="4.44238">
        <ele>100.942179</ele>
        <time>2025-02-05T14:28:59.305Z</time>
      </trkpt>
      <trkpt lat="43.98643" lon="4.44225">
        <ele>101.001439</ele>
        <time>2025-02-05T14:29:02.307Z</time>
      </trkpt>
      <trkpt lat="43.98649" lon="4.44212">
        <ele>101.060935</ele>
        <time>2025-02-05T14:29:05.297Z</time>
      </trkpt>
      <trkpt lat="43.98654" lon="4.442">
        <ele>101.118605</ele>
        <time>2025-02-05T14:29:08.307Z</time>
      </trkpt>
      <trkpt lat="43.98659" lon="4.44186">
        <ele>101.178509</ele>
        <time>2025-02-05T14:29:11.319Z</time>
      </trkpt>
      <trkpt lat="43.98664" lon="4.44173">
        <ele>101.23894</ele>
        <time>2025-02-05T14:29:14.315Z</time>
      </trkpt>
      <trkpt lat="43.98669" lon="4.4416">
        <ele>101.298494</ele>
        <time>2025-02-05T14:29:17.301Z</time>
      </trkpt>
      <trkpt lat="43.98675" lon="4.44147">
        <ele>101.356506</ele>
        <time>2025-02-05T14:29:20.301Z</time>
      </trkpt>
      <trkpt lat="43.9868" lon="4.44134">
        <ele>101.415098</ele>
        <time>2025-02-05T14:29:23.306Z</time>
      </trkpt>
      <trkpt lat="43.98685" lon="4.44121">
        <ele>101.474699</ele>
        <time>2025-02-05T14:29:26.290Z</time>
      </trkpt>
      <trkpt lat="43.9869" lon="4.44109">
        <ele>101.53072</ele>
        <time>2025-02-05T14:29:29.300Z</time>
      </trkpt>
      <trkpt lat="43.98696" lon="4.44097">
        <ele>101.58572</ele>
        <time>2025-02-05T14:29:32.304Z</time>
      </trkpt>
      <trkpt lat="43.987" lon="4.44084">
        <ele>101.644862</ele>
        <time>2025-02-05T14:29:35.309Z</time>
      </trkpt>
      <trkpt lat="43.98706" lon="4.44071">
        <ele>101.703729</ele>
        <time>2025-02-05T14:29:38.298Z</time>
      </trkpt>
      <trkpt lat="43.98711" lon="4.44059">
        <ele>101.761341</ele>
        <time>2025-02-05T14:29:41.330Z</time>
      </trkpt>
      <trkpt lat="43.98716" lon="4.44046">
        <ele>101.820986</ele>
        <time>2025-02-05T14:29:44.303Z</time>
      </trkpt>
      <trkpt lat="43.98722" lon="4.44033">
        <ele>101.878034</ele>
        <time>2025-02-05T14:29:47.301Z</time>
      </trkpt>
      <trkpt lat="43.98727" lon="4.44021">
        <ele>101.925794</ele>
        <time>2025-02-05T14:29:50.300Z</time>
      </trkpt>
      <trkpt lat="43.98732" lon="4.44008">
        <ele>101.926429</ele>
        <time>2025-02-05T14:29:53.286Z</time>
      </trkpt>
      <trkpt lat="43.98738" lon="4.43995">
        <ele>101.927044</ele>
        <time>2025-02-05T14:29:56.291Z</time>
      </trkpt>
      <trkpt lat="43.98743" lon="4.43982">
        <ele>101.927657</ele>
        <time>2025-02-05T14:29:59.284Z</time>
      </trkpt>
      <trkpt lat="43.98748" lon="4.43969">
        <ele>101.928266</ele>
        <time>2025-02-05T14:30:02.315Z</time>
      </trkpt>
      <trkpt lat="43.98753" lon="4.43957">
        <ele>101.928876</ele>
        <time>2025-02-05T14:30:05.302Z</time>
      </trkpt>
      <trkpt lat="43.98758" lon="4.43943">
        <ele>101.929501</ele>
        <time>2025-02-05T14:30:08.324Z</time>
      </trkpt>
      <trkpt lat="43.98764" lon="4.43931">
        <ele>101.930128</ele>
        <time>2025-02-05T14:30:11.300Z</time>
      </trkpt>
      <trkpt lat="43.98769" lon="4.43916">
        <ele>101.9308</ele>
        <time>2025-02-05T14:30:14.300Z</time>
      </trkpt>
      <trkpt lat="43.98774" lon="4.43902">
        <ele>101.931466</ele>
        <time>2025-02-05T14:30:17.294Z</time>
      </trkpt>
      <trkpt lat="43.9878" lon="4.43889">
        <ele>101.932122</ele>
        <time>2025-02-05T14:30:20.305Z</time>
      </trkpt>
      <trkpt lat="43.98786" lon="4.43876">
        <ele>101.932765</ele>
        <time>2025-02-05T14:30:23.324Z</time>
      </trkpt>
      <trkpt lat="43.9879" lon="4.43862">
        <ele>101.933408</ele>
        <time>2025-02-05T14:30:26.278Z</time>
      </trkpt>
      <trkpt lat="43.98797" lon="4.43849">
        <ele>101.934046</ele>
        <time>2025-02-05T14:30:29.301Z</time>
      </trkpt>
      <trkpt lat="43.98802" lon="4.43836">
        <ele>101.934685</ele>
        <time>2025-02-05T14:30:32.301Z</time>
      </trkpt>
      <trkpt lat="43.98807" lon="4.43821">
        <ele>101.935361</ele>
        <time>2025-02-05T14:30:35.304Z</time>
      </trkpt>
      <trkpt lat="43.98812" lon="4.43807">
        <ele>101.936009</ele>
        <time>2025-02-05T14:30:38.300Z</time>
      </trkpt>
      <trkpt lat="43.98818" lon="4.43794">
        <ele>101.855525</ele>
        <time>2025-02-05T14:30:41.308Z</time>
      </trkpt>
      <trkpt lat="43.98824" lon="4.43781">
        <ele>101.754947</ele>
        <time>2025-02-05T14:30:44.305Z</time>
      </trkpt>
      <trkpt lat="43.98829" lon="4.43767">
        <ele>101.652961</ele>
        <time>2025-02-05T14:30:47.279Z</time>
      </trkpt>
      <trkpt lat="43.98834" lon="4.43753">
        <ele>101.550686</ele>
        <time>2025-02-05T14:30:50.307Z</time>
      </trkpt>
      <trkpt lat="43.98841" lon="4.43739">
        <ele>101.446308</ele>
        <time>2025-02-05T14:30:53.296Z</time>
      </trkpt>
      <trkpt lat="43.98846" lon="4.43725">
        <ele>101.342586</ele>
        <time>2025-02-05T14:30:56.302Z</time>
      </trkpt>
      <trkpt lat="43.98852" lon="4.43711">
        <ele>101.236035</ele>
        <time>2025-02-05T14:30:59.305Z</time>
      </trkpt>
      <trkpt lat="43.98858" lon="4.43698">
        <ele>101.1318</ele>
        <time>2025-02-05T14:31:02.306Z</time>
      </trkpt>
      <trkpt lat="43.98864" lon="4.43684">
        <ele>101.02965</ele>
        <time>2025-02-05T14:31:05.317Z</time>
      </trkpt>
      <trkpt lat="43.9887" lon="4.4367">
        <ele>100.9251</ele>
        <time>2025-02-05T14:31:08.305Z</time>
      </trkpt>
      <trkpt lat="43.98875" lon="4.43656">
        <ele>100.821392</ele>
        <time>2025-02-05T14:31:11.303Z</time>
      </trkpt>
      <trkpt lat="43.9888" lon="4.43641">
        <ele>100.714702</ele>
        <time>2025-02-05T14:31:14.313Z</time>
      </trkpt>
      <trkpt lat="43.98887" lon="4.43627">
        <ele>100.604889</ele>
        <time>2025-02-05T14:31:17.307Z</time>
      </trkpt>
      <trkpt lat="43.98893" lon="4.43612">
        <ele>100.49452</ele>
        <time>2025-02-05T14:31:20.304Z</time>
      </trkpt>
      <trkpt lat="43.98899" lon="4.43598">
        <ele>100.38952</ele>
        <time>2025-02-05T14:31:23.314Z</time>
      </trkpt>
      <trkpt lat="43.98904" lon="4.43585">
        <ele>100.302752</ele>
        <time>2025-02-05T14:31:26.312Z</time>
      </trkpt>
      <trkpt lat="43.98911" lon="4.4357">
        <ele>100.25086</ele>
        <time>2025-02-05T14:31:29.290Z</time>
      </trkpt>
      <trkpt lat="43.98917" lon="4.43555">
        <ele>100.196887</ele>
        <time>2025-02-05T14:31:32.297Z</time>
      </trkpt>
      <trkpt lat="43.98922" lon="4.4354">
        <ele>100.146172</ele>
        <time>2025-02-05T14:31:35.317Z</time>
      </trkpt>
      <trkpt lat="43.98929" lon="4.43525">
        <ele>100.093099</ele>
        <time>2025-02-05T14:31:38.274Z</time>
      </trkpt>
      <trkpt lat="43.98934" lon="4.43511">
        <ele>100.042837</ele>
        <time>2025-02-05T14:31:41.276Z</time>
      </trkpt>
      <trkpt lat="43.9894" lon="4.43497">
        <ele>99.993929</ele>
        <time>2025-02-05T14:31:44.315Z</time>
      </trkpt>
      <trkpt lat="43.98945" lon="4.43483">
        <ele>99.944158</ele>
        <time>2025-02-05T14:31:47.294Z</time>
      </trkpt>
      <trkpt lat="43.9895" lon="4.43469">
        <ele>99.895566</ele>
        <time>2025-02-05T14:31:50.300Z</time>
      </trkpt>
      <trkpt lat="43.98956" lon="4.43456">
        <ele>99.849581</ele>
        <time>2025-02-05T14:31:53.305Z</time>
      </trkpt>
      <trkpt lat="43.98962" lon="4.43446">
        <ele>99.810902</ele>
        <time>2025-02-05T14:31:56.288Z</time>
      </trkpt>
      <trkpt lat="43.98968" lon="4.43434">
        <ele>99.766735</ele>
        <time>2025-02-05T14:31:59.285Z</time>
      </trkpt>
      <trkpt lat="43.98975" lon="4.4342">
        <ele>99.713815</ele>
        <time>2025-02-05T14:32:02.323Z</time>
      </trkpt>
      <trkpt lat="43.98981" lon="4.43406">
        <ele>99.662277</ele>
        <time>2025-02-05T14:32:05.317Z</time>
      </trkpt>
      <trkpt lat="43.98988" lon="4.43392">
        <ele>99.609827</ele>
        <time>2025-02-05T14:32:08.311Z</time>
      </trkpt>
      <trkpt lat="43.98994" lon="4.43378">
        <ele>99.558418</ele>
        <time>2025-02-05T14:32:11.279Z</time>
      </trkpt>
      <trkpt lat="43.99001" lon="4.43363">
        <ele>99.710373</ele>
        <time>2025-02-05T14:32:14.304Z</time>
      </trkpt>
      <trkpt lat="43.99006" lon="4.43348">
        <ele>99.908974</ele>
        <time>2025-02-05T14:32:17.308Z</time>
      </trkpt>
      <trkpt lat="43.99011" lon="4.43332">
        <ele>100.119543</ele>
        <time>2025-02-05T14:32:20.310Z</time>
      </trkpt>
      <trkpt lat="43.99017" lon="4.43317">
        <ele>100.328998</ele>
        <time>2025-02-05T14:32:23.306Z</time>
      </trkpt>
      <trkpt lat="43.99023" lon="4.43301">
        <ele>100.538933</ele>
        <time>2025-02-05T14:32:26.301Z</time>
      </trkpt>
      <trkpt lat="43.99028" lon="4.43286">
        <ele>100.73928</ele>
        <time>2025-02-05T14:32:29.296Z</time>
      </trkpt>
      <trkpt lat="43.99034" lon="4.43271">
        <ele>100.94498</ele>
        <time>2025-02-05T14:32:32.302Z</time>
      </trkpt>
      <trkpt lat="43.99039" lon="4.43255">
        <ele>101.156925</ele>
        <time>2025-02-05T14:32:35.292Z</time>
      </trkpt>
      <trkpt lat="43.99045" lon="4.4324">
        <ele>101.370832</ele>
        <time>2025-02-05T14:32:38.296Z</time>
      </trkpt>
      <trkpt lat="43.99051" lon="4.43224">
        <ele>101.583507</ele>
        <time>2025-02-05T14:32:41.305Z</time>
      </trkpt>
      <trkpt lat="43.99057" lon="4.43207">
        <ele>101.804472</ele>
        <time>2025-02-05T14:32:44.308Z</time>
      </trkpt>
      <trkpt lat="43.99062" lon="4.43192">
        <ele>102.014945</ele>
        <time>2025-02-05T14:32:47.295Z</time>
      </trkpt>
      <trkpt lat="43.99067" lon="4.43176">
        <ele>102.220727</ele>
        <time>2025-02-05T14:32:50.302Z</time>
      </trkpt>
      <trkpt lat="43.99073" lon="4.43161">
        <ele>102.42651</ele>
        <time>2025-02-05T14:32:53.296Z</time>
      </trkpt>
      <trkpt lat="43.99077" lon="4.43144">
        <ele>102.53007</ele>
        <time>2025-02-05T14:32:56.304Z</time>
      </trkpt>
      <trkpt lat="43.99081" lon="4.43128">
        <ele>102.465445</ele>
        <time>2025-02-05T14:32:59.293Z</time>
      </trkpt>
      <trkpt lat="43.99085" lon="4.43111">
        <ele>102.400585</ele>
        <time>2025-02-05T14:33:02.293Z</time>
      </trkpt>
      <trkpt lat="43.99089" lon="4.43095">
        <ele>102.337283</ele>
        <time>2025-02-05T14:33:05.279Z</time>
      </trkpt>
      <trkpt lat="43.99093" lon="4.43079">
        <ele>102.272072</ele>
        <time>2025-02-05T14:33:08.329Z</time>
      </trkpt>
      <trkpt lat="43.99097" lon="4.43065">
        <ele>102.214589</ele>
        <time>2025-02-05T14:33:11.300Z</time>
      </trkpt>
      <trkpt lat="43.99101" lon="4.4305">
        <ele>102.157106</ele>
        <time>2025-02-05T14:33:14.292Z</time>
      </trkpt>
      <trkpt lat="43.99106" lon="4.43036">
        <ele>102.099382</ele>
        <time>2025-02-05T14:33:17.279Z</time>
      </trkpt>
      <trkpt lat="43.99108" lon="4.4302">
        <ele>102.037224</ele>
        <time>2025-02-05T14:33:20.290Z</time>
      </trkpt>
      <trkpt lat="43.9911" lon="4.43004">
        <ele>101.976431</ele>
        <time>2025-02-05T14:33:23.297Z</time>
      </trkpt>
      <trkpt lat="43.99113" lon="4.42987">
        <ele>101.91237</ele>
        <time>2025-02-05T14:33:26.297Z</time>
      </trkpt>
      <trkpt lat="43.99116" lon="4.4297">
        <ele>101.846451</ele>
        <time>2025-02-05T14:33:29.281Z</time>
      </trkpt>
      <trkpt lat="43.99119" lon="4.42955">
        <ele>101.785895</ele>
        <time>2025-02-05T14:33:32.307Z</time>
      </trkpt>
      <trkpt lat="43.99123" lon="4.42939">
        <ele>101.725599</ele>
        <time>2025-02-05T14:33:35.297Z</time>
      </trkpt>
      <trkpt lat="43.99128" lon="4.42927">
        <ele>101.672907</ele>
        <time>2025-02-05T14:33:38.294Z</time>
      </trkpt>
      <trkpt lat="43.99135" lon="4.42917">
        <ele>101.621315</ele>
        <time>2025-02-05T14:33:43.284Z</time>
      </trkpt>
      <trkpt lat="43.99137" lon="4.42904">
        <ele>101.635743</ele>
        <time>2025-02-05T14:33:47.288Z</time>
      </trkpt>
      <trkpt lat="43.99139" lon="4.42887">
        <ele>101.653433</ele>
        <time>2025-02-05T14:33:51.295Z</time>
      </trkpt>
      <trkpt lat="43.99141" lon="4.42872">
        <ele>101.669846</ele>
        <time>2025-02-05T14:33:55.298Z</time>
      </trkpt>
      <trkpt lat="43.99143" lon="4.42859">
        <ele>101.683245</ele>
        <time>2025-02-05T14:33:58.306Z</time>
      </trkpt>
      <trkpt lat="43.99145" lon="4.42846">
        <ele>101.697252</ele>
        <time>2025-02-05T14:34:01.302Z</time>
      </trkpt>
      <trkpt lat="43.99147" lon="4.42832">
        <ele>101.712143</ele>
        <time>2025-02-05T14:34:04.313Z</time>
      </trkpt>
      <trkpt lat="43.99149" lon="4.42817">
        <ele>101.728741</ele>
        <time>2025-02-05T14:34:07.292Z</time>
      </trkpt>
      <trkpt lat="43.99152" lon="4.42801">
        <ele>101.745197</ele>
        <time>2025-02-05T14:34:10.289Z</time>
      </trkpt>
      <trkpt lat="43.99154" lon="4.42787">
        <ele>101.760373</ele>
        <time>2025-02-05T14:34:13.297Z</time>
      </trkpt>
      <trkpt lat="43.99157" lon="4.42774">
        <ele>101.774991</ele>
        <time>2025-02-05T14:34:16.299Z</time>
      </trkpt>
      <trkpt lat="43.99158" lon="4.42759">
        <ele>101.790449</ele>
        <time>2025-02-05T14:34:19.292Z</time>
      </trkpt>
      <trkpt lat="43.9916" lon="4.42743">
        <ele>101.807425</ele>
        <time>2025-02-05T14:34:22.274Z</time>
      </trkpt>
      <trkpt lat="43.99161" lon="4.42727">
        <ele>101.824401</ele>
        <time>2025-02-05T14:34:25.298Z</time>
      </trkpt>
      <trkpt lat="43.99163" lon="4.42711">
        <ele>101.841157</ele>
        <time>2025-02-05T14:34:28.306Z</time>
      </trkpt>
      <trkpt lat="43.99164" lon="4.42697">
        <ele>101.856439</ele>
        <time>2025-02-05T14:34:31.311Z</time>
      </trkpt>
      <trkpt lat="43.99166" lon="4.42682">
        <ele>101.872054</ele>
        <time>2025-02-05T14:34:34.289Z</time>
      </trkpt>
      <trkpt lat="43.99167" lon="4.42667">
        <ele>101.909651</ele>
        <time>2025-02-05T14:34:37.289Z</time>
      </trkpt>
      <trkpt lat="43.99168" lon="4.42652">
        <ele>102.00255</ele>
        <time>2025-02-05T14:34:40.311Z</time>
      </trkpt>
      <trkpt lat="43.9917" lon="4.42638">
        <ele>102.092255</ele>
        <time>2025-02-05T14:34:43.292Z</time>
      </trkpt>
      <trkpt lat="43.99171" lon="4.42624">
        <ele>102.182492</ele>
        <time>2025-02-05T14:34:46.290Z</time>
      </trkpt>
      <trkpt lat="43.99172" lon="4.4261">
        <ele>102.270039</ele>
        <time>2025-02-05T14:34:49.304Z</time>
      </trkpt>
      <trkpt lat="43.99173" lon="4.42596">
        <ele>102.357586</ele>
        <time>2025-02-05T14:34:52.282Z</time>
      </trkpt>
      <trkpt lat="43.99175" lon="4.42581">
        <ele>102.453683</ele>
        <time>2025-02-05T14:34:55.297Z</time>
      </trkpt>
      <trkpt lat="43.99176" lon="4.42565">
        <ele>102.553788</ele>
        <time>2025-02-05T14:34:58.286Z</time>
      </trkpt>
      <trkpt lat="43.99177" lon="4.4255">
        <ele>102.643589</ele>
        <time>2025-02-05T14:35:01.291Z</time>
      </trkpt>
      <trkpt lat="43.99177" lon="4.42535">
        <ele>102.739787</ele>
        <time>2025-02-05T14:35:04.300Z</time>
      </trkpt>
      <trkpt lat="43.99177" lon="4.42518">
        <ele>102.845204</ele>
        <time>2025-02-05T14:35:07.311Z</time>
      </trkpt>
      <trkpt lat="43.99179" lon="4.42503">
        <ele>102.937813</ele>
        <time>2025-02-05T14:35:10.300Z</time>
      </trkpt>
      <trkpt lat="43.9918" lon="4.42488">
        <ele>103.03124</ele>
        <time>2025-02-05T14:35:13.301Z</time>
      </trkpt>
      <trkpt lat="43.99181" lon="4.42474">
        <ele>103.121949</ele>
        <time>2025-02-05T14:35:16.301Z</time>
      </trkpt>
      <trkpt lat="43.99182" lon="4.4246">
        <ele>103.212585</ele>
        <time>2025-02-05T14:35:19.302Z</time>
      </trkpt>
      <trkpt lat="43.99183" lon="4.42445">
        <ele>103.30353</ele>
        <time>2025-02-05T14:35:22.308Z</time>
      </trkpt>
      <trkpt lat="43.99185" lon="4.4243">
        <ele>103.39519</ele>
        <time>2025-02-05T14:35:25.303Z</time>
      </trkpt>
      <trkpt lat="43.99186" lon="4.42416">
        <ele>103.487361</ele>
        <time>2025-02-05T14:35:28.320Z</time>
      </trkpt>
      <trkpt lat="43.99186" lon="4.424">
        <ele>103.578382</ele>
        <time>2025-02-05T14:35:31.310Z</time>
      </trkpt>
      <trkpt lat="43.99187" lon="4.42388">
        <ele>103.656494</ele>
        <time>2025-02-05T14:35:34.307Z</time>
      </trkpt>
      <trkpt lat="43.99188" lon="4.42371">
        <ele>103.756444</ele>
        <time>2025-02-05T14:35:38.305Z</time>
      </trkpt>
      <trkpt lat="43.99189" lon="4.42358">
        <ele>103.834137</ele>
        <time>2025-02-05T14:35:41.309Z</time>
      </trkpt>
      <trkpt lat="43.9919" lon="4.42345">
        <ele>103.917129</ele>
        <time>2025-02-05T14:35:44.299Z</time>
      </trkpt>
      <trkpt lat="43.99191" lon="4.42331">
        <ele>103.997815</ele>
        <time>2025-02-05T14:35:47.300Z</time>
      </trkpt>
      <trkpt lat="43.99193" lon="4.42318">
        <ele>104.07657</ele>
        <time>2025-02-05T14:35:50.273Z</time>
      </trkpt>
      <trkpt lat="43.99194" lon="4.42305">
        <ele>104.154964</ele>
        <time>2025-02-05T14:35:53.307Z</time>
      </trkpt>
      <trkpt lat="43.99194" lon="4.42293">
        <ele>104.232331</ele>
        <time>2025-02-05T14:35:56.299Z</time>
      </trkpt>
      <trkpt lat="43.99195" lon="4.4228">
        <ele>104.309697</ele>
        <time>2025-02-05T14:35:59.294Z</time>
      </trkpt>
      <trkpt lat="43.99197" lon="4.42267">
        <ele>104.388324</ele>
        <time>2025-02-05T14:36:02.297Z</time>
      </trkpt>
      <trkpt lat="43.99197" lon="4.42254">
        <ele>104.467635</ele>
        <time>2025-02-05T14:36:05.293Z</time>
      </trkpt>
      <trkpt lat="43.99199" lon="4.42241">
        <ele>104.544474</ele>
        <time>2025-02-05T14:36:08.302Z</time>
      </trkpt>
      <trkpt lat="43.992" lon="4.42229">
        <ele>104.620873</ele>
        <time>2025-02-05T14:36:11.306Z</time>
      </trkpt>
      <trkpt lat="43.99201" lon="4.42216">
        <ele>104.697369</ele>
        <time>2025-02-05T14:36:14.296Z</time>
      </trkpt>
      <trkpt lat="43.99202" lon="4.42203">
        <ele>104.773681</ele>
        <time>2025-02-05T14:36:17.323Z</time>
      </trkpt>
      <trkpt lat="43.99203" lon="4.42191">
        <ele>104.849393</ele>
        <time>2025-02-05T14:36:20.308Z</time>
      </trkpt>
      <trkpt lat="43.99204" lon="4.42174">
        <ele>104.951906</ele>
        <time>2025-02-05T14:36:24.303Z</time>
      </trkpt>
      <trkpt lat="43.99205" lon="4.42161">
        <ele>105.016363</ele>
        <time>2025-02-05T14:36:27.313Z</time>
      </trkpt>
      <trkpt lat="43.99205" lon="4.42149">
        <ele>105.080414</ele>
        <time>2025-02-05T14:36:30.301Z</time>
      </trkpt>
      <trkpt lat="43.99206" lon="4.42135">
        <ele>105.148976</ele>
        <time>2025-02-05T14:36:33.306Z</time>
      </trkpt>
      <trkpt lat="43.99207" lon="4.42121">
        <ele>105.22194</ele>
        <time>2025-02-05T14:36:36.309Z</time>
      </trkpt>
      <trkpt lat="43.99206" lon="4.42108">
        <ele>105.289542</ele>
        <time>2025-02-05T14:36:39.306Z</time>
      </trkpt>
      <trkpt lat="43.99206" lon="4.42095">
        <ele>105.354053</ele>
        <time>2025-02-05T14:36:42.301Z</time>
      </trkpt>
      <trkpt lat="43.99206" lon="4.42082">
        <ele>105.420167</ele>
        <time>2025-02-05T14:36:45.272Z</time>
      </trkpt>
      <trkpt lat="43.99204" lon="4.42069">
        <ele>105.484412</ele>
        <time>2025-02-05T14:36:48.303Z</time>
      </trkpt>
      <trkpt lat="43.99204" lon="4.42057">
        <ele>105.549431</ele>
        <time>2025-02-05T14:36:51.295Z</time>
      </trkpt>
      <trkpt lat="43.99203" lon="4.42041">
        <ele>105.631126</ele>
        <time>2025-02-05T14:36:55.306Z</time>
      </trkpt>
      <trkpt lat="43.99201" lon="4.42025">
        <ele>105.711724</ele>
        <time>2025-02-05T14:36:59.328Z</time>
      </trkpt>
      <trkpt lat="43.99199" lon="4.4201">
        <ele>105.788572</ele>
        <time>2025-02-05T14:37:03.306Z</time>
      </trkpt>
      <trkpt lat="43.99196" lon="4.41996">
        <ele>105.864419</ele>
        <time>2025-02-05T14:37:07.311Z</time>
      </trkpt>
      <trkpt lat="43.99196" lon="4.41982">
        <ele>105.937044</ele>
        <time>2025-02-05T14:37:12.304Z</time>
      </trkpt>
      <trkpt lat="43.99206" lon="4.4198">
        <ele>106.005566</ele>
        <time>2025-02-05T14:37:17.292Z</time>
      </trkpt>
      <trkpt lat="43.99216" lon="4.41983">
        <ele>106.0772</ele>
        <time>2025-02-05T14:37:21.296Z</time>
      </trkpt>
      <trkpt lat="43.99225" lon="4.41993">
        <ele>106.160824</ele>
        <time>2025-02-05T14:37:25.277Z</time>
      </trkpt>
      <trkpt lat="43.99232" lon="4.42002">
        <ele>106.211425</ele>
        <time>2025-02-05T14:37:29.295Z</time>
      </trkpt>
      <trkpt lat="43.99235" lon="4.42014">
        <ele>106.15724</ele>
        <time>2025-02-05T14:37:33.286Z</time>
      </trkpt>
      <trkpt lat="43.99245" lon="4.4202">
        <ele>106.096831</ele>
        <time>2025-02-05T14:37:37.289Z</time>
      </trkpt>
      <trkpt lat="43.99252" lon="4.42029">
        <ele>106.04232</ele>
        <time>2025-02-05T14:37:41.280Z</time>
      </trkpt>
      <trkpt lat="43.99259" lon="4.42038">
        <ele>105.988325</ele>
        <time>2025-02-05T14:37:45.313Z</time>
      </trkpt>
      <trkpt lat="43.99266" lon="4.42046">
        <ele>105.935381</ele>
        <time>2025-02-05T14:37:49.293Z</time>
      </trkpt>
      <trkpt lat="43.9927" lon="4.42059">
        <ele>105.877529</ele>
        <time>2025-02-05T14:37:53.295Z</time>
      </trkpt>
      <trkpt lat="43.99274" lon="4.4207">
        <ele>105.825863</ele>
        <time>2025-02-05T14:37:57.315Z</time>
      </trkpt>
      <trkpt lat="43.9928" lon="4.4208">
        <ele>105.772721</ele>
        <time>2025-02-05T14:38:10.285Z</time>
      </trkpt>
      <trkpt lat="43.99289" lon="4.42073">
        <ele>105.714691</ele>
        <time>2025-02-05T14:38:14.301Z</time>
      </trkpt>
      <trkpt lat="43.99294" lon="4.4206">
        <ele>105.655518</ele>
        <time>2025-02-05T14:38:18.311Z</time>
      </trkpt>
      <trkpt lat="43.99303" lon="4.42052">
        <ele>105.589709</ele>
        <time>2025-02-05T14:38:22.304Z</time>
      </trkpt>
      <trkpt lat="43.99314" lon="4.42045">
        <ele>105.522453</ele>
        <time>2025-02-05T14:38:25.279Z</time>
      </trkpt>
      <trkpt lat="43.99324" lon="4.42039">
        <ele>105.460746</ele>
        <time>2025-02-05T14:38:28.285Z</time>
      </trkpt>
      <trkpt lat="43.99334" lon="4.42036">
        <ele>105.402999</ele>
        <time>2025-02-05T14:38:31.292Z</time>
      </trkpt>
      <trkpt lat="43.99345" lon="4.42034">
        <ele>105.340667</ele>
        <time>2025-02-05T14:38:35.310Z</time>
      </trkpt>
      <trkpt lat="43.99354" lon="4.42033">
        <ele>105.287104</ele>
        <time>2025-02-05T14:38:41.285Z</time>
      </trkpt>
      <trkpt lat="43.99362" lon="4.42024">
        <ele>105.226425</ele>
        <time>2025-02-05T14:38:46.288Z</time>
      </trkpt>
      <trkpt lat="43.99373" lon="4.42022">
        <ele>105.167418</ele>
        <time>2025-02-05T14:38:50.308Z</time>
      </trkpt>
      <trkpt lat="43.99382" lon="4.42024">
        <ele>105.11965</ele>
        <time>2025-02-05T14:38:53.303Z</time>
      </trkpt>
      <trkpt lat="43.9939" lon="4.42029">
        <ele>105.071449</ele>
        <time>2025-02-05T14:38:56.292Z</time>
      </trkpt>
      <trkpt lat="43.994" lon="4.42034">
        <ele>105.018042</ele>
        <time>2025-02-05T14:38:59.304Z</time>
      </trkpt>
      <trkpt lat="43.99409" lon="4.4204">
        <ele>104.965757</ele>
        <time>2025-02-05T14:39:02.277Z</time>
      </trkpt>
      <trkpt lat="43.99418" lon="4.42045">
        <ele>104.910107</ele>
        <time>2025-02-05T14:39:05.295Z</time>
      </trkpt>
      <trkpt lat="43.99428" lon="4.42052">
        <ele>104.855573</ele>
        <time>2025-02-05T14:39:08.291Z</time>
      </trkpt>
      <trkpt lat="43.99437" lon="4.4206">
        <ele>104.796965</ele>
        <time>2025-02-05T14:39:11.312Z</time>
      </trkpt>
      <trkpt lat="43.99445" lon="4.4207">
        <ele>104.737875</ele>
        <time>2025-02-05T14:39:14.306Z</time>
      </trkpt>
      <trkpt lat="43.99453" lon="4.42082">
        <ele>104.677501</ele>
        <time>2025-02-05T14:39:17.299Z</time>
      </trkpt>
      <trkpt lat="43.99459" lon="4.42096">
        <ele>104.615451</ele>
        <time>2025-02-05T14:39:20.316Z</time>
      </trkpt>
      <trkpt lat="43.99465" lon="4.42109">
        <ele>104.55621</ele>
        <time>2025-02-05T14:39:23.317Z</time>
      </trkpt>
      <trkpt lat="43.9947" lon="4.42123">
        <ele>104.498149</ele>
        <time>2025-02-05T14:39:26.311Z</time>
      </trkpt>
      <trkpt lat="43.99474" lon="4.42138">
        <ele>104.438047</ele>
        <time>2025-02-05T14:39:29.288Z</time>
      </trkpt>
      <trkpt lat="43.9948" lon="4.42152">
        <ele>104.375566</ele>
        <time>2025-02-05T14:39:32.300Z</time>
      </trkpt>
      <trkpt lat="43.99486" lon="4.42166">
        <ele>104.313434</ele>
        <time>2025-02-05T14:39:35.302Z</time>
      </trkpt>
      <trkpt lat="43.99492" lon="4.4218">
        <ele>104.250288</ele>
        <time>2025-02-05T14:39:38.305Z</time>
      </trkpt>
      <trkpt lat="43.99497" lon="4.42191">
        <ele>104.281192</ele>
        <time>2025-02-05T14:39:41.294Z</time>
      </trkpt>
      <trkpt lat="43.99508" lon="4.42193">
        <ele>104.342837</ele>
        <time>2025-02-05T14:39:45.299Z</time>
      </trkpt>
      <trkpt lat="43.99518" lon="4.42189">
        <ele>104.397347</ele>
        <time>2025-02-05T14:39:48.283Z</time>
      </trkpt>
      <trkpt lat="43.99528" lon="4.42186">
        <ele>104.453654</ele>
        <time>2025-02-05T14:39:51.296Z</time>
      </trkpt>
      <trkpt lat="43.99537" lon="4.42183">
        <ele>104.506205</ele>
        <time>2025-02-05T14:39:54.318Z</time>
      </trkpt>
      <trkpt lat="43.99546" lon="4.42181">
        <ele>104.557905</ele>
        <time>2025-02-05T14:39:57.310Z</time>
      </trkpt>
      <trkpt lat="43.99557" lon="4.42178">
        <ele>104.621561</ele>
        <time>2025-02-05T14:40:01.303Z</time>
      </trkpt>
      <trkpt lat="43.99568" lon="4.42176">
        <ele>104.681932</ele>
        <time>2025-02-05T14:40:05.310Z</time>
      </trkpt>
      <trkpt lat="43.99579" lon="4.42174">
        <ele>104.745281</ele>
        <time>2025-02-05T14:40:09.296Z</time>
      </trkpt>
      <trkpt lat="43.99589" lon="4.42171">
        <ele>104.7963</ele>
        <time>2025-02-05T14:40:12.309Z</time>
      </trkpt>
      <trkpt lat="43.99598" lon="4.42169">
        <ele>104.848</ele>
        <time>2025-02-05T14:40:15.296Z</time>
      </trkpt>
      <trkpt lat="43.99609" lon="4.42165">
        <ele>104.914834</ele>
        <time>2025-02-05T14:40:19.289Z</time>
      </trkpt>
      <trkpt lat="43.9962" lon="4.42157">
        <ele>104.979635</ele>
        <time>2025-02-05T14:40:23.286Z</time>
      </trkpt>
      <trkpt lat="43.99628" lon="4.4215">
        <ele>105.031642</ele>
        <time>2025-02-05T14:40:26.295Z</time>
      </trkpt>
      <trkpt lat="43.99636" lon="4.42143">
        <ele>105.083924</ele>
        <time>2025-02-05T14:40:29.285Z</time>
      </trkpt>
      <trkpt lat="43.99644" lon="4.42137">
        <ele>105.136472</ele>
        <time>2025-02-05T14:40:32.290Z</time>
      </trkpt>
      <trkpt lat="43.99653" lon="4.42127">
        <ele>105.198656</ele>
        <time>2025-02-05T14:40:36.290Z</time>
      </trkpt>
      <trkpt lat="43.99661" lon="4.42116">
        <ele>105.401534</ele>
        <time>2025-02-05T14:40:40.321Z</time>
      </trkpt>
      <trkpt lat="43.99668" lon="4.42107">
        <ele>105.707009</ele>
        <time>2025-02-05T14:40:43.298Z</time>
      </trkpt>
      <trkpt lat="43.99673" lon="4.42097">
        <ele>106.021318</ele>
        <time>2025-02-05T14:40:46.302Z</time>
      </trkpt>
      <trkpt lat="43.99678" lon="4.42083">
        <ele>106.394751</ele>
        <time>2025-02-05T14:40:50.296Z</time>
      </trkpt>
      <trkpt lat="43.99682" lon="4.42071">
        <ele>106.710373</ele>
        <time>2025-02-05T14:40:53.305Z</time>
      </trkpt>
      <trkpt lat="43.99686" lon="4.42059">
        <ele>107.027</ele>
        <time>2025-02-05T14:40:56.300Z</time>
      </trkpt>
      <trkpt lat="43.9969" lon="4.42047">
        <ele>107.341199</ele>
        <time>2025-02-05T14:40:59.283Z</time>
      </trkpt>
      <trkpt lat="43.99694" lon="4.42035">
        <ele>107.659801</ele>
        <time>2025-02-05T14:41:02.312Z</time>
      </trkpt>
      <trkpt lat="43.99698" lon="4.42022">
        <ele>108.005287</ele>
        <time>2025-02-05T14:41:05.307Z</time>
      </trkpt>
      <trkpt lat="43.99704" lon="4.4201">
        <ele>108.332993</ele>
        <time>2025-02-05T14:41:08.315Z</time>
      </trkpt>
      <trkpt lat="43.99712" lon="4.41998">
        <ele>108.731919</ele>
        <time>2025-02-05T14:41:12.297Z</time>
      </trkpt>
      <trkpt lat="43.9972" lon="4.41987">
        <ele>109.117599</ele>
        <time>2025-02-05T14:41:16.292Z</time>
      </trkpt>
      <trkpt lat="43.99727" lon="4.41977">
        <ele>109.46142</ele>
        <time>2025-02-05T14:41:20.295Z</time>
      </trkpt>
      <trkpt lat="43.99734" lon="4.41966">
        <ele>109.806848</ele>
        <time>2025-02-05T14:41:24.277Z</time>
      </trkpt>
      <trkpt lat="43.99737" lon="4.41953">
        <ele>110.129421</ele>
        <time>2025-02-05T14:41:28.296Z</time>
      </trkpt>
      <trkpt lat="43.99744" lon="4.41943">
        <ele>110.461823</ele>
        <time>2025-02-05T14:41:33.276Z</time>
      </trkpt>
      <trkpt lat="43.99754" lon="4.41938">
        <ele>110.802862</ele>
        <time>2025-02-05T14:41:38.292Z</time>
      </trkpt>
      <trkpt lat="43.99763" lon="4.41931">
        <ele>111.151646</ele>
        <time>2025-02-05T14:41:43.294Z</time>
      </trkpt>
      <trkpt lat="43.99772" lon="4.41927">
        <ele>112.003555</ele>
        <time>2025-02-05T14:41:52.312Z</time>
      </trkpt>
      <trkpt lat="43.99783" lon="4.41924">
        <ele>113.120644</ele>
        <time>2025-02-05T14:42:05.281Z</time>
      </trkpt>
      <trkpt lat="43.99792" lon="4.4192">
        <ele>114.168498</ele>
        <time>2025-02-05T14:42:14.312Z</time>
      </trkpt>
      <trkpt lat="43.99802" lon="4.41921">
        <ele>115.190908</ele>
        <time>2025-02-05T14:42:24.296Z</time>
      </trkpt>
      <trkpt lat="43.99811" lon="4.41931">
        <ele>116.424144</ele>
        <time>2025-02-05T14:42:36.295Z</time>
      </trkpt>
      <trkpt lat="43.99819" lon="4.41938">
        <ele>117.450696</ele>
        <time>2025-02-05T14:42:46.297Z</time>
      </trkpt>
      <trkpt lat="43.99829" lon="4.4194">
        <ele>118.440213</ele>
        <time>2025-02-05T14:42:55.291Z</time>
      </trkpt>
      <trkpt lat="43.99838" lon="4.41939">
        <ele>119.46066</ele>
        <time>2025-02-05T14:43:04.284Z</time>
      </trkpt>
      <trkpt lat="43.99848" lon="4.41937">
        <ele>120.487468</ele>
        <time>2025-02-05T14:43:13.272Z</time>
      </trkpt>
      <trkpt lat="43.99857" lon="4.41938">
        <ele>121.474706</ele>
        <time>2025-02-05T14:43:22.297Z</time>
      </trkpt>
      <trkpt lat="43.99867" lon="4.41937">
        <ele>122.561157</ele>
        <time>2025-02-05T14:43:33.277Z</time>
      </trkpt>
      <trkpt lat="43.99876" lon="4.41936">
        <ele>123.516643</ele>
        <time>2025-02-05T14:43:41.289Z</time>
      </trkpt>
      <trkpt lat="43.99886" lon="4.41935">
        <ele>124.59114</ele>
        <time>2025-02-05T14:43:51.285Z</time>
      </trkpt>
      <trkpt lat="43.99898" lon="4.41934">
        <ele>125.779898</ele>
        <time>2025-02-05T14:44:02.293Z</time>
      </trkpt>
      <trkpt lat="43.99907" lon="4.41933">
        <ele>126.780485</ele>
        <time>2025-02-05T14:44:11.292Z</time>
      </trkpt>
      <trkpt lat="43.99918" lon="4.41933">
        <ele>127.989094</ele>
        <time>2025-02-05T14:44:22.291Z</time>
      </trkpt>
      <trkpt lat="43.99928" lon="4.41933">
        <ele>128.953688</ele>
        <time>2025-02-05T14:44:31.291Z</time>
      </trkpt>
      <trkpt lat="43.99937" lon="4.41934">
        <ele>129.995276</ele>
        <time>2025-02-05T14:44:40.289Z</time>
      </trkpt>
      <trkpt lat="43.99947" lon="4.41937">
        <ele>130.600554</ele>
        <time>2025-02-05T14:44:49.296Z</time>
      </trkpt>
      <trkpt lat="43.99956" lon="4.41938">
        <ele>131.046367</ele>
        <time>2025-02-05T14:44:56.293Z</time>
      </trkpt>
      <trkpt lat="43.99966" lon="4.4194">
        <ele>131.483151</ele>
        <time>2025-02-05T14:45:01.308Z</time>
      </trkpt>
      <trkpt lat="43.99975" lon="4.41942">
        <ele>131.924449</ele>
        <time>2025-02-05T14:45:06.303Z</time>
      </trkpt>
      <trkpt lat="43.99986" lon="4.41944">
        <ele>132.393273</ele>
        <time>2025-02-05T14:45:12.301Z</time>
      </trkpt>
      <trkpt lat="43.99995" lon="4.41943">
        <ele>132.827059</ele>
        <time>2025-02-05T14:45:18.292Z</time>
      </trkpt>
      <trkpt lat="44.00005" lon="4.41945">
        <ele>133.280383</ele>
        <time>2025-02-05T14:45:24.290Z</time>
      </trkpt>
      <trkpt lat="44.00015" lon="4.41948">
        <ele>133.735515</ele>
        <time>2025-02-05T14:45:30.304Z</time>
      </trkpt>
      <trkpt lat="44.00025" lon="4.41951">
        <ele>134.218735</ele>
        <time>2025-02-05T14:45:36.295Z</time>
      </trkpt>
      <trkpt lat="44.00034" lon="4.41952">
        <ele>134.634342</ele>
        <time>2025-02-05T14:45:41.272Z</time>
      </trkpt>
      <trkpt lat="44.00043" lon="4.41953">
        <ele>135.06049</ele>
        <time>2025-02-05T14:45:46.271Z</time>
      </trkpt>
      <trkpt lat="44.00053" lon="4.41955">
        <ele>135.505483</ele>
        <time>2025-02-05T14:45:52.303Z</time>
      </trkpt>
      <trkpt lat="44.00063" lon="4.41957">
        <ele>135.968959</ele>
        <time>2025-02-05T14:45:58.308Z</time>
      </trkpt>
      <trkpt lat="44.00073" lon="4.4196">
        <ele>136.427558</ele>
        <time>2025-02-05T14:46:04.282Z</time>
      </trkpt>
      <trkpt lat="44.00084" lon="4.41962">
        <ele>136.918564</ele>
        <time>2025-02-05T14:46:10.288Z</time>
      </trkpt>
      <trkpt lat="44.00094" lon="4.41965">
        <ele>137.40757</ele>
        <time>2025-02-05T14:46:16.276Z</time>
      </trkpt>
      <trkpt lat="44.00103" lon="4.41966">
        <ele>137.821342</ele>
        <time>2025-02-05T14:46:21.286Z</time>
      </trkpt>
      <trkpt lat="44.00113" lon="4.41967">
        <ele>138.255363</ele>
        <time>2025-02-05T14:46:26.310Z</time>
      </trkpt>
      <trkpt lat="44.00122" lon="4.4197">
        <ele>138.712472</ele>
        <time>2025-02-05T14:46:31.285Z</time>
      </trkpt>
      <trkpt lat="44.00132" lon="4.41972">
        <ele>139.295849</ele>
        <time>2025-02-05T14:46:37.284Z</time>
      </trkpt>
      <trkpt lat="44.00141" lon="4.41973">
        <ele>139.807249</ele>
        <time>2025-02-05T14:46:42.281Z</time>
      </trkpt>
      <trkpt lat="44.0015" lon="4.41975">
        <ele>140.30868</ele>
        <time>2025-02-05T14:46:47.285Z</time>
      </trkpt>
      <trkpt lat="44.00159" lon="4.41977">
        <ele>140.836047</ele>
        <time>2025-02-05T14:46:52.302Z</time>
      </trkpt>
      <trkpt lat="44.0017" lon="4.41979">
        <ele>141.401951</ele>
        <time>2025-02-05T14:46:58.293Z</time>
      </trkpt>
      <trkpt lat="44.00183" lon="4.41982">
        <ele>142.180701</ele>
        <time>2025-02-05T14:48:31.307Z</time>
      </trkpt>
      <trkpt lat="44.00195" lon="4.41983">
        <ele>142.806428</ele>
        <time>2025-02-05T14:48:36.305Z</time>
      </trkpt>
      <trkpt lat="44.00205" lon="4.41983">
        <ele>143.392061</ele>
        <time>2025-02-05T14:48:41.297Z</time>
      </trkpt>
      <trkpt lat="44.00216" lon="4.41985">
        <ele>143.982944</ele>
        <time>2025-02-05T14:48:46.295Z</time>
      </trkpt>
      <trkpt lat="44.00226" lon="4.41986">
        <ele>144.558898</ele>
        <time>2025-02-05T14:48:51.305Z</time>
      </trkpt>
      <trkpt lat="44.00236" lon="4.41988">
        <ele>145.155304</ele>
        <time>2025-02-05T14:48:56.294Z</time>
      </trkpt>
      <trkpt lat="44.00247" lon="4.4199">
        <ele>145.7336</ele>
        <time>2025-02-05T14:49:01.288Z</time>
      </trkpt>
      <trkpt lat="44.00256" lon="4.41991">
        <ele>146.277745</ele>
        <time>2025-02-05T14:49:06.303Z</time>
      </trkpt>
      <trkpt lat="44.00266" lon="4.41993">
        <ele>146.792932</ele>
        <time>2025-02-05T14:49:11.301Z</time>
      </trkpt>
      <trkpt lat="44.00276" lon="4.41994">
        <ele>147.370336</ele>
        <time>2025-02-05T14:49:16.272Z</time>
      </trkpt>
      <trkpt lat="44.00285" lon="4.41996">
        <ele>147.899931</ele>
        <time>2025-02-05T14:49:21.305Z</time>
      </trkpt>
      <trkpt lat="44.00295" lon="4.41999">
        <ele>148.446008</ele>
        <time>2025-02-05T14:49:26.285Z</time>
      </trkpt>
      <trkpt lat="44.00305" lon="4.42001">
        <ele>148.850607</ele>
        <time>2025-02-05T14:49:31.302Z</time>
      </trkpt>
      <trkpt lat="44.00316" lon="4.42003">
        <ele>149.232201</ele>
        <time>2025-02-05T14:49:36.279Z</time>
      </trkpt>
      <trkpt lat="44.00326" lon="4.42004">
        <ele>149.611401</ele>
        <time>2025-02-05T14:49:41.334Z</time>
      </trkpt>
      <trkpt lat="44.00336" lon="4.42007">
        <ele>149.98311</ele>
        <time>2025-02-05T14:49:46.295Z</time>
      </trkpt>
      <trkpt lat="44.00347" lon="4.42009">
        <ele>150.354819</ele>
        <time>2025-02-05T14:49:51.282Z</time>
      </trkpt>
      <trkpt lat="44.00357" lon="4.4201">
        <ele>150.712779</ele>
        <time>2025-02-05T14:49:56.276Z</time>
      </trkpt>
      <trkpt lat="44.00367" lon="4.42012">
        <ele>151.084083</ele>
        <time>2025-02-05T14:50:01.310Z</time>
      </trkpt>
      <trkpt lat="44.00376" lon="4.42014">
        <ele>151.432895</ele>
        <time>2025-02-05T14:50:06.290Z</time>
      </trkpt>
      <trkpt lat="44.00386" lon="4.42016">
        <ele>151.765814</ele>
        <time>2025-02-05T14:50:11.287Z</time>
      </trkpt>
      <trkpt lat="44.00395" lon="4.42017">
        <ele>152.116121</ele>
        <time>2025-02-05T14:50:16.286Z</time>
      </trkpt>
      <trkpt lat="44.00405" lon="4.42019">
        <ele>152.481161</ele>
        <time>2025-02-05T14:50:22.294Z</time>
      </trkpt>
      <trkpt lat="44.00415" lon="4.4202">
        <ele>152.823247</ele>
        <time>2025-02-05T14:50:27.285Z</time>
      </trkpt>
      <trkpt lat="44.00425" lon="4.42021">
        <ele>153.180954</ele>
        <time>2025-02-05T14:50:32.285Z</time>
      </trkpt>
      <trkpt lat="44.00434" lon="4.42022">
        <ele>153.534844</ele>
        <time>2025-02-05T14:50:37.286Z</time>
      </trkpt>
      <trkpt lat="44.00444" lon="4.42024">
        <ele>153.886867</ele>
        <time>2025-02-05T14:50:42.276Z</time>
      </trkpt>
      <trkpt lat="44.00454" lon="4.42026">
        <ele>154.244827</ele>
        <time>2025-02-05T14:50:47.291Z</time>
      </trkpt>
      <trkpt lat="44.00464" lon="4.42026">
        <ele>154.605002</ele>
        <time>2025-02-05T14:50:52.304Z</time>
      </trkpt>
      <trkpt lat="44.00474" lon="4.42026">
        <ele>154.96877</ele>
        <time>2025-02-05T14:50:57.296Z</time>
      </trkpt>
      <trkpt lat="44.00483" lon="4.42029">
        <ele>155.19634</ele>
        <time>2025-02-05T14:51:02.310Z</time>
      </trkpt>
      <trkpt lat="44.00493" lon="4.42031">
        <ele>155.420766</ele>
        <time>2025-02-05T14:51:07.306Z</time>
      </trkpt>
      <trkpt lat="44.00503" lon="4.42032">
        <ele>155.645822</ele>
        <time>2025-02-05T14:51:12.297Z</time>
      </trkpt>
      <trkpt lat="44.00513" lon="4.42032">
        <ele>155.878144</ele>
        <time>2025-02-05T14:51:17.282Z</time>
      </trkpt>
      <trkpt lat="44.00523" lon="4.42032">
        <ele>156.12149</ele>
        <time>2025-02-05T14:51:22.295Z</time>
      </trkpt>
      <trkpt lat="44.00533" lon="4.42032">
        <ele>156.33957</ele>
        <time>2025-02-05T14:51:27.300Z</time>
      </trkpt>
      <trkpt lat="44.00543" lon="4.42033">
        <ele>156.578325</ele>
        <time>2025-02-05T14:51:32.306Z</time>
      </trkpt>
      <trkpt lat="44.00552" lon="4.42033">
        <ele>156.789537</ele>
        <time>2025-02-05T14:51:36.309Z</time>
      </trkpt>
      <trkpt lat="44.00562" lon="4.42033">
        <ele>157.00075</ele>
        <time>2025-02-05T14:51:40.292Z</time>
      </trkpt>
      <trkpt lat="44.00571" lon="4.42032">
        <ele>157.209667</ele>
        <time>2025-02-05T14:51:44.305Z</time>
      </trkpt>
      <trkpt lat="44.0058" lon="4.42031">
        <ele>157.422115</ele>
        <time>2025-02-05T14:51:48.290Z</time>
      </trkpt>
      <trkpt lat="44.00591" lon="4.4203">
        <ele>157.673108</ele>
        <time>2025-02-05T14:51:53.317Z</time>
      </trkpt>
      <trkpt lat="44.00601" lon="4.42028">
        <ele>157.913122</ele>
        <time>2025-02-05T14:51:58.273Z</time>
      </trkpt>
      <trkpt lat="44.0061" lon="4.42027">
        <ele>158.123288</ele>
        <time>2025-02-05T14:52:03.285Z</time>
      </trkpt>
      <trkpt lat="44.0062" lon="4.42026">
        <ele>158.344157</ele>
        <time>2025-02-05T14:52:08.290Z</time>
      </trkpt>
      <trkpt lat="44.0063" lon="4.42025">
        <ele>158.57888</ele>
        <time>2025-02-05T14:52:13.287Z</time>
      </trkpt>
      <trkpt lat="44.0064" lon="4.42025">
        <ele>158.796978</ele>
        <time>2025-02-05T14:52:18.287Z</time>
      </trkpt>
      <trkpt lat="44.0065" lon="4.42026">
        <ele>159.027689</ele>
        <time>2025-02-05T14:52:23.278Z</time>
      </trkpt>
      <trkpt lat="44.0066" lon="4.42028">
        <ele>159.291819</ele>
        <time>2025-02-05T14:52:28.294Z</time>
      </trkpt>
      <trkpt lat="44.00669" lon="4.42031">
        <ele>159.568347</ele>
        <time>2025-02-05T14:52:33.302Z</time>
      </trkpt>
      <trkpt lat="44.00678" lon="4.42031">
        <ele>159.844865</ele>
        <time>2025-02-05T14:52:38.313Z</time>
      </trkpt>
      <trkpt lat="44.00689" lon="4.42029">
        <ele>160.144687</ele>
        <time>2025-02-05T14:52:43.290Z</time>
      </trkpt>
      <trkpt lat="44.00699" lon="4.42023">
        <ele>160.465442</ele>
        <time>2025-02-05T14:52:48.287Z</time>
      </trkpt>
      <trkpt lat="44.00709" lon="4.42019">
        <ele>160.776156</ele>
        <time>2025-02-05T14:52:53.295Z</time>
      </trkpt>
      <trkpt lat="44.00718" lon="4.42013">
        <ele>161.066845</ele>
        <time>2025-02-05T14:52:58.291Z</time>
      </trkpt>
      <trkpt lat="44.00727" lon="4.42007">
        <ele>161.348535</ele>
        <time>2025-02-05T14:53:03.309Z</time>
      </trkpt>
      <trkpt lat="44.00735" lon="4.42">
        <ele>161.628941</ele>
        <time>2025-02-05T14:53:08.299Z</time>
      </trkpt>
      <trkpt lat="44.00744" lon="4.41994">
        <ele>161.924829</ele>
        <time>2025-02-05T14:53:14.278Z</time>
      </trkpt>
      <trkpt lat="44.00753" lon="4.4199">
        <ele>162.194963</ele>
        <time>2025-02-05T14:53:19.294Z</time>
      </trkpt>
      <trkpt lat="44.00763" lon="4.41984">
        <ele>162.52305</ele>
        <time>2025-02-05T14:53:45.285Z</time>
      </trkpt>
      <trkpt lat="44.00772" lon="4.41981">
        <ele>162.788338</ele>
        <time>2025-02-05T14:53:51.291Z</time>
      </trkpt>
      <trkpt lat="44.00782" lon="4.41978">
        <ele>163.094131</ele>
        <time>2025-02-05T14:53:57.281Z</time>
      </trkpt>
      <trkpt lat="44.00793" lon="4.41974">
        <ele>163.411729</ele>
        <time>2025-02-05T14:54:03.277Z</time>
      </trkpt>
      <trkpt lat="44.00803" lon="4.4197">
        <ele>163.703178</ele>
        <time>2025-02-05T14:54:08.299Z</time>
      </trkpt>
      <trkpt lat="44.00813" lon="4.41967">
        <ele>164.010025</ele>
        <time>2025-02-05T14:54:13.296Z</time>
      </trkpt>
      <trkpt lat="44.00824" lon="4.41968">
        <ele>164.334081</ele>
        <time>2025-02-05T14:54:18.298Z</time>
      </trkpt>
      <trkpt lat="44.00834" lon="4.41968">
        <ele>164.33345</ele>
        <time>2025-02-05T14:54:22.280Z</time>
      </trkpt>
      <trkpt lat="44.00845" lon="4.41968">
        <ele>164.294667</ele>
        <time>2025-02-05T14:54:26.280Z</time>
      </trkpt>
      <trkpt lat="44.00855" lon="4.41967">
        <ele>164.261088</ele>
        <time>2025-02-05T14:54:29.271Z</time>
      </trkpt>
      <trkpt lat="44.00865" lon="4.41967">
        <ele>164.224389</ele>
        <time>2025-02-05T14:54:32.278Z</time>
      </trkpt>
      <trkpt lat="44.00876" lon="4.41967">
        <ele>164.183818</ele>
        <time>2025-02-05T14:54:35.288Z</time>
      </trkpt>
      <trkpt lat="44.00888" lon="4.41965">
        <ele>164.1437</ele>
        <time>2025-02-05T14:54:38.302Z</time>
      </trkpt>
      <trkpt lat="44.00898" lon="4.41964">
        <ele>164.106939</ele>
        <time>2025-02-05T14:54:41.296Z</time>
      </trkpt>
      <trkpt lat="44.00908" lon="4.41963">
        <ele>164.070984</ele>
        <time>2025-02-05T14:54:44.304Z</time>
      </trkpt>
      <trkpt lat="44.00918" lon="4.41962">
        <ele>164.035629</ele>
        <time>2025-02-05T14:54:47.295Z</time>
      </trkpt>
      <trkpt lat="44.00929" lon="4.41961">
        <ele>163.999589</ele>
        <time>2025-02-05T14:54:50.302Z</time>
      </trkpt>
      <trkpt lat="44.00939" lon="4.41962">
        <ele>163.964335</ele>
        <time>2025-02-05T14:54:53.305Z</time>
      </trkpt>
      <trkpt lat="44.0095" lon="4.41963">
        <ele>163.92402</ele>
        <time>2025-02-05T14:54:57.282Z</time>
      </trkpt>
      <trkpt lat="44.00961" lon="4.41963">
        <ele>163.886638</ele>
        <time>2025-02-05T14:55:01.284Z</time>
      </trkpt>
      <trkpt lat="44.0097" lon="4.41964">
        <ele>163.851712</ele>
        <time>2025-02-05T14:55:04.307Z</time>
      </trkpt>
      <trkpt lat="44.00982" lon="4.41966">
        <ele>163.810923</ele>
        <time>2025-02-05T14:55:08.310Z</time>
      </trkpt>
      <trkpt lat="44.00993" lon="4.41965">
        <ele>163.772422</ele>
        <time>2025-02-05T14:55:12.274Z</time>
      </trkpt>
      <trkpt lat="44.01003" lon="4.41964">
        <ele>163.737168</ele>
        <time>2025-02-05T14:55:16.294Z</time>
      </trkpt>
      <trkpt lat="44.01012" lon="4.41966">
        <ele>163.744901</ele>
        <time>2025-02-05T14:55:20.285Z</time>
      </trkpt>
      <trkpt lat="44.01022" lon="4.41971">
        <ele>163.763516</ele>
        <time>2025-02-05T14:55:26.306Z</time>
      </trkpt>
      <trkpt lat="44.01032" lon="4.41977">
        <ele>163.782546</ele>
        <time>2025-02-05T14:55:31.290Z</time>
      </trkpt>
      <trkpt lat="44.01042" lon="4.41984">
        <ele>163.802788</ele>
        <time>2025-02-05T14:55:36.287Z</time>
      </trkpt>
      <trkpt lat="44.0105" lon="4.41991">
        <ele>163.819884</ele>
        <time>2025-02-05T14:55:40.295Z</time>
      </trkpt>
      <trkpt lat="44.01058" lon="4.41997">
        <ele>163.83696</ele>
        <time>2025-02-05T14:55:44.269Z</time>
      </trkpt>
      <trkpt lat="44.01065" lon="4.42005">
        <ele>163.853248</ele>
        <time>2025-02-05T14:55:51.304Z</time>
      </trkpt>
      <trkpt lat="44.01072" lon="4.42018">
        <ele>163.873084</ele>
        <time>2025-02-05T14:56:08.298Z</time>
      </trkpt>
      <trkpt lat="44.01078" lon="4.42032">
        <ele>163.895364</ele>
        <time>2025-02-05T14:56:12.301Z</time>
      </trkpt>
      <trkpt lat="44.01083" lon="4.42045">
        <ele>163.914621</ele>
        <time>2025-02-05T14:56:15.321Z</time>
      </trkpt>
      <trkpt lat="44.01089" lon="4.42058">
        <ele>163.934728</ele>
        <time>2025-02-05T14:56:18.296Z</time>
      </trkpt>
      <trkpt lat="44.01096" lon="4.42073">
        <ele>163.956775</ele>
        <time>2025-02-05T14:56:21.302Z</time>
      </trkpt>
      <trkpt lat="44.01103" lon="4.42087">
        <ele>163.979576</ele>
        <time>2025-02-05T14:56:24.306Z</time>
      </trkpt>
      <trkpt lat="44.01108" lon="4.42098">
        <ele>163.995856</ele>
        <time>2025-02-05T14:56:26.304Z</time>
      </trkpt>
      <trkpt lat="44.01114" lon="4.42109">
        <ele>164.014034</ele>
        <time>2025-02-05T14:56:28.311Z</time>
      </trkpt>
      <trkpt lat="44.01123" lon="4.42123">
        <ele>164.037307</ele>
        <time>2025-02-05T14:56:31.314Z</time>
      </trkpt>
      <trkpt lat="44.01128" lon="4.42132">
        <ele>164.053387</ele>
        <time>2025-02-05T14:56:33.300Z</time>
      </trkpt>
      <trkpt lat="44.01137" lon="4.42146">
        <ele>164.054327</ele>
        <time>2025-02-05T14:56:36.298Z</time>
      </trkpt>
      <trkpt lat="44.01145" lon="4.42159">
        <ele>164.054327</ele>
        <time>2025-02-05T14:56:39.309Z</time>
      </trkpt>
      <trkpt lat="44.01152" lon="4.4217">
        <ele>164.054327</ele>
        <time>2025-02-05T14:56:42.292Z</time>
      </trkpt>
      <trkpt lat="44.01158" lon="4.4218">
        <ele>164.054327</ele>
        <time>2025-02-05T14:56:45.285Z</time>
      </trkpt>
      <trkpt lat="44.01168" lon="4.42186">
        <ele>164.054327</ele>
        <time>2025-02-05T14:56:49.276Z</time>
      </trkpt>
      <trkpt lat="44.01179" lon="4.42183">
        <ele>164.054327</ele>
        <time>2025-02-05T14:56:53.297Z</time>
      </trkpt>
      <trkpt lat="44.0119" lon="4.42179">
        <ele>164.054327</ele>
        <time>2025-02-05T14:56:57.294Z</time>
      </trkpt>
      <trkpt lat="44.012" lon="4.42177">
        <ele>164.054327</ele>
        <time>2025-02-05T14:57:01.297Z</time>
      </trkpt>
      <trkpt lat="44.01209" lon="4.42176">
        <ele>164.054327</ele>
        <time>2025-02-05T14:57:05.299Z</time>
      </trkpt>
      <trkpt lat="44.01219" lon="4.42176">
        <ele>164.054327</ele>
        <time>2025-02-05T14:57:11.290Z</time>
      </trkpt>
      <trkpt lat="44.01229" lon="4.42176">
        <ele>164.054327</ele>
        <time>2025-02-05T14:57:22.285Z</time>
      </trkpt>
      <trkpt lat="44.01236" lon="4.42167">
        <ele>164.054327</ele>
        <time>2025-02-05T14:57:32.266Z</time>
      </trkpt>
    </trkseg>
  </trk>
</gpx>